<?xml version="1.0" encoding="ISO-8859-1" standalone="yes"?>
<gpx
 version="1.0"
 creator="OziExplorer Version 3954m - http://www.oziexplorer.com"
 xmlns:xsi="http://www.w3.org/2001/XMLSchema-instance"
 xmlns="http://www.topografix.com/GPX/1/0"
 xsi:schemaLocation="http://www.topografix.com/GPX/1/0 http://www.topografix.com/GPX/1/0/gpx.xsd">
<time>2011-05-16T12:51:55Z</time>
<bounds minlat="43.203382" minlon="-3.090257" maxlat="43.317651" maxlon="-2.921360"/>
<wpt lat="43.2567286" lon="-2.9348808">
 <ele>71.000000</ele>
 <time>2011-05-16T14:49:14.265Z</time>
 <name>01 Zabalburu</name>
 <cmt>15-MAY-11 6:30:48</cmt>
 <desc>15-MAY-11 6:30:48</desc>
</wpt>
<wpt lat="43.2340412" lon="-2.9348424">
 <ele>440.999969</ele>
 <time>2011-05-16T14:49:14.265Z</time>
 <name>02 Arnotegi</name>
 <cmt>15-MAY-11 7:11:17</cmt>
 <desc>15-MAY-11 7:11:17</desc>
</wpt>
<wpt lat="43.2118249" lon="-2.9253030">
 <ele>596.000000</ele>
 <time>2011-05-15T19:43:32.000Z</time>
 <name>03 Pastorekorta</name>
 <cmt>15-MAY-11 8:19:17</cmt>
 <desc>15-MAY-11 8:19:17</desc>
</wpt>
<wpt lat="43.2136500" lon="-2.9285862">
 <ele>492.000000</ele>
 <time>2011-05-16T14:49:14.265Z</time>
 <name>04 Col Pastorekorta</name>
 <cmt>15-MAY-11 8:31:33</cmt>
 <desc>15-MAY-11 8:31:33</desc>
</wpt>
<wpt lat="43.2175795" lon="-2.9444098">
 <ele>672.000000</ele>
 <time>2011-05-16T14:49:14.265Z</time>
 <name>05 Pagasarri</name>
 <cmt>15-MAY-11 8:49:01</cmt>
 <desc>15-MAY-11 8:49:01</desc>
</wpt>
<wpt lat="43.2214000" lon="-2.9477835">
 <ele>688.000000</ele>
 <time>2011-05-16T14:49:14.265Z</time>
 <name>06 Ganeta</name>
 <cmt>15-MAY-11 8:57:40</cmt>
 <desc>15-MAY-11 8:57:40</desc>
</wpt>
<wpt lat="43.2023431" lon="-2.9794627">
 <ele>999.000000</ele>
 <time>2011-05-16T14:49:14.265Z</time>
 <name>07 Ganeko</name>
 <cmt>15-MAY-11 9:51:28</cmt>
 <desc>15-MAY-11 9:51:28</desc>
</wpt>
<wpt lat="43.2139492" lon="-2.9927015">
 <ele>666.000000</ele>
 <time>2011-05-15T19:55:30.000Z</time>
 <name>08 Gongeda</name>
 <cmt>15-MAY-11 10:24:18</cmt>
 <desc>15-MAY-11 10:24:18</desc>
</wpt>
<wpt lat="43.2415480" lon="-2.9949692">
 <ele>38.000000</ele>
 <time>2011-05-16T14:49:14.281Z</time>
 <name>09 Alonsotegi</name>
 <cmt>15-MAY-11 11:22:00</cmt>
 <desc>15-MAY-11 11:22:00</desc>
</wpt>
<wpt lat="43.2461637" lon="-3.0220704">
 <ele>559.000000</ele>
 <time>2011-05-16T14:49:14.281Z</time>
 <name>10 Ganeroitz</name>
 <cmt>15-MAY-11 12:28:49</cmt>
 <desc>15-MAY-11 12:28:49</desc>
</wpt>
<wpt lat="43.2315961" lon="-3.0523420">
 <ele>892.000000</ele>
 <time>2011-05-16T14:49:14.281Z</time>
 <name>11 Eretza</name>
 <cmt>15-MAY-11 13:34:06</cmt>
 <desc>15-MAY-11 13:34:06</desc>
</wpt>
<wpt lat="43.2329706" lon="-3.0669348">
 <ele>625.999939</ele>
 <time>2011-05-16T14:49:14.281Z</time>
 <name>12 La Berenilla</name>
 <cmt>15-MAY-11 13:52:29</cmt>
 <desc>15-MAY-11 13:52:29</desc>
</wpt>
<wpt lat="43.2430772" lon="-3.0669086">
 <ele>719.000000</ele>
 <time>2011-05-16T14:49:14.281Z</time>
 <name>13 Aldape</name>
 <cmt>15-MAY-11 14:16:08</cmt>
 <desc>15-MAY-11 14:16:08</desc>
</wpt>
<wpt lat="43.2593321" lon="-3.0674859">
 <ele>825.000000</ele>
 <time>2011-05-16T14:49:14.281Z</time>
 <name>14 Ganeran</name>
 <cmt>15-MAY-11 14:50:15</cmt>
 <desc>15-MAY-11 14:50:15</desc>
</wpt>
<wpt lat="43.2763815" lon="-3.0798304">
 <ele>750.000000</ele>
 <time>2011-05-16T14:49:14.281Z</time>
 <name>15 Pico Mayor</name>
 <cmt>15-MAY-11 15:20:10</cmt>
 <desc>15-MAY-11 15:20:10</desc>
</wpt>
<wpt lat="43.2813110" lon="-3.0841935">
 <ele>725.000000</ele>
 <time>2011-05-16T14:49:14.281Z</time>
 <name>16 Alto Galdames</name>
 <cmt>15-MAY-11 15:29:03</cmt>
 <desc>15-MAY-11 15:29:03</desc>
</wpt>
<wpt lat="43.2771294" lon="-3.0371180">
 <ele>558.000000</ele>
 <time>2011-05-16T14:49:14.296Z</time>
 <name>17 Mendibil</name>
 <cmt>15-MAY-11 16:37:38</cmt>
 <desc>15-MAY-11 16:37:38</desc>
</wpt>
<wpt lat="43.2735838" lon="-3.0242736">
 <ele>518.000000</ele>
 <time>2011-05-16T14:49:14.296Z</time>
 <name>18 Argalario</name>
 <cmt>15-MAY-11 16:55:40</cmt>
 <desc>15-MAY-11 16:55:40</desc>
</wpt>
<wpt lat="43.3160794" lon="-3.0271773">
 <ele>62.000000</ele>
 <time>2011-05-16T14:49:14.296Z</time>
 <name>19 Portugalete</name>
 <cmt>15-MAY-11 18:21:42</cmt>
 <desc>15-MAY-11 18:21:42</desc>
</wpt>
<trk>
 <desc>319 08 MLR 2011 Romaña Ganerantz 2</desc>
<trkseg>
<trkpt lat="43.2570988" lon="-2.9345577">
<ele>66.468262</ele>
<time>2011-05-15T04:23:18.000Z</time>
</trkpt>
<trkpt lat="43.2570815" lon="-2.9345331">
<ele>69.352295</ele>
<time>2011-05-15T04:25:30.000Z</time>
</trkpt>
<trkpt lat="43.2572494" lon="-2.9346439">
<ele>70.313477</ele>
<time>2011-05-15T04:27:14.000Z</time>
</trkpt>
<trkpt lat="43.2571343" lon="-2.9343762">
<ele>70.794189</ele>
<time>2011-05-15T04:28:00.000Z</time>
</trkpt>
<trkpt lat="43.2568789" lon="-2.9342514">
<ele>70.313477</ele>
<time>2011-05-15T04:28:45.000Z</time>
</trkpt>
<trkpt lat="43.2569931" lon="-2.9337400">
<ele>68.871582</ele>
<time>2011-05-15T04:30:54.000Z</time>
</trkpt>
<trkpt lat="43.2569842" lon="-2.9336935">
<ele>68.871582</ele>
<time>2011-05-15T04:30:57.000Z</time>
</trkpt>
<trkpt lat="43.2568898" lon="-2.9335461">
<ele>69.832886</ele>
<time>2011-05-15T04:31:07.000Z</time>
</trkpt>
<trkpt lat="43.2567675" lon="-2.9333896">
<ele>70.313477</ele>
<time>2011-05-15T04:31:20.000Z</time>
</trkpt>
<trkpt lat="43.2564862" lon="-2.9333386">
<ele>71.274902</ele>
<time>2011-05-15T04:31:34.000Z</time>
</trkpt>
<trkpt lat="43.2564464" lon="-2.9333053">
<ele>71.755493</ele>
<time>2011-05-15T04:31:37.000Z</time>
</trkpt>
<trkpt lat="43.2563548" lon="-2.9332832">
<ele>71.755493</ele>
<time>2011-05-15T04:31:43.000Z</time>
</trkpt>
<trkpt lat="43.2561265" lon="-2.9331909">
<ele>74.158813</ele>
<time>2011-05-15T04:31:58.000Z</time>
</trkpt>
<trkpt lat="43.2560109" lon="-2.9332365">
<ele>75.120239</ele>
<time>2011-05-15T04:32:04.000Z</time>
</trkpt>
<trkpt lat="43.2556731" lon="-2.9331697">
<ele>75.120239</ele>
<time>2011-05-15T04:32:21.000Z</time>
</trkpt>
<trkpt lat="43.2554763" lon="-2.9331842">
<ele>76.562134</ele>
<time>2011-05-15T04:32:36.000Z</time>
</trkpt>
<trkpt lat="43.2554478" lon="-2.9331646">
<ele>76.562134</ele>
<time>2011-05-15T04:32:38.000Z</time>
</trkpt>
<trkpt lat="43.2553893" lon="-2.9331691">
<ele>76.562134</ele>
<time>2011-05-15T04:32:43.000Z</time>
</trkpt>
<trkpt lat="43.2550844" lon="-2.9333355">
<ele>78.484741</ele>
<time>2011-05-15T04:33:01.000Z</time>
</trkpt>
<trkpt lat="43.2550892" lon="-2.9333586">
<ele>78.484741</ele>
<time>2011-05-15T04:33:02.000Z</time>
</trkpt>
<trkpt lat="43.2549920" lon="-2.9336598">
<ele>80.407471</ele>
<time>2011-05-15T04:33:20.000Z</time>
</trkpt>
<trkpt lat="43.2548267" lon="-2.9338011">
<ele>80.888176</ele>
<time>2011-05-15T04:33:34.000Z</time>
</trkpt>
<trkpt lat="43.2548022" lon="-2.9338015">
<ele>81.368774</ele>
<time>2011-05-15T04:33:36.000Z</time>
</trkpt>
<trkpt lat="43.2547427" lon="-2.9338683">
<ele>83.771973</ele>
<time>2011-05-15T04:33:42.000Z</time>
</trkpt>
<trkpt lat="43.2547416" lon="-2.9338819">
<ele>83.291382</ele>
<time>2011-05-15T04:33:43.000Z</time>
</trkpt>
<trkpt lat="43.2547359" lon="-2.9339109">
<ele>82.330078</ele>
<time>2011-05-15T04:33:45.000Z</time>
</trkpt>
<trkpt lat="43.2547367" lon="-2.9339271">
<ele>83.771973</ele>
<time>2011-05-15T04:33:46.000Z</time>
</trkpt>
<trkpt lat="43.2546835" lon="-2.9339974">
<ele>83.771973</ele>
<time>2011-05-15T04:33:51.000Z</time>
</trkpt>
<trkpt lat="43.2546158" lon="-2.9340382">
<ele>82.810783</ele>
<time>2011-05-15T04:33:55.000Z</time>
</trkpt>
<trkpt lat="43.2544827" lon="-2.9340511">
<ele>84.733398</ele>
<time>2011-05-15T04:34:01.000Z</time>
</trkpt>
<trkpt lat="43.2543869" lon="-2.9340526">
<ele>85.694580</ele>
<time>2011-05-15T04:34:06.000Z</time>
</trkpt>
<trkpt lat="43.2543614" lon="-2.9340420">
<ele>85.694580</ele>
<time>2011-05-15T04:34:09.000Z</time>
</trkpt>
<trkpt lat="43.2541728" lon="-2.9340467">
<ele>87.617195</ele>
<time>2011-05-15T04:34:17.000Z</time>
</trkpt>
<trkpt lat="43.2540092" lon="-2.9340320">
<ele>86.656006</ele>
<time>2011-05-15T04:34:23.000Z</time>
</trkpt>
<trkpt lat="43.2539518" lon="-2.9342428">
<ele>89.539917</ele>
<time>2011-05-15T04:34:33.000Z</time>
</trkpt>
<trkpt lat="43.2540092" lon="-2.9344469">
<ele>90.501343</ele>
<time>2011-05-15T04:34:46.000Z</time>
</trkpt>
<trkpt lat="43.2539886" lon="-2.9345329">
<ele>91.462532</ele>
<time>2011-05-15T04:34:54.000Z</time>
</trkpt>
<trkpt lat="43.2539310" lon="-2.9346499">
<ele>91.943237</ele>
<time>2011-05-15T04:35:05.000Z</time>
</trkpt>
<trkpt lat="43.2538879" lon="-2.9346826">
<ele>91.943237</ele>
<time>2011-05-15T04:35:09.000Z</time>
</trkpt>
<trkpt lat="43.2538724" lon="-2.9347246">
<ele>93.385124</ele>
<time>2011-05-15T04:35:11.000Z</time>
</trkpt>
<trkpt lat="43.2538369" lon="-2.9347610">
<ele>93.385124</ele>
<time>2011-05-15T04:35:15.000Z</time>
</trkpt>
<trkpt lat="43.2537166" lon="-2.9347335">
<ele>95.307739</ele>
<time>2011-05-15T04:35:23.000Z</time>
</trkpt>
<trkpt lat="43.2535204" lon="-2.9346497">
<ele>95.307739</ele>
<time>2011-05-15T04:35:30.000Z</time>
</trkpt>
<trkpt lat="43.2535166" lon="-2.9346808">
<ele>96.269287</ele>
<time>2011-05-15T04:35:34.000Z</time>
</trkpt>
<trkpt lat="43.2534826" lon="-2.9348879">
<ele>97.711182</ele>
<time>2011-05-15T04:35:47.000Z</time>
</trkpt>
<trkpt lat="43.2534798" lon="-2.9349414">
<ele>98.191895</ele>
<time>2011-05-15T04:35:50.000Z</time>
</trkpt>
<trkpt lat="43.2534528" lon="-2.9349738">
<ele>98.191895</ele>
<time>2011-05-15T04:35:54.000Z</time>
</trkpt>
<trkpt lat="43.2533688" lon="-2.9349944">
<ele>99.153076</ele>
<time>2011-05-15T04:36:00.000Z</time>
</trkpt>
<trkpt lat="43.2533053" lon="-2.9351807">
<ele>101.075684</ele>
<time>2011-05-15T04:36:10.000Z</time>
</trkpt>
<trkpt lat="43.2532859" lon="-2.9352193">
<ele>101.075684</ele>
<time>2011-05-15T04:36:14.000Z</time>
</trkpt>
<trkpt lat="43.2532518" lon="-2.9353239">
<ele>102.517693</ele>
<time>2011-05-15T04:36:20.000Z</time>
</trkpt>
<trkpt lat="43.2532092" lon="-2.9354423">
<ele>102.998291</ele>
<time>2011-05-15T04:36:25.000Z</time>
</trkpt>
<trkpt lat="43.2531281" lon="-2.9355930">
<ele>104.440422</ele>
<time>2011-05-15T04:36:34.000Z</time>
</trkpt>
<trkpt lat="43.2530948" lon="-2.9356808">
<ele>104.921021</ele>
<time>2011-05-15T04:36:41.000Z</time>
</trkpt>
<trkpt lat="43.2530059" lon="-2.9356380">
<ele>106.363037</ele>
<time>2011-05-15T04:36:46.000Z</time>
</trkpt>
<trkpt lat="43.2528992" lon="-2.9356224">
<ele>107.324341</ele>
<time>2011-05-15T04:36:52.000Z</time>
</trkpt>
<trkpt lat="43.2527317" lon="-2.9356003">
<ele>108.766235</ele>
<time>2011-05-15T04:37:05.000Z</time>
</trkpt>
<trkpt lat="43.2526469" lon="-2.9355592">
<ele>109.246948</ele>
<time>2011-05-15T04:37:10.000Z</time>
</trkpt>
<trkpt lat="43.2520926" lon="-2.9351219">
<ele>110.688843</ele>
<time>2011-05-15T04:37:19.000Z</time>
</trkpt>
<trkpt lat="43.2517381" lon="-2.9348279">
<ele>113.092285</ele>
<time>2011-05-15T04:37:30.000Z</time>
</trkpt>
<trkpt lat="43.2515550" lon="-2.9347250">
<ele>113.092285</ele>
<time>2011-05-15T04:37:42.000Z</time>
</trkpt>
<trkpt lat="43.2513420" lon="-2.9346388">
<ele>115.976196</ele>
<time>2011-05-15T04:37:53.000Z</time>
</trkpt>
<trkpt lat="43.2510688" lon="-2.9345792">
<ele>115.014893</ele>
<time>2011-05-15T04:38:02.000Z</time>
</trkpt>
<trkpt lat="43.2507084" lon="-2.9343103">
<ele>115.976196</ele>
<time>2011-05-15T04:38:13.000Z</time>
</trkpt>
<trkpt lat="43.2504899" lon="-2.9339937">
<ele>118.860100</ele>
<time>2011-05-15T04:38:28.000Z</time>
</trkpt>
<trkpt lat="43.2503651" lon="-2.9339643">
<ele>119.340820</ele>
<time>2011-05-15T04:38:37.000Z</time>
</trkpt>
<trkpt lat="43.2500511" lon="-2.9338001">
<ele>121.263550</ele>
<time>2011-05-15T04:38:57.000Z</time>
</trkpt>
<trkpt lat="43.2499066" lon="-2.9337289">
<ele>120.782845</ele>
<time>2011-05-15T04:39:05.000Z</time>
</trkpt>
<trkpt lat="43.2496275" lon="-2.9335948">
<ele>122.705437</ele>
<time>2011-05-15T04:39:23.000Z</time>
</trkpt>
<trkpt lat="43.2494248" lon="-2.9335020">
<ele>123.666748</ele>
<time>2011-05-15T04:39:36.000Z</time>
</trkpt>
<trkpt lat="43.2491978" lon="-2.9334207">
<ele>125.589355</ele>
<time>2011-05-15T04:39:49.000Z</time>
</trkpt>
<trkpt lat="43.2490664" lon="-2.9333514">
<ele>125.589355</ele>
<time>2011-05-15T04:40:01.000Z</time>
</trkpt>
<trkpt lat="43.2489004" lon="-2.9332959">
<ele>126.550659</ele>
<time>2011-05-15T04:40:12.000Z</time>
</trkpt>
<trkpt lat="43.2487794" lon="-2.9332390">
<ele>128.473389</ele>
<time>2011-05-15T04:40:22.000Z</time>
</trkpt>
<trkpt lat="43.2485841" lon="-2.9331351">
<ele>129.434692</ele>
<time>2011-05-15T04:40:34.000Z</time>
</trkpt>
<trkpt lat="43.2484081" lon="-2.9330660">
<ele>129.915283</ele>
<time>2011-05-15T04:40:46.000Z</time>
</trkpt>
<trkpt lat="43.2483613" lon="-2.9330465">
<ele>130.876709</ele>
<time>2011-05-15T04:40:49.000Z</time>
</trkpt>
<trkpt lat="43.2482545" lon="-2.9329945">
<ele>131.357300</ele>
<time>2011-05-15T04:40:56.000Z</time>
</trkpt>
<trkpt lat="43.2480911" lon="-2.9329198">
<ele>131.837891</ele>
<time>2011-05-15T04:41:08.000Z</time>
</trkpt>
<trkpt lat="43.2479246" lon="-2.9328624">
<ele>132.799316</ele>
<time>2011-05-15T04:41:18.000Z</time>
</trkpt>
<trkpt lat="43.2478501" lon="-2.9328060">
<ele>132.318604</ele>
<time>2011-05-15T04:41:24.000Z</time>
</trkpt>
<trkpt lat="43.2477925" lon="-2.9327727">
<ele>133.279907</ele>
<time>2011-05-15T04:41:28.000Z</time>
</trkpt>
<trkpt lat="43.2477372" lon="-2.9327473">
<ele>133.279907</ele>
<time>2011-05-15T04:41:32.000Z</time>
</trkpt>
<trkpt lat="43.2474979" lon="-2.9326616">
<ele>134.721924</ele>
<time>2011-05-15T04:41:46.000Z</time>
</trkpt>
<trkpt lat="43.2474036" lon="-2.9326119">
<ele>134.241211</ele>
<time>2011-05-15T04:41:53.000Z</time>
</trkpt>
<trkpt lat="43.2473420" lon="-2.9325874">
<ele>134.721924</ele>
<time>2011-05-15T04:41:57.000Z</time>
</trkpt>
<trkpt lat="43.2471701" lon="-2.9325512">
<ele>136.644653</ele>
<time>2011-05-15T04:42:09.000Z</time>
</trkpt>
<trkpt lat="43.2469385" lon="-2.9324667">
<ele>137.125244</ele>
<time>2011-05-15T04:42:23.000Z</time>
</trkpt>
<trkpt lat="43.2467945" lon="-2.9323774">
<ele>139.047852</ele>
<time>2011-05-15T04:42:36.000Z</time>
</trkpt>
<trkpt lat="43.2466504" lon="-2.9322831">
<ele>139.047852</ele>
<time>2011-05-15T04:42:47.000Z</time>
</trkpt>
<trkpt lat="43.2465352" lon="-2.9321875">
<ele>140.489868</ele>
<time>2011-05-15T04:42:56.000Z</time>
</trkpt>
<trkpt lat="43.2464883" lon="-2.9321336">
<ele>140.970459</ele>
<time>2011-05-15T04:43:01.000Z</time>
</trkpt>
<trkpt lat="43.2463606" lon="-2.9320186">
<ele>142.893066</ele>
<time>2011-05-15T04:43:12.000Z</time>
</trkpt>
<trkpt lat="43.2462961" lon="-2.9319447">
<ele>143.854370</ele>
<time>2011-05-15T04:43:18.000Z</time>
</trkpt>
<trkpt lat="43.2462422" lon="-2.9318818">
<ele>144.815796</ele>
<time>2011-05-15T04:43:23.000Z</time>
</trkpt>
<trkpt lat="43.2461833" lon="-2.9318233">
<ele>145.296387</ele>
<time>2011-05-15T04:43:28.000Z</time>
</trkpt>
<trkpt lat="43.2460655" lon="-2.9317160">
<ele>146.257813</ele>
<time>2011-05-15T04:43:38.000Z</time>
</trkpt>
<trkpt lat="43.2459963" lon="-2.9316529">
<ele>147.699707</ele>
<time>2011-05-15T04:43:44.000Z</time>
</trkpt>
<trkpt lat="43.2457791" lon="-2.9315021">
<ele>149.141602</ele>
<time>2011-05-15T04:44:00.000Z</time>
</trkpt>
<trkpt lat="43.2455189" lon="-2.9314337">
<ele>152.506348</ele>
<time>2011-05-15T04:44:18.000Z</time>
</trkpt>
<trkpt lat="43.2454082" lon="-2.9314526">
<ele>152.986938</ele>
<time>2011-05-15T04:44:26.000Z</time>
</trkpt>
<trkpt lat="43.2453388" lon="-2.9314772">
<ele>154.428955</ele>
<time>2011-05-15T04:44:31.000Z</time>
</trkpt>
<trkpt lat="43.2453156" lon="-2.9314943">
<ele>152.506348</ele>
<time>2011-05-15T04:44:33.000Z</time>
</trkpt>
<trkpt lat="43.2452593" lon="-2.9315244">
<ele>153.467651</ele>
<time>2011-05-15T04:44:37.000Z</time>
</trkpt>
<trkpt lat="43.2452186" lon="-2.9315555">
<ele>154.428955</ele>
<time>2011-05-15T04:44:40.000Z</time>
</trkpt>
<trkpt lat="43.2451560" lon="-2.9316069">
<ele>154.909546</ele>
<time>2011-05-15T04:44:45.000Z</time>
</trkpt>
<trkpt lat="43.2451179" lon="-2.9316385">
<ele>154.428955</ele>
<time>2011-05-15T04:44:48.000Z</time>
</trkpt>
<trkpt lat="43.2449309" lon="-2.9317990">
<ele>154.909546</ele>
<time>2011-05-15T04:45:03.000Z</time>
</trkpt>
<trkpt lat="43.2446719" lon="-2.9319390">
<ele>154.909546</ele>
<time>2011-05-15T04:45:22.000Z</time>
</trkpt>
<trkpt lat="43.2444183" lon="-2.9318933">
<ele>155.390259</ele>
<time>2011-05-15T04:45:39.000Z</time>
</trkpt>
<trkpt lat="43.2442707" lon="-2.9319631">
<ele>154.909546</ele>
<time>2011-05-15T04:45:50.000Z</time>
</trkpt>
<trkpt lat="43.2440707" lon="-2.9318358">
<ele>154.909546</ele>
<time>2011-05-15T04:46:06.000Z</time>
</trkpt>
<trkpt lat="43.2438221" lon="-2.9317773">
<ele>154.428955</ele>
<time>2011-05-15T04:46:23.000Z</time>
</trkpt>
<trkpt lat="43.2437791" lon="-2.9317889">
<ele>153.467651</ele>
<time>2011-05-15T04:46:26.000Z</time>
</trkpt>
<trkpt lat="43.2437356" lon="-2.9318042">
<ele>154.909546</ele>
<time>2011-05-15T04:46:29.000Z</time>
</trkpt>
<trkpt lat="43.2437040" lon="-2.9318128">
<ele>153.948364</ele>
<time>2011-05-15T04:46:31.000Z</time>
</trkpt>
<trkpt lat="43.2434952" lon="-2.9318718">
<ele>156.351547</ele>
<time>2011-05-15T04:46:45.000Z</time>
</trkpt>
<trkpt lat="43.2433611" lon="-2.9319392">
<ele>156.351547</ele>
<time>2011-05-15T04:46:55.000Z</time>
</trkpt>
<trkpt lat="43.2432911" lon="-2.9319576">
<ele>155.870972</ele>
<time>2011-05-15T04:46:59.000Z</time>
</trkpt>
<trkpt lat="43.2429740" lon="-2.9320731">
<ele>159.716187</ele>
<time>2011-05-15T04:47:20.000Z</time>
</trkpt>
<trkpt lat="43.2428359" lon="-2.9321112">
<ele>160.196899</ele>
<time>2011-05-15T04:47:29.000Z</time>
</trkpt>
<trkpt lat="43.2427617" lon="-2.9321467">
<ele>161.638916</ele>
<time>2011-05-15T04:47:34.000Z</time>
</trkpt>
<trkpt lat="43.2424676" lon="-2.9323182">
<ele>165.003418</ele>
<time>2011-05-15T04:47:56.000Z</time>
</trkpt>
<trkpt lat="43.2423172" lon="-2.9324646">
<ele>167.406723</ele>
<time>2011-05-15T04:48:09.000Z</time>
</trkpt>
<trkpt lat="43.2421938" lon="-2.9326546">
<ele>169.810059</ele>
<time>2011-05-15T04:48:22.000Z</time>
</trkpt>
<trkpt lat="43.2420767" lon="-2.9329265">
<ele>172.693954</ele>
<time>2011-05-15T04:48:38.000Z</time>
</trkpt>
<trkpt lat="43.2420640" lon="-2.9329626">
<ele>172.693954</ele>
<time>2011-05-15T04:48:40.000Z</time>
</trkpt>
<trkpt lat="43.2419706" lon="-2.9330847">
<ele>174.135864</ele>
<time>2011-05-15T04:48:49.000Z</time>
</trkpt>
<trkpt lat="43.2418952" lon="-2.9334898">
<ele>177.020020</ele>
<time>2011-05-15T04:49:11.000Z</time>
</trkpt>
<trkpt lat="43.2418843" lon="-2.9337156">
<ele>179.903809</ele>
<time>2011-05-15T04:49:23.000Z</time>
</trkpt>
<trkpt lat="43.2418920" lon="-2.9340938">
<ele>182.307129</ele>
<time>2011-05-15T04:49:43.000Z</time>
</trkpt>
<trkpt lat="43.2419151" lon="-2.9342642">
<ele>184.710571</ele>
<time>2011-05-15T04:49:52.000Z</time>
</trkpt>
<trkpt lat="43.2419613" lon="-2.9346015">
<ele>186.633179</ele>
<time>2011-05-15T04:50:11.000Z</time>
</trkpt>
<trkpt lat="43.2420235" lon="-2.9347967">
<ele>189.036362</ele>
<time>2011-05-15T04:50:22.000Z</time>
</trkpt>
<trkpt lat="43.2420674" lon="-2.9348982">
<ele>191.439575</ele>
<time>2011-05-15T04:50:28.000Z</time>
</trkpt>
<trkpt lat="43.2421935" lon="-2.9352162">
<ele>193.362305</ele>
<time>2011-05-15T04:50:46.000Z</time>
</trkpt>
<trkpt lat="43.2422580" lon="-2.9353570">
<ele>194.804321</ele>
<time>2011-05-15T04:50:54.000Z</time>
</trkpt>
<trkpt lat="43.2422598" lon="-2.9353795">
<ele>193.843018</ele>
<time>2011-05-15T04:50:55.000Z</time>
</trkpt>
<trkpt lat="43.2423504" lon="-2.9355860">
<ele>194.804321</ele>
<time>2011-05-15T04:51:06.000Z</time>
</trkpt>
<trkpt lat="43.2423737" lon="-2.9356495">
<ele>196.246353</ele>
<time>2011-05-15T04:51:09.000Z</time>
</trkpt>
<trkpt lat="43.2424126" lon="-2.9357351">
<ele>197.207520</ele>
<time>2011-05-15T04:51:14.000Z</time>
</trkpt>
<trkpt lat="43.2424666" lon="-2.9358769">
<ele>197.207520</ele>
<time>2011-05-15T04:51:22.000Z</time>
</trkpt>
<trkpt lat="43.2424323" lon="-2.9359173">
<ele>198.649536</ele>
<time>2011-05-15T04:51:29.000Z</time>
</trkpt>
<trkpt lat="43.2423916" lon="-2.9358916">
<ele>200.091675</ele>
<time>2011-05-15T04:51:33.000Z</time>
</trkpt>
<trkpt lat="43.2422246" lon="-2.9357840">
<ele>201.533585</ele>
<time>2011-05-15T04:51:48.000Z</time>
</trkpt>
<trkpt lat="43.2420308" lon="-2.9357912">
<ele>204.898087</ele>
<time>2011-05-15T04:52:03.000Z</time>
</trkpt>
<trkpt lat="43.2417468" lon="-2.9359757">
<ele>207.782104</ele>
<time>2011-05-15T04:52:25.000Z</time>
</trkpt>
<trkpt lat="43.2413988" lon="-2.9362086">
<ele>209.224121</ele>
<time>2011-05-15T04:52:51.000Z</time>
</trkpt>
<trkpt lat="43.2411191" lon="-2.9364518">
<ele>213.069336</ele>
<time>2011-05-15T04:53:14.000Z</time>
</trkpt>
<trkpt lat="43.2411071" lon="-2.9364620">
<ele>213.069336</ele>
<time>2011-05-15T04:53:15.000Z</time>
</trkpt>
<trkpt lat="43.2409912" lon="-2.9365356">
<ele>216.433945</ele>
<time>2011-05-15T04:53:25.000Z</time>
</trkpt>
<trkpt lat="43.2408338" lon="-2.9367966">
<ele>218.837280</ele>
<time>2011-05-15T04:53:44.000Z</time>
</trkpt>
<trkpt lat="43.2407898" lon="-2.9368465">
<ele>219.798584</ele>
<time>2011-05-15T04:53:48.000Z</time>
</trkpt>
<trkpt lat="43.2407000" lon="-2.9369745">
<ele>222.201782</ele>
<time>2011-05-15T04:53:59.000Z</time>
</trkpt>
<trkpt lat="43.2406767" lon="-2.9370003">
<ele>223.643799</ele>
<time>2011-05-15T04:54:03.000Z</time>
</trkpt>
<trkpt lat="43.2406357" lon="-2.9370120">
<ele>224.605225</ele>
<time>2011-05-15T04:54:07.000Z</time>
</trkpt>
<trkpt lat="43.2404820" lon="-2.9368780">
<ele>225.085938</ele>
<time>2011-05-15T04:54:26.000Z</time>
</trkpt>
<trkpt lat="43.2404600" lon="-2.9367844">
<ele>228.450439</ele>
<time>2011-05-15T04:54:35.000Z</time>
</trkpt>
<trkpt lat="43.2404453" lon="-2.9367444">
<ele>229.892334</ele>
<time>2011-05-15T04:54:38.000Z</time>
</trkpt>
<trkpt lat="43.2403875" lon="-2.9366926">
<ele>232.776489</ele>
<time>2011-05-15T04:54:46.000Z</time>
</trkpt>
<trkpt lat="43.2403648" lon="-2.9366284">
<ele>233.257080</ele>
<time>2011-05-15T04:54:52.000Z</time>
</trkpt>
<trkpt lat="43.2403524" lon="-2.9365808">
<ele>232.295776</ele>
<time>2011-05-15T04:54:55.000Z</time>
</trkpt>
<trkpt lat="43.2403118" lon="-2.9365080">
<ele>234.218399</ele>
<time>2011-05-15T04:55:00.000Z</time>
</trkpt>
<trkpt lat="43.2401738" lon="-2.9363713">
<ele>237.102295</ele>
<time>2011-05-15T04:55:14.000Z</time>
</trkpt>
<trkpt lat="43.2400829" lon="-2.9363645">
<ele>239.505493</ele>
<time>2011-05-15T04:55:23.000Z</time>
</trkpt>
<trkpt lat="43.2400195" lon="-2.9363476">
<ele>242.389648</ele>
<time>2011-05-15T04:55:31.000Z</time>
</trkpt>
<trkpt lat="43.2399557" lon="-2.9363874">
<ele>245.754150</ele>
<time>2011-05-15T04:55:40.000Z</time>
</trkpt>
<trkpt lat="43.2398462" lon="-2.9364549">
<ele>248.638184</ele>
<time>2011-05-15T04:55:51.000Z</time>
</trkpt>
<trkpt lat="43.2398014" lon="-2.9364971">
<ele>251.041382</ele>
<time>2011-05-15T04:55:58.000Z</time>
</trkpt>
<trkpt lat="43.2397508" lon="-2.9365857">
<ele>252.963989</ele>
<time>2011-05-15T04:56:09.000Z</time>
</trkpt>
<trkpt lat="43.2397459" lon="-2.9365902">
<ele>252.963989</ele>
<time>2011-05-15T04:56:10.000Z</time>
</trkpt>
<trkpt lat="43.2396879" lon="-2.9366594">
<ele>255.848022</ele>
<time>2011-05-15T04:56:20.000Z</time>
</trkpt>
<trkpt lat="43.2396821" lon="-2.9366828">
<ele>255.848022</ele>
<time>2011-05-15T04:56:22.000Z</time>
</trkpt>
<trkpt lat="43.2396566" lon="-2.9367428">
<ele>258.251343</ele>
<time>2011-05-15T04:56:29.000Z</time>
</trkpt>
<trkpt lat="43.2395869" lon="-2.9366615">
<ele>259.212646</ele>
<time>2011-05-15T04:56:38.000Z</time>
</trkpt>
<trkpt lat="43.2394449" lon="-2.9365398">
<ele>262.096558</ele>
<time>2011-05-15T04:56:55.000Z</time>
</trkpt>
<trkpt lat="43.2393825" lon="-2.9364888">
<ele>265.461304</ele>
<time>2011-05-15T04:57:03.000Z</time>
</trkpt>
<trkpt lat="43.2392661" lon="-2.9364076">
<ele>267.864502</ele>
<time>2011-05-15T04:57:16.000Z</time>
</trkpt>
<trkpt lat="43.2391439" lon="-2.9363466">
<ele>271.229126</ele>
<time>2011-05-15T04:57:29.000Z</time>
</trkpt>
<trkpt lat="43.2390871" lon="-2.9363233">
<ele>272.671143</ele>
<time>2011-05-15T04:57:35.000Z</time>
</trkpt>
<trkpt lat="43.2389714" lon="-2.9363491">
<ele>276.035645</ele>
<time>2011-05-15T04:57:48.000Z</time>
</trkpt>
<trkpt lat="43.2389681" lon="-2.9364451">
<ele>278.919678</ele>
<time>2011-05-15T04:57:57.000Z</time>
</trkpt>
<trkpt lat="43.2389826" lon="-2.9364995">
<ele>279.400269</ele>
<time>2011-05-15T04:58:02.000Z</time>
</trkpt>
<trkpt lat="43.2389994" lon="-2.9365838">
<ele>280.842407</ele>
<time>2011-05-15T04:58:14.000Z</time>
</trkpt>
<trkpt lat="43.2390086" lon="-2.9366320">
<ele>280.842407</ele>
<time>2011-05-15T04:58:18.000Z</time>
</trkpt>
<trkpt lat="43.2390510" lon="-2.9368913">
<ele>282.284302</ele>
<time>2011-05-15T04:58:35.000Z</time>
</trkpt>
<trkpt lat="43.2390883" lon="-2.9370494">
<ele>283.245605</ele>
<time>2011-05-15T04:58:44.000Z</time>
</trkpt>
<trkpt lat="43.2391045" lon="-2.9371193">
<ele>283.726196</ele>
<time>2011-05-15T04:58:49.000Z</time>
</trkpt>
<trkpt lat="43.2391515" lon="-2.9373427">
<ele>287.571411</ele>
<time>2011-05-15T04:59:02.000Z</time>
</trkpt>
<trkpt lat="43.2391588" lon="-2.9374479">
<ele>289.013550</ele>
<time>2011-05-15T04:59:08.000Z</time>
</trkpt>
<trkpt lat="43.2391492" lon="-2.9376231">
<ele>292.378174</ele>
<time>2011-05-15T04:59:21.000Z</time>
</trkpt>
<trkpt lat="43.2391499" lon="-2.9376375">
<ele>292.858765</ele>
<time>2011-05-15T04:59:22.000Z</time>
</trkpt>
<trkpt lat="43.2391246" lon="-2.9377753">
<ele>295.742676</ele>
<time>2011-05-15T04:59:34.000Z</time>
</trkpt>
<trkpt lat="43.2391104" lon="-2.9378463">
<ele>297.665405</ele>
<time>2011-05-15T04:59:40.000Z</time>
</trkpt>
<trkpt lat="43.2391065" lon="-2.9378844">
<ele>297.665405</ele>
<time>2011-05-15T04:59:43.000Z</time>
</trkpt>
<trkpt lat="43.2390874" lon="-2.9379823">
<ele>301.029907</ele>
<time>2011-05-15T04:59:51.000Z</time>
</trkpt>
<trkpt lat="43.2390632" lon="-2.9381739">
<ele>303.913940</ele>
<time>2011-05-15T05:00:06.000Z</time>
</trkpt>
<trkpt lat="43.2389947" lon="-2.9382574">
<ele>306.797852</ele>
<time>2011-05-15T05:00:19.000Z</time>
</trkpt>
<trkpt lat="43.2389213" lon="-2.9381327">
<ele>309.681885</ele>
<time>2011-05-15T05:00:31.000Z</time>
</trkpt>
<trkpt lat="43.2388507" lon="-2.9380208">
<ele>313.527222</ele>
<time>2011-05-15T05:00:43.000Z</time>
</trkpt>
<trkpt lat="43.2388444" lon="-2.9380123">
<ele>313.527222</ele>
<time>2011-05-15T05:00:44.000Z</time>
</trkpt>
<trkpt lat="43.2387938" lon="-2.9379470">
<ele>314.488403</ele>
<time>2011-05-15T05:00:52.000Z</time>
</trkpt>
<trkpt lat="43.2386938" lon="-2.9378329">
<ele>317.853058</ele>
<time>2011-05-15T05:01:06.000Z</time>
</trkpt>
<trkpt lat="43.2385854" lon="-2.9377374">
<ele>321.698364</ele>
<time>2011-05-15T05:01:18.000Z</time>
</trkpt>
<trkpt lat="43.2385777" lon="-2.9377297">
<ele>321.698364</ele>
<time>2011-05-15T05:01:19.000Z</time>
</trkpt>
<trkpt lat="43.2384579" lon="-2.9376497">
<ele>325.062988</ele>
<time>2011-05-15T05:01:33.000Z</time>
</trkpt>
<trkpt lat="43.2382944" lon="-2.9375493">
<ele>327.946777</ele>
<time>2011-05-15T05:01:50.000Z</time>
</trkpt>
<trkpt lat="43.2382721" lon="-2.9375402">
<ele>329.388885</ele>
<time>2011-05-15T05:01:52.000Z</time>
</trkpt>
<trkpt lat="43.2381323" lon="-2.9374698">
<ele>332.272827</ele>
<time>2011-05-15T05:02:07.000Z</time>
</trkpt>
<trkpt lat="43.2380023" lon="-2.9373966">
<ele>335.637329</ele>
<time>2011-05-15T05:02:22.000Z</time>
</trkpt>
<trkpt lat="43.2378813" lon="-2.9373539">
<ele>337.079468</ele>
<time>2011-05-15T05:02:32.000Z</time>
</trkpt>
<trkpt lat="43.2377767" lon="-2.9372833">
<ele>340.444061</ele>
<time>2011-05-15T05:02:43.000Z</time>
</trkpt>
<trkpt lat="43.2376096" lon="-2.9371822">
<ele>343.327881</ele>
<time>2011-05-15T05:02:59.000Z</time>
</trkpt>
<trkpt lat="43.2374806" lon="-2.9371019">
<ele>345.731293</ele>
<time>2011-05-15T05:03:12.000Z</time>
</trkpt>
<trkpt lat="43.2373278" lon="-2.9370458">
<ele>347.173218</ele>
<time>2011-05-15T05:03:23.000Z</time>
</trkpt>
<trkpt lat="43.2371864" lon="-2.9369532">
<ele>350.537872</ele>
<time>2011-05-15T05:03:35.000Z</time>
</trkpt>
<trkpt lat="43.2371531" lon="-2.9369838">
<ele>351.018433</ele>
<time>2011-05-15T05:03:39.000Z</time>
</trkpt>
<trkpt lat="43.2371438" lon="-2.9370178">
<ele>351.979858</ele>
<time>2011-05-15T05:03:41.000Z</time>
</trkpt>
<trkpt lat="43.2371893" lon="-2.9372206">
<ele>354.863770</ele>
<time>2011-05-15T05:03:55.000Z</time>
</trkpt>
<trkpt lat="43.2372660" lon="-2.9374510">
<ele>358.228394</ele>
<time>2011-05-15T05:04:11.000Z</time>
</trkpt>
<trkpt lat="43.2373258" lon="-2.9377323">
<ele>362.073700</ele>
<time>2011-05-15T05:04:29.000Z</time>
</trkpt>
<trkpt lat="43.2373305" lon="-2.9377587">
<ele>363.035034</ele>
<time>2011-05-15T05:04:31.000Z</time>
</trkpt>
<trkpt lat="43.2373260" lon="-2.9378323">
<ele>363.996338</ele>
<time>2011-05-15T05:04:37.000Z</time>
</trkpt>
<trkpt lat="43.2373205" lon="-2.9378611">
<ele>364.476929</ele>
<time>2011-05-15T05:04:39.000Z</time>
</trkpt>
<trkpt lat="43.2372952" lon="-2.9379012">
<ele>364.957642</ele>
<time>2011-05-15T05:04:43.000Z</time>
</trkpt>
<trkpt lat="43.2372459" lon="-2.9379109">
<ele>365.918945</ele>
<time>2011-05-15T05:05:04.000Z</time>
</trkpt>
<trkpt lat="43.2372362" lon="-2.9379090">
<ele>366.399567</ele>
<time>2011-05-15T05:04:50.000Z</time>
</trkpt>
<trkpt lat="43.2370657" lon="-2.9378906">
<ele>369.764282</ele>
<time>2011-05-15T05:05:06.000Z</time>
</trkpt>
<trkpt lat="43.2369528" lon="-2.9378556">
<ele>372.648163</ele>
<time>2011-05-15T05:05:16.000Z</time>
</trkpt>
<trkpt lat="43.2367630" lon="-2.9377597">
<ele>375.532104</ele>
<time>2011-05-15T05:05:33.000Z</time>
</trkpt>
<trkpt lat="43.2366272" lon="-2.9376965">
<ele>378.896851</ele>
<time>2011-05-15T05:05:45.000Z</time>
</trkpt>
<trkpt lat="43.2364881" lon="-2.9376390">
<ele>379.858032</ele>
<time>2011-05-15T05:05:58.000Z</time>
</trkpt>
<trkpt lat="43.2364594" lon="-2.9376203">
<ele>381.780640</ele>
<time>2011-05-15T05:06:01.000Z</time>
</trkpt>
<trkpt lat="43.2363275" lon="-2.9375297">
<ele>385.625977</ele>
<time>2011-05-15T05:06:16.000Z</time>
</trkpt>
<trkpt lat="43.2363193" lon="-2.9375235">
<ele>385.625977</ele>
<time>2011-05-15T05:06:17.000Z</time>
</trkpt>
<trkpt lat="43.2362306" lon="-2.9374782">
<ele>388.510010</ele>
<time>2011-05-15T05:06:27.000Z</time>
</trkpt>
<trkpt lat="43.2361691" lon="-2.9374411">
<ele>390.913208</ele>
<time>2011-05-15T05:06:35.000Z</time>
</trkpt>
<trkpt lat="43.2361466" lon="-2.9374179">
<ele>390.432617</ele>
<time>2011-05-15T05:06:38.000Z</time>
</trkpt>
<trkpt lat="43.2360757" lon="-2.9373434">
<ele>393.316528</ele>
<time>2011-05-15T05:06:47.000Z</time>
</trkpt>
<trkpt lat="43.2360072" lon="-2.9373144">
<ele>394.758514</ele>
<time>2011-05-15T05:06:54.000Z</time>
</trkpt>
<trkpt lat="43.2359033" lon="-2.9372723">
<ele>398.603760</ele>
<time>2011-05-15T05:07:05.000Z</time>
</trkpt>
<trkpt lat="43.2358266" lon="-2.9372400">
<ele>399.565094</ele>
<time>2011-05-15T05:07:13.000Z</time>
</trkpt>
<trkpt lat="43.2357462" lon="-2.9371806">
<ele>402.449097</ele>
<time>2011-05-15T05:07:22.000Z</time>
</trkpt>
<trkpt lat="43.2356800" lon="-2.9371385">
<ele>405.813690</ele>
<time>2011-05-15T05:07:31.000Z</time>
</trkpt>
<trkpt lat="43.2355943" lon="-2.9370743">
<ele>409.178345</ele>
<time>2011-05-15T05:07:44.000Z</time>
</trkpt>
<trkpt lat="43.2355250" lon="-2.9370800">
<ele>413.023560</ele>
<time>2011-05-15T05:07:54.000Z</time>
</trkpt>
<trkpt lat="43.2354486" lon="-2.9370500">
<ele>416.388153</ele>
<time>2011-05-15T05:08:05.000Z</time>
</trkpt>
<trkpt lat="43.2354407" lon="-2.9370468">
<ele>416.388153</ele>
<time>2011-05-15T05:08:06.000Z</time>
</trkpt>
<trkpt lat="43.2353576" lon="-2.9369945">
<ele>419.752808</ele>
<time>2011-05-15T05:08:17.000Z</time>
</trkpt>
<trkpt lat="43.2352248" lon="-2.9369237">
<ele>423.598022</ele>
<time>2011-05-15T05:08:35.000Z</time>
</trkpt>
<trkpt lat="43.2351350" lon="-2.9368636">
<ele>426.482056</ele>
<time>2011-05-15T05:08:46.000Z</time>
</trkpt>
<trkpt lat="43.2350413" lon="-2.9367824">
<ele>429.365967</ele>
<time>2011-05-15T05:08:58.000Z</time>
</trkpt>
<trkpt lat="43.2349673" lon="-2.9367016">
<ele>432.250000</ele>
<time>2011-05-15T05:09:08.000Z</time>
</trkpt>
<trkpt lat="43.2349280" lon="-2.9366771">
<ele>434.172607</ele>
<time>2011-05-15T05:09:13.000Z</time>
</trkpt>
<trkpt lat="43.2348732" lon="-2.9366611">
<ele>435.614502</ele>
<time>2011-05-15T05:09:19.000Z</time>
</trkpt>
<trkpt lat="43.2348388" lon="-2.9366414">
<ele>436.575928</ele>
<time>2011-05-15T05:09:23.000Z</time>
</trkpt>
<trkpt lat="43.2346630" lon="-2.9364218">
<ele>437.537140</ele>
<time>2011-05-15T05:09:41.000Z</time>
</trkpt>
<trkpt lat="43.2345958" lon="-2.9363733">
<ele>436.575928</ele>
<time>2011-05-15T05:09:47.000Z</time>
</trkpt>
<trkpt lat="43.2345570" lon="-2.9363062">
<ele>436.095215</ele>
<time>2011-05-15T05:09:51.000Z</time>
</trkpt>
<trkpt lat="43.2344185" lon="-2.9359700">
<ele>433.691895</ele>
<time>2011-05-15T05:10:09.000Z</time>
</trkpt>
<trkpt lat="43.2343947" lon="-2.9358758">
<ele>431.769165</ele>
<time>2011-05-15T05:10:13.000Z</time>
</trkpt>
<trkpt lat="43.2343174" lon="-2.9356370">
<ele>435.133911</ele>
<time>2011-05-15T05:10:28.000Z</time>
</trkpt>
<trkpt lat="43.2342726" lon="-2.9355202">
<ele>437.056519</ele>
<time>2011-05-15T05:10:36.000Z</time>
</trkpt>
<trkpt lat="43.2341657" lon="-2.9352256">
<ele>438.017853</ele>
<time>2011-05-15T05:10:53.000Z</time>
</trkpt>
<trkpt lat="43.2341321" lon="-2.9350972">
<ele>440.901855</ele>
<time>2011-05-15T05:11:01.000Z</time>
</trkpt>
<trkpt lat="43.2340227" lon="-2.9348256">
<ele>443.305084</ele>
<time>2011-05-15T05:11:19.000Z</time>
</trkpt>
<trkpt lat="43.2339672" lon="-2.9347796">
<ele>442.343872</ele>
<time>2011-05-15T05:11:36.000Z</time>
</trkpt>
<trkpt lat="43.2339184" lon="-2.9346512">
<ele>438.017853</ele>
<time>2011-05-15T05:11:45.000Z</time>
</trkpt>
<trkpt lat="43.2339140" lon="-2.9346360">
<ele>442.343872</ele>
<time>2011-05-15T05:11:46.000Z</time>
</trkpt>
<trkpt lat="43.2339101" lon="-2.9346045">
<ele>443.305084</ele>
<time>2011-05-15T05:11:48.000Z</time>
</trkpt>
<trkpt lat="43.2338979" lon="-2.9344147">
<ele>440.901855</ele>
<time>2011-05-15T05:12:01.000Z</time>
</trkpt>
<trkpt lat="43.2338683" lon="-2.9342196">
<ele>440.421265</ele>
<time>2011-05-15T05:12:14.000Z</time>
</trkpt>
<trkpt lat="43.2338338" lon="-2.9340326">
<ele>437.056519</ele>
<time>2011-05-15T05:12:23.000Z</time>
</trkpt>
<trkpt lat="43.2338189" lon="-2.9339399">
<ele>437.056519</ele>
<time>2011-05-15T05:12:27.000Z</time>
</trkpt>
<trkpt lat="43.2338079" lon="-2.9336509">
<ele>435.133911</ele>
<time>2011-05-15T05:12:40.000Z</time>
</trkpt>
<trkpt lat="43.2338188" lon="-2.9335363">
<ele>432.250000</ele>
<time>2011-05-15T05:12:45.000Z</time>
</trkpt>
<trkpt lat="43.2338343" lon="-2.9334121">
<ele>431.288574</ele>
<time>2011-05-15T05:12:51.000Z</time>
</trkpt>
<trkpt lat="43.2338790" lon="-2.9333048">
<ele>427.443329</ele>
<time>2011-05-15T05:12:57.000Z</time>
</trkpt>
<trkpt lat="43.2338922" lon="-2.9332791">
<ele>426.001343</ele>
<time>2011-05-15T05:12:59.000Z</time>
</trkpt>
<trkpt lat="43.2339094" lon="-2.9332531">
<ele>425.040192</ele>
<time>2011-05-15T05:13:01.000Z</time>
</trkpt>
<trkpt lat="43.2339244" lon="-2.9332213">
<ele>424.078735</ele>
<time>2011-05-15T05:13:03.000Z</time>
</trkpt>
<trkpt lat="43.2339678" lon="-2.9331094">
<ele>420.233398</ele>
<time>2011-05-15T05:13:11.000Z</time>
</trkpt>
<trkpt lat="43.2339819" lon="-2.9330456">
<ele>417.349609</ele>
<time>2011-05-15T05:13:15.000Z</time>
</trkpt>
<trkpt lat="43.2339896" lon="-2.9330308">
<ele>416.868866</ele>
<time>2011-05-15T05:13:16.000Z</time>
</trkpt>
<trkpt lat="43.2340032" lon="-2.9329991">
<ele>415.426880</ele>
<time>2011-05-15T05:13:18.000Z</time>
</trkpt>
<trkpt lat="43.2340136" lon="-2.9329705">
<ele>413.984863</ele>
<time>2011-05-15T05:13:20.000Z</time>
</trkpt>
<trkpt lat="43.2340596" lon="-2.9328605">
<ele>411.100922</ele>
<time>2011-05-15T05:13:27.000Z</time>
</trkpt>
<trkpt lat="43.2341279" lon="-2.9327532">
<ele>407.736328</ele>
<time>2011-05-15T05:13:33.000Z</time>
</trkpt>
<trkpt lat="43.2341404" lon="-2.9327324">
<ele>408.697632</ele>
<time>2011-05-15T05:13:34.000Z</time>
</trkpt>
<trkpt lat="43.2342109" lon="-2.9326641">
<ele>407.255615</ele>
<time>2011-05-15T05:13:38.000Z</time>
</trkpt>
<trkpt lat="43.2342938" lon="-2.9325946">
<ele>404.852325</ele>
<time>2011-05-15T05:13:43.000Z</time>
</trkpt>
<trkpt lat="43.2343747" lon="-2.9325049">
<ele>402.449097</ele>
<time>2011-05-15T05:13:49.000Z</time>
</trkpt>
<trkpt lat="43.2344124" lon="-2.9324673">
<ele>400.045898</ele>
<time>2011-05-15T05:13:52.000Z</time>
</trkpt>
<trkpt lat="43.2344249" lon="-2.9324496">
<ele>399.084381</ele>
<time>2011-05-15T05:13:53.000Z</time>
</trkpt>
<trkpt lat="43.2344781" lon="-2.9323536">
<ele>396.200562</ele>
<time>2011-05-15T05:13:59.000Z</time>
</trkpt>
<trkpt lat="43.2344835" lon="-2.9323370">
<ele>395.719849</ele>
<time>2011-05-15T05:14:00.000Z</time>
</trkpt>
<trkpt lat="43.2345088" lon="-2.9322459">
<ele>392.355377</ele>
<time>2011-05-15T05:14:07.000Z</time>
</trkpt>
<trkpt lat="43.2345273" lon="-2.9321707">
<ele>389.951904</ele>
<time>2011-05-15T05:14:11.000Z</time>
</trkpt>
<trkpt lat="43.2345435" lon="-2.9320958">
<ele>387.067993</ele>
<time>2011-05-15T05:14:18.000Z</time>
</trkpt>
<trkpt lat="43.2345078" lon="-2.9320031">
<ele>385.625977</ele>
<time>2011-05-15T05:14:25.000Z</time>
</trkpt>
<trkpt lat="43.2345039" lon="-2.9319145">
<ele>384.184052</ele>
<time>2011-05-15T05:14:29.000Z</time>
</trkpt>
<trkpt lat="43.2345077" lon="-2.9318265">
<ele>382.742065</ele>
<time>2011-05-15T05:14:33.000Z</time>
</trkpt>
<trkpt lat="43.2345011" lon="-2.9317802">
<ele>381.300049</ele>
<time>2011-05-15T05:14:36.000Z</time>
</trkpt>
<trkpt lat="43.2344890" lon="-2.9317581">
<ele>379.858032</ele>
<time>2011-05-15T05:14:38.000Z</time>
</trkpt>
<trkpt lat="43.2344751" lon="-2.9316984">
<ele>378.416107</ele>
<time>2011-05-15T05:14:43.000Z</time>
</trkpt>
<trkpt lat="43.2344889" lon="-2.9316577">
<ele>377.454834</ele>
<time>2011-05-15T05:14:45.000Z</time>
</trkpt>
<trkpt lat="43.2344605" lon="-2.9314854">
<ele>375.051514</ele>
<time>2011-05-15T05:14:53.000Z</time>
</trkpt>
<trkpt lat="43.2344513" lon="-2.9314514">
<ele>373.609497</ele>
<time>2011-05-15T05:14:54.000Z</time>
</trkpt>
<trkpt lat="43.2344119" lon="-2.9314044">
<ele>373.609497</ele>
<time>2011-05-15T05:14:58.000Z</time>
</trkpt>
<trkpt lat="43.2342672" lon="-2.9314031">
<ele>371.686890</ele>
<time>2011-05-15T05:15:09.000Z</time>
</trkpt>
<trkpt lat="43.2341461" lon="-2.9314106">
<ele>371.206299</ele>
<time>2011-05-15T05:15:20.000Z</time>
</trkpt>
<trkpt lat="43.2340120" lon="-2.9314430">
<ele>367.841553</ele>
<time>2011-05-15T05:15:28.000Z</time>
</trkpt>
<trkpt lat="43.2339253" lon="-2.9314535">
<ele>367.360931</ele>
<time>2011-05-15T05:15:32.000Z</time>
</trkpt>
<trkpt lat="43.2337660" lon="-2.9314896">
<ele>364.957642</ele>
<time>2011-05-15T05:15:44.000Z</time>
</trkpt>
<trkpt lat="43.2337420" lon="-2.9315089">
<ele>365.438354</ele>
<time>2011-05-15T05:15:46.000Z</time>
</trkpt>
<trkpt lat="43.2337121" lon="-2.9315052">
<ele>364.476929</ele>
<time>2011-05-15T05:15:48.000Z</time>
</trkpt>
<trkpt lat="43.2334723" lon="-2.9315101">
<ele>362.073700</ele>
<time>2011-05-15T05:16:01.000Z</time>
</trkpt>
<trkpt lat="43.2334001" lon="-2.9315155">
<ele>362.073700</ele>
<time>2011-05-15T05:16:05.000Z</time>
</trkpt>
<trkpt lat="43.2331784" lon="-2.9315234">
<ele>360.151123</ele>
<time>2011-05-15T05:16:18.000Z</time>
</trkpt>
<trkpt lat="43.2329470" lon="-2.9315861">
<ele>356.786377</ele>
<time>2011-05-15T05:16:32.000Z</time>
</trkpt>
<trkpt lat="43.2327662" lon="-2.9316726">
<ele>355.825195</ele>
<time>2011-05-15T05:16:43.000Z</time>
</trkpt>
<trkpt lat="43.2325505" lon="-2.9318009">
<ele>353.421875</ele>
<time>2011-05-15T05:16:57.000Z</time>
</trkpt>
<trkpt lat="43.2324329" lon="-2.9318643">
<ele>351.979858</ele>
<time>2011-05-15T05:17:05.000Z</time>
</trkpt>
<trkpt lat="43.2323272" lon="-2.9319384">
<ele>351.018433</ele>
<time>2011-05-15T05:17:12.000Z</time>
</trkpt>
<trkpt lat="43.2321529" lon="-2.9320614">
<ele>349.576538</ele>
<time>2011-05-15T05:17:24.000Z</time>
</trkpt>
<trkpt lat="43.2321047" lon="-2.9320969">
<ele>348.134644</ele>
<time>2011-05-15T05:17:27.000Z</time>
</trkpt>
<trkpt lat="43.2320449" lon="-2.9321547">
<ele>346.212036</ele>
<time>2011-05-15T05:17:31.000Z</time>
</trkpt>
<trkpt lat="43.2319286" lon="-2.9323061">
<ele>344.289429</ele>
<time>2011-05-15T05:17:40.000Z</time>
</trkpt>
<trkpt lat="43.2318830" lon="-2.9323796">
<ele>344.289429</ele>
<time>2011-05-15T05:17:44.000Z</time>
</trkpt>
<trkpt lat="43.2317763" lon="-2.9326036">
<ele>340.924683</ele>
<time>2011-05-15T05:17:55.000Z</time>
</trkpt>
<trkpt lat="43.2317359" lon="-2.9327406">
<ele>339.963348</ele>
<time>2011-05-15T05:18:01.000Z</time>
</trkpt>
<trkpt lat="43.2317084" lon="-2.9329722">
<ele>336.598877</ele>
<time>2011-05-15T05:18:11.000Z</time>
</trkpt>
<trkpt lat="43.2317094" lon="-2.9332354">
<ele>333.714752</ele>
<time>2011-05-15T05:18:23.000Z</time>
</trkpt>
<trkpt lat="43.2316986" lon="-2.9332546">
<ele>334.195465</ele>
<time>2011-05-15T05:18:24.000Z</time>
</trkpt>
<trkpt lat="43.2316271" lon="-2.9332240">
<ele>330.350220</ele>
<time>2011-05-15T05:18:30.000Z</time>
</trkpt>
<trkpt lat="43.2315199" lon="-2.9330050">
<ele>326.504883</ele>
<time>2011-05-15T05:18:42.000Z</time>
</trkpt>
<trkpt lat="43.2314904" lon="-2.9328914">
<ele>326.985596</ele>
<time>2011-05-15T05:18:48.000Z</time>
</trkpt>
<trkpt lat="43.2314052" lon="-2.9326298">
<ele>325.543579</ele>
<time>2011-05-15T05:19:02.000Z</time>
</trkpt>
<trkpt lat="43.2313955" lon="-2.9326103">
<ele>325.062988</ele>
<time>2011-05-15T05:19:03.000Z</time>
</trkpt>
<trkpt lat="43.2313173" lon="-2.9326288">
<ele>324.101563</ele>
<time>2011-05-15T05:19:10.000Z</time>
</trkpt>
<trkpt lat="43.2313178" lon="-2.9326920">
<ele>322.659668</ele>
<time>2011-05-15T05:19:13.000Z</time>
</trkpt>
<trkpt lat="43.2313811" lon="-2.9329350">
<ele>323.140381</ele>
<time>2011-05-15T05:19:27.000Z</time>
</trkpt>
<trkpt lat="43.2314318" lon="-2.9331480">
<ele>322.178955</ele>
<time>2011-05-15T05:19:38.000Z</time>
</trkpt>
<trkpt lat="43.2314670" lon="-2.9334205">
<ele>321.698364</ele>
<time>2011-05-15T05:19:51.000Z</time>
</trkpt>
<trkpt lat="43.2314774" lon="-2.9335375">
<ele>319.295044</ele>
<time>2011-05-15T05:19:57.000Z</time>
</trkpt>
<trkpt lat="43.2314915" lon="-2.9338375">
<ele>317.853058</ele>
<time>2011-05-15T05:20:09.000Z</time>
</trkpt>
<trkpt lat="43.2315143" lon="-2.9341249">
<ele>314.969116</ele>
<time>2011-05-15T05:20:22.000Z</time>
</trkpt>
<trkpt lat="43.2316122" lon="-2.9344264">
<ele>315.930420</ele>
<time>2011-05-15T05:20:36.000Z</time>
</trkpt>
<trkpt lat="43.2316930" lon="-2.9347817">
<ele>316.411011</ele>
<time>2011-05-15T05:20:53.000Z</time>
</trkpt>
<trkpt lat="43.2317903" lon="-2.9351750">
<ele>316.411011</ele>
<time>2011-05-15T05:21:13.000Z</time>
</trkpt>
<trkpt lat="43.2318731" lon="-2.9354111">
<ele>315.449829</ele>
<time>2011-05-15T05:21:26.000Z</time>
</trkpt>
<trkpt lat="43.2319974" lon="-2.9357111">
<ele>314.007813</ele>
<time>2011-05-15T05:21:42.000Z</time>
</trkpt>
<trkpt lat="43.2321368" lon="-2.9360139">
<ele>313.046478</ele>
<time>2011-05-15T05:21:58.000Z</time>
</trkpt>
<trkpt lat="43.2323055" lon="-2.9362982">
<ele>310.643066</ele>
<time>2011-05-15T05:22:15.000Z</time>
</trkpt>
<trkpt lat="43.2322693" lon="-2.9363746">
<ele>308.720459</ele>
<time>2011-05-15T05:22:23.000Z</time>
</trkpt>
<trkpt lat="43.2322476" lon="-2.9363459">
<ele>306.797852</ele>
<time>2011-05-15T05:22:28.000Z</time>
</trkpt>
<trkpt lat="43.2321373" lon="-2.9363863">
<ele>302.471924</ele>
<time>2011-05-15T05:22:38.000Z</time>
</trkpt>
<trkpt lat="43.2320162" lon="-2.9364062">
<ele>302.471924</ele>
<time>2011-05-15T05:22:46.000Z</time>
</trkpt>
<trkpt lat="43.2319576" lon="-2.9363825">
<ele>300.068726</ele>
<time>2011-05-15T05:22:53.000Z</time>
</trkpt>
<trkpt lat="43.2319151" lon="-2.9364242">
<ele>298.146118</ele>
<time>2011-05-15T05:22:57.000Z</time>
</trkpt>
<trkpt lat="43.2318722" lon="-2.9366087">
<ele>294.781372</ele>
<time>2011-05-15T05:23:07.000Z</time>
</trkpt>
<trkpt lat="43.2318165" lon="-2.9366303">
<ele>292.858765</ele>
<time>2011-05-15T05:23:12.000Z</time>
</trkpt>
<trkpt lat="43.2317949" lon="-2.9366336">
<ele>291.416748</ele>
<time>2011-05-15T05:23:15.000Z</time>
</trkpt>
<trkpt lat="43.2317647" lon="-2.9366185">
<ele>290.455566</ele>
<time>2011-05-15T05:23:18.000Z</time>
</trkpt>
<trkpt lat="43.2317374" lon="-2.9365927">
<ele>288.052246</ele>
<time>2011-05-15T05:23:21.000Z</time>
</trkpt>
<trkpt lat="43.2316629" lon="-2.9366360">
<ele>284.687622</ele>
<time>2011-05-15T05:23:30.000Z</time>
</trkpt>
<trkpt lat="43.2316436" lon="-2.9366474">
<ele>284.206909</ele>
<time>2011-05-15T05:23:32.000Z</time>
</trkpt>
<trkpt lat="43.2315881" lon="-2.9366501">
<ele>280.842407</ele>
<time>2011-05-15T05:23:41.000Z</time>
</trkpt>
<trkpt lat="43.2315756" lon="-2.9366705">
<ele>279.880859</ele>
<time>2011-05-15T05:23:59.000Z</time>
</trkpt>
<trkpt lat="43.2315456" lon="-2.9366572">
<ele>278.438965</ele>
<time>2011-05-15T05:24:17.000Z</time>
</trkpt>
<trkpt lat="43.2315433" lon="-2.9366745">
<ele>277.477661</ele>
<time>2011-05-15T05:24:41.000Z</time>
</trkpt>
<trkpt lat="43.2315386" lon="-2.9366981">
<ele>276.035645</ele>
<time>2011-05-15T05:25:06.000Z</time>
</trkpt>
<trkpt lat="43.2315261" lon="-2.9367170">
<ele>274.593750</ele>
<time>2011-05-15T05:25:39.000Z</time>
</trkpt>
<trkpt lat="43.2314894" lon="-2.9367223">
<ele>271.709717</ele>
<time>2011-05-15T05:26:07.000Z</time>
</trkpt>
<trkpt lat="43.2314531" lon="-2.9367292">
<ele>270.748413</ele>
<time>2011-05-15T05:26:09.000Z</time>
</trkpt>
<trkpt lat="43.2314257" lon="-2.9367102">
<ele>270.267700</ele>
<time>2011-05-15T05:26:13.000Z</time>
</trkpt>
<trkpt lat="43.2314018" lon="-2.9366487">
<ele>268.825806</ele>
<time>2011-05-15T05:26:17.000Z</time>
</trkpt>
<trkpt lat="43.2313443" lon="-2.9364781">
<ele>266.903198</ele>
<time>2011-05-15T05:26:26.000Z</time>
</trkpt>
<trkpt lat="43.2312842" lon="-2.9363638">
<ele>265.941895</ele>
<time>2011-05-15T05:26:37.000Z</time>
</trkpt>
<trkpt lat="43.2312658" lon="-2.9364626">
<ele>263.057861</ele>
<time>2011-05-15T05:26:43.000Z</time>
</trkpt>
<trkpt lat="43.2312556" lon="-2.9365135">
<ele>261.135254</ele>
<time>2011-05-15T05:26:47.000Z</time>
</trkpt>
<trkpt lat="43.2311843" lon="-2.9364782">
<ele>257.770752</ele>
<time>2011-05-15T05:26:56.000Z</time>
</trkpt>
<trkpt lat="43.2311184" lon="-2.9364341">
<ele>255.367310</ele>
<time>2011-05-15T05:27:02.000Z</time>
</trkpt>
<trkpt lat="43.2310574" lon="-2.9364021">
<ele>252.002808</ele>
<time>2011-05-15T05:27:08.000Z</time>
</trkpt>
<trkpt lat="43.2310449" lon="-2.9363999">
<ele>252.002808</ele>
<time>2011-05-15T05:27:09.000Z</time>
</trkpt>
<trkpt lat="43.2310158" lon="-2.9363861">
<ele>251.522095</ele>
<time>2011-05-15T05:27:12.000Z</time>
</trkpt>
<trkpt lat="43.2309504" lon="-2.9362994">
<ele>248.157593</ele>
<time>2011-05-15T05:27:22.000Z</time>
</trkpt>
<trkpt lat="43.2308843" lon="-2.9361714">
<ele>246.715454</ele>
<time>2011-05-15T05:27:31.000Z</time>
</trkpt>
<trkpt lat="43.2308640" lon="-2.9361684">
<ele>245.754150</ele>
<time>2011-05-15T05:27:33.000Z</time>
</trkpt>
<trkpt lat="43.2308154" lon="-2.9361414">
<ele>243.831543</ele>
<time>2011-05-15T05:27:37.000Z</time>
</trkpt>
<trkpt lat="43.2308014" lon="-2.9361357">
<ele>243.831543</ele>
<time>2011-05-15T05:27:38.000Z</time>
</trkpt>
<trkpt lat="43.2307523" lon="-2.9360793">
<ele>241.908936</ele>
<time>2011-05-15T05:27:42.000Z</time>
</trkpt>
<trkpt lat="43.2307179" lon="-2.9360323">
<ele>240.947632</ele>
<time>2011-05-15T05:27:45.000Z</time>
</trkpt>
<trkpt lat="43.2306983" lon="-2.9359693">
<ele>239.505493</ele>
<time>2011-05-15T05:27:48.000Z</time>
</trkpt>
<trkpt lat="43.2306444" lon="-2.9358297">
<ele>236.621704</ele>
<time>2011-05-15T05:27:56.000Z</time>
</trkpt>
<trkpt lat="43.2306335" lon="-2.9358056">
<ele>236.140991</ele>
<time>2011-05-15T05:27:58.000Z</time>
</trkpt>
<trkpt lat="43.2305739" lon="-2.9358619">
<ele>235.179688</ele>
<time>2011-05-15T05:28:05.000Z</time>
</trkpt>
<trkpt lat="43.2305560" lon="-2.9361528">
<ele>232.295776</ele>
<time>2011-05-15T05:28:19.000Z</time>
</trkpt>
<trkpt lat="43.2305573" lon="-2.9361755">
<ele>233.257080</ele>
<time>2011-05-15T05:28:20.000Z</time>
</trkpt>
<trkpt lat="43.2305515" lon="-2.9364263">
<ele>230.373047</ele>
<time>2011-05-15T05:28:32.000Z</time>
</trkpt>
<trkpt lat="43.2305533" lon="-2.9364876">
<ele>228.931168</ele>
<time>2011-05-15T05:28:35.000Z</time>
</trkpt>
<trkpt lat="43.2305448" lon="-2.9367541">
<ele>226.047119</ele>
<time>2011-05-15T05:28:48.000Z</time>
</trkpt>
<trkpt lat="43.2305448" lon="-2.9367746">
<ele>226.527832</ele>
<time>2011-05-15T05:28:49.000Z</time>
</trkpt>
<trkpt lat="43.2305424" lon="-2.9368557">
<ele>225.085938</ele>
<time>2011-05-15T05:28:53.000Z</time>
</trkpt>
<trkpt lat="43.2305388" lon="-2.9371454">
<ele>221.721176</ele>
<time>2011-05-15T05:29:06.000Z</time>
</trkpt>
<trkpt lat="43.2305259" lon="-2.9372260">
<ele>221.721176</ele>
<time>2011-05-15T05:29:10.000Z</time>
</trkpt>
<trkpt lat="43.2305278" lon="-2.9373780">
<ele>219.798584</ele>
<time>2011-05-15T05:29:17.000Z</time>
</trkpt>
<trkpt lat="43.2304463" lon="-2.9374400">
<ele>216.914673</ele>
<time>2011-05-15T05:29:23.000Z</time>
</trkpt>
<trkpt lat="43.2303397" lon="-2.9373334">
<ele>214.991943</ele>
<time>2011-05-15T05:29:32.000Z</time>
</trkpt>
<trkpt lat="43.2303166" lon="-2.9371579">
<ele>212.588623</ele>
<time>2011-05-15T05:29:41.000Z</time>
</trkpt>
<trkpt lat="43.2303128" lon="-2.9370405">
<ele>212.108032</ele>
<time>2011-05-15T05:29:47.000Z</time>
</trkpt>
<trkpt lat="43.2302823" lon="-2.9369504">
<ele>212.588623</ele>
<time>2011-05-15T05:29:52.000Z</time>
</trkpt>
<trkpt lat="43.2302269" lon="-2.9368481">
<ele>211.627441</ele>
<time>2011-05-15T05:29:58.000Z</time>
</trkpt>
<trkpt lat="43.2301778" lon="-2.9367838">
<ele>213.069336</ele>
<time>2011-05-15T05:30:02.000Z</time>
</trkpt>
<trkpt lat="43.2301215" lon="-2.9366538">
<ele>212.108032</ele>
<time>2011-05-15T05:30:09.000Z</time>
</trkpt>
<trkpt lat="43.2300739" lon="-2.9365371">
<ele>211.146729</ele>
<time>2011-05-15T05:30:15.000Z</time>
</trkpt>
<trkpt lat="43.2299984" lon="-2.9363788">
<ele>210.185425</ele>
<time>2011-05-15T05:30:23.000Z</time>
</trkpt>
<trkpt lat="43.2299675" lon="-2.9363051">
<ele>208.743408</ele>
<time>2011-05-15T05:30:27.000Z</time>
</trkpt>
<trkpt lat="43.2299328" lon="-2.9362481">
<ele>207.782104</ele>
<time>2011-05-15T05:30:30.000Z</time>
</trkpt>
<trkpt lat="43.2298949" lon="-2.9361482">
<ele>207.301392</ele>
<time>2011-05-15T05:30:35.000Z</time>
</trkpt>
<trkpt lat="43.2298745" lon="-2.9360431">
<ele>206.820679</ele>
<time>2011-05-15T05:30:40.000Z</time>
</trkpt>
<trkpt lat="43.2298522" lon="-2.9359841">
<ele>205.378769</ele>
<time>2011-05-15T05:30:43.000Z</time>
</trkpt>
<trkpt lat="43.2298172" lon="-2.9358545">
<ele>203.936890</ele>
<time>2011-05-15T05:30:49.000Z</time>
</trkpt>
<trkpt lat="43.2298089" lon="-2.9358157">
<ele>204.417480</ele>
<time>2011-05-15T05:30:51.000Z</time>
</trkpt>
<trkpt lat="43.2298035" lon="-2.9357499">
<ele>203.936890</ele>
<time>2011-05-15T05:31:05.000Z</time>
</trkpt>
<trkpt lat="43.2298045" lon="-2.9357462">
<ele>203.456177</ele>
<time>2011-05-15T05:31:09.000Z</time>
</trkpt>
<trkpt lat="43.2297590" lon="-2.9356524">
<ele>202.494873</ele>
<time>2011-05-15T05:31:17.000Z</time>
</trkpt>
<trkpt lat="43.2297206" lon="-2.9355779">
<ele>201.533585</ele>
<time>2011-05-15T05:31:22.000Z</time>
</trkpt>
<trkpt lat="43.2297027" lon="-2.9355484">
<ele>200.572266</ele>
<time>2011-05-15T05:31:24.000Z</time>
</trkpt>
<trkpt lat="43.2296820" lon="-2.9354794">
<ele>200.091675</ele>
<time>2011-05-15T05:31:28.000Z</time>
</trkpt>
<trkpt lat="43.2296581" lon="-2.9354304">
<ele>199.610855</ele>
<time>2011-05-15T05:31:31.000Z</time>
</trkpt>
<trkpt lat="43.2296166" lon="-2.9352878">
<ele>198.168945</ele>
<time>2011-05-15T05:31:38.000Z</time>
</trkpt>
<trkpt lat="43.2295219" lon="-2.9349797">
<ele>194.323730</ele>
<time>2011-05-15T05:31:53.000Z</time>
</trkpt>
<trkpt lat="43.2295188" lon="-2.9349586">
<ele>194.323730</ele>
<time>2011-05-15T05:31:54.000Z</time>
</trkpt>
<trkpt lat="43.2294704" lon="-2.9346248">
<ele>192.401123</ele>
<time>2011-05-15T05:32:10.000Z</time>
</trkpt>
<trkpt lat="43.2294074" lon="-2.9344210">
<ele>190.478409</ele>
<time>2011-05-15T05:32:21.000Z</time>
</trkpt>
<trkpt lat="43.2293549" lon="-2.9343119">
<ele>188.555786</ele>
<time>2011-05-15T05:32:28.000Z</time>
</trkpt>
<trkpt lat="43.2292736" lon="-2.9341549">
<ele>187.594360</ele>
<time>2011-05-15T05:32:37.000Z</time>
</trkpt>
<trkpt lat="43.2292525" lon="-2.9341294">
<ele>186.633179</ele>
<time>2011-05-15T05:32:39.000Z</time>
</trkpt>
<trkpt lat="43.2292396" lon="-2.9341172">
<ele>187.594360</ele>
<time>2011-05-15T05:32:40.000Z</time>
</trkpt>
<trkpt lat="43.2291971" lon="-2.9340874">
<ele>186.633179</ele>
<time>2011-05-15T05:32:43.000Z</time>
</trkpt>
<trkpt lat="43.2290908" lon="-2.9340000">
<ele>185.191177</ele>
<time>2011-05-15T05:32:50.000Z</time>
</trkpt>
<trkpt lat="43.2290454" lon="-2.9339628">
<ele>183.749023</ele>
<time>2011-05-15T05:32:53.000Z</time>
</trkpt>
<trkpt lat="43.2289051" lon="-2.9338451">
<ele>181.826416</ele>
<time>2011-05-15T05:33:06.000Z</time>
</trkpt>
<trkpt lat="43.2287823" lon="-2.9337084">
<ele>179.423218</ele>
<time>2011-05-15T05:33:16.000Z</time>
</trkpt>
<trkpt lat="43.2287153" lon="-2.9336162">
<ele>178.942627</ele>
<time>2011-05-15T05:33:29.000Z</time>
</trkpt>
<trkpt lat="43.2286361" lon="-2.9334808">
<ele>176.058594</ele>
<time>2011-05-15T05:33:38.000Z</time>
</trkpt>
<trkpt lat="43.2285934" lon="-2.9334184">
<ele>176.539307</ele>
<time>2011-05-15T05:33:42.000Z</time>
</trkpt>
<trkpt lat="43.2285333" lon="-2.9333137">
<ele>174.616577</ele>
<time>2011-05-15T05:33:48.000Z</time>
</trkpt>
<trkpt lat="43.2284600" lon="-2.9332088">
<ele>173.655273</ele>
<time>2011-05-15T05:33:55.000Z</time>
</trkpt>
<trkpt lat="43.2283066" lon="-2.9330707">
<ele>170.771362</ele>
<time>2011-05-15T05:34:06.000Z</time>
</trkpt>
<trkpt lat="43.2282002" lon="-2.9330316">
<ele>169.329453</ele>
<time>2011-05-15T05:34:13.000Z</time>
</trkpt>
<trkpt lat="43.2281106" lon="-2.9330370">
<ele>168.368042</ele>
<time>2011-05-15T05:34:19.000Z</time>
</trkpt>
<trkpt lat="43.2280400" lon="-2.9330329">
<ele>166.926041</ele>
<time>2011-05-15T05:34:24.000Z</time>
</trkpt>
<trkpt lat="43.2279430" lon="-2.9330127">
<ele>166.445313</ele>
<time>2011-05-15T05:34:30.000Z</time>
</trkpt>
<trkpt lat="43.2278363" lon="-2.9329696">
<ele>164.042114</ele>
<time>2011-05-15T05:34:36.000Z</time>
</trkpt>
<trkpt lat="43.2278017" lon="-2.9329501">
<ele>165.484131</ele>
<time>2011-05-15T05:34:38.000Z</time>
</trkpt>
<trkpt lat="43.2275950" lon="-2.9328457">
<ele>162.600098</ele>
<time>2011-05-15T05:34:51.000Z</time>
</trkpt>
<trkpt lat="43.2275151" lon="-2.9327786">
<ele>159.716187</ele>
<time>2011-05-15T05:34:57.000Z</time>
</trkpt>
<trkpt lat="43.2274691" lon="-2.9327436">
<ele>159.716187</ele>
<time>2011-05-15T05:35:00.000Z</time>
</trkpt>
<trkpt lat="43.2273965" lon="-2.9326567">
<ele>157.312866</ele>
<time>2011-05-15T05:35:06.000Z</time>
</trkpt>
<trkpt lat="43.2273728" lon="-2.9326247">
<ele>156.351547</ele>
<time>2011-05-15T05:35:08.000Z</time>
</trkpt>
<trkpt lat="43.2273324" lon="-2.9325242">
<ele>155.390259</ele>
<time>2011-05-15T05:35:14.000Z</time>
</trkpt>
<trkpt lat="43.2273060" lon="-2.9324589">
<ele>154.428955</ele>
<time>2011-05-15T05:35:18.000Z</time>
</trkpt>
<trkpt lat="43.2272950" lon="-2.9323746">
<ele>155.390259</ele>
<time>2011-05-15T05:35:23.000Z</time>
</trkpt>
<trkpt lat="43.2271537" lon="-2.9322673">
<ele>153.467651</ele>
<time>2011-05-15T05:35:32.000Z</time>
</trkpt>
<trkpt lat="43.2270886" lon="-2.9322171">
<ele>154.428955</ele>
<time>2011-05-15T05:35:36.000Z</time>
</trkpt>
<trkpt lat="43.2268619" lon="-2.9321215">
<ele>155.870972</ele>
<time>2011-05-15T05:35:52.000Z</time>
</trkpt>
<trkpt lat="43.2268355" lon="-2.9321036">
<ele>156.832153</ele>
<time>2011-05-15T05:35:54.000Z</time>
</trkpt>
<trkpt lat="43.2267978" lon="-2.9320663">
<ele>156.832153</ele>
<time>2011-05-15T05:35:58.000Z</time>
</trkpt>
<trkpt lat="43.2267634" lon="-2.9319969">
<ele>157.793594</ele>
<time>2011-05-15T05:36:03.000Z</time>
</trkpt>
<trkpt lat="43.2266862" lon="-2.9319217">
<ele>157.793594</ele>
<time>2011-05-15T05:36:10.000Z</time>
</trkpt>
<trkpt lat="43.2265703" lon="-2.9317825">
<ele>158.274170</ele>
<time>2011-05-15T05:36:20.000Z</time>
</trkpt>
<trkpt lat="43.2265661" lon="-2.9317253">
<ele>156.351547</ele>
<time>2011-05-15T05:36:23.000Z</time>
</trkpt>
<trkpt lat="43.2265605" lon="-2.9317037">
<ele>157.312866</ele>
<time>2011-05-15T05:36:24.000Z</time>
</trkpt>
<trkpt lat="43.2265081" lon="-2.9316245">
<ele>157.793594</ele>
<time>2011-05-15T05:36:29.000Z</time>
</trkpt>
<trkpt lat="43.2264716" lon="-2.9315163">
<ele>157.312866</ele>
<time>2011-05-15T05:36:35.000Z</time>
</trkpt>
<trkpt lat="43.2264325" lon="-2.9314306">
<ele>155.390259</ele>
<time>2011-05-15T05:36:40.000Z</time>
</trkpt>
<trkpt lat="43.2264060" lon="-2.9312644">
<ele>152.506348</ele>
<time>2011-05-15T05:36:49.000Z</time>
</trkpt>
<trkpt lat="43.2264030" lon="-2.9311929">
<ele>151.544922</ele>
<time>2011-05-15T05:36:53.000Z</time>
</trkpt>
<trkpt lat="43.2263935" lon="-2.9311648">
<ele>151.544922</ele>
<time>2011-05-15T05:36:55.000Z</time>
</trkpt>
<trkpt lat="43.2263142" lon="-2.9309904">
<ele>148.661011</ele>
<time>2011-05-15T05:37:05.000Z</time>
</trkpt>
<trkpt lat="43.2261916" lon="-2.9308082">
<ele>147.699707</ele>
<time>2011-05-15T05:37:16.000Z</time>
</trkpt>
<trkpt lat="43.2261330" lon="-2.9306814">
<ele>145.777100</ele>
<time>2011-05-15T05:37:23.000Z</time>
</trkpt>
<trkpt lat="43.2260967" lon="-2.9306330">
<ele>144.335205</ele>
<time>2011-05-15T05:37:26.000Z</time>
</trkpt>
<trkpt lat="43.2260859" lon="-2.9306117">
<ele>145.296387</ele>
<time>2011-05-15T05:37:27.000Z</time>
</trkpt>
<trkpt lat="43.2260190" lon="-2.9305442">
<ele>144.335205</ele>
<time>2011-05-15T05:37:31.000Z</time>
</trkpt>
<trkpt lat="43.2259331" lon="-2.9304269">
<ele>140.970459</ele>
<time>2011-05-15T05:37:38.000Z</time>
</trkpt>
<trkpt lat="43.2259026" lon="-2.9303768">
<ele>140.970459</ele>
<time>2011-05-15T05:37:41.000Z</time>
</trkpt>
<trkpt lat="43.2257009" lon="-2.9301959">
<ele>140.009155</ele>
<time>2011-05-15T05:37:52.000Z</time>
</trkpt>
<trkpt lat="43.2256283" lon="-2.9301642">
<ele>137.605835</ele>
<time>2011-05-15T05:37:57.000Z</time>
</trkpt>
<trkpt lat="43.2255312" lon="-2.9301643">
<ele>135.683105</ele>
<time>2011-05-15T05:38:03.000Z</time>
</trkpt>
<trkpt lat="43.2254742" lon="-2.9301632">
<ele>135.202515</ele>
<time>2011-05-15T05:38:07.000Z</time>
</trkpt>
<trkpt lat="43.2253908" lon="-2.9301645">
<ele>134.241211</ele>
<time>2011-05-15T05:38:12.000Z</time>
</trkpt>
<trkpt lat="43.2251730" lon="-2.9301533">
<ele>131.357300</ele>
<time>2011-05-15T05:38:23.000Z</time>
</trkpt>
<trkpt lat="43.2251292" lon="-2.9301275">
<ele>130.876709</ele>
<time>2011-05-15T05:38:26.000Z</time>
</trkpt>
<trkpt lat="43.2250882" lon="-2.9300928">
<ele>130.876709</ele>
<time>2011-05-15T05:38:30.000Z</time>
</trkpt>
<trkpt lat="43.2251490" lon="-2.9299010">
<ele>132.799316</ele>
<time>2011-05-15T05:38:43.000Z</time>
</trkpt>
<trkpt lat="43.2251867" lon="-2.9297151">
<ele>134.721924</ele>
<time>2011-05-15T05:38:57.000Z</time>
</trkpt>
<trkpt lat="43.2252318" lon="-2.9295848">
<ele>135.683105</ele>
<time>2011-05-15T05:39:07.000Z</time>
</trkpt>
<trkpt lat="43.2252934" lon="-2.9293923">
<ele>138.567261</ele>
<time>2011-05-15T05:39:18.000Z</time>
</trkpt>
<trkpt lat="43.2253359" lon="-2.9292711">
<ele>139.047852</ele>
<time>2011-05-15T05:39:24.000Z</time>
</trkpt>
<trkpt lat="43.2253218" lon="-2.9291318">
<ele>140.489868</ele>
<time>2011-05-15T05:39:31.000Z</time>
</trkpt>
<trkpt lat="43.2253123" lon="-2.9290939">
<ele>141.451050</ele>
<time>2011-05-15T05:39:33.000Z</time>
</trkpt>
<trkpt lat="43.2252753" lon="-2.9289969">
<ele>140.970459</ele>
<time>2011-05-15T05:39:39.000Z</time>
</trkpt>
<trkpt lat="43.2252191" lon="-2.9287981">
<ele>142.412476</ele>
<time>2011-05-15T05:39:49.000Z</time>
</trkpt>
<trkpt lat="43.2251891" lon="-2.9287127">
<ele>142.412476</ele>
<time>2011-05-15T05:39:53.000Z</time>
</trkpt>
<trkpt lat="43.2251655" lon="-2.9285273">
<ele>142.893066</ele>
<time>2011-05-15T05:40:03.000Z</time>
</trkpt>
<trkpt lat="43.2251657" lon="-2.9282847">
<ele>140.970459</ele>
<time>2011-05-15T05:40:17.000Z</time>
</trkpt>
<trkpt lat="43.2251573" lon="-2.9281658">
<ele>141.931763</ele>
<time>2011-05-15T05:40:23.000Z</time>
</trkpt>
<trkpt lat="43.2251328" lon="-2.9280512">
<ele>139.528442</ele>
<time>2011-05-15T05:40:29.000Z</time>
</trkpt>
<trkpt lat="43.2250928" lon="-2.9277880">
<ele>138.567261</ele>
<time>2011-05-15T05:40:42.000Z</time>
</trkpt>
<trkpt lat="43.2250633" lon="-2.9276773">
<ele>137.605835</ele>
<time>2011-05-15T05:40:48.000Z</time>
</trkpt>
<trkpt lat="43.2250567" lon="-2.9276548">
<ele>138.567261</ele>
<time>2011-05-15T05:40:49.000Z</time>
</trkpt>
<trkpt lat="43.2250639" lon="-2.9275723">
<ele>138.086548</ele>
<time>2011-05-15T05:40:53.000Z</time>
</trkpt>
<trkpt lat="43.2250349" lon="-2.9274807">
<ele>136.644653</ele>
<time>2011-05-15T05:40:58.000Z</time>
</trkpt>
<trkpt lat="43.2250218" lon="-2.9273991">
<ele>136.163940</ele>
<time>2011-05-15T05:41:02.000Z</time>
</trkpt>
<trkpt lat="43.2250028" lon="-2.9273441">
<ele>136.644653</ele>
<time>2011-05-15T05:41:05.000Z</time>
</trkpt>
<trkpt lat="43.2249540" lon="-2.9271828">
<ele>135.683105</ele>
<time>2011-05-15T05:41:13.000Z</time>
</trkpt>
<trkpt lat="43.2247482" lon="-2.9269939">
<ele>136.644653</ele>
<time>2011-05-15T05:41:25.000Z</time>
</trkpt>
<trkpt lat="43.2245687" lon="-2.9269096">
<ele>137.125244</ele>
<time>2011-05-15T05:41:37.000Z</time>
</trkpt>
<trkpt lat="43.2243768" lon="-2.9268427">
<ele>137.125244</ele>
<time>2011-05-15T05:41:49.000Z</time>
</trkpt>
<trkpt lat="43.2242019" lon="-2.9268397">
<ele>136.163940</ele>
<time>2011-05-15T05:42:00.000Z</time>
</trkpt>
<trkpt lat="43.2241619" lon="-2.9268339">
<ele>136.644653</ele>
<time>2011-05-15T05:42:03.000Z</time>
</trkpt>
<trkpt lat="43.2239677" lon="-2.9268007">
<ele>138.086548</ele>
<time>2011-05-15T05:42:16.000Z</time>
</trkpt>
<trkpt lat="43.2238436" lon="-2.9268334">
<ele>137.605835</ele>
<time>2011-05-15T05:42:24.000Z</time>
</trkpt>
<trkpt lat="43.2237927" lon="-2.9268278">
<ele>138.086548</ele>
<time>2011-05-15T05:42:27.000Z</time>
</trkpt>
<trkpt lat="43.2237325" lon="-2.9268531">
<ele>139.528442</ele>
<time>2011-05-15T05:42:31.000Z</time>
</trkpt>
<trkpt lat="43.2236279" lon="-2.9269157">
<ele>139.047852</ele>
<time>2011-05-15T05:42:40.000Z</time>
</trkpt>
<trkpt lat="43.2235156" lon="-2.9269436">
<ele>139.528442</ele>
<time>2011-05-15T05:42:48.000Z</time>
</trkpt>
<trkpt lat="43.2235003" lon="-2.9269478">
<ele>140.009155</ele>
<time>2011-05-15T05:42:49.000Z</time>
</trkpt>
<trkpt lat="43.2232942" lon="-2.9270090">
<ele>141.931763</ele>
<time>2011-05-15T05:43:03.000Z</time>
</trkpt>
<trkpt lat="43.2231865" lon="-2.9270298">
<ele>143.373657</ele>
<time>2011-05-15T05:43:10.000Z</time>
</trkpt>
<trkpt lat="43.2228737" lon="-2.9270597">
<ele>144.815796</ele>
<time>2011-05-15T05:43:31.000Z</time>
</trkpt>
<trkpt lat="43.2228448" lon="-2.9270482">
<ele>143.854370</ele>
<time>2011-05-15T05:43:33.000Z</time>
</trkpt>
<trkpt lat="43.2228556" lon="-2.9268604">
<ele>145.296387</ele>
<time>2011-05-15T05:43:46.000Z</time>
</trkpt>
<trkpt lat="43.2228551" lon="-2.9268509">
<ele>145.777100</ele>
<time>2011-05-15T05:43:47.000Z</time>
</trkpt>
<trkpt lat="43.2228095" lon="-2.9267318">
<ele>148.180420</ele>
<time>2011-05-15T05:43:56.000Z</time>
</trkpt>
<trkpt lat="43.2227977" lon="-2.9266407">
<ele>149.622314</ele>
<time>2011-05-15T05:44:02.000Z</time>
</trkpt>
<trkpt lat="43.2228432" lon="-2.9264755">
<ele>152.986938</ele>
<time>2011-05-15T05:44:16.000Z</time>
</trkpt>
<trkpt lat="43.2228557" lon="-2.9263982">
<ele>154.428955</ele>
<time>2011-05-15T05:44:23.000Z</time>
</trkpt>
<trkpt lat="43.2228987" lon="-2.9262975">
<ele>157.793594</ele>
<time>2011-05-15T05:44:33.000Z</time>
</trkpt>
<trkpt lat="43.2229469" lon="-2.9261742">
<ele>160.677490</ele>
<time>2011-05-15T05:44:44.000Z</time>
</trkpt>
<trkpt lat="43.2229355" lon="-2.9259372">
<ele>162.600098</ele>
<time>2011-05-15T05:45:01.000Z</time>
</trkpt>
<trkpt lat="43.2228979" lon="-2.9259044">
<ele>163.561539</ele>
<time>2011-05-15T05:45:04.000Z</time>
</trkpt>
<trkpt lat="43.2228720" lon="-2.9258585">
<ele>163.080811</ele>
<time>2011-05-15T05:45:07.000Z</time>
</trkpt>
<trkpt lat="43.2229296" lon="-2.9258098">
<ele>165.484131</ele>
<time>2011-05-15T05:45:14.000Z</time>
</trkpt>
<trkpt lat="43.2229438" lon="-2.9258127">
<ele>165.484131</ele>
<time>2011-05-15T05:45:15.000Z</time>
</trkpt>
<trkpt lat="43.2231830" lon="-2.9258340">
<ele>169.329453</ele>
<time>2011-05-15T05:45:32.000Z</time>
</trkpt>
<trkpt lat="43.2233840" lon="-2.9258290">
<ele>170.771362</ele>
<time>2011-05-15T05:45:48.000Z</time>
</trkpt>
<trkpt lat="43.2235527" lon="-2.9257368">
<ele>173.655273</ele>
<time>2011-05-15T05:46:03.000Z</time>
</trkpt>
<trkpt lat="43.2235758" lon="-2.9256971">
<ele>174.616577</ele>
<time>2011-05-15T05:46:06.000Z</time>
</trkpt>
<trkpt lat="43.2235744" lon="-2.9256693">
<ele>174.616577</ele>
<time>2011-05-15T05:46:08.000Z</time>
</trkpt>
<trkpt lat="43.2235340" lon="-2.9256537">
<ele>175.097290</ele>
<time>2011-05-15T05:46:12.000Z</time>
</trkpt>
<trkpt lat="43.2234366" lon="-2.9256750">
<ele>176.539307</ele>
<time>2011-05-15T05:46:20.000Z</time>
</trkpt>
<trkpt lat="43.2233452" lon="-2.9256645">
<ele>177.020020</ele>
<time>2011-05-15T05:46:27.000Z</time>
</trkpt>
<trkpt lat="43.2232182" lon="-2.9256216">
<ele>178.942627</ele>
<time>2011-05-15T05:46:42.000Z</time>
</trkpt>
<trkpt lat="43.2231383" lon="-2.9256020">
<ele>178.942627</ele>
<time>2011-05-15T05:46:49.000Z</time>
</trkpt>
<trkpt lat="43.2229644" lon="-2.9254926">
<ele>181.826416</ele>
<time>2011-05-15T05:47:05.000Z</time>
</trkpt>
<trkpt lat="43.2229535" lon="-2.9254824">
<ele>182.307129</ele>
<time>2011-05-15T05:47:06.000Z</time>
</trkpt>
<trkpt lat="43.2227695" lon="-2.9253320">
<ele>184.710571</ele>
<time>2011-05-15T05:47:22.000Z</time>
</trkpt>
<trkpt lat="43.2226882" lon="-2.9252662">
<ele>185.191177</ele>
<time>2011-05-15T05:47:29.000Z</time>
</trkpt>
<trkpt lat="43.2225216" lon="-2.9251734">
<ele>186.152466</ele>
<time>2011-05-15T05:47:42.000Z</time>
</trkpt>
<trkpt lat="43.2223387" lon="-2.9250782">
<ele>187.113770</ele>
<time>2011-05-15T05:47:56.000Z</time>
</trkpt>
<trkpt lat="43.2222113" lon="-2.9250524">
<ele>189.036362</ele>
<time>2011-05-15T05:48:05.000Z</time>
</trkpt>
<trkpt lat="43.2221173" lon="-2.9250344">
<ele>189.997681</ele>
<time>2011-05-15T05:48:11.000Z</time>
</trkpt>
<trkpt lat="43.2219406" lon="-2.9248863">
<ele>191.920288</ele>
<time>2011-05-15T05:48:27.000Z</time>
</trkpt>
<trkpt lat="43.2219050" lon="-2.9248497">
<ele>193.843018</ele>
<time>2011-05-15T05:48:31.000Z</time>
</trkpt>
<trkpt lat="43.2218285" lon="-2.9247915">
<ele>197.207520</ele>
<time>2011-05-15T05:48:40.000Z</time>
</trkpt>
<trkpt lat="43.2217762" lon="-2.9246867">
<ele>200.091675</ele>
<time>2011-05-15T05:48:51.000Z</time>
</trkpt>
<trkpt lat="43.2217213" lon="-2.9246128">
<ele>202.975464</ele>
<time>2011-05-15T05:49:01.000Z</time>
</trkpt>
<trkpt lat="43.2216453" lon="-2.9245293">
<ele>206.340088</ele>
<time>2011-05-15T05:49:13.000Z</time>
</trkpt>
<trkpt lat="43.2216013" lon="-2.9244879">
<ele>208.262817</ele>
<time>2011-05-15T05:49:20.000Z</time>
</trkpt>
<trkpt lat="43.2215676" lon="-2.9244417">
<ele>210.185425</ele>
<time>2011-05-15T05:49:26.000Z</time>
</trkpt>
<trkpt lat="43.2215078" lon="-2.9243472">
<ele>213.550049</ele>
<time>2011-05-15T05:49:38.000Z</time>
</trkpt>
<trkpt lat="43.2214580" lon="-2.9242915">
<ele>215.953262</ele>
<time>2011-05-15T05:49:47.000Z</time>
</trkpt>
<trkpt lat="43.2213881" lon="-2.9242092">
<ele>218.837280</ele>
<time>2011-05-15T05:50:01.000Z</time>
</trkpt>
<trkpt lat="43.2213771" lon="-2.9241693">
<ele>220.279175</ele>
<time>2011-05-15T05:50:05.000Z</time>
</trkpt>
<trkpt lat="43.2215579" lon="-2.9242004">
<ele>221.721176</ele>
<time>2011-05-15T05:50:20.000Z</time>
</trkpt>
<trkpt lat="43.2217013" lon="-2.9241541">
<ele>224.605225</ele>
<time>2011-05-15T05:50:34.000Z</time>
</trkpt>
<trkpt lat="43.2216962" lon="-2.9241459">
<ele>224.605225</ele>
<time>2011-05-15T05:50:35.000Z</time>
</trkpt>
<trkpt lat="43.2215761" lon="-2.9240562">
<ele>229.411743</ele>
<time>2011-05-15T05:50:50.000Z</time>
</trkpt>
<trkpt lat="43.2214931" lon="-2.9239723">
<ele>232.295776</ele>
<time>2011-05-15T05:51:02.000Z</time>
</trkpt>
<trkpt lat="43.2214858" lon="-2.9239635">
<ele>232.776489</ele>
<time>2011-05-15T05:51:03.000Z</time>
</trkpt>
<trkpt lat="43.2214120" lon="-2.9238574">
<ele>235.660278</ele>
<time>2011-05-15T05:51:15.000Z</time>
</trkpt>
<trkpt lat="43.2213581" lon="-2.9237472">
<ele>238.544312</ele>
<time>2011-05-15T05:51:26.000Z</time>
</trkpt>
<trkpt lat="43.2213459" lon="-2.9237258">
<ele>239.505493</ele>
<time>2011-05-15T05:51:28.000Z</time>
</trkpt>
<trkpt lat="43.2212731" lon="-2.9236083">
<ele>242.389648</ele>
<time>2011-05-15T05:51:41.000Z</time>
</trkpt>
<trkpt lat="43.2212615" lon="-2.9235901">
<ele>242.870239</ele>
<time>2011-05-15T05:51:43.000Z</time>
</trkpt>
<trkpt lat="43.2212140" lon="-2.9234972">
<ele>246.234863</ele>
<time>2011-05-15T05:51:53.000Z</time>
</trkpt>
<trkpt lat="43.2211725" lon="-2.9234242">
<ele>248.638184</ele>
<time>2011-05-15T05:52:01.000Z</time>
</trkpt>
<trkpt lat="43.2211052" lon="-2.9233124">
<ele>252.002808</ele>
<time>2011-05-15T05:52:14.000Z</time>
</trkpt>
<trkpt lat="43.2210192" lon="-2.9232107">
<ele>255.367310</ele>
<time>2011-05-15T05:52:26.000Z</time>
</trkpt>
<trkpt lat="43.2209570" lon="-2.9231776">
<ele>255.848022</ele>
<time>2011-05-15T05:52:32.000Z</time>
</trkpt>
<trkpt lat="43.2208576" lon="-2.9230947">
<ele>258.251343</ele>
<time>2011-05-15T05:52:43.000Z</time>
</trkpt>
<trkpt lat="43.2208365" lon="-2.9230888">
<ele>258.731934</ele>
<time>2011-05-15T05:52:45.000Z</time>
</trkpt>
<trkpt lat="43.2207966" lon="-2.9230592">
<ele>259.212646</ele>
<time>2011-05-15T05:52:49.000Z</time>
</trkpt>
<trkpt lat="43.2206795" lon="-2.9230517">
<ele>260.654541</ele>
<time>2011-05-15T05:52:59.000Z</time>
</trkpt>
<trkpt lat="43.2205235" lon="-2.9230778">
<ele>263.057861</ele>
<time>2011-05-15T05:53:13.000Z</time>
</trkpt>
<trkpt lat="43.2204912" lon="-2.9230450">
<ele>264.499878</ele>
<time>2011-05-15T05:53:17.000Z</time>
</trkpt>
<trkpt lat="43.2203444" lon="-2.9230207">
<ele>268.345093</ele>
<time>2011-05-15T05:53:31.000Z</time>
</trkpt>
<trkpt lat="43.2202536" lon="-2.9230069">
<ele>269.306519</ele>
<time>2011-05-15T05:53:39.000Z</time>
</trkpt>
<trkpt lat="43.2202137" lon="-2.9230796">
<ele>269.787109</ele>
<time>2011-05-15T05:53:46.000Z</time>
</trkpt>
<trkpt lat="43.2201879" lon="-2.9232379">
<ele>273.632446</ele>
<time>2011-05-15T05:53:58.000Z</time>
</trkpt>
<trkpt lat="43.2201817" lon="-2.9232865">
<ele>274.113037</ele>
<time>2011-05-15T05:54:02.000Z</time>
</trkpt>
<trkpt lat="43.2201791" lon="-2.9233449">
<ele>275.555054</ele>
<time>2011-05-15T05:54:06.000Z</time>
</trkpt>
<trkpt lat="43.2201775" lon="-2.9233780">
<ele>275.555054</ele>
<time>2011-05-15T05:54:08.000Z</time>
</trkpt>
<trkpt lat="43.2201652" lon="-2.9234223">
<ele>275.555054</ele>
<time>2011-05-15T05:54:11.000Z</time>
</trkpt>
<trkpt lat="43.2200776" lon="-2.9234215">
<ele>277.958252</ele>
<time>2011-05-15T05:54:20.000Z</time>
</trkpt>
<trkpt lat="43.2200154" lon="-2.9233322">
<ele>281.322998</ele>
<time>2011-05-15T05:54:33.000Z</time>
</trkpt>
<trkpt lat="43.2200088" lon="-2.9233136">
<ele>282.284302</ele>
<time>2011-05-15T05:54:35.000Z</time>
</trkpt>
<trkpt lat="43.2199697" lon="-2.9231959">
<ele>285.168213</ele>
<time>2011-05-15T05:54:48.000Z</time>
</trkpt>
<trkpt lat="43.2199142" lon="-2.9230332">
<ele>288.052246</ele>
<time>2011-05-15T05:55:02.000Z</time>
</trkpt>
<trkpt lat="43.2199188" lon="-2.9227860">
<ele>290.936157</ele>
<time>2011-05-15T05:55:19.000Z</time>
</trkpt>
<trkpt lat="43.2199216" lon="-2.9227244">
<ele>290.936157</ele>
<time>2011-05-15T05:55:24.000Z</time>
</trkpt>
<trkpt lat="43.2198838" lon="-2.9226590">
<ele>293.820068</ele>
<time>2011-05-15T05:55:31.000Z</time>
</trkpt>
<trkpt lat="43.2198646" lon="-2.9226489">
<ele>294.781372</ele>
<time>2011-05-15T05:55:34.000Z</time>
</trkpt>
<trkpt lat="43.2197958" lon="-2.9226521">
<ele>298.146118</ele>
<time>2011-05-15T05:55:45.000Z</time>
</trkpt>
<trkpt lat="43.2197194" lon="-2.9227419">
<ele>300.549316</ele>
<time>2011-05-15T05:55:57.000Z</time>
</trkpt>
<trkpt lat="43.2196605" lon="-2.9228662">
<ele>303.913940</ele>
<time>2011-05-15T05:56:10.000Z</time>
</trkpt>
<trkpt lat="43.2196222" lon="-2.9228798">
<ele>304.394653</ele>
<time>2011-05-15T05:56:16.000Z</time>
</trkpt>
<trkpt lat="43.2196175" lon="-2.9228544">
<ele>305.355957</ele>
<time>2011-05-15T05:56:18.000Z</time>
</trkpt>
<trkpt lat="43.2196047" lon="-2.9226922">
<ele>307.278564</ele>
<time>2011-05-15T05:56:29.000Z</time>
</trkpt>
<trkpt lat="43.2195372" lon="-2.9227250">
<ele>309.681885</ele>
<time>2011-05-15T05:56:40.000Z</time>
</trkpt>
<trkpt lat="43.2194699" lon="-2.9227043">
<ele>312.565826</ele>
<time>2011-05-15T05:56:50.000Z</time>
</trkpt>
<trkpt lat="43.2194047" lon="-2.9227069">
<ele>314.488403</ele>
<time>2011-05-15T05:56:59.000Z</time>
</trkpt>
<trkpt lat="43.2193052" lon="-2.9226769">
<ele>317.372437</ele>
<time>2011-05-15T05:57:14.000Z</time>
</trkpt>
<trkpt lat="43.2192439" lon="-2.9226885">
<ele>320.256348</ele>
<time>2011-05-15T05:57:24.000Z</time>
</trkpt>
<trkpt lat="43.2191918" lon="-2.9226534">
<ele>322.178955</ele>
<time>2011-05-15T05:57:33.000Z</time>
</trkpt>
<trkpt lat="43.2190855" lon="-2.9226492">
<ele>325.543579</ele>
<time>2011-05-15T05:57:48.000Z</time>
</trkpt>
<trkpt lat="43.2190778" lon="-2.9226472">
<ele>326.024170</ele>
<time>2011-05-15T05:57:49.000Z</time>
</trkpt>
<trkpt lat="43.2189888" lon="-2.9226189">
<ele>328.908325</ele>
<time>2011-05-15T05:58:01.000Z</time>
</trkpt>
<trkpt lat="43.2188721" lon="-2.9226318">
<ele>331.792114</ele>
<time>2011-05-15T05:58:15.000Z</time>
</trkpt>
<trkpt lat="43.2188264" lon="-2.9226608">
<ele>334.195465</ele>
<time>2011-05-15T05:58:21.000Z</time>
</trkpt>
<trkpt lat="43.2187462" lon="-2.9227141">
<ele>336.598877</ele>
<time>2011-05-15T05:58:32.000Z</time>
</trkpt>
<trkpt lat="43.2187217" lon="-2.9228048">
<ele>340.444061</ele>
<time>2011-05-15T05:58:45.000Z</time>
</trkpt>
<trkpt lat="43.2187163" lon="-2.9228074">
<ele>340.444061</ele>
<time>2011-05-15T05:58:46.000Z</time>
</trkpt>
<trkpt lat="43.2187119" lon="-2.9228146">
<ele>340.444061</ele>
<time>2011-05-15T05:58:47.000Z</time>
</trkpt>
<trkpt lat="43.2187235" lon="-2.9230054">
<ele>343.327881</ele>
<time>2011-05-15T05:59:03.000Z</time>
</trkpt>
<trkpt lat="43.2187271" lon="-2.9231195">
<ele>346.212036</ele>
<time>2011-05-15T05:59:13.000Z</time>
</trkpt>
<trkpt lat="43.2187292" lon="-2.9231426">
<ele>346.692627</ele>
<time>2011-05-15T05:59:15.000Z</time>
</trkpt>
<trkpt lat="43.2187033" lon="-2.9233418">
<ele>350.057251</ele>
<time>2011-05-15T05:59:32.000Z</time>
</trkpt>
<trkpt lat="43.2186669" lon="-2.9234887">
<ele>352.460571</ele>
<time>2011-05-15T05:59:44.000Z</time>
</trkpt>
<trkpt lat="43.2186354" lon="-2.9236683">
<ele>356.305756</ele>
<time>2011-05-15T05:59:57.000Z</time>
</trkpt>
<trkpt lat="43.2186038" lon="-2.9238952">
<ele>359.189697</ele>
<time>2011-05-15T06:00:14.000Z</time>
</trkpt>
<trkpt lat="43.2184202" lon="-2.9239856">
<ele>362.554321</ele>
<time>2011-05-15T06:00:30.000Z</time>
</trkpt>
<trkpt lat="43.2182494" lon="-2.9240339">
<ele>365.438354</ele>
<time>2011-05-15T06:00:47.000Z</time>
</trkpt>
<trkpt lat="43.2182426" lon="-2.9240313">
<ele>364.957642</ele>
<time>2011-05-15T06:00:48.000Z</time>
</trkpt>
<trkpt lat="43.2181260" lon="-2.9241128">
<ele>368.322266</ele>
<time>2011-05-15T06:01:01.000Z</time>
</trkpt>
<trkpt lat="43.2181022" lon="-2.9241238">
<ele>369.764282</ele>
<time>2011-05-15T06:01:04.000Z</time>
</trkpt>
<trkpt lat="43.2180924" lon="-2.9241253">
<ele>369.283691</ele>
<time>2011-05-15T06:01:05.000Z</time>
</trkpt>
<trkpt lat="43.2180081" lon="-2.9241100">
<ele>372.167511</ele>
<time>2011-05-15T06:01:18.000Z</time>
</trkpt>
<trkpt lat="43.2179553" lon="-2.9240460">
<ele>375.051514</ele>
<time>2011-05-15T06:01:29.000Z</time>
</trkpt>
<trkpt lat="43.2179143" lon="-2.9240452">
<ele>376.493530</ele>
<time>2011-05-15T06:01:35.000Z</time>
</trkpt>
<trkpt lat="43.2178062" lon="-2.9241246">
<ele>379.858032</ele>
<time>2011-05-15T06:01:49.000Z</time>
</trkpt>
<trkpt lat="43.2176962" lon="-2.9241827">
<ele>382.261353</ele>
<time>2011-05-15T06:02:04.000Z</time>
</trkpt>
<trkpt lat="43.2176408" lon="-2.9242146">
<ele>384.184052</ele>
<time>2011-05-15T06:02:11.000Z</time>
</trkpt>
<trkpt lat="43.2175926" lon="-2.9242396">
<ele>384.664795</ele>
<time>2011-05-15T06:02:17.000Z</time>
</trkpt>
<trkpt lat="43.2175702" lon="-2.9242625">
<ele>386.106689</ele>
<time>2011-05-15T06:02:20.000Z</time>
</trkpt>
<trkpt lat="43.2174700" lon="-2.9243495">
<ele>388.990570</ele>
<time>2011-05-15T06:02:34.000Z</time>
</trkpt>
<trkpt lat="43.2174299" lon="-2.9243697">
<ele>390.432617</ele>
<time>2011-05-15T06:02:40.000Z</time>
</trkpt>
<trkpt lat="43.2173999" lon="-2.9243755">
<ele>391.874512</ele>
<time>2011-05-15T06:02:45.000Z</time>
</trkpt>
<trkpt lat="43.2173540" lon="-2.9243885">
<ele>393.316528</ele>
<time>2011-05-15T06:02:52.000Z</time>
</trkpt>
<trkpt lat="43.2172864" lon="-2.9243977">
<ele>397.161743</ele>
<time>2011-05-15T06:03:04.000Z</time>
</trkpt>
<trkpt lat="43.2172471" lon="-2.9244189">
<ele>398.123169</ele>
<time>2011-05-15T06:03:10.000Z</time>
</trkpt>
<trkpt lat="43.2171833" lon="-2.9244226">
<ele>401.487793</ele>
<time>2011-05-15T06:03:22.000Z</time>
</trkpt>
<trkpt lat="43.2171175" lon="-2.9244601">
<ele>404.371704</ele>
<time>2011-05-15T06:03:32.000Z</time>
</trkpt>
<trkpt lat="43.2171117" lon="-2.9244659">
<ele>404.371704</ele>
<time>2011-05-15T06:03:33.000Z</time>
</trkpt>
<trkpt lat="43.2170726" lon="-2.9245116">
<ele>406.294312</ele>
<time>2011-05-15T06:03:39.000Z</time>
</trkpt>
<trkpt lat="43.2169902" lon="-2.9246261">
<ele>409.178345</ele>
<time>2011-05-15T06:03:54.000Z</time>
</trkpt>
<trkpt lat="43.2169305" lon="-2.9247421">
<ele>413.023560</ele>
<time>2011-05-15T06:04:08.000Z</time>
</trkpt>
<trkpt lat="43.2169292" lon="-2.9247541">
<ele>413.023560</ele>
<time>2011-05-15T06:04:09.000Z</time>
</trkpt>
<trkpt lat="43.2168660" lon="-2.9249474">
<ele>416.388153</ele>
<time>2011-05-15T06:04:28.000Z</time>
</trkpt>
<trkpt lat="43.2168114" lon="-2.9250417">
<ele>419.272217</ele>
<time>2011-05-15T06:04:42.000Z</time>
</trkpt>
<trkpt lat="43.2167596" lon="-2.9250527">
<ele>422.636719</ele>
<time>2011-05-15T06:04:52.000Z</time>
</trkpt>
<trkpt lat="43.2167110" lon="-2.9250981">
<ele>426.482056</ele>
<time>2011-05-15T06:05:03.000Z</time>
</trkpt>
<trkpt lat="43.2166564" lon="-2.9251193">
<ele>429.365967</ele>
<time>2011-05-15T06:05:15.000Z</time>
</trkpt>
<trkpt lat="43.2166084" lon="-2.9251529">
<ele>432.250000</ele>
<time>2011-05-15T06:05:26.000Z</time>
</trkpt>
<trkpt lat="43.2165769" lon="-2.9251555">
<ele>433.691895</ele>
<time>2011-05-15T06:05:32.000Z</time>
</trkpt>
<trkpt lat="43.2165271" lon="-2.9252042">
<ele>437.056519</ele>
<time>2011-05-15T06:05:44.000Z</time>
</trkpt>
<trkpt lat="43.2164809" lon="-2.9252213">
<ele>440.421265</ele>
<time>2011-05-15T06:05:56.000Z</time>
</trkpt>
<trkpt lat="43.2164212" lon="-2.9252708">
<ele>443.785736</ele>
<time>2011-05-15T06:06:08.000Z</time>
</trkpt>
<trkpt lat="43.2163593" lon="-2.9253228">
<ele>446.669678</ele>
<time>2011-05-15T06:06:21.000Z</time>
</trkpt>
<trkpt lat="43.2162993" lon="-2.9253452">
<ele>449.553680</ele>
<time>2011-05-15T06:06:34.000Z</time>
</trkpt>
<trkpt lat="43.2162464" lon="-2.9253886">
<ele>451.957031</ele>
<time>2011-05-15T06:06:47.000Z</time>
</trkpt>
<trkpt lat="43.2161826" lon="-2.9253951">
<ele>454.840820</ele>
<time>2011-05-15T06:06:58.000Z</time>
</trkpt>
<trkpt lat="43.2161454" lon="-2.9254170">
<ele>457.725006</ele>
<time>2011-05-15T06:07:05.000Z</time>
</trkpt>
<trkpt lat="43.2160655" lon="-2.9254254">
<ele>460.608765</ele>
<time>2011-05-15T06:07:18.000Z</time>
</trkpt>
<trkpt lat="43.2159899" lon="-2.9254300">
<ele>463.492798</ele>
<time>2011-05-15T06:07:30.000Z</time>
</trkpt>
<trkpt lat="43.2159307" lon="-2.9254400">
<ele>466.857422</ele>
<time>2011-05-15T06:07:40.000Z</time>
</trkpt>
<trkpt lat="43.2158717" lon="-2.9254352">
<ele>468.299316</ele>
<time>2011-05-15T06:07:48.000Z</time>
</trkpt>
<trkpt lat="43.2157569" lon="-2.9254413">
<ele>471.663940</ele>
<time>2011-05-15T06:08:03.000Z</time>
</trkpt>
<trkpt lat="43.2156983" lon="-2.9254452">
<ele>473.106079</ele>
<time>2011-05-15T06:08:10.000Z</time>
</trkpt>
<trkpt lat="43.2156549" lon="-2.9254431">
<ele>473.106079</ele>
<time>2011-05-15T06:08:14.000Z</time>
</trkpt>
<trkpt lat="43.2156299" lon="-2.9254591">
<ele>473.586670</ele>
<time>2011-05-15T06:08:17.000Z</time>
</trkpt>
<trkpt lat="43.2155259" lon="-2.9255616">
<ele>473.586670</ele>
<time>2011-05-15T06:08:31.000Z</time>
</trkpt>
<trkpt lat="43.2154446" lon="-2.9256518">
<ele>473.586670</ele>
<time>2011-05-15T06:08:44.000Z</time>
</trkpt>
<trkpt lat="43.2154419" lon="-2.9256640">
<ele>472.625366</ele>
<time>2011-05-15T06:08:45.000Z</time>
</trkpt>
<trkpt lat="43.2154186" lon="-2.9257025">
<ele>473.106079</ele>
<time>2011-05-15T06:08:49.000Z</time>
</trkpt>
<trkpt lat="43.2152148" lon="-2.9256055">
<ele>473.106079</ele>
<time>2011-05-15T06:09:07.000Z</time>
</trkpt>
<trkpt lat="43.2151566" lon="-2.9255553">
<ele>472.144653</ele>
<time>2011-05-15T06:09:12.000Z</time>
</trkpt>
<trkpt lat="43.2151192" lon="-2.9256464">
<ele>472.144653</ele>
<time>2011-05-15T06:09:20.000Z</time>
</trkpt>
<trkpt lat="43.2150980" lon="-2.9257207">
<ele>471.183319</ele>
<time>2011-05-15T06:09:26.000Z</time>
</trkpt>
<trkpt lat="43.2149865" lon="-2.9257589">
<ele>470.221954</ele>
<time>2011-05-15T06:09:39.000Z</time>
</trkpt>
<trkpt lat="43.2149522" lon="-2.9257612">
<ele>470.221954</ele>
<time>2011-05-15T06:09:42.000Z</time>
</trkpt>
<trkpt lat="43.2149140" lon="-2.9257189">
<ele>471.183319</ele>
<time>2011-05-15T06:09:47.000Z</time>
</trkpt>
<trkpt lat="43.2149025" lon="-2.9256990">
<ele>471.183319</ele>
<time>2011-05-15T06:09:49.000Z</time>
</trkpt>
<trkpt lat="43.2148648" lon="-2.9257117">
<ele>471.183319</ele>
<time>2011-05-15T06:09:53.000Z</time>
</trkpt>
<trkpt lat="43.2147634" lon="-2.9257006">
<ele>471.663940</ele>
<time>2011-05-15T06:10:02.000Z</time>
</trkpt>
<trkpt lat="43.2146011" lon="-2.9257888">
<ele>471.663940</ele>
<time>2011-05-15T06:10:17.000Z</time>
</trkpt>
<trkpt lat="43.2145084" lon="-2.9259232">
<ele>471.663940</ele>
<time>2011-05-15T06:10:27.000Z</time>
</trkpt>
<trkpt lat="43.2144992" lon="-2.9259548">
<ele>469.741333</ele>
<time>2011-05-15T06:10:29.000Z</time>
</trkpt>
<trkpt lat="43.2144820" lon="-2.9260266">
<ele>468.299316</ele>
<time>2011-05-15T06:10:33.000Z</time>
</trkpt>
<trkpt lat="43.2143576" lon="-2.9262481">
<ele>470.221954</ele>
<time>2011-05-15T06:10:48.000Z</time>
</trkpt>
<trkpt lat="43.2142904" lon="-2.9265883">
<ele>473.106079</ele>
<time>2011-05-15T06:11:09.000Z</time>
</trkpt>
<trkpt lat="43.2143079" lon="-2.9269650">
<ele>475.028687</ele>
<time>2011-05-15T06:11:30.000Z</time>
</trkpt>
<trkpt lat="43.2143494" lon="-2.9272377">
<ele>478.393188</ele>
<time>2011-05-15T06:11:46.000Z</time>
</trkpt>
<trkpt lat="43.2143116" lon="-2.9273881">
<ele>479.835083</ele>
<time>2011-05-15T06:11:55.000Z</time>
</trkpt>
<trkpt lat="43.2141620" lon="-2.9276756">
<ele>480.796631</ele>
<time>2011-05-15T06:12:14.000Z</time>
</trkpt>
<trkpt lat="43.2139741" lon="-2.9278962">
<ele>485.122437</ele>
<time>2011-05-15T06:12:33.000Z</time>
</trkpt>
<trkpt lat="43.2139645" lon="-2.9279031">
<ele>485.122437</ele>
<time>2011-05-15T06:12:34.000Z</time>
</trkpt>
<trkpt lat="43.2138441" lon="-2.9280853">
<ele>486.564453</ele>
<time>2011-05-15T06:12:51.000Z</time>
</trkpt>
<trkpt lat="43.2137704" lon="-2.9281043">
<ele>487.525635</ele>
<time>2011-05-15T06:13:09.000Z</time>
</trkpt>
<trkpt lat="43.2137692" lon="-2.9281043">
<ele>487.525635</ele>
<time>2011-05-15T06:13:22.000Z</time>
</trkpt>
<trkpt lat="43.2137811" lon="-2.9282017">
<ele>488.006470</ele>
<time>2011-05-15T06:13:28.000Z</time>
</trkpt>
<trkpt lat="43.2137584" lon="-2.9282796">
<ele>488.006470</ele>
<time>2011-05-15T06:13:33.000Z</time>
</trkpt>
<trkpt lat="43.2136174" lon="-2.9284008">
<ele>491.370972</ele>
<time>2011-05-15T06:13:49.000Z</time>
</trkpt>
<trkpt lat="43.2135290" lon="-2.9282874">
<ele>494.735596</ele>
<time>2011-05-15T06:14:01.000Z</time>
</trkpt>
<trkpt lat="43.2135154" lon="-2.9282699">
<ele>495.696899</ele>
<time>2011-05-15T06:14:03.000Z</time>
</trkpt>
<trkpt lat="43.2134454" lon="-2.9281958">
<ele>498.580902</ele>
<time>2011-05-15T06:14:14.000Z</time>
</trkpt>
<trkpt lat="43.2133962" lon="-2.9281349">
<ele>501.945557</ele>
<time>2011-05-15T06:14:25.000Z</time>
</trkpt>
<trkpt lat="43.2133863" lon="-2.9281257">
<ele>502.906769</ele>
<time>2011-05-15T06:14:27.000Z</time>
</trkpt>
<trkpt lat="43.2133342" lon="-2.9280666">
<ele>506.271484</ele>
<time>2011-05-15T06:14:39.000Z</time>
</trkpt>
<trkpt lat="43.2132848" lon="-2.9279916">
<ele>510.116699</ele>
<time>2011-05-15T06:14:51.000Z</time>
</trkpt>
<trkpt lat="43.2132802" lon="-2.9279857">
<ele>509.636078</ele>
<time>2011-05-15T06:14:52.000Z</time>
</trkpt>
<trkpt lat="43.2132403" lon="-2.9279326">
<ele>513.000732</ele>
<time>2011-05-15T06:15:01.000Z</time>
</trkpt>
<trkpt lat="43.2131803" lon="-2.9278506">
<ele>516.365234</ele>
<time>2011-05-15T06:15:16.000Z</time>
</trkpt>
<trkpt lat="43.2131757" lon="-2.9278456">
<ele>516.365234</ele>
<time>2011-05-15T06:15:17.000Z</time>
</trkpt>
<trkpt lat="43.2131263" lon="-2.9277740">
<ele>519.729858</ele>
<time>2011-05-15T06:15:28.000Z</time>
</trkpt>
<trkpt lat="43.2130777" lon="-2.9276991">
<ele>522.613892</ele>
<time>2011-05-15T06:15:39.000Z</time>
</trkpt>
<trkpt lat="43.2130554" lon="-2.9276662">
<ele>523.575195</ele>
<time>2011-05-15T06:15:44.000Z</time>
</trkpt>
<trkpt lat="43.2130072" lon="-2.9275954">
<ele>526.939819</ele>
<time>2011-05-15T06:15:55.000Z</time>
</trkpt>
<trkpt lat="43.2129689" lon="-2.9275389">
<ele>529.823730</ele>
<time>2011-05-15T06:16:03.000Z</time>
</trkpt>
<trkpt lat="43.2129249" lon="-2.9274641">
<ele>532.707764</ele>
<time>2011-05-15T06:16:13.000Z</time>
</trkpt>
<trkpt lat="43.2128640" lon="-2.9273654">
<ele>536.072388</ele>
<time>2011-05-15T06:16:26.000Z</time>
</trkpt>
<trkpt lat="43.2128575" lon="-2.9273489">
<ele>536.553101</ele>
<time>2011-05-15T06:16:28.000Z</time>
</trkpt>
<trkpt lat="43.2128103" lon="-2.9272467">
<ele>539.917603</ele>
<time>2011-05-15T06:16:41.000Z</time>
</trkpt>
<trkpt lat="43.2127708" lon="-2.9271711">
<ele>542.801514</ele>
<time>2011-05-15T06:16:51.000Z</time>
</trkpt>
<trkpt lat="43.2127467" lon="-2.9271271">
<ele>544.243652</ele>
<time>2011-05-15T06:16:57.000Z</time>
</trkpt>
<trkpt lat="43.2127296" lon="-2.9270856">
<ele>546.166260</ele>
<time>2011-05-15T06:17:02.000Z</time>
</trkpt>
<trkpt lat="43.2127094" lon="-2.9270484">
<ele>547.127441</ele>
<time>2011-05-15T06:17:07.000Z</time>
</trkpt>
<trkpt lat="43.2126589" lon="-2.9269493">
<ele>550.492188</ele>
<time>2011-05-15T06:17:19.000Z</time>
</trkpt>
<trkpt lat="43.2126532" lon="-2.9269334">
<ele>550.972656</ele>
<time>2011-05-15T06:17:21.000Z</time>
</trkpt>
<trkpt lat="43.2126032" lon="-2.9268287">
<ele>554.817871</ele>
<time>2011-05-15T06:17:34.000Z</time>
</trkpt>
<trkpt lat="43.2126006" lon="-2.9268212">
<ele>554.817871</ele>
<time>2011-05-15T06:17:35.000Z</time>
</trkpt>
<trkpt lat="43.2125658" lon="-2.9267338">
<ele>558.182861</ele>
<time>2011-05-15T06:17:46.000Z</time>
</trkpt>
<trkpt lat="43.2125121" lon="-2.9266105">
<ele>561.547363</ele>
<time>2011-05-15T06:18:00.000Z</time>
</trkpt>
<trkpt lat="43.2125014" lon="-2.9265804">
<ele>562.989258</ele>
<time>2011-05-15T06:18:03.000Z</time>
</trkpt>
<trkpt lat="43.2124836" lon="-2.9265239">
<ele>564.431152</ele>
<time>2011-05-15T06:18:09.000Z</time>
</trkpt>
<trkpt lat="43.2124781" lon="-2.9265049">
<ele>565.873291</ele>
<time>2011-05-15T06:18:11.000Z</time>
</trkpt>
<trkpt lat="43.2124465" lon="-2.9264332">
<ele>569.237793</ele>
<time>2011-05-15T06:18:19.000Z</time>
</trkpt>
<trkpt lat="43.2124405" lon="-2.9264262">
<ele>569.237793</ele>
<time>2011-05-15T06:18:20.000Z</time>
</trkpt>
<trkpt lat="43.2124116" lon="-2.9263726">
<ele>571.160400</ele>
<time>2011-05-15T06:18:26.000Z</time>
</trkpt>
<trkpt lat="43.2123807" lon="-2.9262854">
<ele>574.044434</ele>
<time>2011-05-15T06:18:35.000Z</time>
</trkpt>
<trkpt lat="43.2123328" lon="-2.9261852">
<ele>576.447754</ele>
<time>2011-05-15T06:18:45.000Z</time>
</trkpt>
<trkpt lat="43.2122754" lon="-2.9260717">
<ele>579.331543</ele>
<time>2011-05-15T06:18:56.000Z</time>
</trkpt>
<trkpt lat="43.2122483" lon="-2.9260361">
<ele>580.773682</ele>
<time>2011-05-15T06:18:59.000Z</time>
</trkpt>
<trkpt lat="43.2121858" lon="-2.9259299">
<ele>584.138184</ele>
<time>2011-05-15T06:19:11.000Z</time>
</trkpt>
<trkpt lat="43.2121466" lon="-2.9258525">
<ele>587.021973</ele>
<time>2011-05-15T06:19:19.000Z</time>
</trkpt>
<trkpt lat="43.2120733" lon="-2.9257117">
<ele>589.906250</ele>
<time>2011-05-15T06:19:32.000Z</time>
</trkpt>
<trkpt lat="43.2119485" lon="-2.9254729">
<ele>592.309570</ele>
<time>2011-05-15T06:19:50.000Z</time>
</trkpt>
<trkpt lat="43.2118180" lon="-2.9252845">
<ele>593.751465</ele>
<time>2011-05-15T06:20:09.000Z</time>
</trkpt>
<trkpt lat="43.2118427" lon="-2.9253910">
<ele>593.270752</ele>
<time>2011-05-15T06:20:30.000Z</time>
</trkpt>
<trkpt lat="43.2118342" lon="-2.9254315">
<ele>593.270752</ele>
<time>2011-05-15T06:20:50.000Z</time>
</trkpt>
<trkpt lat="43.2118299" lon="-2.9254526">
<ele>595.193359</ele>
<time>2011-05-15T06:21:05.000Z</time>
</trkpt>
<trkpt lat="43.2118298" lon="-2.9254527">
<ele>594.232178</ele>
<time>2011-05-15T06:21:06.000Z</time>
</trkpt>
<trkpt lat="43.2118303" lon="-2.9254521">
<ele>593.270752</ele>
<time>2011-05-15T06:21:08.000Z</time>
</trkpt>
<trkpt lat="43.2118065" lon="-2.9254720">
<ele>592.309570</ele>
<time>2011-05-15T06:21:15.000Z</time>
</trkpt>
<trkpt lat="43.2117973" lon="-2.9255087">
<ele>590.867432</ele>
<time>2011-05-15T06:21:19.000Z</time>
</trkpt>
<trkpt lat="43.2117432" lon="-2.9255982">
<ele>587.502686</ele>
<time>2011-05-15T06:21:28.000Z</time>
</trkpt>
<trkpt lat="43.2117220" lon="-2.9256093">
<ele>586.541504</ele>
<time>2011-05-15T06:21:31.000Z</time>
</trkpt>
<trkpt lat="43.2116215" lon="-2.9256078">
<ele>583.657471</ele>
<time>2011-05-15T06:21:40.000Z</time>
</trkpt>
<trkpt lat="43.2116053" lon="-2.9256290">
<ele>582.215576</ele>
<time>2011-05-15T06:21:42.000Z</time>
</trkpt>
<trkpt lat="43.2115820" lon="-2.9256906">
<ele>580.292969</ele>
<time>2011-05-15T06:21:47.000Z</time>
</trkpt>
<trkpt lat="43.2115495" lon="-2.9257657">
<ele>578.851074</ele>
<time>2011-05-15T06:21:54.000Z</time>
</trkpt>
<trkpt lat="43.2115288" lon="-2.9257569">
<ele>577.889648</ele>
<time>2011-05-15T06:21:56.000Z</time>
</trkpt>
<trkpt lat="43.2115127" lon="-2.9257481">
<ele>577.889648</ele>
<time>2011-05-15T06:21:58.000Z</time>
</trkpt>
<trkpt lat="43.2114889" lon="-2.9257585">
<ele>575.967041</ele>
<time>2011-05-15T06:22:01.000Z</time>
</trkpt>
<trkpt lat="43.2114402" lon="-2.9258218">
<ele>571.640869</ele>
<time>2011-05-15T06:22:11.000Z</time>
</trkpt>
<trkpt lat="43.2114354" lon="-2.9258293">
<ele>571.640869</ele>
<time>2011-05-15T06:22:12.000Z</time>
</trkpt>
<trkpt lat="43.2113940" lon="-2.9259202">
<ele>568.276367</ele>
<time>2011-05-15T06:22:23.000Z</time>
</trkpt>
<trkpt lat="43.2113791" lon="-2.9259211">
<ele>567.315186</ele>
<time>2011-05-15T06:22:25.000Z</time>
</trkpt>
<trkpt lat="43.2113134" lon="-2.9259122">
<ele>562.989258</ele>
<time>2011-05-15T06:22:33.000Z</time>
</trkpt>
<trkpt lat="43.2112473" lon="-2.9259039">
<ele>560.105225</ele>
<time>2011-05-15T06:22:42.000Z</time>
</trkpt>
<trkpt lat="43.2112113" lon="-2.9259559">
<ele>556.740723</ele>
<time>2011-05-15T06:22:51.000Z</time>
</trkpt>
<trkpt lat="43.2111947" lon="-2.9259911">
<ele>555.779297</ele>
<time>2011-05-15T06:22:56.000Z</time>
</trkpt>
<trkpt lat="43.2111907" lon="-2.9261396">
<ele>554.337402</ele>
<time>2011-05-15T06:23:11.000Z</time>
</trkpt>
<trkpt lat="43.2111761" lon="-2.9261874">
<ele>551.453369</ele>
<time>2011-05-15T06:23:18.000Z</time>
</trkpt>
<trkpt lat="43.2111459" lon="-2.9262447">
<ele>548.569336</ele>
<time>2011-05-15T06:23:27.000Z</time>
</trkpt>
<trkpt lat="43.2111091" lon="-2.9262981">
<ele>545.204834</ele>
<time>2011-05-15T06:23:37.000Z</time>
</trkpt>
<trkpt lat="43.2110780" lon="-2.9263533">
<ele>541.840210</ele>
<time>2011-05-15T06:23:46.000Z</time>
</trkpt>
<trkpt lat="43.2110743" lon="-2.9263599">
<ele>541.840210</ele>
<time>2011-05-15T06:23:47.000Z</time>
</trkpt>
<trkpt lat="43.2110555" lon="-2.9264323">
<ele>538.956299</ele>
<time>2011-05-15T06:23:56.000Z</time>
</trkpt>
<trkpt lat="43.2110056" lon="-2.9264493">
<ele>536.072388</ele>
<time>2011-05-15T06:24:05.000Z</time>
</trkpt>
<trkpt lat="43.2109961" lon="-2.9264894">
<ele>534.630371</ele>
<time>2011-05-15T06:24:10.000Z</time>
</trkpt>
<trkpt lat="43.2109543" lon="-2.9265432">
<ele>531.265747</ele>
<time>2011-05-15T06:24:23.000Z</time>
</trkpt>
<trkpt lat="43.2109491" lon="-2.9265521">
<ele>530.304443</ele>
<time>2011-05-15T06:24:25.000Z</time>
</trkpt>
<trkpt lat="43.2109153" lon="-2.9265923">
<ele>527.420410</ele>
<time>2011-05-15T06:24:35.000Z</time>
</trkpt>
<trkpt lat="43.2108719" lon="-2.9266137">
<ele>524.536499</ele>
<time>2011-05-15T06:24:42.000Z</time>
</trkpt>
<trkpt lat="43.2108343" lon="-2.9266480">
<ele>521.171997</ele>
<time>2011-05-15T06:24:50.000Z</time>
</trkpt>
<trkpt lat="43.2108280" lon="-2.9266521">
<ele>521.171997</ele>
<time>2011-05-15T06:24:51.000Z</time>
</trkpt>
<trkpt lat="43.2107957" lon="-2.9266720">
<ele>519.249268</ele>
<time>2011-05-15T06:24:57.000Z</time>
</trkpt>
<trkpt lat="43.2107627" lon="-2.9267037">
<ele>515.884644</ele>
<time>2011-05-15T06:25:04.000Z</time>
</trkpt>
<trkpt lat="43.2107566" lon="-2.9267057">
<ele>515.884644</ele>
<time>2011-05-15T06:25:05.000Z</time>
</trkpt>
<trkpt lat="43.2107267" lon="-2.9267076">
<ele>513.962036</ele>
<time>2011-05-15T06:25:09.000Z</time>
</trkpt>
<trkpt lat="43.2106809" lon="-2.9266267">
<ele>513.000732</ele>
<time>2011-05-15T06:25:25.000Z</time>
</trkpt>
<trkpt lat="43.2106809" lon="-2.9265500">
<ele>514.923340</ele>
<time>2011-05-15T06:25:33.000Z</time>
</trkpt>
<trkpt lat="43.2106789" lon="-2.9263895">
<ele>514.923340</ele>
<time>2011-05-15T06:25:50.000Z</time>
</trkpt>
<trkpt lat="43.2106688" lon="-2.9263210">
<ele>514.442627</ele>
<time>2011-05-15T06:26:06.000Z</time>
</trkpt>
<trkpt lat="43.2106670" lon="-2.9262548">
<ele>513.481445</ele>
<time>2011-05-15T06:26:20.000Z</time>
</trkpt>
<trkpt lat="43.2106506" lon="-2.9261639">
<ele>513.000732</ele>
<time>2011-05-15T06:26:33.000Z</time>
</trkpt>
<trkpt lat="43.2106144" lon="-2.9261428">
<ele>510.597290</ele>
<time>2011-05-15T06:26:47.000Z</time>
</trkpt>
<trkpt lat="43.2105994" lon="-2.9263144">
<ele>510.116699</ele>
<time>2011-05-15T06:26:57.000Z</time>
</trkpt>
<trkpt lat="43.2106024" lon="-2.9265573">
<ele>510.116699</ele>
<time>2011-05-15T06:27:13.000Z</time>
</trkpt>
<trkpt lat="43.2106415" lon="-2.9267116">
<ele>510.597290</ele>
<time>2011-05-15T06:27:25.000Z</time>
</trkpt>
<trkpt lat="43.2107513" lon="-2.9269451">
<ele>509.636078</ele>
<time>2011-05-15T06:27:41.000Z</time>
</trkpt>
<trkpt lat="43.2108832" lon="-2.9271556">
<ele>507.713501</ele>
<time>2011-05-15T06:27:56.000Z</time>
</trkpt>
<trkpt lat="43.2109669" lon="-2.9272778">
<ele>507.232788</ele>
<time>2011-05-15T06:28:04.000Z</time>
</trkpt>
<trkpt lat="43.2110308" lon="-2.9273537">
<ele>507.713501</ele>
<time>2011-05-15T06:28:09.000Z</time>
</trkpt>
<trkpt lat="43.2110775" lon="-2.9274185">
<ele>507.713501</ele>
<time>2011-05-15T06:28:13.000Z</time>
</trkpt>
<trkpt lat="43.2111440" lon="-2.9275042">
<ele>508.194092</ele>
<time>2011-05-15T06:28:19.000Z</time>
</trkpt>
<trkpt lat="43.2112246" lon="-2.9276056">
<ele>509.636078</ele>
<time>2011-05-15T06:28:26.000Z</time>
</trkpt>
<trkpt lat="43.2113789" lon="-2.9278150">
<ele>509.636078</ele>
<time>2011-05-15T06:28:41.000Z</time>
</trkpt>
<trkpt lat="43.2115229" lon="-2.9280325">
<ele>509.155365</ele>
<time>2011-05-15T06:28:55.000Z</time>
</trkpt>
<trkpt lat="43.2115841" lon="-2.9280959">
<ele>509.636078</ele>
<time>2011-05-15T06:29:00.000Z</time>
</trkpt>
<trkpt lat="43.2116226" lon="-2.9281537">
<ele>508.194092</ele>
<time>2011-05-15T06:29:04.000Z</time>
</trkpt>
<trkpt lat="43.2117381" lon="-2.9282497">
<ele>509.155365</ele>
<time>2011-05-15T06:29:13.000Z</time>
</trkpt>
<trkpt lat="43.2119466" lon="-2.9284050">
<ele>507.232788</ele>
<time>2011-05-15T06:29:29.000Z</time>
</trkpt>
<trkpt lat="43.2120307" lon="-2.9284584">
<ele>508.194092</ele>
<time>2011-05-15T06:29:35.000Z</time>
</trkpt>
<trkpt lat="43.2122678" lon="-2.9286049">
<ele>507.713501</ele>
<time>2011-05-15T06:29:51.000Z</time>
</trkpt>
<trkpt lat="43.2123098" lon="-2.9286298">
<ele>507.232788</ele>
<time>2011-05-15T06:29:54.000Z</time>
</trkpt>
<trkpt lat="43.2125119" lon="-2.9288054">
<ele>507.713501</ele>
<time>2011-05-15T06:30:10.000Z</time>
</trkpt>
<trkpt lat="43.2127783" lon="-2.9288909">
<ele>504.829468</ele>
<time>2011-05-15T06:30:25.000Z</time>
</trkpt>
<trkpt lat="43.2130246" lon="-2.9288360">
<ele>502.426147</ele>
<time>2011-05-15T06:30:40.000Z</time>
</trkpt>
<trkpt lat="43.2131831" lon="-2.9286639">
<ele>499.542236</ele>
<time>2011-05-15T06:30:53.000Z</time>
</trkpt>
<trkpt lat="43.2133874" lon="-2.9284132">
<ele>496.658325</ele>
<time>2011-05-15T06:31:11.000Z</time>
</trkpt>
<trkpt lat="43.2135173" lon="-2.9284053">
<ele>492.812958</ele>
<time>2011-05-15T06:31:20.000Z</time>
</trkpt>
<trkpt lat="43.2136397" lon="-2.9285750">
<ele>491.851685</ele>
<time>2011-05-15T06:31:32.000Z</time>
</trkpt>
<trkpt lat="43.2136494" lon="-2.9285856">
<ele>491.851685</ele>
<time>2011-05-15T06:31:33.000Z</time>
</trkpt>
<trkpt lat="43.2136760" lon="-2.9286163">
<ele>488.967773</ele>
<time>2011-05-15T06:31:36.000Z</time>
</trkpt>
<trkpt lat="43.2136930" lon="-2.9286335">
<ele>487.525635</ele>
<time>2011-05-15T06:31:38.000Z</time>
</trkpt>
<trkpt lat="43.2137017" lon="-2.9286428">
<ele>491.851685</ele>
<time>2011-05-15T06:31:39.000Z</time>
</trkpt>
<trkpt lat="43.2137159" lon="-2.9286656">
<ele>488.006470</ele>
<time>2011-05-15T06:31:41.000Z</time>
</trkpt>
<trkpt lat="43.2137495" lon="-2.9287251">
<ele>490.409821</ele>
<time>2011-05-15T06:31:46.000Z</time>
</trkpt>
<trkpt lat="43.2138713" lon="-2.9289392">
<ele>492.332397</ele>
<time>2011-05-15T06:32:03.000Z</time>
</trkpt>
<trkpt lat="43.2139141" lon="-2.9289923">
<ele>490.890381</ele>
<time>2011-05-15T06:32:08.000Z</time>
</trkpt>
<trkpt lat="43.2139536" lon="-2.9290405">
<ele>494.735596</ele>
<time>2011-05-15T06:32:13.000Z</time>
</trkpt>
<trkpt lat="43.2141394" lon="-2.9292638">
<ele>495.696899</ele>
<time>2011-05-15T06:32:31.000Z</time>
</trkpt>
<trkpt lat="43.2142784" lon="-2.9294373">
<ele>499.061523</ele>
<time>2011-05-15T06:32:46.000Z</time>
</trkpt>
<trkpt lat="43.2142886" lon="-2.9294456">
<ele>499.061523</ele>
<time>2011-05-15T06:32:47.000Z</time>
</trkpt>
<trkpt lat="43.2144189" lon="-2.9295026">
<ele>501.464844</ele>
<time>2011-05-15T06:33:03.000Z</time>
</trkpt>
<trkpt lat="43.2144321" lon="-2.9295515">
<ele>502.906769</ele>
<time>2011-05-15T06:33:09.000Z</time>
</trkpt>
<trkpt lat="43.2144565" lon="-2.9296146">
<ele>504.829468</ele>
<time>2011-05-15T06:33:16.000Z</time>
</trkpt>
<trkpt lat="43.2144835" lon="-2.9296471">
<ele>505.790894</ele>
<time>2011-05-15T06:33:19.000Z</time>
</trkpt>
<trkpt lat="43.2145301" lon="-2.9297301">
<ele>507.713501</ele>
<time>2011-05-15T06:33:27.000Z</time>
</trkpt>
<trkpt lat="43.2145743" lon="-2.9298020">
<ele>509.636078</ele>
<time>2011-05-15T06:33:34.000Z</time>
</trkpt>
<trkpt lat="43.2147253" lon="-2.9299931">
<ele>511.078003</ele>
<time>2011-05-15T06:33:49.000Z</time>
</trkpt>
<trkpt lat="43.2148446" lon="-2.9302159">
<ele>511.558716</ele>
<time>2011-05-15T06:34:04.000Z</time>
</trkpt>
<trkpt lat="43.2149482" lon="-2.9305283">
<ele>514.442627</ele>
<time>2011-05-15T06:34:22.000Z</time>
</trkpt>
<trkpt lat="43.2149487" lon="-2.9305428">
<ele>514.923340</ele>
<time>2011-05-15T06:34:23.000Z</time>
</trkpt>
<trkpt lat="43.2149507" lon="-2.9308749">
<ele>518.287842</ele>
<time>2011-05-15T06:34:41.000Z</time>
</trkpt>
<trkpt lat="43.2150074" lon="-2.9311899">
<ele>521.171997</ele>
<time>2011-05-15T06:34:58.000Z</time>
</trkpt>
<trkpt lat="43.2150182" lon="-2.9312276">
<ele>522.133179</ele>
<time>2011-05-15T06:35:00.000Z</time>
</trkpt>
<trkpt lat="43.2150792" lon="-2.9315234">
<ele>524.536499</ele>
<time>2011-05-15T06:35:17.000Z</time>
</trkpt>
<trkpt lat="43.2151228" lon="-2.9317646">
<ele>527.901001</ele>
<time>2011-05-15T06:35:31.000Z</time>
</trkpt>
<trkpt lat="43.2151765" lon="-2.9320906">
<ele>531.265747</ele>
<time>2011-05-15T06:35:50.000Z</time>
</trkpt>
<trkpt lat="43.2152154" lon="-2.9322522">
<ele>534.149658</ele>
<time>2011-05-15T06:36:01.000Z</time>
</trkpt>
<trkpt lat="43.2152470" lon="-2.9325171">
<ele>537.514282</ele>
<time>2011-05-15T06:36:17.000Z</time>
</trkpt>
<trkpt lat="43.2152512" lon="-2.9325341">
<ele>537.514282</ele>
<time>2011-05-15T06:36:18.000Z</time>
</trkpt>
<trkpt lat="43.2152858" lon="-2.9327754">
<ele>538.956299</ele>
<time>2011-05-15T06:36:31.000Z</time>
</trkpt>
<trkpt lat="43.2153113" lon="-2.9330843">
<ele>540.398315</ele>
<time>2011-05-15T06:36:48.000Z</time>
</trkpt>
<trkpt lat="43.2153443" lon="-2.9332943">
<ele>543.282104</ele>
<time>2011-05-15T06:37:01.000Z</time>
</trkpt>
<trkpt lat="43.2153471" lon="-2.9333089">
<ele>543.762817</ele>
<time>2011-05-15T06:37:02.000Z</time>
</trkpt>
<trkpt lat="43.2153745" lon="-2.9334932">
<ele>546.646851</ele>
<time>2011-05-15T06:37:15.000Z</time>
</trkpt>
<trkpt lat="43.2154176" lon="-2.9336638">
<ele>550.011475</ele>
<time>2011-05-15T06:37:28.000Z</time>
</trkpt>
<trkpt lat="43.2154879" lon="-2.9338488">
<ele>553.375977</ele>
<time>2011-05-15T06:37:43.000Z</time>
</trkpt>
<trkpt lat="43.2155398" lon="-2.9340058">
<ele>556.740723</ele>
<time>2011-05-15T06:37:57.000Z</time>
</trkpt>
<trkpt lat="43.2155547" lon="-2.9340466">
<ele>558.663330</ele>
<time>2011-05-15T06:38:01.000Z</time>
</trkpt>
<trkpt lat="43.2156163" lon="-2.9341906">
<ele>561.547363</ele>
<time>2011-05-15T06:38:15.000Z</time>
</trkpt>
<trkpt lat="43.2156580" lon="-2.9343101">
<ele>564.911865</ele>
<time>2011-05-15T06:38:26.000Z</time>
</trkpt>
<trkpt lat="43.2157076" lon="-2.9344655">
<ele>568.757080</ele>
<time>2011-05-15T06:38:40.000Z</time>
</trkpt>
<trkpt lat="43.2157370" lon="-2.9345460">
<ele>570.679688</ele>
<time>2011-05-15T06:38:47.000Z</time>
</trkpt>
<trkpt lat="43.2158086" lon="-2.9348356">
<ele>573.083252</ele>
<time>2011-05-15T06:39:06.000Z</time>
</trkpt>
<trkpt lat="43.2158906" lon="-2.9350605">
<ele>574.044434</ele>
<time>2011-05-15T06:39:19.000Z</time>
</trkpt>
<trkpt lat="43.2159924" lon="-2.9353551">
<ele>577.409180</ele>
<time>2011-05-15T06:39:36.000Z</time>
</trkpt>
<trkpt lat="43.2160863" lon="-2.9356379">
<ele>577.409180</ele>
<time>2011-05-15T06:39:52.000Z</time>
</trkpt>
<trkpt lat="43.2161666" lon="-2.9359900">
<ele>576.447754</ele>
<time>2011-05-15T06:40:09.000Z</time>
</trkpt>
<trkpt lat="43.2162314" lon="-2.9362286">
<ele>573.083252</ele>
<time>2011-05-15T06:40:20.000Z</time>
</trkpt>
<trkpt lat="43.2162985" lon="-2.9364455">
<ele>572.121826</ele>
<time>2011-05-15T06:40:30.000Z</time>
</trkpt>
<trkpt lat="43.2164038" lon="-2.9367579">
<ele>571.160400</ele>
<time>2011-05-15T06:40:47.000Z</time>
</trkpt>
<trkpt lat="43.2164089" lon="-2.9367777">
<ele>570.679688</ele>
<time>2011-05-15T06:40:48.000Z</time>
</trkpt>
<trkpt lat="43.2164684" lon="-2.9371428">
<ele>570.198975</ele>
<time>2011-05-15T06:41:05.000Z</time>
</trkpt>
<trkpt lat="43.2164792" lon="-2.9371853">
<ele>569.237793</ele>
<time>2011-05-15T06:41:07.000Z</time>
</trkpt>
<trkpt lat="43.2165271" lon="-2.9374843">
<ele>569.718506</ele>
<time>2011-05-15T06:41:22.000Z</time>
</trkpt>
<trkpt lat="43.2165531" lon="-2.9376012">
<ele>570.679688</ele>
<time>2011-05-15T06:41:28.000Z</time>
</trkpt>
<trkpt lat="43.2165913" lon="-2.9377406">
<ele>573.563965</ele>
<time>2011-05-15T06:41:36.000Z</time>
</trkpt>
<trkpt lat="43.2166132" lon="-2.9378374">
<ele>576.928467</ele>
<time>2011-05-15T06:41:42.000Z</time>
</trkpt>
<trkpt lat="43.2166416" lon="-2.9379592">
<ele>579.331543</ele>
<time>2011-05-15T06:41:50.000Z</time>
</trkpt>
<trkpt lat="43.2166658" lon="-2.9380833">
<ele>582.215576</ele>
<time>2011-05-15T06:41:59.000Z</time>
</trkpt>
<trkpt lat="43.2166861" lon="-2.9381783">
<ele>585.580078</ele>
<time>2011-05-15T06:42:07.000Z</time>
</trkpt>
<trkpt lat="43.2167062" lon="-2.9382949">
<ele>587.983398</ele>
<time>2011-05-15T06:42:15.000Z</time>
</trkpt>
<trkpt lat="43.2167150" lon="-2.9385549">
<ele>590.867432</ele>
<time>2011-05-15T06:42:29.000Z</time>
</trkpt>
<trkpt lat="43.2167130" lon="-2.9386491">
<ele>592.309570</ele>
<time>2011-05-15T06:42:34.000Z</time>
</trkpt>
<trkpt lat="43.2167312" lon="-2.9389621">
<ele>592.309570</ele>
<time>2011-05-15T06:42:51.000Z</time>
</trkpt>
<trkpt lat="43.2167753" lon="-2.9392956">
<ele>594.232178</ele>
<time>2011-05-15T06:43:08.000Z</time>
</trkpt>
<trkpt lat="43.2167974" lon="-2.9394353">
<ele>595.193359</ele>
<time>2011-05-15T06:43:15.000Z</time>
</trkpt>
<trkpt lat="43.2168457" lon="-2.9396655">
<ele>598.077393</ele>
<time>2011-05-15T06:43:28.000Z</time>
</trkpt>
<trkpt lat="43.2168900" lon="-2.9398316">
<ele>600.480713</ele>
<time>2011-05-15T06:43:38.000Z</time>
</trkpt>
<trkpt lat="43.2169140" lon="-2.9398965">
<ele>601.441895</ele>
<time>2011-05-15T06:43:42.000Z</time>
</trkpt>
<trkpt lat="43.2169338" lon="-2.9399654">
<ele>602.403076</ele>
<time>2011-05-15T06:43:46.000Z</time>
</trkpt>
<trkpt lat="43.2169683" lon="-2.9401312">
<ele>606.248535</ele>
<time>2011-05-15T06:43:56.000Z</time>
</trkpt>
<trkpt lat="43.2170073" lon="-2.9402606">
<ele>607.690674</ele>
<time>2011-05-15T06:44:04.000Z</time>
</trkpt>
<trkpt lat="43.2170270" lon="-2.9403610">
<ele>609.132568</ele>
<time>2011-05-15T06:44:10.000Z</time>
</trkpt>
<trkpt lat="43.2170890" lon="-2.9405913">
<ele>611.055176</ele>
<time>2011-05-15T06:44:23.000Z</time>
</trkpt>
<trkpt lat="43.2171416" lon="-2.9408367">
<ele>614.419678</ele>
<time>2011-05-15T06:44:38.000Z</time>
</trkpt>
<trkpt lat="43.2171556" lon="-2.9409684">
<ele>614.900391</ele>
<time>2011-05-15T06:44:48.000Z</time>
</trkpt>
<trkpt lat="43.2172015" lon="-2.9410852">
<ele>617.784180</ele>
<time>2011-05-15T06:44:56.000Z</time>
</trkpt>
<trkpt lat="43.2172566" lon="-2.9412248">
<ele>620.187744</ele>
<time>2011-05-15T06:45:07.000Z</time>
</trkpt>
<trkpt lat="43.2172978" lon="-2.9413199">
<ele>623.071777</ele>
<time>2011-05-15T06:45:16.000Z</time>
</trkpt>
<trkpt lat="43.2173658" lon="-2.9416059">
<ele>624.994385</ele>
<time>2011-05-15T06:45:33.000Z</time>
</trkpt>
<trkpt lat="43.2173892" lon="-2.9417993">
<ele>628.358887</ele>
<time>2011-05-15T06:45:45.000Z</time>
</trkpt>
<trkpt lat="43.2173944" lon="-2.9419702">
<ele>632.204102</ele>
<time>2011-05-15T06:45:58.000Z</time>
</trkpt>
<trkpt lat="43.2173972" lon="-2.9419836">
<ele>632.684814</ele>
<time>2011-05-15T06:45:59.000Z</time>
</trkpt>
<trkpt lat="43.2174277" lon="-2.9421250">
<ele>635.568604</ele>
<time>2011-05-15T06:46:11.000Z</time>
</trkpt>
<trkpt lat="43.2174460" lon="-2.9422405">
<ele>638.933594</ele>
<time>2011-05-15T06:46:21.000Z</time>
</trkpt>
<trkpt lat="43.2174455" lon="-2.9422944">
<ele>640.375488</ele>
<time>2011-05-15T06:46:26.000Z</time>
</trkpt>
<trkpt lat="43.2175041" lon="-2.9424793">
<ele>641.817444</ele>
<time>2011-05-15T06:46:40.000Z</time>
</trkpt>
<trkpt lat="43.2175367" lon="-2.9425543">
<ele>643.739990</ele>
<time>2011-05-15T06:46:45.000Z</time>
</trkpt>
<trkpt lat="43.2175408" lon="-2.9426482">
<ele>646.143311</ele>
<time>2011-05-15T06:46:53.000Z</time>
</trkpt>
<trkpt lat="43.2175355" lon="-2.9427017">
<ele>647.585205</ele>
<time>2011-05-15T06:46:57.000Z</time>
</trkpt>
<trkpt lat="43.2175518" lon="-2.9428036">
<ele>649.507813</ele>
<time>2011-05-15T06:47:04.000Z</time>
</trkpt>
<trkpt lat="43.2176166" lon="-2.9430201">
<ele>652.872498</ele>
<time>2011-05-15T06:47:19.000Z</time>
</trkpt>
<trkpt lat="43.2176922" lon="-2.9432569">
<ele>656.237061</ele>
<time>2011-05-15T06:47:34.000Z</time>
</trkpt>
<trkpt lat="43.2177014" lon="-2.9433117">
<ele>655.756592</ele>
<time>2011-05-15T06:47:38.000Z</time>
</trkpt>
<trkpt lat="43.2176981" lon="-2.9433625">
<ele>657.679199</ele>
<time>2011-05-15T06:47:42.000Z</time>
</trkpt>
<trkpt lat="43.2177014" lon="-2.9434217">
<ele>659.121094</ele>
<time>2011-05-15T06:47:46.000Z</time>
</trkpt>
<trkpt lat="43.2177342" lon="-2.9434835">
<ele>659.601807</ele>
<time>2011-05-15T06:47:50.000Z</time>
</trkpt>
<trkpt lat="43.2176848" lon="-2.9436070">
<ele>661.524414</ele>
<time>2011-05-15T06:48:00.000Z</time>
</trkpt>
<trkpt lat="43.2176200" lon="-2.9436905">
<ele>663.927490</ele>
<time>2011-05-15T06:48:09.000Z</time>
</trkpt>
<trkpt lat="43.2175300" lon="-2.9438433">
<ele>666.811523</ele>
<time>2011-05-15T06:48:23.000Z</time>
</trkpt>
<trkpt lat="43.2175293" lon="-2.9439045">
<ele>667.772644</ele>
<time>2011-05-15T06:48:27.000Z</time>
</trkpt>
<trkpt lat="43.2175383" lon="-2.9439784">
<ele>669.695801</ele>
<time>2011-05-15T06:48:32.000Z</time>
</trkpt>
<trkpt lat="43.2176253" lon="-2.9442789">
<ele>671.137695</ele>
<time>2011-05-15T06:48:51.000Z</time>
</trkpt>
<trkpt lat="43.2176232" lon="-2.9442894">
<ele>671.137695</ele>
<time>2011-05-15T06:48:52.000Z</time>
</trkpt>
<trkpt lat="43.2175785" lon="-2.9444437">
<ele>671.618164</ele>
<time>2011-05-15T06:49:07.000Z</time>
</trkpt>
<trkpt lat="43.2175765" lon="-2.9444470">
<ele>673.541016</ele>
<time>2011-05-15T06:49:12.000Z</time>
</trkpt>
<trkpt lat="43.2175756" lon="-2.9444455">
<ele>670.656982</ele>
<time>2011-05-15T06:49:34.000Z</time>
</trkpt>
<trkpt lat="43.2175879" lon="-2.9444317">
<ele>672.098877</ele>
<time>2011-05-15T06:49:48.000Z</time>
</trkpt>
<trkpt lat="43.2175978" lon="-2.9444560">
<ele>671.618164</ele>
<time>2011-05-15T06:50:02.000Z</time>
</trkpt>
<trkpt lat="43.2175927" lon="-2.9444575">
<ele>671.618164</ele>
<time>2011-05-15T06:50:27.000Z</time>
</trkpt>
<trkpt lat="43.2176165" lon="-2.9445289">
<ele>670.176270</ele>
<time>2011-05-15T06:50:33.000Z</time>
</trkpt>
<trkpt lat="43.2176029" lon="-2.9445913">
<ele>671.137695</ele>
<time>2011-05-15T06:50:38.000Z</time>
</trkpt>
<trkpt lat="43.2176160" lon="-2.9446187">
<ele>670.176270</ele>
<time>2011-05-15T06:50:40.000Z</time>
</trkpt>
<trkpt lat="43.2176140" lon="-2.9446472">
<ele>670.656982</ele>
<time>2011-05-15T06:50:42.000Z</time>
</trkpt>
<trkpt lat="43.2176264" lon="-2.9447057">
<ele>669.215088</ele>
<time>2011-05-15T06:50:46.000Z</time>
</trkpt>
<trkpt lat="43.2177303" lon="-2.9448896">
<ele>668.253662</ele>
<time>2011-05-15T06:51:01.000Z</time>
</trkpt>
<trkpt lat="43.2178242" lon="-2.9450569">
<ele>664.888916</ele>
<time>2011-05-15T06:51:10.000Z</time>
</trkpt>
<trkpt lat="43.2178331" lon="-2.9450744">
<ele>664.408203</ele>
<time>2011-05-15T06:51:11.000Z</time>
</trkpt>
<trkpt lat="43.2179059" lon="-2.9453570">
<ele>662.966370</ele>
<time>2011-05-15T06:51:25.000Z</time>
</trkpt>
<trkpt lat="43.2179447" lon="-2.9454610">
<ele>661.524414</ele>
<time>2011-05-15T06:51:30.000Z</time>
</trkpt>
<trkpt lat="43.2181110" lon="-2.9457393">
<ele>659.121094</ele>
<time>2011-05-15T06:51:46.000Z</time>
</trkpt>
<trkpt lat="43.2181246" lon="-2.9457499">
<ele>659.121094</ele>
<time>2011-05-15T06:51:48.000Z</time>
</trkpt>
<trkpt lat="43.2182127" lon="-2.9458132">
<ele>660.082275</ele>
<time>2011-05-15T06:51:55.000Z</time>
</trkpt>
<trkpt lat="43.2182485" lon="-2.9458092">
<ele>661.043701</ele>
<time>2011-05-15T06:51:58.000Z</time>
</trkpt>
<trkpt lat="43.2183028" lon="-2.9458139">
<ele>661.524414</ele>
<time>2011-05-15T06:52:02.000Z</time>
</trkpt>
<trkpt lat="43.2184862" lon="-2.9458112">
<ele>658.640381</ele>
<time>2011-05-15T06:52:13.000Z</time>
</trkpt>
<trkpt lat="43.2185933" lon="-2.9458400">
<ele>659.121094</ele>
<time>2011-05-15T06:52:20.000Z</time>
</trkpt>
<trkpt lat="43.2186528" lon="-2.9458455">
<ele>658.159912</ele>
<time>2011-05-15T06:52:24.000Z</time>
</trkpt>
<trkpt lat="43.2188006" lon="-2.9457635">
<ele>653.353210</ele>
<time>2011-05-15T06:52:33.000Z</time>
</trkpt>
<trkpt lat="43.2188151" lon="-2.9457578">
<ele>653.833923</ele>
<time>2011-05-15T06:52:34.000Z</time>
</trkpt>
<trkpt lat="43.2188280" lon="-2.9457535">
<ele>654.314636</ele>
<time>2011-05-15T06:52:35.000Z</time>
</trkpt>
<trkpt lat="43.2188628" lon="-2.9457631">
<ele>652.872498</ele>
<time>2011-05-15T06:52:38.000Z</time>
</trkpt>
<trkpt lat="43.2190026" lon="-2.9458696">
<ele>649.507813</ele>
<time>2011-05-15T06:52:49.000Z</time>
</trkpt>
<trkpt lat="43.2190124" lon="-2.9458739">
<ele>649.988525</ele>
<time>2011-05-15T06:52:50.000Z</time>
</trkpt>
<trkpt lat="43.2190203" lon="-2.9458747">
<ele>649.988525</ele>
<time>2011-05-15T06:52:51.000Z</time>
</trkpt>
<trkpt lat="43.2190436" lon="-2.9459014">
<ele>649.027100</ele>
<time>2011-05-15T06:52:54.000Z</time>
</trkpt>
<trkpt lat="43.2190616" lon="-2.9459122">
<ele>648.546387</ele>
<time>2011-05-15T06:52:56.000Z</time>
</trkpt>
<trkpt lat="43.2190807" lon="-2.9459070">
<ele>647.585205</ele>
<time>2011-05-15T06:52:58.000Z</time>
</trkpt>
<trkpt lat="43.2191063" lon="-2.9459060">
<ele>648.065918</ele>
<time>2011-05-15T06:53:00.000Z</time>
</trkpt>
<trkpt lat="43.2191757" lon="-2.9458967">
<ele>646.624023</ele>
<time>2011-05-15T06:53:06.000Z</time>
</trkpt>
<trkpt lat="43.2193295" lon="-2.9460677">
<ele>646.624023</ele>
<time>2011-05-15T06:53:21.000Z</time>
</trkpt>
<trkpt lat="43.2193507" lon="-2.9460938">
<ele>646.624023</ele>
<time>2011-05-15T06:53:23.000Z</time>
</trkpt>
<trkpt lat="43.2195120" lon="-2.9464038">
<ele>647.104492</ele>
<time>2011-05-15T06:53:41.000Z</time>
</trkpt>
<trkpt lat="43.2197165" lon="-2.9466538">
<ele>648.546387</ele>
<time>2011-05-15T06:54:00.000Z</time>
</trkpt>
<trkpt lat="43.2197660" lon="-2.9467087">
<ele>649.507813</ele>
<time>2011-05-15T06:54:05.000Z</time>
</trkpt>
<trkpt lat="43.2199131" lon="-2.9468665">
<ele>648.546387</ele>
<time>2011-05-15T06:54:18.000Z</time>
</trkpt>
<trkpt lat="43.2199971" lon="-2.9469435">
<ele>650.949707</ele>
<time>2011-05-15T06:54:26.000Z</time>
</trkpt>
<trkpt lat="43.2200454" lon="-2.9469777">
<ele>653.353210</ele>
<time>2011-05-15T06:54:31.000Z</time>
</trkpt>
<trkpt lat="43.2201242" lon="-2.9470083">
<ele>653.833923</ele>
<time>2011-05-15T06:54:38.000Z</time>
</trkpt>
<trkpt lat="43.2201345" lon="-2.9470148">
<ele>654.795166</ele>
<time>2011-05-15T06:54:39.000Z</time>
</trkpt>
<trkpt lat="43.2202455" lon="-2.9470823">
<ele>658.159912</ele>
<time>2011-05-15T06:54:49.000Z</time>
</trkpt>
<trkpt lat="43.2202578" lon="-2.9470871">
<ele>658.159912</ele>
<time>2011-05-15T06:54:50.000Z</time>
</trkpt>
<trkpt lat="43.2203204" lon="-2.9471015">
<ele>660.082275</ele>
<time>2011-05-15T06:54:56.000Z</time>
</trkpt>
<trkpt lat="43.2204423" lon="-2.9471635">
<ele>662.966370</ele>
<time>2011-05-15T06:55:08.000Z</time>
</trkpt>
<trkpt lat="43.2204490" lon="-2.9471658">
<ele>663.447083</ele>
<time>2011-05-15T06:55:09.000Z</time>
</trkpt>
<trkpt lat="43.2205312" lon="-2.9472103">
<ele>666.811523</ele>
<time>2011-05-15T06:55:20.000Z</time>
</trkpt>
<trkpt lat="43.2206851" lon="-2.9472657">
<ele>670.176270</ele>
<time>2011-05-15T06:55:32.000Z</time>
</trkpt>
<trkpt lat="43.2208291" lon="-2.9473449">
<ele>674.021545</ele>
<time>2011-05-15T06:55:45.000Z</time>
</trkpt>
<trkpt lat="43.2209230" lon="-2.9474216">
<ele>674.982849</ele>
<time>2011-05-15T06:55:53.000Z</time>
</trkpt>
<trkpt lat="43.2210519" lon="-2.9474964">
<ele>678.347412</ele>
<time>2011-05-15T06:56:05.000Z</time>
</trkpt>
<trkpt lat="43.2211602" lon="-2.9475656">
<ele>681.711914</ele>
<time>2011-05-15T06:56:17.000Z</time>
</trkpt>
<trkpt lat="43.2212332" lon="-2.9475937">
<ele>685.076904</ele>
<time>2011-05-15T06:56:27.000Z</time>
</trkpt>
<trkpt lat="43.2213440" lon="-2.9476646">
<ele>687.960693</ele>
<time>2011-05-15T06:56:40.000Z</time>
</trkpt>
<trkpt lat="43.2214640" lon="-2.9477490">
<ele>688.441406</ele>
<time>2011-05-15T06:56:57.000Z</time>
</trkpt>
<trkpt lat="43.2214125" lon="-2.9478039">
<ele>688.441406</ele>
<time>2011-05-15T06:57:14.000Z</time>
</trkpt>
<trkpt lat="43.2214025" lon="-2.9477869">
<ele>688.441406</ele>
<time>2011-05-15T06:57:33.000Z</time>
</trkpt>
<trkpt lat="43.2214067" lon="-2.9477801">
<ele>689.402588</ele>
<time>2011-05-15T06:57:50.000Z</time>
</trkpt>
<trkpt lat="43.2214021" lon="-2.9477754">
<ele>687.960693</ele>
<time>2011-05-15T06:57:57.000Z</time>
</trkpt>
<trkpt lat="43.2213441" lon="-2.9478081">
<ele>687.479980</ele>
<time>2011-05-15T06:58:04.000Z</time>
</trkpt>
<trkpt lat="43.2212924" lon="-2.9478251">
<ele>683.634521</ele>
<time>2011-05-15T06:58:08.000Z</time>
</trkpt>
<trkpt lat="43.2210988" lon="-2.9477521">
<ele>680.270020</ele>
<time>2011-05-15T06:58:23.000Z</time>
</trkpt>
<trkpt lat="43.2209906" lon="-2.9477449">
<ele>676.905518</ele>
<time>2011-05-15T06:58:31.000Z</time>
</trkpt>
<trkpt lat="43.2208788" lon="-2.9477449">
<ele>673.060303</ele>
<time>2011-05-15T06:58:39.000Z</time>
</trkpt>
<trkpt lat="43.2208018" lon="-2.9477336">
<ele>668.734375</ele>
<time>2011-05-15T06:58:44.000Z</time>
</trkpt>
<trkpt lat="43.2207883" lon="-2.9477305">
<ele>671.137695</ele>
<time>2011-05-15T06:58:45.000Z</time>
</trkpt>
<trkpt lat="43.2206954" lon="-2.9477128">
<ele>668.253662</ele>
<time>2011-05-15T06:58:52.000Z</time>
</trkpt>
<trkpt lat="43.2206311" lon="-2.9477007">
<ele>666.330811</ele>
<time>2011-05-15T06:58:57.000Z</time>
</trkpt>
<trkpt lat="43.2205163" lon="-2.9476951">
<ele>662.966370</ele>
<time>2011-05-15T06:59:05.000Z</time>
</trkpt>
<trkpt lat="43.2203744" lon="-2.9476738">
<ele>659.601807</ele>
<time>2011-05-15T06:59:16.000Z</time>
</trkpt>
<trkpt lat="43.2202640" lon="-2.9476521">
<ele>656.237061</ele>
<time>2011-05-15T06:59:24.000Z</time>
</trkpt>
<trkpt lat="43.2201199" lon="-2.9475729">
<ele>652.872498</ele>
<time>2011-05-15T06:59:34.000Z</time>
</trkpt>
<trkpt lat="43.2200766" lon="-2.9475651">
<ele>651.911194</ele>
<time>2011-05-15T06:59:37.000Z</time>
</trkpt>
<trkpt lat="43.2200641" lon="-2.9475608">
<ele>651.430481</ele>
<time>2011-05-15T06:59:38.000Z</time>
</trkpt>
<trkpt lat="43.2199698" lon="-2.9475619">
<ele>649.027100</ele>
<time>2011-05-15T06:59:46.000Z</time>
</trkpt>
<trkpt lat="43.2199207" lon="-2.9475588">
<ele>647.585205</ele>
<time>2011-05-15T06:59:50.000Z</time>
</trkpt>
<trkpt lat="43.2198066" lon="-2.9475442">
<ele>644.220703</ele>
<time>2011-05-15T06:59:59.000Z</time>
</trkpt>
<trkpt lat="43.2197419" lon="-2.9475325">
<ele>644.220703</ele>
<time>2011-05-15T07:00:03.000Z</time>
</trkpt>
<trkpt lat="43.2196345" lon="-2.9474734">
<ele>640.856018</ele>
<time>2011-05-15T07:00:13.000Z</time>
</trkpt>
<trkpt lat="43.2195072" lon="-2.9474139">
<ele>639.894775</ele>
<time>2011-05-15T07:00:22.000Z</time>
</trkpt>
<trkpt lat="43.2194409" lon="-2.9474344">
<ele>637.491455</ele>
<time>2011-05-15T07:00:26.000Z</time>
</trkpt>
<trkpt lat="43.2193589" lon="-2.9475175">
<ele>636.049561</ele>
<time>2011-05-15T07:00:33.000Z</time>
</trkpt>
<trkpt lat="43.2193005" lon="-2.9475603">
<ele>635.088135</ele>
<time>2011-05-15T07:00:37.000Z</time>
</trkpt>
<trkpt lat="43.2192903" lon="-2.9475817">
<ele>634.607422</ele>
<time>2011-05-15T07:00:39.000Z</time>
</trkpt>
<trkpt lat="43.2192885" lon="-2.9478210">
<ele>631.723389</ele>
<time>2011-05-15T07:00:50.000Z</time>
</trkpt>
<trkpt lat="43.2193083" lon="-2.9481933">
<ele>630.281555</ele>
<time>2011-05-15T07:01:23.000Z</time>
</trkpt>
<trkpt lat="43.2193294" lon="-2.9482946">
<ele>626.916992</ele>
<time>2011-05-15T07:01:13.000Z</time>
</trkpt>
<trkpt lat="43.2194193" lon="-2.9485517">
<ele>624.032959</ele>
<time>2011-05-15T07:01:27.000Z</time>
</trkpt>
<trkpt lat="43.2194503" lon="-2.9487038">
<ele>622.591064</ele>
<time>2011-05-15T07:01:35.000Z</time>
</trkpt>
<trkpt lat="43.2194533" lon="-2.9488436">
<ele>620.668457</ele>
<time>2011-05-15T07:01:42.000Z</time>
</trkpt>
<trkpt lat="43.2192768" lon="-2.9489586">
<ele>618.264893</ele>
<time>2011-05-15T07:01:56.000Z</time>
</trkpt>
<trkpt lat="43.2190468" lon="-2.9492191">
<ele>614.900391</ele>
<time>2011-05-15T07:02:17.000Z</time>
</trkpt>
<trkpt lat="43.2190426" lon="-2.9492386">
<ele>614.900391</ele>
<time>2011-05-15T07:02:18.000Z</time>
</trkpt>
<trkpt lat="43.2190529" lon="-2.9494739">
<ele>613.458496</ele>
<time>2011-05-15T07:02:30.000Z</time>
</trkpt>
<trkpt lat="43.2190372" lon="-2.9497570">
<ele>612.977783</ele>
<time>2011-05-15T07:02:44.000Z</time>
</trkpt>
<trkpt lat="43.2190123" lon="-2.9499524">
<ele>609.613281</ele>
<time>2011-05-15T07:02:54.000Z</time>
</trkpt>
<trkpt lat="43.2189929" lon="-2.9500671">
<ele>610.093750</ele>
<time>2011-05-15T07:03:00.000Z</time>
</trkpt>
<trkpt lat="43.2189741" lon="-2.9501582">
<ele>608.171387</ele>
<time>2011-05-15T07:03:05.000Z</time>
</trkpt>
<trkpt lat="43.2189379" lon="-2.9502971">
<ele>606.248535</ele>
<time>2011-05-15T07:03:13.000Z</time>
</trkpt>
<trkpt lat="43.2189234" lon="-2.9503904">
<ele>606.729248</ele>
<time>2011-05-15T07:03:18.000Z</time>
</trkpt>
<trkpt lat="43.2188985" lon="-2.9506111">
<ele>604.806641</ele>
<time>2011-05-15T07:03:33.000Z</time>
</trkpt>
<trkpt lat="43.2189105" lon="-2.9507369">
<ele>603.364502</ele>
<time>2011-05-15T07:03:44.000Z</time>
</trkpt>
<trkpt lat="43.2189120" lon="-2.9508191">
<ele>603.845215</ele>
<time>2011-05-15T07:03:49.000Z</time>
</trkpt>
<trkpt lat="43.2189389" lon="-2.9510310">
<ele>602.883789</ele>
<time>2011-05-15T07:04:00.000Z</time>
</trkpt>
<trkpt lat="43.2189263" lon="-2.9511865">
<ele>601.441895</ele>
<time>2011-05-15T07:04:09.000Z</time>
</trkpt>
<trkpt lat="43.2189364" lon="-2.9513543">
<ele>601.922607</ele>
<time>2011-05-15T07:04:18.000Z</time>
</trkpt>
<trkpt lat="43.2189358" lon="-2.9514714">
<ele>600.961182</ele>
<time>2011-05-15T07:04:24.000Z</time>
</trkpt>
<trkpt lat="43.2189628" lon="-2.9517154">
<ele>600.480713</ele>
<time>2011-05-15T07:04:34.000Z</time>
</trkpt>
<trkpt lat="43.2189564" lon="-2.9519330">
<ele>597.115967</ele>
<time>2011-05-15T07:04:45.000Z</time>
</trkpt>
<trkpt lat="43.2189276" lon="-2.9520685">
<ele>598.077393</ele>
<time>2011-05-15T07:04:51.000Z</time>
</trkpt>
<trkpt lat="43.2189057" lon="-2.9521177">
<ele>597.596680</ele>
<time>2011-05-15T07:04:54.000Z</time>
</trkpt>
<trkpt lat="43.2188825" lon="-2.9521921">
<ele>596.154785</ele>
<time>2011-05-15T07:04:58.000Z</time>
</trkpt>
<trkpt lat="43.2188100" lon="-2.9522687">
<ele>593.751465</ele>
<time>2011-05-15T07:05:03.000Z</time>
</trkpt>
<trkpt lat="43.2187624" lon="-2.9523089">
<ele>593.270752</ele>
<time>2011-05-15T07:05:07.000Z</time>
</trkpt>
<trkpt lat="43.2186598" lon="-2.9524663">
<ele>593.270752</ele>
<time>2011-05-15T07:05:17.000Z</time>
</trkpt>
<trkpt lat="43.2184799" lon="-2.9526394">
<ele>594.232178</ele>
<time>2011-05-15T07:05:32.000Z</time>
</trkpt>
<trkpt lat="43.2182718" lon="-2.9527424">
<ele>593.270752</ele>
<time>2011-05-15T07:05:47.000Z</time>
</trkpt>
<trkpt lat="43.2182323" lon="-2.9527732">
<ele>594.712646</ele>
<time>2011-05-15T07:05:50.000Z</time>
</trkpt>
<trkpt lat="43.2181670" lon="-2.9528281">
<ele>595.674072</ele>
<time>2011-05-15T07:05:55.000Z</time>
</trkpt>
<trkpt lat="43.2180333" lon="-2.9529137">
<ele>595.674072</ele>
<time>2011-05-15T07:06:05.000Z</time>
</trkpt>
<trkpt lat="43.2178039" lon="-2.9530100">
<ele>598.557861</ele>
<time>2011-05-15T07:06:22.000Z</time>
</trkpt>
<trkpt lat="43.2177848" lon="-2.9530193">
<ele>597.115967</ele>
<time>2011-05-15T07:06:24.000Z</time>
</trkpt>
<trkpt lat="43.2177719" lon="-2.9530244">
<ele>597.115967</ele>
<time>2011-05-15T07:06:25.000Z</time>
</trkpt>
<trkpt lat="43.2176846" lon="-2.9530172">
<ele>597.115967</ele>
<time>2011-05-15T07:06:31.000Z</time>
</trkpt>
<trkpt lat="43.2174409" lon="-2.9529940">
<ele>597.596680</ele>
<time>2011-05-15T07:06:46.000Z</time>
</trkpt>
<trkpt lat="43.2172362" lon="-2.9529754">
<ele>597.596680</ele>
<time>2011-05-15T07:06:59.000Z</time>
</trkpt>
<trkpt lat="43.2171716" lon="-2.9529697">
<ele>597.115967</ele>
<time>2011-05-15T07:07:03.000Z</time>
</trkpt>
<trkpt lat="43.2170354" lon="-2.9529712">
<ele>597.115967</ele>
<time>2011-05-15T07:07:12.000Z</time>
</trkpt>
<trkpt lat="43.2169388" lon="-2.9529678">
<ele>598.557861</ele>
<time>2011-05-15T07:07:18.000Z</time>
</trkpt>
<trkpt lat="43.2166875" lon="-2.9528845">
<ele>598.557861</ele>
<time>2011-05-15T07:07:35.000Z</time>
</trkpt>
<trkpt lat="43.2164705" lon="-2.9528162">
<ele>600.961182</ele>
<time>2011-05-15T07:07:51.000Z</time>
</trkpt>
<trkpt lat="43.2164028" lon="-2.9528073">
<ele>601.441895</ele>
<time>2011-05-15T07:07:56.000Z</time>
</trkpt>
<trkpt lat="43.2162882" lon="-2.9527800">
<ele>600.480713</ele>
<time>2011-05-15T07:08:04.000Z</time>
</trkpt>
<trkpt lat="43.2162664" lon="-2.9527691">
<ele>600.961182</ele>
<time>2011-05-15T07:08:06.000Z</time>
</trkpt>
<trkpt lat="43.2160398" lon="-2.9526949">
<ele>600.961182</ele>
<time>2011-05-15T07:08:22.000Z</time>
</trkpt>
<trkpt lat="43.2159604" lon="-2.9526518">
<ele>600.961182</ele>
<time>2011-05-15T07:08:28.000Z</time>
</trkpt>
<trkpt lat="43.2158914" lon="-2.9526442">
<ele>600.480713</ele>
<time>2011-05-15T07:08:33.000Z</time>
</trkpt>
<trkpt lat="43.2158605" lon="-2.9526443">
<ele>601.922607</ele>
<time>2011-05-15T07:08:35.000Z</time>
</trkpt>
<trkpt lat="43.2157310" lon="-2.9526313">
<ele>602.403076</ele>
<time>2011-05-15T07:08:45.000Z</time>
</trkpt>
<trkpt lat="43.2157193" lon="-2.9526261">
<ele>601.922607</ele>
<time>2011-05-15T07:08:46.000Z</time>
</trkpt>
<trkpt lat="43.2156004" lon="-2.9527209">
<ele>601.922607</ele>
<time>2011-05-15T07:08:57.000Z</time>
</trkpt>
<trkpt lat="43.2154513" lon="-2.9528668">
<ele>602.883789</ele>
<time>2011-05-15T07:09:10.000Z</time>
</trkpt>
<trkpt lat="43.2152896" lon="-2.9531198">
<ele>602.403076</ele>
<time>2011-05-15T07:09:26.000Z</time>
</trkpt>
<trkpt lat="43.2152046" lon="-2.9532887">
<ele>603.845215</ele>
<time>2011-05-15T07:09:37.000Z</time>
</trkpt>
<trkpt lat="43.2151620" lon="-2.9533669">
<ele>603.845215</ele>
<time>2011-05-15T07:09:42.000Z</time>
</trkpt>
<trkpt lat="43.2151094" lon="-2.9534575">
<ele>603.364502</ele>
<time>2011-05-15T07:09:48.000Z</time>
</trkpt>
<trkpt lat="43.2149896" lon="-2.9536536">
<ele>604.326172</ele>
<time>2011-05-15T07:10:01.000Z</time>
</trkpt>
<trkpt lat="43.2149368" lon="-2.9537748">
<ele>603.845215</ele>
<time>2011-05-15T07:10:09.000Z</time>
</trkpt>
<trkpt lat="43.2148838" lon="-2.9539868">
<ele>605.287354</ele>
<time>2011-05-15T07:10:20.000Z</time>
</trkpt>
<trkpt lat="43.2148726" lon="-2.9540682">
<ele>604.806641</ele>
<time>2011-05-15T07:10:25.000Z</time>
</trkpt>
<trkpt lat="43.2148141" lon="-2.9543344">
<ele>603.845215</ele>
<time>2011-05-15T07:10:39.000Z</time>
</trkpt>
<trkpt lat="43.2147689" lon="-2.9546271">
<ele>602.883789</ele>
<time>2011-05-15T07:10:54.000Z</time>
</trkpt>
<trkpt lat="43.2146634" lon="-2.9549468">
<ele>602.403076</ele>
<time>2011-05-15T07:11:11.000Z</time>
</trkpt>
<trkpt lat="43.2145638" lon="-2.9552052">
<ele>602.883789</ele>
<time>2011-05-15T07:11:25.000Z</time>
</trkpt>
<trkpt lat="43.2145056" lon="-2.9553617">
<ele>603.364502</ele>
<time>2011-05-15T07:11:34.000Z</time>
</trkpt>
<trkpt lat="43.2144046" lon="-2.9555632">
<ele>603.845215</ele>
<time>2011-05-15T07:11:46.000Z</time>
</trkpt>
<trkpt lat="43.2142249" lon="-2.9558911">
<ele>603.364502</ele>
<time>2011-05-15T07:12:07.000Z</time>
</trkpt>
<trkpt lat="43.2140206" lon="-2.9562076">
<ele>603.845215</ele>
<time>2011-05-15T07:12:27.000Z</time>
</trkpt>
<trkpt lat="43.2137526" lon="-2.9564221">
<ele>603.845215</ele>
<time>2011-05-15T07:12:48.000Z</time>
</trkpt>
<trkpt lat="43.2135862" lon="-2.9564406">
<ele>603.845215</ele>
<time>2011-05-15T07:12:59.000Z</time>
</trkpt>
<trkpt lat="43.2133412" lon="-2.9564569">
<ele>603.845215</ele>
<time>2011-05-15T07:13:16.000Z</time>
</trkpt>
<trkpt lat="43.2131869" lon="-2.9564872">
<ele>606.248535</ele>
<time>2011-05-15T07:13:27.000Z</time>
</trkpt>
<trkpt lat="43.2130166" lon="-2.9565654">
<ele>609.613281</ele>
<time>2011-05-15T07:13:42.000Z</time>
</trkpt>
<trkpt lat="43.2128839" lon="-2.9566995">
<ele>612.977783</ele>
<time>2011-05-15T07:13:57.000Z</time>
</trkpt>
<trkpt lat="43.2128084" lon="-2.9567431">
<ele>614.900391</ele>
<time>2011-05-15T07:14:06.000Z</time>
</trkpt>
<trkpt lat="43.2126606" lon="-2.9567405">
<ele>617.784180</ele>
<time>2011-05-15T07:14:18.000Z</time>
</trkpt>
<trkpt lat="43.2125415" lon="-2.9568350">
<ele>621.629639</ele>
<time>2011-05-15T07:14:32.000Z</time>
</trkpt>
<trkpt lat="43.2124909" lon="-2.9568923">
<ele>622.110352</ele>
<time>2011-05-15T07:14:39.000Z</time>
</trkpt>
<trkpt lat="43.2123885" lon="-2.9569536">
<ele>625.474854</ele>
<time>2011-05-15T07:14:51.000Z</time>
</trkpt>
<trkpt lat="43.2122933" lon="-2.9569985">
<ele>628.839600</ele>
<time>2011-05-15T07:15:03.000Z</time>
</trkpt>
<trkpt lat="43.2121961" lon="-2.9570405">
<ele>632.204102</ele>
<time>2011-05-15T07:15:16.000Z</time>
</trkpt>
<trkpt lat="43.2121894" lon="-2.9570445">
<ele>632.204102</ele>
<time>2011-05-15T07:15:17.000Z</time>
</trkpt>
<trkpt lat="43.2121119" lon="-2.9570673">
<ele>634.126709</ele>
<time>2011-05-15T07:15:26.000Z</time>
</trkpt>
<trkpt lat="43.2121042" lon="-2.9571707">
<ele>638.452881</ele>
<time>2011-05-15T07:15:39.000Z</time>
</trkpt>
<trkpt lat="43.2121205" lon="-2.9572757">
<ele>641.336731</ele>
<time>2011-05-15T07:15:51.000Z</time>
</trkpt>
<trkpt lat="43.2120897" lon="-2.9573755">
<ele>644.701172</ele>
<time>2011-05-15T07:16:03.000Z</time>
</trkpt>
<trkpt lat="43.2120846" lon="-2.9573900">
<ele>645.181885</ele>
<time>2011-05-15T07:16:05.000Z</time>
</trkpt>
<trkpt lat="43.2120573" lon="-2.9574217">
<ele>646.624023</ele>
<time>2011-05-15T07:16:10.000Z</time>
</trkpt>
<trkpt lat="43.2119987" lon="-2.9574753">
<ele>649.027100</ele>
<time>2011-05-15T07:16:20.000Z</time>
</trkpt>
<trkpt lat="43.2119474" lon="-2.9575471">
<ele>651.911194</ele>
<time>2011-05-15T07:16:31.000Z</time>
</trkpt>
<trkpt lat="43.2118892" lon="-2.9576136">
<ele>654.795166</ele>
<time>2011-05-15T07:16:42.000Z</time>
</trkpt>
<trkpt lat="43.2118012" lon="-2.9576687">
<ele>657.679199</ele>
<time>2011-05-15T07:16:56.000Z</time>
</trkpt>
<trkpt lat="43.2117956" lon="-2.9576731">
<ele>658.159912</ele>
<time>2011-05-15T07:16:57.000Z</time>
</trkpt>
<trkpt lat="43.2117244" lon="-2.9577441">
<ele>661.043701</ele>
<time>2011-05-15T07:17:10.000Z</time>
</trkpt>
<trkpt lat="43.2116334" lon="-2.9578412">
<ele>664.888916</ele>
<time>2011-05-15T07:17:27.000Z</time>
</trkpt>
<trkpt lat="43.2116272" lon="-2.9578471">
<ele>665.369629</ele>
<time>2011-05-15T07:17:28.000Z</time>
</trkpt>
<trkpt lat="43.2115665" lon="-2.9579005">
<ele>668.253662</ele>
<time>2011-05-15T07:17:38.000Z</time>
</trkpt>
<trkpt lat="43.2115146" lon="-2.9579558">
<ele>670.176270</ele>
<time>2011-05-15T07:17:47.000Z</time>
</trkpt>
<trkpt lat="43.2114478" lon="-2.9580124">
<ele>673.541016</ele>
<time>2011-05-15T07:17:58.000Z</time>
</trkpt>
<trkpt lat="43.2114433" lon="-2.9580182">
<ele>674.021545</ele>
<time>2011-05-15T07:17:59.000Z</time>
</trkpt>
<trkpt lat="43.2114176" lon="-2.9580462">
<ele>674.982849</ele>
<time>2011-05-15T07:18:04.000Z</time>
</trkpt>
<trkpt lat="43.2113509" lon="-2.9580916">
<ele>677.866699</ele>
<time>2011-05-15T07:18:14.000Z</time>
</trkpt>
<trkpt lat="43.2113076" lon="-2.9581423">
<ele>680.750732</ele>
<time>2011-05-15T07:18:23.000Z</time>
</trkpt>
<trkpt lat="43.2112347" lon="-2.9581895">
<ele>683.634521</ele>
<time>2011-05-15T07:18:35.000Z</time>
</trkpt>
<trkpt lat="43.2112284" lon="-2.9581931">
<ele>684.115479</ele>
<time>2011-05-15T07:18:36.000Z</time>
</trkpt>
<trkpt lat="43.2111226" lon="-2.9582556">
<ele>686.999268</ele>
<time>2011-05-15T07:18:52.000Z</time>
</trkpt>
<trkpt lat="43.2110396" lon="-2.9582896">
<ele>690.364014</ele>
<time>2011-05-15T07:19:04.000Z</time>
</trkpt>
<trkpt lat="43.2109383" lon="-2.9582979">
<ele>693.728516</ele>
<time>2011-05-15T07:19:18.000Z</time>
</trkpt>
<trkpt lat="43.2109304" lon="-2.9582967">
<ele>693.728516</ele>
<time>2011-05-15T07:19:19.000Z</time>
</trkpt>
<trkpt lat="43.2108419" lon="-2.9583202">
<ele>697.573730</ele>
<time>2011-05-15T07:19:33.000Z</time>
</trkpt>
<trkpt lat="43.2108362" lon="-2.9583252">
<ele>697.573730</ele>
<time>2011-05-15T07:19:34.000Z</time>
</trkpt>
<trkpt lat="43.2107243" lon="-2.9583549">
<ele>700.458008</ele>
<time>2011-05-15T07:19:49.000Z</time>
</trkpt>
<trkpt lat="43.2106214" lon="-2.9583777">
<ele>703.822510</ele>
<time>2011-05-15T07:20:04.000Z</time>
</trkpt>
<trkpt lat="43.2106151" lon="-2.9583802">
<ele>703.822510</ele>
<time>2011-05-15T07:20:05.000Z</time>
</trkpt>
<trkpt lat="43.2105812" lon="-2.9583904">
<ele>704.783691</ele>
<time>2011-05-15T07:20:10.000Z</time>
</trkpt>
<trkpt lat="43.2104691" lon="-2.9584416">
<ele>708.148376</ele>
<time>2011-05-15T07:20:25.000Z</time>
</trkpt>
<trkpt lat="43.2103172" lon="-2.9585260">
<ele>711.512939</ele>
<time>2011-05-15T07:20:42.000Z</time>
</trkpt>
<trkpt lat="43.2101517" lon="-2.9585572">
<ele>714.396729</ele>
<time>2011-05-15T07:21:00.000Z</time>
</trkpt>
<trkpt lat="43.2100224" lon="-2.9585755">
<ele>717.761536</ele>
<time>2011-05-15T07:21:15.000Z</time>
</trkpt>
<trkpt lat="43.2100038" lon="-2.9585764">
<ele>718.722839</ele>
<time>2011-05-15T07:21:17.000Z</time>
</trkpt>
<trkpt lat="43.2099415" lon="-2.9585770">
<ele>720.164795</ele>
<time>2011-05-15T07:21:24.000Z</time>
</trkpt>
<trkpt lat="43.2098090" lon="-2.9585849">
<ele>723.048828</ele>
<time>2011-05-15T07:21:40.000Z</time>
</trkpt>
<trkpt lat="43.2097059" lon="-2.9585475">
<ele>726.413330</ele>
<time>2011-05-15T07:21:52.000Z</time>
</trkpt>
<trkpt lat="43.2096425" lon="-2.9585138">
<ele>727.374756</ele>
<time>2011-05-15T07:22:00.000Z</time>
</trkpt>
<trkpt lat="43.2095809" lon="-2.9585162">
<ele>730.258545</ele>
<time>2011-05-15T07:22:10.000Z</time>
</trkpt>
<trkpt lat="43.2094559" lon="-2.9583688">
<ele>733.623291</ele>
<time>2011-05-15T07:22:28.000Z</time>
</trkpt>
<trkpt lat="43.2094486" lon="-2.9583595">
<ele>734.104004</ele>
<time>2011-05-15T07:22:29.000Z</time>
</trkpt>
<trkpt lat="43.2093672" lon="-2.9582454">
<ele>735.545898</ele>
<time>2011-05-15T07:22:41.000Z</time>
</trkpt>
<trkpt lat="43.2093584" lon="-2.9582228">
<ele>736.507324</ele>
<time>2011-05-15T07:22:43.000Z</time>
</trkpt>
<trkpt lat="43.2092574" lon="-2.9582363">
<ele>739.871887</ele>
<time>2011-05-15T07:22:57.000Z</time>
</trkpt>
<trkpt lat="43.2092005" lon="-2.9582746">
<ele>742.755859</ele>
<time>2011-05-15T07:23:08.000Z</time>
</trkpt>
<trkpt lat="43.2091241" lon="-2.9583145">
<ele>746.120361</ele>
<time>2011-05-15T07:23:20.000Z</time>
</trkpt>
<trkpt lat="43.2090646" lon="-2.9583314">
<ele>749.485107</ele>
<time>2011-05-15T07:23:30.000Z</time>
</trkpt>
<trkpt lat="43.2089937" lon="-2.9583758">
<ele>752.849609</ele>
<time>2011-05-15T07:23:43.000Z</time>
</trkpt>
<trkpt lat="43.2089244" lon="-2.9585030">
<ele>755.733643</ele>
<time>2011-05-15T07:23:58.000Z</time>
</trkpt>
<trkpt lat="43.2089133" lon="-2.9585118">
<ele>756.214111</ele>
<time>2011-05-15T07:24:00.000Z</time>
</trkpt>
<trkpt lat="43.2088450" lon="-2.9585998">
<ele>759.578857</ele>
<time>2011-05-15T07:24:12.000Z</time>
</trkpt>
<trkpt lat="43.2087944" lon="-2.9586240">
<ele>762.462646</ele>
<time>2011-05-15T07:24:20.000Z</time>
</trkpt>
<trkpt lat="43.2087097" lon="-2.9586541">
<ele>766.308105</ele>
<time>2011-05-15T07:24:34.000Z</time>
</trkpt>
<trkpt lat="43.2086808" lon="-2.9586666">
<ele>767.269531</ele>
<time>2011-05-15T07:24:39.000Z</time>
</trkpt>
<trkpt lat="43.2086267" lon="-2.9586981">
<ele>770.634033</ele>
<time>2011-05-15T07:24:49.000Z</time>
</trkpt>
<trkpt lat="43.2085801" lon="-2.9587260">
<ele>772.556702</ele>
<time>2011-05-15T07:24:59.000Z</time>
</trkpt>
<trkpt lat="43.2085440" lon="-2.9587555">
<ele>774.959961</ele>
<time>2011-05-15T07:25:06.000Z</time>
</trkpt>
<trkpt lat="43.2084768" lon="-2.9588148">
<ele>778.805176</ele>
<time>2011-05-15T07:25:20.000Z</time>
</trkpt>
<trkpt lat="43.2084735" lon="-2.9588215">
<ele>778.805176</ele>
<time>2011-05-15T07:25:21.000Z</time>
</trkpt>
<trkpt lat="43.2084094" lon="-2.9588794">
<ele>782.169922</ele>
<time>2011-05-15T07:25:35.000Z</time>
</trkpt>
<trkpt lat="43.2083690" lon="-2.9589421">
<ele>784.573181</ele>
<time>2011-05-15T07:25:45.000Z</time>
</trkpt>
<trkpt lat="43.2083141" lon="-2.9590111">
<ele>788.418457</ele>
<time>2011-05-15T07:25:55.000Z</time>
</trkpt>
<trkpt lat="43.2082347" lon="-2.9590479">
<ele>791.782959</ele>
<time>2011-05-15T07:26:08.000Z</time>
</trkpt>
<trkpt lat="43.2081674" lon="-2.9590650">
<ele>795.147461</ele>
<time>2011-05-15T07:26:20.000Z</time>
</trkpt>
<trkpt lat="43.2081610" lon="-2.9590648">
<ele>795.628174</ele>
<time>2011-05-15T07:26:21.000Z</time>
</trkpt>
<trkpt lat="43.2080944" lon="-2.9591375">
<ele>798.512207</ele>
<time>2011-05-15T07:26:34.000Z</time>
</trkpt>
<trkpt lat="43.2080263" lon="-2.9592074">
<ele>801.876953</ele>
<time>2011-05-15T07:26:47.000Z</time>
</trkpt>
<trkpt lat="43.2079385" lon="-2.9592924">
<ele>805.241516</ele>
<time>2011-05-15T07:27:03.000Z</time>
</trkpt>
<trkpt lat="43.2079148" lon="-2.9593084">
<ele>806.683350</ele>
<time>2011-05-15T07:27:07.000Z</time>
</trkpt>
<trkpt lat="43.2078531" lon="-2.9593602">
<ele>810.047791</ele>
<time>2011-05-15T07:27:17.000Z</time>
</trkpt>
<trkpt lat="43.2078148" lon="-2.9593732">
<ele>811.009277</ele>
<time>2011-05-15T07:27:23.000Z</time>
</trkpt>
<trkpt lat="43.2077894" lon="-2.9593944">
<ele>812.451416</ele>
<time>2011-05-15T07:27:27.000Z</time>
</trkpt>
<trkpt lat="43.2077083" lon="-2.9594575">
<ele>815.816162</ele>
<time>2011-05-15T07:27:40.000Z</time>
</trkpt>
<trkpt lat="43.2076277" lon="-2.9595484">
<ele>818.699951</ele>
<time>2011-05-15T07:27:53.000Z</time>
</trkpt>
<trkpt lat="43.2075451" lon="-2.9596312">
<ele>822.064453</ele>
<time>2011-05-15T07:28:07.000Z</time>
</trkpt>
<trkpt lat="43.2075380" lon="-2.9596370">
<ele>822.545166</ele>
<time>2011-05-15T07:28:08.000Z</time>
</trkpt>
<trkpt lat="43.2074402" lon="-2.9597663">
<ele>825.909729</ele>
<time>2011-05-15T07:28:23.000Z</time>
</trkpt>
<trkpt lat="43.2074297" lon="-2.9597959">
<ele>826.871155</ele>
<time>2011-05-15T07:28:25.000Z</time>
</trkpt>
<trkpt lat="43.2074153" lon="-2.9598316">
<ele>826.871155</ele>
<time>2011-05-15T07:28:28.000Z</time>
</trkpt>
<trkpt lat="43.2073877" lon="-2.9598312">
<ele>827.351868</ele>
<time>2011-05-15T07:28:31.000Z</time>
</trkpt>
<trkpt lat="43.2073711" lon="-2.9598450">
<ele>828.313171</ele>
<time>2011-05-15T07:28:33.000Z</time>
</trkpt>
<trkpt lat="43.2073504" lon="-2.9598846">
<ele>828.793884</ele>
<time>2011-05-15T07:28:37.000Z</time>
</trkpt>
<trkpt lat="43.2072688" lon="-2.9600329">
<ele>832.158447</ele>
<time>2011-05-15T07:28:50.000Z</time>
</trkpt>
<trkpt lat="43.2071908" lon="-2.9601642">
<ele>834.081055</ele>
<time>2011-05-15T07:29:02.000Z</time>
</trkpt>
<trkpt lat="43.2070833" lon="-2.9603071">
<ele>837.445618</ele>
<time>2011-05-15T07:29:18.000Z</time>
</trkpt>
<trkpt lat="43.2070293" lon="-2.9603758">
<ele>838.887634</ele>
<time>2011-05-15T07:29:26.000Z</time>
</trkpt>
<trkpt lat="43.2069408" lon="-2.9605236">
<ele>842.252197</ele>
<time>2011-05-15T07:29:39.000Z</time>
</trkpt>
<trkpt lat="43.2068703" lon="-2.9606595">
<ele>845.136230</ele>
<time>2011-05-15T07:29:50.000Z</time>
</trkpt>
<trkpt lat="43.2068630" lon="-2.9606725">
<ele>845.616943</ele>
<time>2011-05-15T07:29:51.000Z</time>
</trkpt>
<trkpt lat="43.2067647" lon="-2.9609604">
<ele>845.136230</ele>
<time>2011-05-15T07:30:09.000Z</time>
</trkpt>
<trkpt lat="43.2067059" lon="-2.9612255">
<ele>847.058838</ele>
<time>2011-05-15T07:30:24.000Z</time>
</trkpt>
<trkpt lat="43.2066519" lon="-2.9613280">
<ele>847.058838</ele>
<time>2011-05-15T07:30:31.000Z</time>
</trkpt>
<trkpt lat="43.2066341" lon="-2.9613766">
<ele>848.020264</ele>
<time>2011-05-15T07:30:34.000Z</time>
</trkpt>
<trkpt lat="43.2065335" lon="-2.9616567">
<ele>849.462097</ele>
<time>2011-05-15T07:30:51.000Z</time>
</trkpt>
<trkpt lat="43.2065062" lon="-2.9617418">
<ele>851.384766</ele>
<time>2011-05-15T07:30:56.000Z</time>
</trkpt>
<trkpt lat="43.2064602" lon="-2.9618154">
<ele>851.384766</ele>
<time>2011-05-15T07:31:01.000Z</time>
</trkpt>
<trkpt lat="43.2063875" lon="-2.9619045">
<ele>852.345947</ele>
<time>2011-05-15T07:31:08.000Z</time>
</trkpt>
<trkpt lat="43.2063352" lon="-2.9619720">
<ele>854.268799</ele>
<time>2011-05-15T07:31:14.000Z</time>
</trkpt>
<trkpt lat="43.2062006" lon="-2.9621303">
<ele>857.152588</ele>
<time>2011-05-15T07:31:30.000Z</time>
</trkpt>
<trkpt lat="43.2060178" lon="-2.9623366">
<ele>859.555969</ele>
<time>2011-05-15T07:31:49.000Z</time>
</trkpt>
<trkpt lat="43.2059835" lon="-2.9623780">
<ele>861.478699</ele>
<time>2011-05-15T07:31:53.000Z</time>
</trkpt>
<trkpt lat="43.2058815" lon="-2.9624881">
<ele>863.881836</ele>
<time>2011-05-15T07:32:04.000Z</time>
</trkpt>
<trkpt lat="43.2058217" lon="-2.9625558">
<ele>865.804688</ele>
<time>2011-05-15T07:32:11.000Z</time>
</trkpt>
<trkpt lat="43.2056994" lon="-2.9627369">
<ele>869.169189</ele>
<time>2011-05-15T07:32:27.000Z</time>
</trkpt>
<trkpt lat="43.2056871" lon="-2.9627665">
<ele>870.130432</ele>
<time>2011-05-15T07:32:29.000Z</time>
</trkpt>
<trkpt lat="43.2055946" lon="-2.9630147">
<ele>871.572266</ele>
<time>2011-05-15T07:32:46.000Z</time>
</trkpt>
<trkpt lat="43.2055267" lon="-2.9632347">
<ele>874.937012</ele>
<time>2011-05-15T07:33:01.000Z</time>
</trkpt>
<trkpt lat="43.2054374" lon="-2.9635867">
<ele>876.379150</ele>
<time>2011-05-15T07:33:22.000Z</time>
</trkpt>
<trkpt lat="43.2054267" lon="-2.9636431">
<ele>875.417419</ele>
<time>2011-05-15T07:33:25.000Z</time>
</trkpt>
<trkpt lat="43.2054058" lon="-2.9637502">
<ele>874.937012</ele>
<time>2011-05-15T07:33:31.000Z</time>
</trkpt>
<trkpt lat="43.2053546" lon="-2.9639533">
<ele>873.975586</ele>
<time>2011-05-15T07:33:43.000Z</time>
</trkpt>
<trkpt lat="43.2053603" lon="-2.9640092">
<ele>872.052979</ele>
<time>2011-05-15T07:33:46.000Z</time>
</trkpt>
<trkpt lat="43.2053377" lon="-2.9641927">
<ele>870.611145</ele>
<time>2011-05-15T07:33:56.000Z</time>
</trkpt>
<trkpt lat="43.2053377" lon="-2.9643474">
<ele>869.169189</ele>
<time>2011-05-15T07:34:04.000Z</time>
</trkpt>
<trkpt lat="43.2053065" lon="-2.9645301">
<ele>867.246582</ele>
<time>2011-05-15T07:34:14.000Z</time>
</trkpt>
<trkpt lat="43.2053097" lon="-2.9645948">
<ele>865.804688</ele>
<time>2011-05-15T07:34:17.000Z</time>
</trkpt>
<trkpt lat="43.2053090" lon="-2.9647354">
<ele>863.401367</ele>
<time>2011-05-15T07:34:25.000Z</time>
</trkpt>
<trkpt lat="43.2052959" lon="-2.9648048">
<ele>862.920654</ele>
<time>2011-05-15T07:34:29.000Z</time>
</trkpt>
<trkpt lat="43.2052872" lon="-2.9648761">
<ele>861.959473</ele>
<time>2011-05-15T07:34:33.000Z</time>
</trkpt>
<trkpt lat="43.2052858" lon="-2.9649734">
<ele>861.478699</ele>
<time>2011-05-15T07:34:38.000Z</time>
</trkpt>
<trkpt lat="43.2052754" lon="-2.9650483">
<ele>859.555969</ele>
<time>2011-05-15T07:34:42.000Z</time>
</trkpt>
<trkpt lat="43.2052700" lon="-2.9651268">
<ele>859.075256</ele>
<time>2011-05-15T07:34:46.000Z</time>
</trkpt>
<trkpt lat="43.2052296" lon="-2.9654448">
<ele>855.710693</ele>
<time>2011-05-15T07:35:03.000Z</time>
</trkpt>
<trkpt lat="43.2052122" lon="-2.9657255">
<ele>853.307373</ele>
<time>2011-05-15T07:35:18.000Z</time>
</trkpt>
<trkpt lat="43.2051967" lon="-2.9658932">
<ele>851.865479</ele>
<time>2011-05-15T07:35:27.000Z</time>
</trkpt>
<trkpt lat="43.2051586" lon="-2.9660897">
<ele>852.345947</ele>
<time>2011-05-15T07:35:38.000Z</time>
</trkpt>
<trkpt lat="43.2051576" lon="-2.9661280">
<ele>850.904053</ele>
<time>2011-05-15T07:35:40.000Z</time>
</trkpt>
<trkpt lat="43.2051433" lon="-2.9663228">
<ele>849.462097</ele>
<time>2011-05-15T07:35:50.000Z</time>
</trkpt>
<trkpt lat="43.2051531" lon="-2.9665003">
<ele>848.500793</ele>
<time>2011-05-15T07:35:59.000Z</time>
</trkpt>
<trkpt lat="43.2051457" lon="-2.9666720">
<ele>848.020264</ele>
<time>2011-05-15T07:36:08.000Z</time>
</trkpt>
<trkpt lat="43.2051367" lon="-2.9667837">
<ele>846.578369</ele>
<time>2011-05-15T07:36:14.000Z</time>
</trkpt>
<trkpt lat="43.2051300" lon="-2.9668779">
<ele>846.097656</ele>
<time>2011-05-15T07:36:19.000Z</time>
</trkpt>
<trkpt lat="43.2051288" lon="-2.9669133">
<ele>847.058838</ele>
<time>2011-05-15T07:36:21.000Z</time>
</trkpt>
<trkpt lat="43.2051213" lon="-2.9671672">
<ele>843.694092</ele>
<time>2011-05-15T07:36:34.000Z</time>
</trkpt>
<trkpt lat="43.2051205" lon="-2.9671863">
<ele>843.694092</ele>
<time>2011-05-15T07:36:35.000Z</time>
</trkpt>
<trkpt lat="43.2051185" lon="-2.9676076">
<ele>844.175049</ele>
<time>2011-05-15T07:36:57.000Z</time>
</trkpt>
<trkpt lat="43.2050993" lon="-2.9679409">
<ele>846.578369</ele>
<time>2011-05-15T07:37:15.000Z</time>
</trkpt>
<trkpt lat="43.2050892" lon="-2.9680322">
<ele>846.578369</ele>
<time>2011-05-15T07:37:20.000Z</time>
</trkpt>
<trkpt lat="43.2050252" lon="-2.9683110">
<ele>847.539551</ele>
<time>2011-05-15T07:37:37.000Z</time>
</trkpt>
<trkpt lat="43.2049313" lon="-2.9686083">
<ele>850.904053</ele>
<time>2011-05-15T07:37:57.000Z</time>
</trkpt>
<trkpt lat="43.2048734" lon="-2.9689925">
<ele>850.904053</ele>
<time>2011-05-15T07:38:19.000Z</time>
</trkpt>
<trkpt lat="43.2048444" lon="-2.9693235">
<ele>853.307373</ele>
<time>2011-05-15T07:38:38.000Z</time>
</trkpt>
<trkpt lat="43.2048432" lon="-2.9693414">
<ele>853.788086</ele>
<time>2011-05-15T07:38:39.000Z</time>
</trkpt>
<trkpt lat="43.2047616" lon="-2.9697462">
<ele>855.710693</ele>
<time>2011-05-15T07:39:03.000Z</time>
</trkpt>
<trkpt lat="43.2047232" lon="-2.9699642">
<ele>857.152588</ele>
<time>2011-05-15T07:39:16.000Z</time>
</trkpt>
<trkpt lat="43.2046881" lon="-2.9701994">
<ele>860.517273</ele>
<time>2011-05-15T07:39:32.000Z</time>
</trkpt>
<trkpt lat="43.2046988" lon="-2.9703264">
<ele>863.401367</ele>
<time>2011-05-15T07:39:42.000Z</time>
</trkpt>
<trkpt lat="43.2046641" lon="-2.9705462">
<ele>867.246582</ele>
<time>2011-05-15T07:40:00.000Z</time>
</trkpt>
<trkpt lat="43.2046489" lon="-2.9707431">
<ele>868.207764</ele>
<time>2011-05-15T07:40:15.000Z</time>
</trkpt>
<trkpt lat="43.2046331" lon="-2.9708039">
<ele>869.169189</ele>
<time>2011-05-15T07:40:20.000Z</time>
</trkpt>
<trkpt lat="43.2045886" lon="-2.9709740">
<ele>871.091736</ele>
<time>2011-05-15T07:40:33.000Z</time>
</trkpt>
<trkpt lat="43.2045102" lon="-2.9711456">
<ele>873.975586</ele>
<time>2011-05-15T07:40:48.000Z</time>
</trkpt>
<trkpt lat="43.2044138" lon="-2.9712957">
<ele>876.859863</ele>
<time>2011-05-15T07:41:04.000Z</time>
</trkpt>
<trkpt lat="43.2043428" lon="-2.9715029">
<ele>880.224365</ele>
<time>2011-05-15T07:41:20.000Z</time>
</trkpt>
<trkpt lat="43.2042881" lon="-2.9716105">
<ele>883.108154</ele>
<time>2011-05-15T07:41:29.000Z</time>
</trkpt>
<trkpt lat="43.2042490" lon="-2.9716889">
<ele>885.031006</ele>
<time>2011-05-15T07:41:36.000Z</time>
</trkpt>
<trkpt lat="43.2041284" lon="-2.9719663">
<ele>886.472900</ele>
<time>2011-05-15T07:41:55.000Z</time>
</trkpt>
<trkpt lat="43.2040626" lon="-2.9722680">
<ele>888.876221</ele>
<time>2011-05-15T07:42:14.000Z</time>
</trkpt>
<trkpt lat="43.2040627" lon="-2.9724214">
<ele>892.240967</ele>
<time>2011-05-15T07:42:26.000Z</time>
</trkpt>
<trkpt lat="43.2040706" lon="-2.9725610">
<ele>892.240967</ele>
<time>2011-05-15T07:42:43.000Z</time>
</trkpt>
<trkpt lat="43.2040594" lon="-2.9725632">
<ele>894.163513</ele>
<time>2011-05-15T07:42:46.000Z</time>
</trkpt>
<trkpt lat="43.2040555" lon="-2.9725846">
<ele>895.124756</ele>
<time>2011-05-15T07:42:48.000Z</time>
</trkpt>
<trkpt lat="43.2040491" lon="-2.9727680">
<ele>898.008789</ele>
<time>2011-05-15T07:43:05.000Z</time>
</trkpt>
<trkpt lat="43.2040752" lon="-2.9729547">
<ele>901.373291</ele>
<time>2011-05-15T07:43:20.000Z</time>
</trkpt>
<trkpt lat="43.2041042" lon="-2.9731298">
<ele>904.257263</ele>
<time>2011-05-15T07:43:34.000Z</time>
</trkpt>
<trkpt lat="43.2041213" lon="-2.9733885">
<ele>907.621826</ele>
<time>2011-05-15T07:43:51.000Z</time>
</trkpt>
<trkpt lat="43.2041165" lon="-2.9738219">
<ele>911.467285</ele>
<time>2011-05-15T07:44:17.000Z</time>
</trkpt>
<trkpt lat="43.2040946" lon="-2.9741452">
<ele>912.428467</ele>
<time>2011-05-15T07:44:34.000Z</time>
</trkpt>
<trkpt lat="43.2040779" lon="-2.9744450">
<ele>915.793152</ele>
<time>2011-05-15T07:44:51.000Z</time>
</trkpt>
<trkpt lat="43.2040710" lon="-2.9745514">
<ele>918.677002</ele>
<time>2011-05-15T07:44:58.000Z</time>
</trkpt>
<trkpt lat="43.2040576" lon="-2.9746250">
<ele>920.118896</ele>
<time>2011-05-15T07:45:04.000Z</time>
</trkpt>
<trkpt lat="43.2040320" lon="-2.9747839">
<ele>923.002930</ele>
<time>2011-05-15T07:45:17.000Z</time>
</trkpt>
<trkpt lat="43.2039856" lon="-2.9749052">
<ele>926.367615</ele>
<time>2011-05-15T07:45:28.000Z</time>
</trkpt>
<trkpt lat="43.2039489" lon="-2.9750472">
<ele>929.251465</ele>
<time>2011-05-15T07:45:40.000Z</time>
</trkpt>
<trkpt lat="43.2039144" lon="-2.9751595">
<ele>932.616211</ele>
<time>2011-05-15T07:45:50.000Z</time>
</trkpt>
<trkpt lat="43.2038857" lon="-2.9752848">
<ele>935.500061</ele>
<time>2011-05-15T07:46:01.000Z</time>
</trkpt>
<trkpt lat="43.2038707" lon="-2.9753373">
<ele>936.941895</ele>
<time>2011-05-15T07:46:06.000Z</time>
</trkpt>
<trkpt lat="43.2038410" lon="-2.9754748">
<ele>940.306885</ele>
<time>2011-05-15T07:46:19.000Z</time>
</trkpt>
<trkpt lat="43.2038165" lon="-2.9756185">
<ele>944.152100</ele>
<time>2011-05-15T07:46:32.000Z</time>
</trkpt>
<trkpt lat="43.2038145" lon="-2.9756299">
<ele>944.152100</ele>
<time>2011-05-15T07:46:33.000Z</time>
</trkpt>
<trkpt lat="43.2038013" lon="-2.9757485">
<ele>946.074707</ele>
<time>2011-05-15T07:46:43.000Z</time>
</trkpt>
<trkpt lat="43.2037699" lon="-2.9758992">
<ele>949.919922</ele>
<time>2011-05-15T07:46:56.000Z</time>
</trkpt>
<trkpt lat="43.2037426" lon="-2.9760614">
<ele>951.361816</ele>
<time>2011-05-15T07:47:09.000Z</time>
</trkpt>
<trkpt lat="43.2036870" lon="-2.9762396">
<ele>954.726318</ele>
<time>2011-05-15T07:47:24.000Z</time>
</trkpt>
<trkpt lat="43.2036764" lon="-2.9762729">
<ele>955.207031</ele>
<time>2011-05-15T07:47:27.000Z</time>
</trkpt>
<trkpt lat="43.2036576" lon="-2.9763984">
<ele>958.091309</ele>
<time>2011-05-15T07:47:37.000Z</time>
</trkpt>
<trkpt lat="43.2036136" lon="-2.9766089">
<ele>960.975098</ele>
<time>2011-05-15T07:47:52.000Z</time>
</trkpt>
<trkpt lat="43.2036103" lon="-2.9766922">
<ele>961.936523</ele>
<time>2011-05-15T07:47:57.000Z</time>
</trkpt>
<trkpt lat="43.2035880" lon="-2.9768746">
<ele>963.858887</ele>
<time>2011-05-15T07:48:09.000Z</time>
</trkpt>
<trkpt lat="43.2035396" lon="-2.9771350">
<ele>967.223633</ele>
<time>2011-05-15T07:48:25.000Z</time>
</trkpt>
<trkpt lat="43.2034883" lon="-2.9773818">
<ele>968.184875</ele>
<time>2011-05-15T07:48:39.000Z</time>
</trkpt>
<trkpt lat="43.2034380" lon="-2.9776723">
<ele>971.068848</ele>
<time>2011-05-15T07:48:55.000Z</time>
</trkpt>
<trkpt lat="43.2034354" lon="-2.9776911">
<ele>971.068848</ele>
<time>2011-05-15T07:48:56.000Z</time>
</trkpt>
<trkpt lat="43.2034045" lon="-2.9778162">
<ele>972.030273</ele>
<time>2011-05-15T07:49:03.000Z</time>
</trkpt>
<trkpt lat="43.2033698" lon="-2.9779335">
<ele>972.991699</ele>
<time>2011-05-15T07:49:10.000Z</time>
</trkpt>
<trkpt lat="43.2033073" lon="-2.9779946">
<ele>974.914307</ele>
<time>2011-05-15T07:49:17.000Z</time>
</trkpt>
<trkpt lat="43.2032162" lon="-2.9780744">
<ele>978.278809</ele>
<time>2011-05-15T07:49:27.000Z</time>
</trkpt>
<trkpt lat="43.2030949" lon="-2.9781802">
<ele>981.643311</ele>
<time>2011-05-15T07:49:41.000Z</time>
</trkpt>
<trkpt lat="43.2030806" lon="-2.9781982">
<ele>982.604736</ele>
<time>2011-05-15T07:49:43.000Z</time>
</trkpt>
<trkpt lat="43.2029582" lon="-2.9783619">
<ele>985.969238</ele>
<time>2011-05-15T07:50:01.000Z</time>
</trkpt>
<trkpt lat="43.2029490" lon="-2.9783842">
<ele>985.969238</ele>
<time>2011-05-15T07:50:03.000Z</time>
</trkpt>
<trkpt lat="43.2028528" lon="-2.9785686">
<ele>989.333984</ele>
<time>2011-05-15T07:50:19.000Z</time>
</trkpt>
<trkpt lat="43.2028076" lon="-2.9786402">
<ele>991.737244</ele>
<time>2011-05-15T07:50:26.000Z</time>
</trkpt>
<trkpt lat="43.2026710" lon="-2.9789479">
<ele>994.621094</ele>
<time>2011-05-15T07:50:48.000Z</time>
</trkpt>
<trkpt lat="43.2025689" lon="-2.9791612">
<ele>996.543945</ele>
<time>2011-05-15T07:51:03.000Z</time>
</trkpt>
<trkpt lat="43.2024725" lon="-2.9793118">
<ele>997.024414</ele>
<time>2011-05-15T07:51:14.000Z</time>
</trkpt>
<trkpt lat="43.2023286" lon="-2.9794823">
<ele>1000.389160</ele>
<time>2011-05-15T07:51:30.000Z</time>
</trkpt>
<trkpt lat="43.2022741" lon="-2.9795657">
<ele>998.947021</ele>
<time>2011-05-15T07:51:45.000Z</time>
</trkpt>
<trkpt lat="43.2022739" lon="-2.9795724">
<ele>998.947021</ele>
<time>2011-05-15T07:52:07.000Z</time>
</trkpt>
<trkpt lat="43.2022866" lon="-2.9795620">
<ele>1000.869690</ele>
<time>2011-05-15T07:52:59.000Z</time>
</trkpt>
<trkpt lat="43.2023433" lon="-2.9796941">
<ele>996.063232</ele>
<time>2011-05-15T07:53:09.000Z</time>
</trkpt>
<trkpt lat="43.2023536" lon="-2.9796998">
<ele>997.024414</ele>
<time>2011-05-15T07:53:10.000Z</time>
</trkpt>
<trkpt lat="43.2023637" lon="-2.9797070">
<ele>997.505127</ele>
<time>2011-05-15T07:53:11.000Z</time>
</trkpt>
<trkpt lat="43.2024495" lon="-2.9797420">
<ele>996.063232</ele>
<time>2011-05-15T07:53:30.000Z</time>
</trkpt>
<trkpt lat="43.2025254" lon="-2.9797714">
<ele>992.698669</ele>
<time>2011-05-15T07:53:46.000Z</time>
</trkpt>
<trkpt lat="43.2025310" lon="-2.9797812">
<ele>992.698669</ele>
<time>2011-05-15T07:53:47.000Z</time>
</trkpt>
<trkpt lat="43.2025492" lon="-2.9797976">
<ele>992.698669</ele>
<time>2011-05-15T07:54:12.000Z</time>
</trkpt>
<trkpt lat="43.2025657" lon="-2.9798392">
<ele>992.217957</ele>
<time>2011-05-15T07:54:37.000Z</time>
</trkpt>
<trkpt lat="43.2025760" lon="-2.9798598">
<ele>991.737244</ele>
<time>2011-05-15T07:54:39.000Z</time>
</trkpt>
<trkpt lat="43.2025836" lon="-2.9800431">
<ele>990.775940</ele>
<time>2011-05-15T07:54:51.000Z</time>
</trkpt>
<trkpt lat="43.2025981" lon="-2.9801014">
<ele>988.853516</ele>
<time>2011-05-15T07:54:55.000Z</time>
</trkpt>
<trkpt lat="43.2025974" lon="-2.9801319">
<ele>987.411133</ele>
<time>2011-05-15T07:54:57.000Z</time>
</trkpt>
<trkpt lat="43.2025968" lon="-2.9801428">
<ele>988.372803</ele>
<time>2011-05-15T07:54:58.000Z</time>
</trkpt>
<trkpt lat="43.2026014" lon="-2.9802266">
<ele>986.930420</ele>
<time>2011-05-15T07:55:03.000Z</time>
</trkpt>
<trkpt lat="43.2026326" lon="-2.9803545">
<ele>984.527344</ele>
<time>2011-05-15T07:55:12.000Z</time>
</trkpt>
<trkpt lat="43.2026798" lon="-2.9805392">
<ele>982.124023</ele>
<time>2011-05-15T07:55:24.000Z</time>
</trkpt>
<trkpt lat="43.2027081" lon="-2.9806525">
<ele>978.759521</ele>
<time>2011-05-15T07:55:31.000Z</time>
</trkpt>
<trkpt lat="43.2027760" lon="-2.9808207">
<ele>975.875488</ele>
<time>2011-05-15T07:55:39.000Z</time>
</trkpt>
<trkpt lat="43.2028085" lon="-2.9808647">
<ele>973.952881</ele>
<time>2011-05-15T07:55:42.000Z</time>
</trkpt>
<trkpt lat="43.2028584" lon="-2.9809678">
<ele>970.588135</ele>
<time>2011-05-15T07:55:48.000Z</time>
</trkpt>
<trkpt lat="43.2028690" lon="-2.9809885">
<ele>970.588135</ele>
<time>2011-05-15T07:55:49.000Z</time>
</trkpt>
<trkpt lat="43.2029269" lon="-2.9811213">
<ele>967.223633</ele>
<time>2011-05-15T07:55:55.000Z</time>
</trkpt>
<trkpt lat="43.2029376" lon="-2.9811409">
<ele>967.223633</ele>
<time>2011-05-15T07:55:56.000Z</time>
</trkpt>
<trkpt lat="43.2029789" lon="-2.9812104">
<ele>964.339600</ele>
<time>2011-05-15T07:56:00.000Z</time>
</trkpt>
<trkpt lat="43.2029987" lon="-2.9812496">
<ele>963.378418</ele>
<time>2011-05-15T07:56:02.000Z</time>
</trkpt>
<trkpt lat="43.2030157" lon="-2.9812915">
<ele>962.416992</ele>
<time>2011-05-15T07:56:04.000Z</time>
</trkpt>
<trkpt lat="43.2030392" lon="-2.9813476">
<ele>960.975098</ele>
<time>2011-05-15T07:56:07.000Z</time>
</trkpt>
<trkpt lat="43.2030949" lon="-2.9814464">
<ele>957.610596</ele>
<time>2011-05-15T07:56:13.000Z</time>
</trkpt>
<trkpt lat="43.2031032" lon="-2.9814649">
<ele>957.610596</ele>
<time>2011-05-15T07:56:14.000Z</time>
</trkpt>
<trkpt lat="43.2031465" lon="-2.9815527">
<ele>954.726318</ele>
<time>2011-05-15T07:56:19.000Z</time>
</trkpt>
<trkpt lat="43.2031913" lon="-2.9816636">
<ele>951.361816</ele>
<time>2011-05-15T07:56:25.000Z</time>
</trkpt>
<trkpt lat="43.2032427" lon="-2.9818080">
<ele>948.958496</ele>
<time>2011-05-15T07:56:32.000Z</time>
</trkpt>
<trkpt lat="43.2032825" lon="-2.9819252">
<ele>945.593994</ele>
<time>2011-05-15T07:56:38.000Z</time>
</trkpt>
<trkpt lat="43.2032858" lon="-2.9819463">
<ele>945.593994</ele>
<time>2011-05-15T07:56:39.000Z</time>
</trkpt>
<trkpt lat="43.2032873" lon="-2.9819679">
<ele>944.632568</ele>
<time>2011-05-15T07:56:40.000Z</time>
</trkpt>
<trkpt lat="43.2033384" lon="-2.9820967">
<ele>941.748779</ele>
<time>2011-05-15T07:56:47.000Z</time>
</trkpt>
<trkpt lat="43.2033587" lon="-2.9821520">
<ele>939.825928</ele>
<time>2011-05-15T07:56:50.000Z</time>
</trkpt>
<trkpt lat="43.2034019" lon="-2.9822510">
<ele>936.941895</ele>
<time>2011-05-15T07:56:56.000Z</time>
</trkpt>
<trkpt lat="43.2034480" lon="-2.9823617">
<ele>934.538818</ele>
<time>2011-05-15T07:57:03.000Z</time>
</trkpt>
<trkpt lat="43.2034655" lon="-2.9824132">
<ele>933.096680</ele>
<time>2011-05-15T07:57:06.000Z</time>
</trkpt>
<trkpt lat="43.2034981" lon="-2.9825460">
<ele>929.732178</ele>
<time>2011-05-15T07:57:14.000Z</time>
</trkpt>
<trkpt lat="43.2035473" lon="-2.9826713">
<ele>926.848328</ele>
<time>2011-05-15T07:57:22.000Z</time>
</trkpt>
<trkpt lat="43.2035975" lon="-2.9828080">
<ele>923.483643</ele>
<time>2011-05-15T07:57:31.000Z</time>
</trkpt>
<trkpt lat="43.2036038" lon="-2.9828251">
<ele>923.483643</ele>
<time>2011-05-15T07:57:32.000Z</time>
</trkpt>
<trkpt lat="43.2036329" lon="-2.9828867">
<ele>922.041504</ele>
<time>2011-05-15T07:57:36.000Z</time>
</trkpt>
<trkpt lat="43.2036483" lon="-2.9829370">
<ele>920.118896</ele>
<time>2011-05-15T07:57:39.000Z</time>
</trkpt>
<trkpt lat="43.2036587" lon="-2.9830074">
<ele>918.677002</ele>
<time>2011-05-15T07:57:43.000Z</time>
</trkpt>
<trkpt lat="43.2036661" lon="-2.9830585">
<ele>918.196289</ele>
<time>2011-05-15T07:57:46.000Z</time>
</trkpt>
<trkpt lat="43.2037224" lon="-2.9831731">
<ele>914.351135</ele>
<time>2011-05-15T07:57:54.000Z</time>
</trkpt>
<trkpt lat="43.2037608" lon="-2.9832178">
<ele>913.870422</ele>
<time>2011-05-15T07:57:58.000Z</time>
</trkpt>
<trkpt lat="43.2037714" lon="-2.9832266">
<ele>912.909180</ele>
<time>2011-05-15T07:57:59.000Z</time>
</trkpt>
<trkpt lat="43.2038173" lon="-2.9833249">
<ele>910.505859</ele>
<time>2011-05-15T07:58:06.000Z</time>
</trkpt>
<trkpt lat="43.2038277" lon="-2.9833585">
<ele>910.505859</ele>
<time>2011-05-15T07:58:08.000Z</time>
</trkpt>
<trkpt lat="43.2038530" lon="-2.9835050">
<ele>906.179688</ele>
<time>2011-05-15T07:58:17.000Z</time>
</trkpt>
<trkpt lat="43.2038649" lon="-2.9835918">
<ele>905.218506</ele>
<time>2011-05-15T07:58:22.000Z</time>
</trkpt>
<trkpt lat="43.2039066" lon="-2.9837376">
<ele>901.854004</ele>
<time>2011-05-15T07:58:30.000Z</time>
</trkpt>
<trkpt lat="43.2039099" lon="-2.9837559">
<ele>901.854004</ele>
<time>2011-05-15T07:58:31.000Z</time>
</trkpt>
<trkpt lat="43.2039446" lon="-2.9838496">
<ele>899.931396</ele>
<time>2011-05-15T07:58:37.000Z</time>
</trkpt>
<trkpt lat="43.2039854" lon="-2.9839893">
<ele>896.086182</ele>
<time>2011-05-15T07:58:47.000Z</time>
</trkpt>
<trkpt lat="43.2040074" lon="-2.9840994">
<ele>893.682800</ele>
<time>2011-05-15T07:58:54.000Z</time>
</trkpt>
<trkpt lat="43.2040451" lon="-2.9842242">
<ele>890.318115</ele>
<time>2011-05-15T07:59:03.000Z</time>
</trkpt>
<trkpt lat="43.2040638" lon="-2.9843058">
<ele>888.395508</ele>
<time>2011-05-15T07:59:08.000Z</time>
</trkpt>
<trkpt lat="43.2040861" lon="-2.9844061">
<ele>885.992188</ele>
<time>2011-05-15T07:59:14.000Z</time>
</trkpt>
<trkpt lat="43.2040774" lon="-2.9844905">
<ele>885.031006</ele>
<time>2011-05-15T07:59:19.000Z</time>
</trkpt>
<trkpt lat="43.2040933" lon="-2.9845222">
<ele>884.550293</ele>
<time>2011-05-15T07:59:22.000Z</time>
</trkpt>
<trkpt lat="43.2041095" lon="-2.9845438">
<ele>883.588867</ele>
<time>2011-05-15T07:59:24.000Z</time>
</trkpt>
<trkpt lat="43.2041481" lon="-2.9846604">
<ele>880.224365</ele>
<time>2011-05-15T07:59:32.000Z</time>
</trkpt>
<trkpt lat="43.2041508" lon="-2.9846779">
<ele>880.224365</ele>
<time>2011-05-15T07:59:33.000Z</time>
</trkpt>
<trkpt lat="43.2041687" lon="-2.9848261">
<ele>876.859863</ele>
<time>2011-05-15T07:59:41.000Z</time>
</trkpt>
<trkpt lat="43.2042123" lon="-2.9849748">
<ele>873.495117</ele>
<time>2011-05-15T07:59:49.000Z</time>
</trkpt>
<trkpt lat="43.2042165" lon="-2.9849912">
<ele>873.014404</ele>
<time>2011-05-15T07:59:50.000Z</time>
</trkpt>
<trkpt lat="43.2042383" lon="-2.9850753">
<ele>871.091736</ele>
<time>2011-05-15T07:59:55.000Z</time>
</trkpt>
<trkpt lat="43.2042767" lon="-2.9851540">
<ele>869.169189</ele>
<time>2011-05-15T08:00:00.000Z</time>
</trkpt>
<trkpt lat="43.2043414" lon="-2.9852785">
<ele>866.285156</ele>
<time>2011-05-15T08:00:08.000Z</time>
</trkpt>
<trkpt lat="43.2043612" lon="-2.9853619">
<ele>863.401367</ele>
<time>2011-05-15T08:00:13.000Z</time>
</trkpt>
<trkpt lat="43.2043839" lon="-2.9854703">
<ele>860.517273</ele>
<time>2011-05-15T08:00:20.000Z</time>
</trkpt>
<trkpt lat="43.2043998" lon="-2.9855695">
<ele>857.633301</ele>
<time>2011-05-15T08:00:26.000Z</time>
</trkpt>
<trkpt lat="43.2044000" lon="-2.9855874">
<ele>857.633301</ele>
<time>2011-05-15T08:00:27.000Z</time>
</trkpt>
<trkpt lat="43.2044268" lon="-2.9856376">
<ele>855.710693</ele>
<time>2011-05-15T08:00:31.000Z</time>
</trkpt>
<trkpt lat="43.2044462" lon="-2.9856949">
<ele>853.788086</ele>
<time>2011-05-15T08:00:36.000Z</time>
</trkpt>
<trkpt lat="43.2044327" lon="-2.9857210">
<ele>852.345947</ele>
<time>2011-05-15T08:00:38.000Z</time>
</trkpt>
<trkpt lat="43.2044392" lon="-2.9858252">
<ele>848.981506</ele>
<time>2011-05-15T08:00:45.000Z</time>
</trkpt>
<trkpt lat="43.2044200" lon="-2.9858787">
<ele>847.539551</ele>
<time>2011-05-15T08:00:49.000Z</time>
</trkpt>
<trkpt lat="43.2044067" lon="-2.9859047">
<ele>846.097656</ele>
<time>2011-05-15T08:00:51.000Z</time>
</trkpt>
<trkpt lat="43.2043735" lon="-2.9859564">
<ele>844.655518</ele>
<time>2011-05-15T08:00:56.000Z</time>
</trkpt>
<trkpt lat="43.2043435" lon="-2.9859880">
<ele>843.213379</ele>
<time>2011-05-15T08:00:59.000Z</time>
</trkpt>
<trkpt lat="43.2043153" lon="-2.9860560">
<ele>840.810059</ele>
<time>2011-05-15T08:01:05.000Z</time>
</trkpt>
<trkpt lat="43.2042740" lon="-2.9861150">
<ele>838.406921</ele>
<time>2011-05-15T08:01:11.000Z</time>
</trkpt>
<trkpt lat="43.2042637" lon="-2.9861378">
<ele>837.445618</ele>
<time>2011-05-15T08:01:13.000Z</time>
</trkpt>
<trkpt lat="43.2042428" lon="-2.9861631">
<ele>836.484375</ele>
<time>2011-05-15T08:01:16.000Z</time>
</trkpt>
<trkpt lat="43.2042540" lon="-2.9861937">
<ele>835.042480</ele>
<time>2011-05-15T08:01:19.000Z</time>
</trkpt>
<trkpt lat="43.2042254" lon="-2.9862253">
<ele>833.600342</ele>
<time>2011-05-15T08:01:23.000Z</time>
</trkpt>
<trkpt lat="43.2042398" lon="-2.9862453">
<ele>832.639160</ele>
<time>2011-05-15T08:01:25.000Z</time>
</trkpt>
<trkpt lat="43.2042625" lon="-2.9862758">
<ele>831.677734</ele>
<time>2011-05-15T08:01:28.000Z</time>
</trkpt>
<trkpt lat="43.2043062" lon="-2.9863889">
<ele>827.351868</ele>
<time>2011-05-15T08:01:36.000Z</time>
</trkpt>
<trkpt lat="43.2043031" lon="-2.9864110">
<ele>826.390442</ele>
<time>2011-05-15T08:01:38.000Z</time>
</trkpt>
<trkpt lat="43.2042942" lon="-2.9864412">
<ele>824.948486</ele>
<time>2011-05-15T08:01:41.000Z</time>
</trkpt>
<trkpt lat="43.2043117" lon="-2.9864660">
<ele>823.506592</ele>
<time>2011-05-15T08:01:44.000Z</time>
</trkpt>
<trkpt lat="43.2043212" lon="-2.9865159">
<ele>821.103271</ele>
<time>2011-05-15T08:01:48.000Z</time>
</trkpt>
<trkpt lat="43.2042397" lon="-2.9865449">
<ele>820.141846</ele>
<time>2011-05-15T08:01:55.000Z</time>
</trkpt>
<trkpt lat="43.2041917" lon="-2.9865548">
<ele>817.738525</ele>
<time>2011-05-15T08:02:00.000Z</time>
</trkpt>
<trkpt lat="43.2042202" lon="-2.9866343">
<ele>815.335449</ele>
<time>2011-05-15T08:02:04.000Z</time>
</trkpt>
<trkpt lat="43.2042333" lon="-2.9866419">
<ele>815.335449</ele>
<time>2011-05-15T08:02:05.000Z</time>
</trkpt>
<trkpt lat="43.2043562" lon="-2.9867287">
<ele>812.451416</ele>
<time>2011-05-15T08:02:15.000Z</time>
</trkpt>
<trkpt lat="43.2044715" lon="-2.9868090">
<ele>809.567383</ele>
<time>2011-05-15T08:02:24.000Z</time>
</trkpt>
<trkpt lat="43.2045149" lon="-2.9868421">
<ele>809.086670</ele>
<time>2011-05-15T08:02:28.000Z</time>
</trkpt>
<trkpt lat="43.2046217" lon="-2.9869167">
<ele>806.202637</ele>
<time>2011-05-15T08:02:37.000Z</time>
</trkpt>
<trkpt lat="43.2047874" lon="-2.9870349">
<ele>803.318848</ele>
<time>2011-05-15T08:02:50.000Z</time>
</trkpt>
<trkpt lat="43.2049496" lon="-2.9871064">
<ele>800.435059</ele>
<time>2011-05-15T08:03:02.000Z</time>
</trkpt>
<trkpt lat="43.2050188" lon="-2.9871318">
<ele>798.992920</ele>
<time>2011-05-15T08:03:07.000Z</time>
</trkpt>
<trkpt lat="43.2051609" lon="-2.9871758">
<ele>796.109070</ele>
<time>2011-05-15T08:03:18.000Z</time>
</trkpt>
<trkpt lat="43.2053394" lon="-2.9871954">
<ele>792.263672</ele>
<time>2011-05-15T08:03:31.000Z</time>
</trkpt>
<trkpt lat="43.2054773" lon="-2.9872053">
<ele>788.418457</ele>
<time>2011-05-15T08:03:41.000Z</time>
</trkpt>
<trkpt lat="43.2054917" lon="-2.9872033">
<ele>789.379639</ele>
<time>2011-05-15T08:03:42.000Z</time>
</trkpt>
<trkpt lat="43.2056280" lon="-2.9872060">
<ele>785.534424</ele>
<time>2011-05-15T08:03:52.000Z</time>
</trkpt>
<trkpt lat="43.2057406" lon="-2.9872209">
<ele>782.650635</ele>
<time>2011-05-15T08:04:00.000Z</time>
</trkpt>
<trkpt lat="43.2057546" lon="-2.9872231">
<ele>782.650635</ele>
<time>2011-05-15T08:04:01.000Z</time>
</trkpt>
<trkpt lat="43.2058406" lon="-2.9872409">
<ele>780.728027</ele>
<time>2011-05-15T08:04:07.000Z</time>
</trkpt>
<trkpt lat="43.2058945" lon="-2.9872442">
<ele>779.766357</ele>
<time>2011-05-15T08:04:11.000Z</time>
</trkpt>
<trkpt lat="43.2060363" lon="-2.9872305">
<ele>775.921143</ele>
<time>2011-05-15T08:04:21.000Z</time>
</trkpt>
<trkpt lat="43.2060923" lon="-2.9872181">
<ele>774.959961</ele>
<time>2011-05-15T08:04:25.000Z</time>
</trkpt>
<trkpt lat="43.2062291" lon="-2.9871519">
<ele>771.595276</ele>
<time>2011-05-15T08:04:35.000Z</time>
</trkpt>
<trkpt lat="43.2062428" lon="-2.9871442">
<ele>772.075989</ele>
<time>2011-05-15T08:04:36.000Z</time>
</trkpt>
<trkpt lat="43.2063462" lon="-2.9870774">
<ele>768.711426</ele>
<time>2011-05-15T08:04:44.000Z</time>
</trkpt>
<trkpt lat="43.2064555" lon="-2.9869945">
<ele>765.346924</ele>
<time>2011-05-15T08:04:52.000Z</time>
</trkpt>
<trkpt lat="43.2065635" lon="-2.9868738">
<ele>762.462646</ele>
<time>2011-05-15T08:05:02.000Z</time>
</trkpt>
<trkpt lat="43.2065766" lon="-2.9868622">
<ele>761.982117</ele>
<time>2011-05-15T08:05:03.000Z</time>
</trkpt>
<trkpt lat="43.2066725" lon="-2.9868121">
<ele>760.059326</ele>
<time>2011-05-15T08:05:10.000Z</time>
</trkpt>
<trkpt lat="43.2068045" lon="-2.9867703">
<ele>756.214111</ele>
<time>2011-05-15T08:05:20.000Z</time>
</trkpt>
<trkpt lat="43.2068330" lon="-2.9867643">
<ele>757.175537</ele>
<time>2011-05-15T08:05:22.000Z</time>
</trkpt>
<trkpt lat="43.2068821" lon="-2.9867384">
<ele>755.252930</ele>
<time>2011-05-15T08:05:26.000Z</time>
</trkpt>
<trkpt lat="43.2069268" lon="-2.9867157">
<ele>753.811035</ele>
<time>2011-05-15T08:05:30.000Z</time>
</trkpt>
<trkpt lat="43.2069846" lon="-2.9866807">
<ele>752.368896</ele>
<time>2011-05-15T08:05:35.000Z</time>
</trkpt>
<trkpt lat="43.2070891" lon="-2.9866219">
<ele>749.485107</ele>
<time>2011-05-15T08:05:44.000Z</time>
</trkpt>
<trkpt lat="43.2070981" lon="-2.9866101">
<ele>749.485107</ele>
<time>2011-05-15T08:05:45.000Z</time>
</trkpt>
<trkpt lat="43.2072069" lon="-2.9865148">
<ele>745.639648</ele>
<time>2011-05-15T08:05:55.000Z</time>
</trkpt>
<trkpt lat="43.2072868" lon="-2.9864416">
<ele>744.197754</ele>
<time>2011-05-15T08:06:02.000Z</time>
</trkpt>
<trkpt lat="43.2073126" lon="-2.9864201">
<ele>743.236328</ele>
<time>2011-05-15T08:06:04.000Z</time>
</trkpt>
<trkpt lat="43.2073438" lon="-2.9864097">
<ele>741.794434</ele>
<time>2011-05-15T08:06:07.000Z</time>
</trkpt>
<trkpt lat="43.2074293" lon="-2.9864536">
<ele>737.468506</ele>
<time>2011-05-15T08:06:14.000Z</time>
</trkpt>
<trkpt lat="43.2074521" lon="-2.9864930">
<ele>736.507324</ele>
<time>2011-05-15T08:06:17.000Z</time>
</trkpt>
<trkpt lat="43.2074977" lon="-2.9864870">
<ele>736.026611</ele>
<time>2011-05-15T08:06:22.000Z</time>
</trkpt>
<trkpt lat="43.2075071" lon="-2.9865184">
<ele>735.065430</ele>
<time>2011-05-15T08:06:24.000Z</time>
</trkpt>
<trkpt lat="43.2075593" lon="-2.9866511">
<ele>731.219971</ele>
<time>2011-05-15T08:06:32.000Z</time>
</trkpt>
<trkpt lat="43.2076189" lon="-2.9867908">
<ele>728.335999</ele>
<time>2011-05-15T08:06:41.000Z</time>
</trkpt>
<trkpt lat="43.2077045" lon="-2.9869199">
<ele>724.490723</ele>
<time>2011-05-15T08:06:53.000Z</time>
</trkpt>
<trkpt lat="43.2077328" lon="-2.9870121">
<ele>722.568115</ele>
<time>2011-05-15T08:06:59.000Z</time>
</trkpt>
<trkpt lat="43.2077686" lon="-2.9871079">
<ele>720.164795</ele>
<time>2011-05-15T08:07:06.000Z</time>
</trkpt>
<trkpt lat="43.2077923" lon="-2.9871823">
<ele>718.242249</ele>
<time>2011-05-15T08:07:11.000Z</time>
</trkpt>
<trkpt lat="43.2078100" lon="-2.9872295">
<ele>717.281006</ele>
<time>2011-05-15T08:07:14.000Z</time>
</trkpt>
<trkpt lat="43.2078326" lon="-2.9873411">
<ele>713.435547</ele>
<time>2011-05-15T08:07:21.000Z</time>
</trkpt>
<trkpt lat="43.2078370" lon="-2.9873566">
<ele>713.435547</ele>
<time>2011-05-15T08:07:22.000Z</time>
</trkpt>
<trkpt lat="43.2078655" lon="-2.9874810">
<ele>710.070801</ele>
<time>2011-05-15T08:07:30.000Z</time>
</trkpt>
<trkpt lat="43.2078862" lon="-2.9875654">
<ele>708.148376</ele>
<time>2011-05-15T08:07:35.000Z</time>
</trkpt>
<trkpt lat="43.2079229" lon="-2.9876853">
<ele>705.745117</ele>
<time>2011-05-15T08:07:42.000Z</time>
</trkpt>
<trkpt lat="43.2079288" lon="-2.9877021">
<ele>704.783691</ele>
<time>2011-05-15T08:07:43.000Z</time>
</trkpt>
<trkpt lat="43.2080004" lon="-2.9877296">
<ele>700.938477</ele>
<time>2011-05-15T08:07:49.000Z</time>
</trkpt>
<trkpt lat="43.2080098" lon="-2.9877431">
<ele>700.938477</ele>
<time>2011-05-15T08:07:50.000Z</time>
</trkpt>
<trkpt lat="43.2080203" lon="-2.9877564">
<ele>700.938477</ele>
<time>2011-05-15T08:07:51.000Z</time>
</trkpt>
<trkpt lat="43.2081033" lon="-2.9878094">
<ele>697.093018</ele>
<time>2011-05-15T08:07:58.000Z</time>
</trkpt>
<trkpt lat="43.2081649" lon="-2.9878865">
<ele>694.689697</ele>
<time>2011-05-15T08:08:04.000Z</time>
</trkpt>
<trkpt lat="43.2081901" lon="-2.9879072">
<ele>693.247803</ele>
<time>2011-05-15T08:08:06.000Z</time>
</trkpt>
<trkpt lat="43.2082208" lon="-2.9879331">
<ele>691.805908</ele>
<time>2011-05-15T08:08:09.000Z</time>
</trkpt>
<trkpt lat="43.2082420" lon="-2.9879777">
<ele>689.883301</ele>
<time>2011-05-15T08:08:12.000Z</time>
</trkpt>
<trkpt lat="43.2083305" lon="-2.9880826">
<ele>686.518738</ele>
<time>2011-05-15T08:08:21.000Z</time>
</trkpt>
<trkpt lat="43.2083891" lon="-2.9881642">
<ele>684.596191</ele>
<time>2011-05-15T08:08:28.000Z</time>
</trkpt>
<trkpt lat="43.2083981" lon="-2.9881738">
<ele>684.115479</ele>
<time>2011-05-15T08:08:29.000Z</time>
</trkpt>
<trkpt lat="43.2084212" lon="-2.9882454">
<ele>682.673340</ele>
<time>2011-05-15T08:08:34.000Z</time>
</trkpt>
<trkpt lat="43.2084288" lon="-2.9882584">
<ele>682.673340</ele>
<time>2011-05-15T08:08:35.000Z</time>
</trkpt>
<trkpt lat="43.2084942" lon="-2.9883425">
<ele>678.828125</ele>
<time>2011-05-15T08:08:43.000Z</time>
</trkpt>
<trkpt lat="43.2085689" lon="-2.9884429">
<ele>675.463379</ele>
<time>2011-05-15T08:08:53.000Z</time>
</trkpt>
<trkpt lat="43.2085752" lon="-2.9884727">
<ele>674.502258</ele>
<time>2011-05-15T08:08:55.000Z</time>
</trkpt>
<trkpt lat="43.2085830" lon="-2.9884971">
<ele>674.021545</ele>
<time>2011-05-15T08:08:57.000Z</time>
</trkpt>
<trkpt lat="43.2086030" lon="-2.9885017">
<ele>673.060303</ele>
<time>2011-05-15T08:08:59.000Z</time>
</trkpt>
<trkpt lat="43.2086543" lon="-2.9884735">
<ele>672.579590</ele>
<time>2011-05-15T08:09:03.000Z</time>
</trkpt>
<trkpt lat="43.2086915" lon="-2.9884733">
<ele>672.579590</ele>
<time>2011-05-15T08:09:06.000Z</time>
</trkpt>
<trkpt lat="43.2087222" lon="-2.9885258">
<ele>670.656982</ele>
<time>2011-05-15T08:09:11.000Z</time>
</trkpt>
<trkpt lat="43.2087129" lon="-2.9885511">
<ele>669.695801</ele>
<time>2011-05-15T08:09:13.000Z</time>
</trkpt>
<trkpt lat="43.2086545" lon="-2.9886229">
<ele>668.734375</ele>
<time>2011-05-15T08:09:19.000Z</time>
</trkpt>
<trkpt lat="43.2086890" lon="-2.9886926">
<ele>667.292236</ele>
<time>2011-05-15T08:09:24.000Z</time>
</trkpt>
<trkpt lat="43.2087726" lon="-2.9887740">
<ele>662.966370</ele>
<time>2011-05-15T08:09:33.000Z</time>
</trkpt>
<trkpt lat="43.2088315" lon="-2.9888428">
<ele>661.043701</ele>
<time>2011-05-15T08:09:40.000Z</time>
</trkpt>
<trkpt lat="43.2088894" lon="-2.9889189">
<ele>658.640381</ele>
<time>2011-05-15T08:09:47.000Z</time>
</trkpt>
<trkpt lat="43.2089744" lon="-2.9889943">
<ele>655.275879</ele>
<time>2011-05-15T08:09:56.000Z</time>
</trkpt>
<trkpt lat="43.2091009" lon="-2.9889969">
<ele>651.430481</ele>
<time>2011-05-15T08:10:06.000Z</time>
</trkpt>
<trkpt lat="43.2091740" lon="-2.9889705">
<ele>649.027100</ele>
<time>2011-05-15T08:10:12.000Z</time>
</trkpt>
<trkpt lat="43.2092888" lon="-2.9889056">
<ele>644.701172</ele>
<time>2011-05-15T08:10:21.000Z</time>
</trkpt>
<trkpt lat="43.2093012" lon="-2.9888972">
<ele>645.181885</ele>
<time>2011-05-15T08:10:22.000Z</time>
</trkpt>
<trkpt lat="43.2093856" lon="-2.9888369">
<ele>641.817444</ele>
<time>2011-05-15T08:10:29.000Z</time>
</trkpt>
<trkpt lat="43.2094449" lon="-2.9887895">
<ele>639.894775</ele>
<time>2011-05-15T08:10:35.000Z</time>
</trkpt>
<trkpt lat="43.2094687" lon="-2.9887781">
<ele>639.414063</ele>
<time>2011-05-15T08:10:37.000Z</time>
</trkpt>
<trkpt lat="43.2095645" lon="-2.9886820">
<ele>634.607422</ele>
<time>2011-05-15T08:10:47.000Z</time>
</trkpt>
<trkpt lat="43.2096557" lon="-2.9886056">
<ele>631.242859</ele>
<time>2011-05-15T08:10:56.000Z</time>
</trkpt>
<trkpt lat="43.2097526" lon="-2.9885294">
<ele>627.397705</ele>
<time>2011-05-15T08:11:05.000Z</time>
</trkpt>
<trkpt lat="43.2097922" lon="-2.9884921">
<ele>625.474854</ele>
<time>2011-05-15T08:11:09.000Z</time>
</trkpt>
<trkpt lat="43.2098321" lon="-2.9884552">
<ele>623.552490</ele>
<time>2011-05-15T08:11:13.000Z</time>
</trkpt>
<trkpt lat="43.2098759" lon="-2.9884020">
<ele>621.629639</ele>
<time>2011-05-15T08:11:18.000Z</time>
</trkpt>
<trkpt lat="43.2098899" lon="-2.9883610">
<ele>619.707031</ele>
<time>2011-05-15T08:11:21.000Z</time>
</trkpt>
<trkpt lat="43.2099799" lon="-2.9883631">
<ele>616.822998</ele>
<time>2011-05-15T08:11:29.000Z</time>
</trkpt>
<trkpt lat="43.2100290" lon="-2.9885137">
<ele>614.900391</ele>
<time>2011-05-15T08:11:38.000Z</time>
</trkpt>
<trkpt lat="43.2100370" lon="-2.9885514">
<ele>613.458496</ele>
<time>2011-05-15T08:11:40.000Z</time>
</trkpt>
<trkpt lat="43.2100846" lon="-2.9887138">
<ele>610.093750</ele>
<time>2011-05-15T08:11:50.000Z</time>
</trkpt>
<trkpt lat="43.2101312" lon="-2.9888310">
<ele>606.248535</ele>
<time>2011-05-15T08:11:58.000Z</time>
</trkpt>
<trkpt lat="43.2101756" lon="-2.9889615">
<ele>603.364502</ele>
<time>2011-05-15T08:12:06.000Z</time>
</trkpt>
<trkpt lat="43.2101908" lon="-2.9890413">
<ele>602.883789</ele>
<time>2011-05-15T08:12:10.000Z</time>
</trkpt>
<trkpt lat="43.2102044" lon="-2.9891376">
<ele>602.403076</ele>
<time>2011-05-15T08:12:15.000Z</time>
</trkpt>
<trkpt lat="43.2101882" lon="-2.9892914">
<ele>600.961182</ele>
<time>2011-05-15T08:12:23.000Z</time>
</trkpt>
<trkpt lat="43.2101840" lon="-2.9893778">
<ele>600.961182</ele>
<time>2011-05-15T08:12:27.000Z</time>
</trkpt>
<trkpt lat="43.2101663" lon="-2.9894676">
<ele>599.038574</ele>
<time>2011-05-15T08:12:32.000Z</time>
</trkpt>
<trkpt lat="43.2101457" lon="-2.9896005">
<ele>597.115967</ele>
<time>2011-05-15T08:12:40.000Z</time>
</trkpt>
<trkpt lat="43.2101353" lon="-2.9896603">
<ele>596.635498</ele>
<time>2011-05-15T08:12:43.000Z</time>
</trkpt>
<trkpt lat="43.2100855" lon="-2.9899056">
<ele>593.751465</ele>
<time>2011-05-15T08:12:55.000Z</time>
</trkpt>
<trkpt lat="43.2100808" lon="-2.9899235">
<ele>593.270752</ele>
<time>2011-05-15T08:12:56.000Z</time>
</trkpt>
<trkpt lat="43.2100909" lon="-2.9899900">
<ele>591.348145</ele>
<time>2011-05-15T08:13:01.000Z</time>
</trkpt>
<trkpt lat="43.2101804" lon="-2.9899719">
<ele>588.464355</ele>
<time>2011-05-15T08:13:09.000Z</time>
</trkpt>
<trkpt lat="43.2102202" lon="-2.9899543">
<ele>587.983398</ele>
<time>2011-05-15T08:13:13.000Z</time>
</trkpt>
<trkpt lat="43.2103048" lon="-2.9899415">
<ele>586.060791</ele>
<time>2011-05-15T08:13:19.000Z</time>
</trkpt>
<trkpt lat="43.2103446" lon="-2.9898985">
<ele>585.099609</ele>
<time>2011-05-15T08:13:22.000Z</time>
</trkpt>
<trkpt lat="43.2104224" lon="-2.9898767">
<ele>583.176758</ele>
<time>2011-05-15T08:13:28.000Z</time>
</trkpt>
<trkpt lat="43.2104818" lon="-2.9898921">
<ele>581.254395</ele>
<time>2011-05-15T08:13:33.000Z</time>
</trkpt>
<trkpt lat="43.2105449" lon="-2.9899019">
<ele>580.292969</ele>
<time>2011-05-15T08:13:38.000Z</time>
</trkpt>
<trkpt lat="43.2106095" lon="-2.9899118">
<ele>577.409180</ele>
<time>2011-05-15T08:13:45.000Z</time>
</trkpt>
<trkpt lat="43.2106596" lon="-2.9898927">
<ele>575.486328</ele>
<time>2011-05-15T08:13:50.000Z</time>
</trkpt>
<trkpt lat="43.2107050" lon="-2.9898967">
<ele>574.044434</ele>
<time>2011-05-15T08:13:55.000Z</time>
</trkpt>
<trkpt lat="43.2107333" lon="-2.9898985">
<ele>573.563965</ele>
<time>2011-05-15T08:13:57.000Z</time>
</trkpt>
<trkpt lat="43.2108435" lon="-2.9899110">
<ele>570.679688</ele>
<time>2011-05-15T08:14:04.000Z</time>
</trkpt>
<trkpt lat="43.2109241" lon="-2.9899447">
<ele>569.237793</ele>
<time>2011-05-15T08:14:10.000Z</time>
</trkpt>
<trkpt lat="43.2109865" lon="-2.9900430">
<ele>566.353760</ele>
<time>2011-05-15T08:14:19.000Z</time>
</trkpt>
<trkpt lat="43.2109978" lon="-2.9900523">
<ele>567.315186</ele>
<time>2011-05-15T08:14:20.000Z</time>
</trkpt>
<trkpt lat="43.2110350" lon="-2.9900871">
<ele>565.392578</ele>
<time>2011-05-15T08:14:23.000Z</time>
</trkpt>
<trkpt lat="43.2110766" lon="-2.9901254">
<ele>564.431152</ele>
<time>2011-05-15T08:14:27.000Z</time>
</trkpt>
<trkpt lat="43.2111054" lon="-2.9901585">
<ele>562.989258</ele>
<time>2011-05-15T08:14:31.000Z</time>
</trkpt>
<trkpt lat="43.2112891" lon="-2.9903290">
<ele>559.624756</ele>
<time>2011-05-15T08:14:44.000Z</time>
</trkpt>
<trkpt lat="43.2113574" lon="-2.9903681">
<ele>559.144043</ele>
<time>2011-05-15T08:14:48.000Z</time>
</trkpt>
<trkpt lat="43.2114888" lon="-2.9904691">
<ele>557.702148</ele>
<time>2011-05-15T08:14:57.000Z</time>
</trkpt>
<trkpt lat="43.2118175" lon="-2.9906257">
<ele>554.817871</ele>
<time>2011-05-15T08:15:20.000Z</time>
</trkpt>
<trkpt lat="43.2119333" lon="-2.9906546">
<ele>556.740723</ele>
<time>2011-05-15T08:15:29.000Z</time>
</trkpt>
<trkpt lat="43.2120354" lon="-2.9906688">
<ele>557.702148</ele>
<time>2011-05-15T08:15:37.000Z</time>
</trkpt>
<trkpt lat="43.2121950" lon="-2.9906281">
<ele>560.105225</ele>
<time>2011-05-15T08:15:54.000Z</time>
</trkpt>
<trkpt lat="43.2123203" lon="-2.9905854">
<ele>562.989258</ele>
<time>2011-05-15T08:16:07.000Z</time>
</trkpt>
<trkpt lat="43.2124995" lon="-2.9905341">
<ele>565.392578</ele>
<time>2011-05-15T08:16:20.000Z</time>
</trkpt>
<trkpt lat="43.2126368" lon="-2.9905111">
<ele>568.276367</ele>
<time>2011-05-15T08:16:32.000Z</time>
</trkpt>
<trkpt lat="43.2128200" lon="-2.9904698">
<ele>571.160400</ele>
<time>2011-05-15T08:16:48.000Z</time>
</trkpt>
<trkpt lat="43.2130419" lon="-2.9903785">
<ele>573.563965</ele>
<time>2011-05-15T08:17:05.000Z</time>
</trkpt>
<trkpt lat="43.2130536" lon="-2.9903771">
<ele>574.044434</ele>
<time>2011-05-15T08:17:06.000Z</time>
</trkpt>
<trkpt lat="43.2132130" lon="-2.9903988">
<ele>577.409180</ele>
<time>2011-05-15T08:17:23.000Z</time>
</trkpt>
<trkpt lat="43.2134335" lon="-2.9904544">
<ele>580.292969</ele>
<time>2011-05-15T08:17:41.000Z</time>
</trkpt>
<trkpt lat="43.2135965" lon="-2.9906069">
<ele>581.734863</ele>
<time>2011-05-15T08:17:57.000Z</time>
</trkpt>
<trkpt lat="43.2136305" lon="-2.9906491">
<ele>581.734863</ele>
<time>2011-05-15T08:18:01.000Z</time>
</trkpt>
<trkpt lat="43.2136424" lon="-2.9906728">
<ele>582.696289</ele>
<time>2011-05-15T08:18:03.000Z</time>
</trkpt>
<trkpt lat="43.2136611" lon="-2.9906895">
<ele>582.696289</ele>
<time>2011-05-15T08:18:05.000Z</time>
</trkpt>
<trkpt lat="43.2137846" lon="-2.9907970">
<ele>585.580078</ele>
<time>2011-05-15T08:18:17.000Z</time>
</trkpt>
<trkpt lat="43.2139785" lon="-2.9909760">
<ele>587.021973</ele>
<time>2011-05-15T08:18:33.000Z</time>
</trkpt>
<trkpt lat="43.2142252" lon="-2.9911205">
<ele>588.945068</ele>
<time>2011-05-15T08:18:52.000Z</time>
</trkpt>
<trkpt lat="43.2144716" lon="-2.9912743">
<ele>589.425537</ele>
<time>2011-05-15T08:19:11.000Z</time>
</trkpt>
<trkpt lat="43.2147356" lon="-2.9913853">
<ele>590.867432</ele>
<time>2011-05-15T08:19:31.000Z</time>
</trkpt>
<trkpt lat="43.2149327" lon="-2.9914655">
<ele>591.348145</ele>
<time>2011-05-15T08:19:46.000Z</time>
</trkpt>
<trkpt lat="43.2149373" lon="-2.9915235">
<ele>594.712646</ele>
<time>2011-05-15T08:19:53.000Z</time>
</trkpt>
<trkpt lat="43.2149388" lon="-2.9916051">
<ele>597.596680</ele>
<time>2011-05-15T08:20:03.000Z</time>
</trkpt>
<trkpt lat="43.2149249" lon="-2.9916629">
<ele>600.961182</ele>
<time>2011-05-15T08:20:11.000Z</time>
</trkpt>
<trkpt lat="43.2149218" lon="-2.9916697">
<ele>600.961182</ele>
<time>2011-05-15T08:20:12.000Z</time>
</trkpt>
<trkpt lat="43.2149145" lon="-2.9917106">
<ele>602.883789</ele>
<time>2011-05-15T08:20:18.000Z</time>
</trkpt>
<trkpt lat="43.2149389" lon="-2.9917751">
<ele>604.806641</ele>
<time>2011-05-15T08:20:26.000Z</time>
</trkpt>
<trkpt lat="43.2149715" lon="-2.9918046">
<ele>605.768066</ele>
<time>2011-05-15T08:20:30.000Z</time>
</trkpt>
<trkpt lat="43.2150850" lon="-2.9918242">
<ele>608.651855</ele>
<time>2011-05-15T08:20:47.000Z</time>
</trkpt>
<trkpt lat="43.2151599" lon="-2.9918504">
<ele>612.016602</ele>
<time>2011-05-15T08:20:58.000Z</time>
</trkpt>
<trkpt lat="43.2151602" lon="-2.9918704">
<ele>613.458496</ele>
<time>2011-05-15T08:21:03.000Z</time>
</trkpt>
<trkpt lat="43.2151260" lon="-2.9919167">
<ele>615.381104</ele>
<time>2011-05-15T08:21:09.000Z</time>
</trkpt>
<trkpt lat="43.2150735" lon="-2.9920026">
<ele>618.264893</ele>
<time>2011-05-15T08:21:20.000Z</time>
</trkpt>
<trkpt lat="43.2150113" lon="-2.9920651">
<ele>621.149170</ele>
<time>2011-05-15T08:21:30.000Z</time>
</trkpt>
<trkpt lat="43.2149088" lon="-2.9920913">
<ele>622.591064</ele>
<time>2011-05-15T08:21:40.000Z</time>
</trkpt>
<trkpt lat="43.2148016" lon="-2.9920889">
<ele>624.032959</ele>
<time>2011-05-15T08:21:51.000Z</time>
</trkpt>
<trkpt lat="43.2147405" lon="-2.9921207">
<ele>627.397705</ele>
<time>2011-05-15T08:22:01.000Z</time>
</trkpt>
<trkpt lat="43.2146921" lon="-2.9921411">
<ele>629.800842</ele>
<time>2011-05-15T08:22:09.000Z</time>
</trkpt>
<trkpt lat="43.2146520" lon="-2.9921648">
<ele>632.204102</ele>
<time>2011-05-15T08:22:16.000Z</time>
</trkpt>
<trkpt lat="43.2145887" lon="-2.9921988">
<ele>635.568604</ele>
<time>2011-05-15T08:22:27.000Z</time>
</trkpt>
<trkpt lat="43.2145329" lon="-2.9922197">
<ele>637.972168</ele>
<time>2011-05-15T08:22:36.000Z</time>
</trkpt>
<trkpt lat="43.2144758" lon="-2.9922439">
<ele>641.336731</ele>
<time>2011-05-15T08:22:47.000Z</time>
</trkpt>
<trkpt lat="43.2144367" lon="-2.9922951">
<ele>644.701172</ele>
<time>2011-05-15T08:22:58.000Z</time>
</trkpt>
<trkpt lat="43.2143986" lon="-2.9923522">
<ele>648.065918</ele>
<time>2011-05-15T08:23:08.000Z</time>
</trkpt>
<trkpt lat="43.2143944" lon="-2.9923568">
<ele>648.065918</ele>
<time>2011-05-15T08:23:09.000Z</time>
</trkpt>
<trkpt lat="43.2143678" lon="-2.9923844">
<ele>649.988525</ele>
<time>2011-05-15T08:23:15.000Z</time>
</trkpt>
<trkpt lat="43.2143116" lon="-2.9924272">
<ele>652.872498</ele>
<time>2011-05-15T08:23:26.000Z</time>
</trkpt>
<trkpt lat="43.2143031" lon="-2.9924389">
<ele>653.833923</ele>
<time>2011-05-15T08:23:28.000Z</time>
</trkpt>
<trkpt lat="43.2142338" lon="-2.9924930">
<ele>657.198486</ele>
<time>2011-05-15T08:23:41.000Z</time>
</trkpt>
<trkpt lat="43.2141810" lon="-2.9925269">
<ele>660.562988</ele>
<time>2011-05-15T08:23:51.000Z</time>
</trkpt>
<trkpt lat="43.2141760" lon="-2.9925294">
<ele>660.562988</ele>
<time>2011-05-15T08:23:52.000Z</time>
</trkpt>
<trkpt lat="43.2141257" lon="-2.9925865">
<ele>663.447083</ele>
<time>2011-05-15T08:24:04.000Z</time>
</trkpt>
<trkpt lat="43.2140723" lon="-2.9926235">
<ele>665.850342</ele>
<time>2011-05-15T08:24:12.000Z</time>
</trkpt>
<trkpt lat="43.2140011" lon="-2.9926175">
<ele>669.215088</ele>
<time>2011-05-15T08:24:24.000Z</time>
</trkpt>
<trkpt lat="43.2139795" lon="-2.9926464">
<ele>670.176270</ele>
<time>2011-05-15T08:24:29.000Z</time>
</trkpt>
<trkpt lat="43.2139686" lon="-2.9926641">
<ele>670.656982</ele>
<time>2011-05-15T08:24:41.000Z</time>
</trkpt>
<trkpt lat="43.2139634" lon="-2.9926983">
<ele>670.656982</ele>
<time>2011-05-15T08:24:54.000Z</time>
</trkpt>
<trkpt lat="43.2139733" lon="-2.9926824">
<ele>669.695801</ele>
<time>2011-05-15T08:25:17.000Z</time>
</trkpt>
<trkpt lat="43.2139883" lon="-2.9926869">
<ele>669.695801</ele>
<time>2011-05-15T08:27:09.000Z</time>
</trkpt>
<trkpt lat="43.2139874" lon="-2.9926838">
<ele>670.656982</ele>
<time>2011-05-15T08:27:33.000Z</time>
</trkpt>
<trkpt lat="43.2139981" lon="-2.9926937">
<ele>669.695801</ele>
<time>2011-05-15T08:27:54.000Z</time>
</trkpt>
<trkpt lat="43.2140458" lon="-2.9927444">
<ele>667.292236</ele>
<time>2011-05-15T08:28:24.000Z</time>
</trkpt>
<trkpt lat="43.2141602" lon="-2.9927717">
<ele>663.927490</ele>
<time>2011-05-15T08:28:40.000Z</time>
</trkpt>
<trkpt lat="43.2141870" lon="-2.9927826">
<ele>662.485657</ele>
<time>2011-05-15T08:28:43.000Z</time>
</trkpt>
<trkpt lat="43.2142922" lon="-2.9928233">
<ele>659.121094</ele>
<time>2011-05-15T08:28:56.000Z</time>
</trkpt>
<trkpt lat="43.2143015" lon="-2.9928242">
<ele>659.121094</ele>
<time>2011-05-15T08:28:57.000Z</time>
</trkpt>
<trkpt lat="43.2143321" lon="-2.9928220">
<ele>657.198486</ele>
<time>2011-05-15T08:29:00.000Z</time>
</trkpt>
<trkpt lat="43.2143904" lon="-2.9928141">
<ele>655.275879</ele>
<time>2011-05-15T08:29:06.000Z</time>
</trkpt>
<trkpt lat="43.2144471" lon="-2.9928138">
<ele>653.833923</ele>
<time>2011-05-15T08:29:12.000Z</time>
</trkpt>
<trkpt lat="43.2144649" lon="-2.9928107">
<ele>652.872498</ele>
<time>2011-05-15T08:29:14.000Z</time>
</trkpt>
<trkpt lat="43.2145388" lon="-2.9927754">
<ele>649.507813</ele>
<time>2011-05-15T08:29:25.000Z</time>
</trkpt>
<trkpt lat="43.2145530" lon="-2.9927605">
<ele>649.507813</ele>
<time>2011-05-15T08:29:42.000Z</time>
</trkpt>
<trkpt lat="43.2146037" lon="-2.9927346">
<ele>647.104492</ele>
<time>2011-05-15T08:29:49.000Z</time>
</trkpt>
<trkpt lat="43.2146814" lon="-2.9926933">
<ele>643.739990</ele>
<time>2011-05-15T08:29:58.000Z</time>
</trkpt>
<trkpt lat="43.2147705" lon="-2.9926686">
<ele>640.375488</ele>
<time>2011-05-15T08:30:07.000Z</time>
</trkpt>
<trkpt lat="43.2148560" lon="-2.9926386">
<ele>636.530273</ele>
<time>2011-05-15T08:30:15.000Z</time>
</trkpt>
<trkpt lat="43.2149332" lon="-2.9926066">
<ele>633.645996</ele>
<time>2011-05-15T08:30:22.000Z</time>
</trkpt>
<trkpt lat="43.2149444" lon="-2.9926035">
<ele>633.645996</ele>
<time>2011-05-15T08:30:23.000Z</time>
</trkpt>
<trkpt lat="43.2150218" lon="-2.9925852">
<ele>630.762268</ele>
<time>2011-05-15T08:30:30.000Z</time>
</trkpt>
<trkpt lat="43.2151280" lon="-2.9925419">
<ele>627.397705</ele>
<time>2011-05-15T08:30:40.000Z</time>
</trkpt>
<trkpt lat="43.2152351" lon="-2.9924985">
<ele>623.552490</ele>
<time>2011-05-15T08:30:49.000Z</time>
</trkpt>
<trkpt lat="43.2152485" lon="-2.9924952">
<ele>623.552490</ele>
<time>2011-05-15T08:30:50.000Z</time>
</trkpt>
<trkpt lat="43.2153448" lon="-2.9924523">
<ele>621.149170</ele>
<time>2011-05-15T08:30:57.000Z</time>
</trkpt>
<trkpt lat="43.2155377" lon="-2.9923720">
<ele>618.745605</ele>
<time>2011-05-15T08:31:11.000Z</time>
</trkpt>
<trkpt lat="43.2157613" lon="-2.9922668">
<ele>617.303711</ele>
<time>2011-05-15T08:31:28.000Z</time>
</trkpt>
<trkpt lat="43.2160099" lon="-2.9921280">
<ele>614.419678</ele>
<time>2011-05-15T08:31:46.000Z</time>
</trkpt>
<trkpt lat="43.2160240" lon="-2.9921214">
<ele>613.938965</ele>
<time>2011-05-15T08:31:47.000Z</time>
</trkpt>
<trkpt lat="43.2162633" lon="-2.9920156">
<ele>612.497070</ele>
<time>2011-05-15T08:32:03.000Z</time>
</trkpt>
<trkpt lat="43.2163190" lon="-2.9919923">
<ele>611.055176</ele>
<time>2011-05-15T08:32:07.000Z</time>
</trkpt>
<trkpt lat="43.2163757" lon="-2.9919943">
<ele>610.574463</ele>
<time>2011-05-15T08:32:11.000Z</time>
</trkpt>
<trkpt lat="43.2166110" lon="-2.9919877">
<ele>610.574463</ele>
<time>2011-05-15T08:32:29.000Z</time>
</trkpt>
<trkpt lat="43.2167897" lon="-2.9919524">
<ele>609.132568</ele>
<time>2011-05-15T08:32:44.000Z</time>
</trkpt>
<trkpt lat="43.2168985" lon="-2.9919135">
<ele>608.651855</ele>
<time>2011-05-15T08:32:52.000Z</time>
</trkpt>
<trkpt lat="43.2169482" lon="-2.9919115">
<ele>607.690674</ele>
<time>2011-05-15T08:32:56.000Z</time>
</trkpt>
<trkpt lat="43.2170352" lon="-2.9919285">
<ele>605.287354</ele>
<time>2011-05-15T08:33:03.000Z</time>
</trkpt>
<trkpt lat="43.2170638" lon="-2.9919420">
<ele>605.287354</ele>
<time>2011-05-15T08:33:06.000Z</time>
</trkpt>
<trkpt lat="43.2171621" lon="-2.9919514">
<ele>601.922607</ele>
<time>2011-05-15T08:33:15.000Z</time>
</trkpt>
<trkpt lat="43.2172099" lon="-2.9919425">
<ele>600.000000</ele>
<time>2011-05-15T08:33:19.000Z</time>
</trkpt>
<trkpt lat="43.2173497" lon="-2.9919320">
<ele>597.115967</ele>
<time>2011-05-15T08:33:29.000Z</time>
</trkpt>
<trkpt lat="43.2176204" lon="-2.9919224">
<ele>594.712646</ele>
<time>2011-05-15T08:33:48.000Z</time>
</trkpt>
<trkpt lat="43.2178255" lon="-2.9918705">
<ele>592.790283</ele>
<time>2011-05-15T08:34:03.000Z</time>
</trkpt>
<trkpt lat="43.2179848" lon="-2.9918792">
<ele>589.425537</ele>
<time>2011-05-15T08:34:15.000Z</time>
</trkpt>
<trkpt lat="43.2180429" lon="-2.9918892">
<ele>588.464355</ele>
<time>2011-05-15T08:34:19.000Z</time>
</trkpt>
<trkpt lat="43.2181281" lon="-2.9919202">
<ele>587.021973</ele>
<time>2011-05-15T08:34:25.000Z</time>
</trkpt>
<trkpt lat="43.2182452" lon="-2.9921607">
<ele>585.099609</ele>
<time>2011-05-15T08:34:41.000Z</time>
</trkpt>
<trkpt lat="43.2182935" lon="-2.9923487">
<ele>581.734863</ele>
<time>2011-05-15T08:34:51.000Z</time>
</trkpt>
<trkpt lat="43.2183083" lon="-2.9923979">
<ele>580.292969</ele>
<time>2011-05-15T08:34:54.000Z</time>
</trkpt>
<trkpt lat="43.2183966" lon="-2.9925783">
<ele>576.928467</ele>
<time>2011-05-15T08:35:06.000Z</time>
</trkpt>
<trkpt lat="43.2185547" lon="-2.9926408">
<ele>574.044434</ele>
<time>2011-05-15T08:35:18.000Z</time>
</trkpt>
<trkpt lat="43.2187064" lon="-2.9925987">
<ele>571.640869</ele>
<time>2011-05-15T08:35:29.000Z</time>
</trkpt>
<trkpt lat="43.2187804" lon="-2.9925289">
<ele>570.198975</ele>
<time>2011-05-15T08:35:36.000Z</time>
</trkpt>
<trkpt lat="43.2189325" lon="-2.9922206">
<ele>573.563965</ele>
<time>2011-05-15T08:35:56.000Z</time>
</trkpt>
<trkpt lat="43.2190224" lon="-2.9919824">
<ele>576.447754</ele>
<time>2011-05-15T08:36:12.000Z</time>
</trkpt>
<trkpt lat="43.2191252" lon="-2.9918136">
<ele>575.005859</ele>
<time>2011-05-15T08:36:25.000Z</time>
</trkpt>
<trkpt lat="43.2191596" lon="-2.9917764">
<ele>573.563965</ele>
<time>2011-05-15T08:36:29.000Z</time>
</trkpt>
<trkpt lat="43.2192599" lon="-2.9916943">
<ele>572.602539</ele>
<time>2011-05-15T08:36:37.000Z</time>
</trkpt>
<trkpt lat="43.2193378" lon="-2.9916512">
<ele>570.679688</ele>
<time>2011-05-15T08:36:44.000Z</time>
</trkpt>
<trkpt lat="43.2194030" lon="-2.9916163">
<ele>568.757080</ele>
<time>2011-05-15T08:36:50.000Z</time>
</trkpt>
<trkpt lat="43.2195067" lon="-2.9915481">
<ele>565.392578</ele>
<time>2011-05-15T08:37:00.000Z</time>
</trkpt>
<trkpt lat="43.2196097" lon="-2.9914862">
<ele>562.508545</ele>
<time>2011-05-15T08:37:08.000Z</time>
</trkpt>
<trkpt lat="43.2196387" lon="-2.9914712">
<ele>562.028076</ele>
<time>2011-05-15T08:37:10.000Z</time>
</trkpt>
<trkpt lat="43.2197186" lon="-2.9914245">
<ele>559.144043</ele>
<time>2011-05-15T08:37:16.000Z</time>
</trkpt>
<trkpt lat="43.2198205" lon="-2.9913805">
<ele>557.221436</ele>
<time>2011-05-15T08:37:23.000Z</time>
</trkpt>
<trkpt lat="43.2200852" lon="-2.9912873">
<ele>553.856689</ele>
<time>2011-05-15T08:37:42.000Z</time>
</trkpt>
<trkpt lat="43.2202490" lon="-2.9911568">
<ele>553.375977</ele>
<time>2011-05-15T08:37:56.000Z</time>
</trkpt>
<trkpt lat="43.2203773" lon="-2.9908681">
<ele>553.375977</ele>
<time>2011-05-15T08:38:14.000Z</time>
</trkpt>
<trkpt lat="43.2205267" lon="-2.9906418">
<ele>555.298584</ele>
<time>2011-05-15T08:38:30.000Z</time>
</trkpt>
<trkpt lat="43.2207630" lon="-2.9904698">
<ele>555.779297</ele>
<time>2011-05-15T08:38:49.000Z</time>
</trkpt>
<trkpt lat="43.2210352" lon="-2.9905175">
<ele>556.260010</ele>
<time>2011-05-15T08:39:08.000Z</time>
</trkpt>
<trkpt lat="43.2213636" lon="-2.9905714">
<ele>557.221436</ele>
<time>2011-05-15T08:39:30.000Z</time>
</trkpt>
<trkpt lat="43.2213907" lon="-2.9905767">
<ele>557.702148</ele>
<time>2011-05-15T08:39:32.000Z</time>
</trkpt>
<trkpt lat="43.2215407" lon="-2.9906417">
<ele>560.585938</ele>
<time>2011-05-15T08:39:44.000Z</time>
</trkpt>
<trkpt lat="43.2218414" lon="-2.9908920">
<ele>562.028076</ele>
<time>2011-05-15T08:40:10.000Z</time>
</trkpt>
<trkpt lat="43.2220927" lon="-2.9911370">
<ele>559.144043</ele>
<time>2011-05-15T08:40:31.000Z</time>
</trkpt>
<trkpt lat="43.2223423" lon="-2.9913489">
<ele>558.663330</ele>
<time>2011-05-15T08:40:52.000Z</time>
</trkpt>
<trkpt lat="43.2224904" lon="-2.9914825">
<ele>557.221436</ele>
<time>2011-05-15T08:41:05.000Z</time>
</trkpt>
<trkpt lat="43.2226235" lon="-2.9917053">
<ele>555.779297</ele>
<time>2011-05-15T08:41:21.000Z</time>
</trkpt>
<trkpt lat="43.2227044" lon="-2.9918701">
<ele>552.414551</ele>
<time>2011-05-15T08:41:31.000Z</time>
</trkpt>
<trkpt lat="43.2228381" lon="-2.9920812">
<ele>550.492188</ele>
<time>2011-05-15T08:41:45.000Z</time>
</trkpt>
<trkpt lat="43.2230091" lon="-2.9923683">
<ele>547.608154</ele>
<time>2011-05-15T08:42:04.000Z</time>
</trkpt>
<trkpt lat="43.2231665" lon="-2.9926401">
<ele>544.724243</ele>
<time>2011-05-15T08:42:21.000Z</time>
</trkpt>
<trkpt lat="43.2233663" lon="-2.9929901">
<ele>542.801514</ele>
<time>2011-05-15T08:42:43.000Z</time>
</trkpt>
<trkpt lat="43.2235057" lon="-2.9932183">
<ele>540.878906</ele>
<time>2011-05-15T08:42:59.000Z</time>
</trkpt>
<trkpt lat="43.2236413" lon="-2.9933868">
<ele>537.514282</ele>
<time>2011-05-15T08:43:13.000Z</time>
</trkpt>
<trkpt lat="43.2237869" lon="-2.9935477">
<ele>534.149658</ele>
<time>2011-05-15T08:43:29.000Z</time>
</trkpt>
<trkpt lat="43.2239054" lon="-2.9936666">
<ele>530.785156</ele>
<time>2011-05-15T08:43:42.000Z</time>
</trkpt>
<trkpt lat="43.2240041" lon="-2.9938145">
<ele>527.901001</ele>
<time>2011-05-15T08:43:55.000Z</time>
</trkpt>
<trkpt lat="43.2240724" lon="-2.9939234">
<ele>524.536499</ele>
<time>2011-05-15T08:44:03.000Z</time>
</trkpt>
<trkpt lat="43.2241791" lon="-2.9940465">
<ele>521.171997</ele>
<time>2011-05-15T08:44:13.000Z</time>
</trkpt>
<trkpt lat="43.2242492" lon="-2.9941471">
<ele>519.249268</ele>
<time>2011-05-15T08:44:21.000Z</time>
</trkpt>
<trkpt lat="43.2242972" lon="-2.9941999">
<ele>517.807251</ele>
<time>2011-05-15T08:44:25.000Z</time>
</trkpt>
<trkpt lat="43.2244164" lon="-2.9942834">
<ele>514.442627</ele>
<time>2011-05-15T08:44:35.000Z</time>
</trkpt>
<trkpt lat="43.2246209" lon="-2.9943399">
<ele>511.078003</ele>
<time>2011-05-15T08:44:49.000Z</time>
</trkpt>
<trkpt lat="43.2247914" lon="-2.9945144">
<ele>507.713501</ele>
<time>2011-05-15T08:45:03.000Z</time>
</trkpt>
<trkpt lat="43.2249423" lon="-2.9946938">
<ele>504.348846</ele>
<time>2011-05-15T08:45:14.000Z</time>
</trkpt>
<trkpt lat="43.2250643" lon="-2.9948881">
<ele>500.984131</ele>
<time>2011-05-15T08:45:25.000Z</time>
</trkpt>
<trkpt lat="43.2251778" lon="-2.9950670">
<ele>499.061523</ele>
<time>2011-05-15T08:45:39.000Z</time>
</trkpt>
<trkpt lat="43.2252041" lon="-2.9950869">
<ele>498.580902</ele>
<time>2011-05-15T08:45:46.000Z</time>
</trkpt>
<trkpt lat="43.2251828" lon="-2.9949765">
<ele>499.542236</ele>
<time>2011-05-15T08:45:55.000Z</time>
</trkpt>
<trkpt lat="43.2250994" lon="-2.9948223">
<ele>501.945557</ele>
<time>2011-05-15T08:46:09.000Z</time>
</trkpt>
<trkpt lat="43.2250195" lon="-2.9946838">
<ele>504.348846</ele>
<time>2011-05-15T08:46:22.000Z</time>
</trkpt>
<trkpt lat="43.2249121" lon="-2.9945285">
<ele>507.713501</ele>
<time>2011-05-15T08:46:37.000Z</time>
</trkpt>
<trkpt lat="43.2248840" lon="-2.9944811">
<ele>508.194092</ele>
<time>2011-05-15T08:46:41.000Z</time>
</trkpt>
<trkpt lat="43.2247656" lon="-2.9943564">
<ele>510.116699</ele>
<time>2011-05-15T08:46:54.000Z</time>
</trkpt>
<trkpt lat="43.2247387" lon="-2.9942865">
<ele>510.116699</ele>
<time>2011-05-15T08:47:08.000Z</time>
</trkpt>
<trkpt lat="43.2247510" lon="-2.9942012">
<ele>507.713501</ele>
<time>2011-05-15T08:47:20.000Z</time>
</trkpt>
<trkpt lat="43.2247629" lon="-2.9940810">
<ele>504.348846</ele>
<time>2011-05-15T08:47:33.000Z</time>
</trkpt>
<trkpt lat="43.2247814" lon="-2.9940266">
<ele>500.984131</ele>
<time>2011-05-15T08:47:43.000Z</time>
</trkpt>
<trkpt lat="43.2247806" lon="-2.9939251">
<ele>498.100342</ele>
<time>2011-05-15T08:47:54.000Z</time>
</trkpt>
<trkpt lat="43.2248240" lon="-2.9938338">
<ele>494.735596</ele>
<time>2011-05-15T08:48:08.000Z</time>
</trkpt>
<trkpt lat="43.2247806" lon="-2.9937214">
<ele>490.890381</ele>
<time>2011-05-15T08:48:21.000Z</time>
</trkpt>
<trkpt lat="43.2247790" lon="-2.9937110">
<ele>490.890381</ele>
<time>2011-05-15T08:48:22.000Z</time>
</trkpt>
<trkpt lat="43.2248052" lon="-2.9935893">
<ele>490.409821</ele>
<time>2011-05-15T08:48:34.000Z</time>
</trkpt>
<trkpt lat="43.2248177" lon="-2.9935432">
<ele>488.967773</ele>
<time>2011-05-15T08:48:40.000Z</time>
</trkpt>
<trkpt lat="43.2248179" lon="-2.9933829">
<ele>486.083740</ele>
<time>2011-05-15T08:48:52.000Z</time>
</trkpt>
<trkpt lat="43.2248088" lon="-2.9932213">
<ele>484.161133</ele>
<time>2011-05-15T08:49:04.000Z</time>
</trkpt>
<trkpt lat="43.2248267" lon="-2.9930758">
<ele>481.757782</ele>
<time>2011-05-15T08:49:14.000Z</time>
</trkpt>
<trkpt lat="43.2248427" lon="-2.9930602">
<ele>480.796631</ele>
<time>2011-05-15T08:49:16.000Z</time>
</trkpt>
<trkpt lat="43.2248770" lon="-2.9929065">
<ele>476.951263</ele>
<time>2011-05-15T08:49:26.000Z</time>
</trkpt>
<trkpt lat="43.2248879" lon="-2.9928738">
<ele>476.951263</ele>
<time>2011-05-15T08:49:28.000Z</time>
</trkpt>
<trkpt lat="43.2249044" lon="-2.9927715">
<ele>475.028687</ele>
<time>2011-05-15T08:49:36.000Z</time>
</trkpt>
<trkpt lat="43.2249513" lon="-2.9926844">
<ele>472.144653</ele>
<time>2011-05-15T08:49:45.000Z</time>
</trkpt>
<trkpt lat="43.2249751" lon="-2.9926169">
<ele>470.221954</ele>
<time>2011-05-15T08:49:52.000Z</time>
</trkpt>
<trkpt lat="43.2249997" lon="-2.9925042">
<ele>466.857422</ele>
<time>2011-05-15T08:50:02.000Z</time>
</trkpt>
<trkpt lat="43.2250095" lon="-2.9924793">
<ele>466.376709</ele>
<time>2011-05-15T08:50:04.000Z</time>
</trkpt>
<trkpt lat="43.2250914" lon="-2.9923558">
<ele>463.012085</ele>
<time>2011-05-15T08:50:16.000Z</time>
</trkpt>
<trkpt lat="43.2251046" lon="-2.9923321">
<ele>462.050781</ele>
<time>2011-05-15T08:50:18.000Z</time>
</trkpt>
<trkpt lat="43.2251788" lon="-2.9922202">
<ele>460.128143</ele>
<time>2011-05-15T08:50:32.000Z</time>
</trkpt>
<trkpt lat="43.2251965" lon="-2.9921911">
<ele>459.166870</ele>
<time>2011-05-15T08:50:35.000Z</time>
</trkpt>
<trkpt lat="43.2252291" lon="-2.9921062">
<ele>455.802246</ele>
<time>2011-05-15T08:50:44.000Z</time>
</trkpt>
<trkpt lat="43.2252892" lon="-2.9920533">
<ele>452.437622</ele>
<time>2011-05-15T08:50:52.000Z</time>
</trkpt>
<trkpt lat="43.2253653" lon="-2.9919144">
<ele>450.034424</ele>
<time>2011-05-15T08:50:59.000Z</time>
</trkpt>
<trkpt lat="43.2253789" lon="-2.9918591">
<ele>448.592407</ele>
<time>2011-05-15T08:51:01.000Z</time>
</trkpt>
<trkpt lat="43.2254484" lon="-2.9917950">
<ele>447.630981</ele>
<time>2011-05-15T08:51:10.000Z</time>
</trkpt>
<trkpt lat="43.2255641" lon="-2.9918550">
<ele>447.150269</ele>
<time>2011-05-15T08:51:17.000Z</time>
</trkpt>
<trkpt lat="43.2256538" lon="-2.9918854">
<ele>446.189087</ele>
<time>2011-05-15T08:51:22.000Z</time>
</trkpt>
<trkpt lat="43.2257242" lon="-2.9919140">
<ele>446.189087</ele>
<time>2011-05-15T08:51:27.000Z</time>
</trkpt>
<trkpt lat="43.2257797" lon="-2.9919317">
<ele>444.747070</ele>
<time>2011-05-15T08:51:31.000Z</time>
</trkpt>
<trkpt lat="43.2258772" lon="-2.9919933">
<ele>442.824463</ele>
<time>2011-05-15T08:51:38.000Z</time>
</trkpt>
<trkpt lat="43.2259361" lon="-2.9919227">
<ele>439.459717</ele>
<time>2011-05-15T08:51:45.000Z</time>
</trkpt>
<trkpt lat="43.2259405" lon="-2.9919025">
<ele>439.459717</ele>
<time>2011-05-15T08:51:46.000Z</time>
</trkpt>
<trkpt lat="43.2259514" lon="-2.9918126">
<ele>437.056519</ele>
<time>2011-05-15T08:51:51.000Z</time>
</trkpt>
<trkpt lat="43.2259529" lon="-2.9917455">
<ele>435.614502</ele>
<time>2011-05-15T08:51:54.000Z</time>
</trkpt>
<trkpt lat="43.2259627" lon="-2.9916882">
<ele>435.133911</ele>
<time>2011-05-15T08:51:57.000Z</time>
</trkpt>
<trkpt lat="43.2260601" lon="-2.9916095">
<ele>430.807983</ele>
<time>2011-05-15T08:52:05.000Z</time>
</trkpt>
<trkpt lat="43.2262143" lon="-2.9915706">
<ele>427.443329</ele>
<time>2011-05-15T08:52:15.000Z</time>
</trkpt>
<trkpt lat="43.2262846" lon="-2.9915805">
<ele>426.482056</ele>
<time>2011-05-15T08:52:19.000Z</time>
</trkpt>
<trkpt lat="43.2264242" lon="-2.9916498">
<ele>424.559448</ele>
<time>2011-05-15T08:52:26.000Z</time>
</trkpt>
<trkpt lat="43.2264837" lon="-2.9917026">
<ele>423.598022</ele>
<time>2011-05-15T08:52:30.000Z</time>
</trkpt>
<trkpt lat="43.2265614" lon="-2.9917610">
<ele>421.675446</ele>
<time>2011-05-15T08:52:35.000Z</time>
</trkpt>
<trkpt lat="43.2265976" lon="-2.9917569">
<ele>420.714111</ele>
<time>2011-05-15T08:52:37.000Z</time>
</trkpt>
<trkpt lat="43.2266412" lon="-2.9916522">
<ele>418.791504</ele>
<time>2011-05-15T08:52:43.000Z</time>
</trkpt>
<trkpt lat="43.2266421" lon="-2.9915979">
<ele>417.349609</ele>
<time>2011-05-15T08:52:45.000Z</time>
</trkpt>
<trkpt lat="43.2266324" lon="-2.9914976">
<ele>414.946167</ele>
<time>2011-05-15T08:52:49.000Z</time>
</trkpt>
<trkpt lat="43.2266272" lon="-2.9914176">
<ele>413.984863</ele>
<time>2011-05-15T08:52:53.000Z</time>
</trkpt>
<trkpt lat="43.2266241" lon="-2.9913501">
<ele>412.542847</ele>
<time>2011-05-15T08:52:56.000Z</time>
</trkpt>
<trkpt lat="43.2266278" lon="-2.9913054">
<ele>411.100922</ele>
<time>2011-05-15T08:52:58.000Z</time>
</trkpt>
<trkpt lat="43.2266400" lon="-2.9912101">
<ele>409.659058</ele>
<time>2011-05-15T08:53:02.000Z</time>
</trkpt>
<trkpt lat="43.2266014" lon="-2.9910986">
<ele>408.697632</ele>
<time>2011-05-15T08:53:07.000Z</time>
</trkpt>
<trkpt lat="43.2265123" lon="-2.9908434">
<ele>405.333038</ele>
<time>2011-05-15T08:53:21.000Z</time>
</trkpt>
<trkpt lat="43.2264517" lon="-2.9907416">
<ele>403.410400</ele>
<time>2011-05-15T08:53:27.000Z</time>
</trkpt>
<trkpt lat="43.2263755" lon="-2.9905497">
<ele>402.449097</ele>
<time>2011-05-15T08:53:36.000Z</time>
</trkpt>
<trkpt lat="43.2263253" lon="-2.9904378">
<ele>401.487793</ele>
<time>2011-05-15T08:53:42.000Z</time>
</trkpt>
<trkpt lat="43.2263131" lon="-2.9903703">
<ele>402.929688</ele>
<time>2011-05-15T08:53:47.000Z</time>
</trkpt>
<trkpt lat="43.2263201" lon="-2.9902848">
<ele>400.526459</ele>
<time>2011-05-15T08:53:51.000Z</time>
</trkpt>
<trkpt lat="43.2264050" lon="-2.9900094">
<ele>398.123169</ele>
<time>2011-05-15T08:54:03.000Z</time>
</trkpt>
<trkpt lat="43.2265443" lon="-2.9897973">
<ele>395.719849</ele>
<time>2011-05-15T08:54:14.000Z</time>
</trkpt>
<trkpt lat="43.2266915" lon="-2.9895933">
<ele>393.797241</ele>
<time>2011-05-15T08:54:27.000Z</time>
</trkpt>
<trkpt lat="43.2268109" lon="-2.9894139">
<ele>392.355377</ele>
<time>2011-05-15T08:54:38.000Z</time>
</trkpt>
<trkpt lat="43.2268748" lon="-2.9892050">
<ele>390.432617</ele>
<time>2011-05-15T08:54:48.000Z</time>
</trkpt>
<trkpt lat="43.2269086" lon="-2.9890624">
<ele>388.510010</ele>
<time>2011-05-15T08:54:56.000Z</time>
</trkpt>
<trkpt lat="43.2270443" lon="-2.9890778">
<ele>387.067993</ele>
<time>2011-05-15T08:55:05.000Z</time>
</trkpt>
<trkpt lat="43.2271411" lon="-2.9891546">
<ele>384.664795</ele>
<time>2011-05-15T08:55:14.000Z</time>
</trkpt>
<trkpt lat="43.2271701" lon="-2.9893823">
<ele>383.703247</ele>
<time>2011-05-15T08:55:28.000Z</time>
</trkpt>
<trkpt lat="43.2270946" lon="-2.9895087">
<ele>381.780640</ele>
<time>2011-05-15T08:55:36.000Z</time>
</trkpt>
<trkpt lat="43.2270860" lon="-2.9895196">
<ele>382.742065</ele>
<time>2011-05-15T08:55:37.000Z</time>
</trkpt>
<trkpt lat="43.2270116" lon="-2.9895994">
<ele>380.819458</ele>
<time>2011-05-15T08:55:44.000Z</time>
</trkpt>
<trkpt lat="43.2270053" lon="-2.9897710">
<ele>378.416107</ele>
<time>2011-05-15T08:55:53.000Z</time>
</trkpt>
<trkpt lat="43.2270981" lon="-2.9897612">
<ele>375.051514</ele>
<time>2011-05-15T08:56:01.000Z</time>
</trkpt>
<trkpt lat="43.2272363" lon="-2.9897628">
<ele>373.609497</ele>
<time>2011-05-15T08:56:11.000Z</time>
</trkpt>
<trkpt lat="43.2273120" lon="-2.9897584">
<ele>373.609497</ele>
<time>2011-05-15T08:56:15.000Z</time>
</trkpt>
<trkpt lat="43.2273488" lon="-2.9897602">
<ele>373.128876</ele>
<time>2011-05-15T08:56:17.000Z</time>
</trkpt>
<trkpt lat="43.2274820" lon="-2.9897690">
<ele>371.686890</ele>
<time>2011-05-15T08:56:26.000Z</time>
</trkpt>
<trkpt lat="43.2276332" lon="-2.9896913">
<ele>368.322266</ele>
<time>2011-05-15T08:56:36.000Z</time>
</trkpt>
<trkpt lat="43.2277159" lon="-2.9896150">
<ele>366.399567</ele>
<time>2011-05-15T08:56:43.000Z</time>
</trkpt>
<trkpt lat="43.2277245" lon="-2.9895960">
<ele>366.880280</ele>
<time>2011-05-15T08:56:44.000Z</time>
</trkpt>
<trkpt lat="43.2277451" lon="-2.9894666">
<ele>364.476929</ele>
<time>2011-05-15T08:56:50.000Z</time>
</trkpt>
<trkpt lat="43.2277524" lon="-2.9894074">
<ele>363.515747</ele>
<time>2011-05-15T08:56:53.000Z</time>
</trkpt>
<trkpt lat="43.2277599" lon="-2.9892701">
<ele>362.554321</ele>
<time>2011-05-15T08:57:01.000Z</time>
</trkpt>
<trkpt lat="43.2277279" lon="-2.9892256">
<ele>362.073700</ele>
<time>2011-05-15T08:57:04.000Z</time>
</trkpt>
<trkpt lat="43.2277253" lon="-2.9890323">
<ele>360.151123</ele>
<time>2011-05-15T08:57:13.000Z</time>
</trkpt>
<trkpt lat="43.2277164" lon="-2.9888946">
<ele>358.708984</ele>
<time>2011-05-15T08:57:21.000Z</time>
</trkpt>
<trkpt lat="43.2277031" lon="-2.9887785">
<ele>357.267090</ele>
<time>2011-05-15T08:57:26.000Z</time>
</trkpt>
<trkpt lat="43.2276825" lon="-2.9886773">
<ele>355.344482</ele>
<time>2011-05-15T08:57:31.000Z</time>
</trkpt>
<trkpt lat="43.2276626" lon="-2.9885038">
<ele>353.421875</ele>
<time>2011-05-15T08:57:39.000Z</time>
</trkpt>
<trkpt lat="43.2276362" lon="-2.9882578">
<ele>352.460571</ele>
<time>2011-05-15T08:57:49.000Z</time>
</trkpt>
<trkpt lat="43.2275768" lon="-2.9881549">
<ele>351.499146</ele>
<time>2011-05-15T08:57:54.000Z</time>
</trkpt>
<trkpt lat="43.2276170" lon="-2.9880978">
<ele>350.057251</ele>
<time>2011-05-15T08:58:01.000Z</time>
</trkpt>
<trkpt lat="43.2277729" lon="-2.9881751">
<ele>346.692627</ele>
<time>2011-05-15T08:58:13.000Z</time>
</trkpt>
<trkpt lat="43.2279481" lon="-2.9882864">
<ele>344.289429</ele>
<time>2011-05-15T08:58:28.000Z</time>
</trkpt>
<trkpt lat="43.2280487" lon="-2.9883800">
<ele>342.366699</ele>
<time>2011-05-15T08:58:37.000Z</time>
</trkpt>
<trkpt lat="43.2281179" lon="-2.9884460">
<ele>341.885986</ele>
<time>2011-05-15T08:58:43.000Z</time>
</trkpt>
<trkpt lat="43.2281547" lon="-2.9884829">
<ele>341.885986</ele>
<time>2011-05-15T08:58:46.000Z</time>
</trkpt>
<trkpt lat="43.2283118" lon="-2.9886247">
<ele>339.963348</ele>
<time>2011-05-15T08:58:58.000Z</time>
</trkpt>
<trkpt lat="43.2284303" lon="-2.9887965">
<ele>337.079468</ele>
<time>2011-05-15T08:59:09.000Z</time>
</trkpt>
<trkpt lat="43.2285407" lon="-2.9889257">
<ele>336.598877</ele>
<time>2011-05-15T08:59:18.000Z</time>
</trkpt>
<trkpt lat="43.2285768" lon="-2.9889608">
<ele>335.637329</ele>
<time>2011-05-15T08:59:21.000Z</time>
</trkpt>
<trkpt lat="43.2286396" lon="-2.9890530">
<ele>333.714752</ele>
<time>2011-05-15T08:59:27.000Z</time>
</trkpt>
<trkpt lat="43.2288136" lon="-2.9892568">
<ele>331.311523</ele>
<time>2011-05-15T08:59:41.000Z</time>
</trkpt>
<trkpt lat="43.2288671" lon="-2.9893520">
<ele>329.869507</ele>
<time>2011-05-15T08:59:46.000Z</time>
</trkpt>
<trkpt lat="43.2289750" lon="-2.9895700">
<ele>326.985596</ele>
<time>2011-05-15T08:59:57.000Z</time>
</trkpt>
<trkpt lat="43.2289832" lon="-2.9896206">
<ele>326.504883</ele>
<time>2011-05-15T09:00:00.000Z</time>
</trkpt>
<trkpt lat="43.2288951" lon="-2.9897582">
<ele>324.582275</ele>
<time>2011-05-15T09:00:11.000Z</time>
</trkpt>
<trkpt lat="43.2288023" lon="-2.9898372">
<ele>325.062988</ele>
<time>2011-05-15T09:00:19.000Z</time>
</trkpt>
<trkpt lat="43.2286604" lon="-2.9899829">
<ele>324.582275</ele>
<time>2011-05-15T09:00:30.000Z</time>
</trkpt>
<trkpt lat="43.2285144" lon="-2.9901259">
<ele>323.620941</ele>
<time>2011-05-15T09:00:42.000Z</time>
</trkpt>
<trkpt lat="43.2285279" lon="-2.9902933">
<ele>324.101563</ele>
<time>2011-05-15T09:00:51.000Z</time>
</trkpt>
<trkpt lat="43.2286879" lon="-2.9905171">
<ele>324.582275</ele>
<time>2011-05-15T09:01:07.000Z</time>
</trkpt>
<trkpt lat="43.2287164" lon="-2.9905767">
<ele>325.062988</ele>
<time>2011-05-15T09:01:11.000Z</time>
</trkpt>
<trkpt lat="43.2287563" lon="-2.9906960">
<ele>325.543579</ele>
<time>2011-05-15T09:01:18.000Z</time>
</trkpt>
<trkpt lat="43.2288007" lon="-2.9909449">
<ele>324.582275</ele>
<time>2011-05-15T09:01:31.000Z</time>
</trkpt>
<trkpt lat="43.2287707" lon="-2.9912215">
<ele>321.698364</ele>
<time>2011-05-15T09:01:44.000Z</time>
</trkpt>
<trkpt lat="43.2288630" lon="-2.9914914">
<ele>322.659668</ele>
<time>2011-05-15T09:01:56.000Z</time>
</trkpt>
<trkpt lat="43.2289521" lon="-2.9916074">
<ele>322.178955</ele>
<time>2011-05-15T09:02:03.000Z</time>
</trkpt>
<trkpt lat="43.2290552" lon="-2.9917259">
<ele>324.101563</ele>
<time>2011-05-15T09:02:11.000Z</time>
</trkpt>
<trkpt lat="43.2292421" lon="-2.9919636">
<ele>322.178955</ele>
<time>2011-05-15T09:02:27.000Z</time>
</trkpt>
<trkpt lat="43.2293701" lon="-2.9921265">
<ele>322.178955</ele>
<time>2011-05-15T09:02:39.000Z</time>
</trkpt>
<trkpt lat="43.2294577" lon="-2.9922321">
<ele>318.814331</ele>
<time>2011-05-15T09:02:47.000Z</time>
</trkpt>
<trkpt lat="43.2296673" lon="-2.9924180">
<ele>316.411011</ele>
<time>2011-05-15T09:03:02.000Z</time>
</trkpt>
<trkpt lat="43.2298525" lon="-2.9925467">
<ele>316.891724</ele>
<time>2011-05-15T09:03:15.000Z</time>
</trkpt>
<trkpt lat="43.2299191" lon="-2.9925905">
<ele>312.565826</ele>
<time>2011-05-15T09:03:20.000Z</time>
</trkpt>
<trkpt lat="43.2299511" lon="-2.9926076">
<ele>315.930420</ele>
<time>2011-05-15T09:03:22.000Z</time>
</trkpt>
<trkpt lat="43.2301450" lon="-2.9926634">
<ele>312.565826</ele>
<time>2011-05-15T09:03:34.000Z</time>
</trkpt>
<trkpt lat="43.2304098" lon="-2.9926989">
<ele>311.604492</ele>
<time>2011-05-15T09:03:51.000Z</time>
</trkpt>
<trkpt lat="43.2305937" lon="-2.9927775">
<ele>307.759277</ele>
<time>2011-05-15T09:04:03.000Z</time>
</trkpt>
<trkpt lat="43.2306103" lon="-2.9927820">
<ele>307.759277</ele>
<time>2011-05-15T09:04:04.000Z</time>
</trkpt>
<trkpt lat="43.2308066" lon="-2.9928697">
<ele>304.394653</ele>
<time>2011-05-15T09:04:16.000Z</time>
</trkpt>
<trkpt lat="43.2309809" lon="-2.9930607">
<ele>302.952515</ele>
<time>2011-05-15T09:04:30.000Z</time>
</trkpt>
<trkpt lat="43.2310998" lon="-2.9931552">
<ele>299.588013</ele>
<time>2011-05-15T09:04:38.000Z</time>
</trkpt>
<trkpt lat="43.2312106" lon="-2.9932543">
<ele>296.223511</ele>
<time>2011-05-15T09:04:46.000Z</time>
</trkpt>
<trkpt lat="43.2313184" lon="-2.9933705">
<ele>293.339355</ele>
<time>2011-05-15T09:04:54.000Z</time>
</trkpt>
<trkpt lat="43.2313774" lon="-2.9934380">
<ele>291.897461</ele>
<time>2011-05-15T09:04:58.000Z</time>
</trkpt>
<trkpt lat="43.2314264" lon="-2.9935010">
<ele>289.494141</ele>
<time>2011-05-15T09:05:02.000Z</time>
</trkpt>
<trkpt lat="43.2315467" lon="-2.9937313">
<ele>288.532959</ele>
<time>2011-05-15T09:05:14.000Z</time>
</trkpt>
<trkpt lat="43.2315991" lon="-2.9938685">
<ele>285.168213</ele>
<time>2011-05-15T09:05:21.000Z</time>
</trkpt>
<trkpt lat="43.2316968" lon="-2.9940933">
<ele>281.803589</ele>
<time>2011-05-15T09:05:33.000Z</time>
</trkpt>
<trkpt lat="43.2317163" lon="-2.9941270">
<ele>282.765015</ele>
<time>2011-05-15T09:05:35.000Z</time>
</trkpt>
<trkpt lat="43.2317743" lon="-2.9942009">
<ele>279.880859</ele>
<time>2011-05-15T09:05:40.000Z</time>
</trkpt>
<trkpt lat="43.2318680" lon="-2.9942763">
<ele>276.516357</ele>
<time>2011-05-15T09:05:48.000Z</time>
</trkpt>
<trkpt lat="43.2318810" lon="-2.9942817">
<ele>276.516357</ele>
<time>2011-05-15T09:05:49.000Z</time>
</trkpt>
<trkpt lat="43.2319374" lon="-2.9942775">
<ele>276.516357</ele>
<time>2011-05-15T09:05:53.000Z</time>
</trkpt>
<trkpt lat="43.2319988" lon="-2.9942566">
<ele>273.632446</ele>
<time>2011-05-15T09:05:58.000Z</time>
</trkpt>
<trkpt lat="43.2320109" lon="-2.9942491">
<ele>274.593750</ele>
<time>2011-05-15T09:05:59.000Z</time>
</trkpt>
<trkpt lat="43.2321316" lon="-2.9942071">
<ele>271.229126</ele>
<time>2011-05-15T09:06:08.000Z</time>
</trkpt>
<trkpt lat="43.2323104" lon="-2.9942354">
<ele>267.864502</ele>
<time>2011-05-15T09:06:19.000Z</time>
</trkpt>
<trkpt lat="43.2324347" lon="-2.9943196">
<ele>264.980591</ele>
<time>2011-05-15T09:06:28.000Z</time>
</trkpt>
<trkpt lat="43.2325163" lon="-2.9943844">
<ele>263.057861</ele>
<time>2011-05-15T09:06:34.000Z</time>
</trkpt>
<trkpt lat="43.2325444" lon="-2.9944098">
<ele>263.057861</ele>
<time>2011-05-15T09:06:36.000Z</time>
</trkpt>
<trkpt lat="43.2325746" lon="-2.9944248">
<ele>261.615967</ele>
<time>2011-05-15T09:06:38.000Z</time>
</trkpt>
<trkpt lat="43.2326962" lon="-2.9944788">
<ele>258.731934</ele>
<time>2011-05-15T09:06:46.000Z</time>
</trkpt>
<trkpt lat="43.2327791" lon="-2.9944912">
<ele>257.290039</ele>
<time>2011-05-15T09:06:51.000Z</time>
</trkpt>
<trkpt lat="43.2328429" lon="-2.9945077">
<ele>254.405991</ele>
<time>2011-05-15T09:06:55.000Z</time>
</trkpt>
<trkpt lat="43.2329822" lon="-2.9945600">
<ele>251.522095</ele>
<time>2011-05-15T09:07:04.000Z</time>
</trkpt>
<trkpt lat="43.2331994" lon="-2.9946075">
<ele>249.118759</ele>
<time>2011-05-15T09:07:17.000Z</time>
</trkpt>
<trkpt lat="43.2333644" lon="-2.9946291">
<ele>245.754150</ele>
<time>2011-05-15T09:07:27.000Z</time>
</trkpt>
<trkpt lat="43.2335100" lon="-2.9946743">
<ele>241.908936</ele>
<time>2011-05-15T09:07:36.000Z</time>
</trkpt>
<trkpt lat="43.2335875" lon="-2.9947289">
<ele>241.428223</ele>
<time>2011-05-15T09:07:41.000Z</time>
</trkpt>
<trkpt lat="43.2336948" lon="-2.9947894">
<ele>239.024902</ele>
<time>2011-05-15T09:07:49.000Z</time>
</trkpt>
<trkpt lat="43.2337243" lon="-2.9948071">
<ele>237.582901</ele>
<time>2011-05-15T09:07:51.000Z</time>
</trkpt>
<trkpt lat="43.2338489" lon="-2.9948703">
<ele>234.699081</ele>
<time>2011-05-15T09:07:59.000Z</time>
</trkpt>
<trkpt lat="43.2340734" lon="-2.9949387">
<ele>232.776489</ele>
<time>2011-05-15T09:08:13.000Z</time>
</trkpt>
<trkpt lat="43.2341881" lon="-2.9949846">
<ele>227.969727</ele>
<time>2011-05-15T09:08:21.000Z</time>
</trkpt>
<trkpt lat="43.2343933" lon="-2.9950437">
<ele>228.450439</ele>
<time>2011-05-15T09:08:34.000Z</time>
</trkpt>
<trkpt lat="43.2345809" lon="-2.9950879">
<ele>224.605225</ele>
<time>2011-05-15T09:08:46.000Z</time>
</trkpt>
<trkpt lat="43.2346291" lon="-2.9950818">
<ele>223.163208</ele>
<time>2011-05-15T09:08:49.000Z</time>
</trkpt>
<trkpt lat="43.2346919" lon="-2.9950811">
<ele>221.240601</ele>
<time>2011-05-15T09:08:53.000Z</time>
</trkpt>
<trkpt lat="43.2348201" lon="-2.9950608">
<ele>218.356567</ele>
<time>2011-05-15T09:09:01.000Z</time>
</trkpt>
<trkpt lat="43.2349316" lon="-2.9950412">
<ele>216.433945</ele>
<time>2011-05-15T09:09:08.000Z</time>
</trkpt>
<trkpt lat="43.2350610" lon="-2.9950216">
<ele>213.069336</ele>
<time>2011-05-15T09:09:16.000Z</time>
</trkpt>
<trkpt lat="43.2352375" lon="-2.9950211">
<ele>209.224121</ele>
<time>2011-05-15T09:09:27.000Z</time>
</trkpt>
<trkpt lat="43.2354464" lon="-2.9950708">
<ele>206.340088</ele>
<time>2011-05-15T09:09:41.000Z</time>
</trkpt>
<trkpt lat="43.2357053" lon="-2.9951476">
<ele>202.494873</ele>
<time>2011-05-15T09:09:58.000Z</time>
</trkpt>
<trkpt lat="43.2359825" lon="-2.9952635">
<ele>200.572266</ele>
<time>2011-05-15T09:10:16.000Z</time>
</trkpt>
<trkpt lat="43.2362809" lon="-2.9954591">
<ele>197.207520</ele>
<time>2011-05-15T09:10:36.000Z</time>
</trkpt>
<trkpt lat="43.2364927" lon="-2.9956209">
<ele>193.843018</ele>
<time>2011-05-15T09:10:51.000Z</time>
</trkpt>
<trkpt lat="43.2367547" lon="-2.9958601">
<ele>192.401123</ele>
<time>2011-05-15T09:11:11.000Z</time>
</trkpt>
<trkpt lat="43.2367823" lon="-2.9958876">
<ele>190.958984</ele>
<time>2011-05-15T09:11:13.000Z</time>
</trkpt>
<trkpt lat="43.2368199" lon="-2.9959258">
<ele>190.958984</ele>
<time>2011-05-15T09:11:16.000Z</time>
</trkpt>
<trkpt lat="43.2368629" lon="-2.9959204">
<ele>190.478409</ele>
<time>2011-05-15T09:11:19.000Z</time>
</trkpt>
<trkpt lat="43.2369613" lon="-2.9957480">
<ele>187.594360</ele>
<time>2011-05-15T09:11:30.000Z</time>
</trkpt>
<trkpt lat="43.2370170" lon="-2.9956148">
<ele>184.229858</ele>
<time>2011-05-15T09:11:39.000Z</time>
</trkpt>
<trkpt lat="43.2370831" lon="-2.9955240">
<ele>180.865234</ele>
<time>2011-05-15T09:11:48.000Z</time>
</trkpt>
<trkpt lat="43.2371742" lon="-2.9954293">
<ele>177.500610</ele>
<time>2011-05-15T09:11:56.000Z</time>
</trkpt>
<trkpt lat="43.2373056" lon="-2.9953003">
<ele>174.135864</ele>
<time>2011-05-15T09:12:05.000Z</time>
</trkpt>
<trkpt lat="43.2373952" lon="-2.9952013">
<ele>172.213272</ele>
<time>2011-05-15T09:12:11.000Z</time>
</trkpt>
<trkpt lat="43.2375168" lon="-2.9950966">
<ele>169.810059</ele>
<time>2011-05-15T09:12:19.000Z</time>
</trkpt>
<trkpt lat="43.2375460" lon="-2.9950466">
<ele>168.848770</ele>
<time>2011-05-15T09:12:22.000Z</time>
</trkpt>
<trkpt lat="43.2375644" lon="-2.9949276">
<ele>168.848770</ele>
<time>2011-05-15T09:12:28.000Z</time>
</trkpt>
<trkpt lat="43.2375521" lon="-2.9948795">
<ele>169.329453</ele>
<time>2011-05-15T09:12:31.000Z</time>
</trkpt>
<trkpt lat="43.2376004" lon="-2.9945795">
<ele>165.003418</ele>
<time>2011-05-15T09:12:44.000Z</time>
</trkpt>
<trkpt lat="43.2376026" lon="-2.9945004">
<ele>163.561539</ele>
<time>2011-05-15T09:12:48.000Z</time>
</trkpt>
<trkpt lat="43.2376132" lon="-2.9943435">
<ele>161.638916</ele>
<time>2011-05-15T09:12:55.000Z</time>
</trkpt>
<trkpt lat="43.2377267" lon="-2.9940985">
<ele>162.119507</ele>
<time>2011-05-15T09:13:08.000Z</time>
</trkpt>
<trkpt lat="43.2378210" lon="-2.9938960">
<ele>158.274170</ele>
<time>2011-05-15T09:13:18.000Z</time>
</trkpt>
<trkpt lat="43.2378651" lon="-2.9937945">
<ele>158.274170</ele>
<time>2011-05-15T09:13:23.000Z</time>
</trkpt>
<trkpt lat="43.2379017" lon="-2.9937396">
<ele>157.312866</ele>
<time>2011-05-15T09:13:26.000Z</time>
</trkpt>
<trkpt lat="43.2380064" lon="-2.9936311">
<ele>154.909546</ele>
<time>2011-05-15T09:13:34.000Z</time>
</trkpt>
<trkpt lat="43.2380856" lon="-2.9935515">
<ele>152.025757</ele>
<time>2011-05-15T09:13:40.000Z</time>
</trkpt>
<trkpt lat="43.2381606" lon="-2.9934814">
<ele>150.583618</ele>
<time>2011-05-15T09:13:45.000Z</time>
</trkpt>
<trkpt lat="43.2382168" lon="-2.9934117">
<ele>150.103027</ele>
<time>2011-05-15T09:13:49.000Z</time>
</trkpt>
<trkpt lat="43.2384145" lon="-2.9932070">
<ele>150.583618</ele>
<time>2011-05-15T09:14:03.000Z</time>
</trkpt>
<trkpt lat="43.2384507" lon="-2.9931532">
<ele>148.180420</ele>
<time>2011-05-15T09:14:06.000Z</time>
</trkpt>
<trkpt lat="43.2386346" lon="-2.9929168">
<ele>145.777100</ele>
<time>2011-05-15T09:14:20.000Z</time>
</trkpt>
<trkpt lat="43.2386482" lon="-2.9929010">
<ele>145.296387</ele>
<time>2011-05-15T09:14:21.000Z</time>
</trkpt>
<trkpt lat="43.2387885" lon="-2.9928325">
<ele>145.777100</ele>
<time>2011-05-15T09:14:30.000Z</time>
</trkpt>
<trkpt lat="43.2388747" lon="-2.9928355">
<ele>145.777100</ele>
<time>2011-05-15T09:14:36.000Z</time>
</trkpt>
<trkpt lat="43.2390864" lon="-2.9929304">
<ele>144.335205</ele>
<time>2011-05-15T09:14:51.000Z</time>
</trkpt>
<trkpt lat="43.2392045" lon="-2.9929887">
<ele>140.970459</ele>
<time>2011-05-15T09:14:59.000Z</time>
</trkpt>
<trkpt lat="43.2392979" lon="-2.9929888">
<ele>138.086548</ele>
<time>2011-05-15T09:15:05.000Z</time>
</trkpt>
<trkpt lat="43.2393817" lon="-2.9929685">
<ele>136.644653</ele>
<time>2011-05-15T09:15:10.000Z</time>
</trkpt>
<trkpt lat="43.2394180" lon="-2.9929640">
<ele>135.202515</ele>
<time>2011-05-15T09:15:12.000Z</time>
</trkpt>
<trkpt lat="43.2394926" lon="-2.9929391">
<ele>134.241211</ele>
<time>2011-05-15T09:15:17.000Z</time>
</trkpt>
<trkpt lat="43.2395274" lon="-2.9929297">
<ele>132.799316</ele>
<time>2011-05-15T09:15:19.000Z</time>
</trkpt>
<trkpt lat="43.2397432" lon="-2.9928759">
<ele>129.434692</ele>
<time>2011-05-15T09:15:30.000Z</time>
</trkpt>
<trkpt lat="43.2399062" lon="-2.9928300">
<ele>126.069939</ele>
<time>2011-05-15T09:15:37.000Z</time>
</trkpt>
<trkpt lat="43.2399831" lon="-2.9928111">
<ele>125.108765</ele>
<time>2011-05-15T09:15:41.000Z</time>
</trkpt>
<trkpt lat="43.2400421" lon="-2.9928136">
<ele>123.666748</ele>
<time>2011-05-15T09:15:44.000Z</time>
</trkpt>
<trkpt lat="43.2400969" lon="-2.9928294">
<ele>123.186157</ele>
<time>2011-05-15T09:15:47.000Z</time>
</trkpt>
<trkpt lat="43.2402204" lon="-2.9928972">
<ele>121.744141</ele>
<time>2011-05-15T09:15:53.000Z</time>
</trkpt>
<trkpt lat="43.2404331" lon="-2.9929905">
<ele>117.898804</ele>
<time>2011-05-15T09:16:04.000Z</time>
</trkpt>
<trkpt lat="43.2404529" lon="-2.9929883">
<ele>117.898804</ele>
<time>2011-05-15T09:16:05.000Z</time>
</trkpt>
<trkpt lat="43.2405934" lon="-2.9929805">
<ele>114.053589</ele>
<time>2011-05-15T09:16:13.000Z</time>
</trkpt>
<trkpt lat="43.2406078" lon="-2.9929805">
<ele>114.534180</ele>
<time>2011-05-15T09:16:14.000Z</time>
</trkpt>
<trkpt lat="43.2407064" lon="-2.9929789">
<ele>111.169556</ele>
<time>2011-05-15T09:16:20.000Z</time>
</trkpt>
<trkpt lat="43.2408783" lon="-2.9929416">
<ele>107.805054</ele>
<time>2011-05-15T09:16:30.000Z</time>
</trkpt>
<trkpt lat="43.2410320" lon="-2.9929064">
<ele>104.440422</ele>
<time>2011-05-15T09:16:39.000Z</time>
</trkpt>
<trkpt lat="43.2411289" lon="-2.9928449">
<ele>102.517693</ele>
<time>2011-05-15T09:16:45.000Z</time>
</trkpt>
<trkpt lat="43.2412242" lon="-2.9927825">
<ele>101.075684</ele>
<time>2011-05-15T09:16:51.000Z</time>
</trkpt>
<trkpt lat="43.2412753" lon="-2.9927460">
<ele>99.633789</ele>
<time>2011-05-15T09:16:54.000Z</time>
</trkpt>
<trkpt lat="43.2413477" lon="-2.9926714">
<ele>99.633789</ele>
<time>2011-05-15T09:16:59.000Z</time>
</trkpt>
<trkpt lat="43.2414557" lon="-2.9925383">
<ele>96.749878</ele>
<time>2011-05-15T09:17:07.000Z</time>
</trkpt>
<trkpt lat="43.2415903" lon="-2.9923678">
<ele>93.385124</ele>
<time>2011-05-15T09:17:18.000Z</time>
</trkpt>
<trkpt lat="43.2416136" lon="-2.9923402">
<ele>94.346558</ele>
<time>2011-05-15T09:17:20.000Z</time>
</trkpt>
<trkpt lat="43.2417252" lon="-2.9922775">
<ele>90.981934</ele>
<time>2011-05-15T09:17:29.000Z</time>
</trkpt>
<trkpt lat="43.2417529" lon="-2.9923431">
<ele>90.501343</ele>
<time>2011-05-15T09:17:33.000Z</time>
</trkpt>
<trkpt lat="43.2417579" lon="-2.9924051">
<ele>88.578735</ele>
<time>2011-05-15T09:17:36.000Z</time>
</trkpt>
<trkpt lat="43.2417188" lon="-2.9926228">
<ele>85.213989</ele>
<time>2011-05-15T09:17:47.000Z</time>
</trkpt>
<trkpt lat="43.2416972" lon="-2.9927478">
<ele>84.252693</ele>
<time>2011-05-15T09:17:53.000Z</time>
</trkpt>
<trkpt lat="43.2416960" lon="-2.9929698">
<ele>80.407471</ele>
<time>2011-05-15T09:18:03.000Z</time>
</trkpt>
<trkpt lat="43.2416578" lon="-2.9931749">
<ele>77.523438</ele>
<time>2011-05-15T09:18:12.000Z</time>
</trkpt>
<trkpt lat="43.2416431" lon="-2.9932197">
<ele>76.562134</ele>
<time>2011-05-15T09:18:14.000Z</time>
</trkpt>
<trkpt lat="43.2415989" lon="-2.9933630">
<ele>73.197632</ele>
<time>2011-05-15T09:18:20.000Z</time>
</trkpt>
<trkpt lat="43.2415865" lon="-2.9934013">
<ele>73.678223</ele>
<time>2011-05-15T09:18:22.000Z</time>
</trkpt>
<trkpt lat="43.2414900" lon="-2.9935906">
<ele>69.352295</ele>
<time>2011-05-15T09:18:32.000Z</time>
</trkpt>
<trkpt lat="43.2414813" lon="-2.9936093">
<ele>68.871582</ele>
<time>2011-05-15T09:18:33.000Z</time>
</trkpt>
<trkpt lat="43.2414702" lon="-2.9936300">
<ele>69.352295</ele>
<time>2011-05-15T09:18:34.000Z</time>
</trkpt>
<trkpt lat="43.2414456" lon="-2.9937074">
<ele>68.390869</ele>
<time>2011-05-15T09:18:37.000Z</time>
</trkpt>
<trkpt lat="43.2414071" lon="-2.9937778">
<ele>66.948975</ele>
<time>2011-05-15T09:18:41.000Z</time>
</trkpt>
<trkpt lat="43.2413476" lon="-2.9938469">
<ele>65.026367</ele>
<time>2011-05-15T09:18:45.000Z</time>
</trkpt>
<trkpt lat="43.2413113" lon="-2.9939032">
<ele>63.584351</ele>
<time>2011-05-15T09:18:48.000Z</time>
</trkpt>
<trkpt lat="43.2412687" lon="-2.9940085">
<ele>62.142334</ele>
<time>2011-05-15T09:18:53.000Z</time>
</trkpt>
<trkpt lat="43.2412496" lon="-2.9940498">
<ele>62.142334</ele>
<time>2011-05-15T09:18:55.000Z</time>
</trkpt>
<trkpt lat="43.2412213" lon="-2.9941180">
<ele>61.181030</ele>
<time>2011-05-15T09:18:58.000Z</time>
</trkpt>
<trkpt lat="43.2411236" lon="-2.9942928">
<ele>58.297119</ele>
<time>2011-05-15T09:19:07.000Z</time>
</trkpt>
<trkpt lat="43.2410155" lon="-2.9944645">
<ele>54.451782</ele>
<time>2011-05-15T09:19:16.000Z</time>
</trkpt>
<trkpt lat="43.2409119" lon="-2.9945787">
<ele>51.567871</ele>
<time>2011-05-15T09:19:24.000Z</time>
</trkpt>
<trkpt lat="43.2408280" lon="-2.9946751">
<ele>49.164551</ele>
<time>2011-05-15T09:19:31.000Z</time>
</trkpt>
<trkpt lat="43.2407814" lon="-2.9947890">
<ele>47.241825</ele>
<time>2011-05-15T09:19:37.000Z</time>
</trkpt>
<trkpt lat="43.2407829" lon="-2.9948192">
<ele>47.241825</ele>
<time>2011-05-15T09:19:38.000Z</time>
</trkpt>
<trkpt lat="43.2407829" lon="-2.9949540">
<ele>45.799927</ele>
<time>2011-05-15T09:19:45.000Z</time>
</trkpt>
<trkpt lat="43.2407886" lon="-2.9950152">
<ele>43.877316</ele>
<time>2011-05-15T09:19:48.000Z</time>
</trkpt>
<trkpt lat="43.2408029" lon="-2.9950429">
<ele>43.396606</ele>
<time>2011-05-15T09:19:50.000Z</time>
</trkpt>
<trkpt lat="43.2408498" lon="-2.9951376">
<ele>42.435425</ele>
<time>2011-05-15T09:19:55.000Z</time>
</trkpt>
<trkpt lat="43.2409558" lon="-2.9952564">
<ele>39.551270</ele>
<time>2011-05-15T09:20:03.000Z</time>
</trkpt>
<trkpt lat="43.2410236" lon="-2.9953391">
<ele>40.032104</ele>
<time>2011-05-15T09:20:08.000Z</time>
</trkpt>
<trkpt lat="43.2411299" lon="-2.9952598">
<ele>39.070679</ele>
<time>2011-05-15T09:20:16.000Z</time>
</trkpt>
<trkpt lat="43.2413124" lon="-2.9950250">
<ele>39.070679</ele>
<time>2011-05-15T09:20:32.000Z</time>
</trkpt>
<trkpt lat="43.2413593" lon="-2.9949748">
<ele>39.070679</ele>
<time>2011-05-15T09:20:36.000Z</time>
</trkpt>
<trkpt lat="43.2414546" lon="-2.9949759">
<ele>38.590088</ele>
<time>2011-05-15T09:20:43.000Z</time>
</trkpt>
<trkpt lat="43.2415074" lon="-2.9949789">
<ele>38.590088</ele>
<time>2011-05-15T09:20:56.000Z</time>
</trkpt>
<trkpt lat="43.2415416" lon="-2.9949645">
<ele>37.148071</ele>
<time>2011-05-15T09:21:09.000Z</time>
</trkpt>
<trkpt lat="43.2415527" lon="-2.9949713">
<ele>38.590088</ele>
<time>2011-05-15T09:22:03.000Z</time>
</trkpt>
<trkpt lat="43.2415625" lon="-2.9949776">
<ele>38.109375</ele>
<time>2011-05-15T09:22:10.000Z</time>
</trkpt>
<trkpt lat="43.2415578" lon="-2.9949713">
<ele>37.148071</ele>
<time>2011-05-15T09:22:23.000Z</time>
</trkpt>
<trkpt lat="43.2415343" lon="-2.9949942">
<ele>37.628662</ele>
<time>2011-05-15T09:22:41.000Z</time>
</trkpt>
<trkpt lat="43.2415175" lon="-2.9949578">
<ele>37.628662</ele>
<time>2011-05-15T09:22:58.000Z</time>
</trkpt>
<trkpt lat="43.2415133" lon="-2.9949464">
<ele>37.628662</ele>
<time>2011-05-15T09:23:18.000Z</time>
</trkpt>
<trkpt lat="43.2415141" lon="-2.9949382">
<ele>37.148071</ele>
<time>2011-05-15T09:23:51.000Z</time>
</trkpt>
<trkpt lat="43.2415495" lon="-2.9949386">
<ele>37.148071</ele>
<time>2011-05-15T09:24:19.000Z</time>
</trkpt>
<trkpt lat="43.2415600" lon="-2.9949391">
<ele>37.148071</ele>
<time>2011-05-15T09:24:39.000Z</time>
</trkpt>
<trkpt lat="43.2415541" lon="-2.9949668">
<ele>37.148071</ele>
<time>2011-05-15T09:25:04.000Z</time>
</trkpt>
<trkpt lat="43.2415478" lon="-2.9949654">
<ele>37.628662</ele>
<time>2011-05-15T09:25:17.000Z</time>
</trkpt>
<trkpt lat="43.2415381" lon="-2.9949492">
<ele>37.628662</ele>
<time>2011-05-15T09:25:31.000Z</time>
</trkpt>
<trkpt lat="43.2415481" lon="-2.9949426">
<ele>37.148071</ele>
<time>2011-05-15T09:25:46.000Z</time>
</trkpt>
<trkpt lat="43.2415527" lon="-2.9949511">
<ele>37.628662</ele>
<time>2011-05-15T09:25:57.000Z</time>
</trkpt>
<trkpt lat="43.2415466" lon="-2.9949610">
<ele>37.148071</ele>
<time>2011-05-15T09:26:20.000Z</time>
</trkpt>
<trkpt lat="43.2415444" lon="-2.9949848">
<ele>36.667480</ele>
<time>2011-05-15T09:26:47.000Z</time>
</trkpt>
<trkpt lat="43.2415506" lon="-2.9949951">
<ele>36.186768</ele>
<time>2011-05-15T09:27:02.000Z</time>
</trkpt>
<trkpt lat="43.2415356" lon="-2.9949941">
<ele>36.186768</ele>
<time>2011-05-15T09:27:17.000Z</time>
</trkpt>
<trkpt lat="43.2415395" lon="-2.9950081">
<ele>36.186768</ele>
<time>2011-05-15T09:27:31.000Z</time>
</trkpt>
<trkpt lat="43.2415492" lon="-2.9949838">
<ele>36.186768</ele>
<time>2011-05-15T09:27:46.000Z</time>
</trkpt>
<trkpt lat="43.2415510" lon="-2.9949879">
<ele>36.667480</ele>
<time>2011-05-15T09:28:15.000Z</time>
</trkpt>
<trkpt lat="43.2415422" lon="-2.9949734">
<ele>36.667480</ele>
<time>2011-05-15T09:28:26.000Z</time>
</trkpt>
<trkpt lat="43.2415392" lon="-2.9949900">
<ele>36.186768</ele>
<time>2011-05-15T09:28:38.000Z</time>
</trkpt>
<trkpt lat="43.2415407" lon="-2.9949810">
<ele>36.186768</ele>
<time>2011-05-15T09:28:51.000Z</time>
</trkpt>
<trkpt lat="43.2415364" lon="-2.9950046">
<ele>36.186768</ele>
<time>2011-05-15T09:29:04.000Z</time>
</trkpt>
<trkpt lat="43.2415428" lon="-2.9949816">
<ele>36.186768</ele>
<time>2011-05-15T09:29:23.000Z</time>
</trkpt>
<trkpt lat="43.2415419" lon="-2.9949802">
<ele>36.667480</ele>
<time>2011-05-15T09:29:48.000Z</time>
</trkpt>
<trkpt lat="43.2415823" lon="-2.9949513">
<ele>36.186768</ele>
<time>2011-05-15T09:30:19.000Z</time>
</trkpt>
<trkpt lat="43.2415274" lon="-2.9948486">
<ele>36.186768</ele>
<time>2011-05-15T09:30:35.000Z</time>
</trkpt>
<trkpt lat="43.2415303" lon="-2.9948600">
<ele>35.706055</ele>
<time>2011-05-15T09:30:36.000Z</time>
</trkpt>
<trkpt lat="43.2415634" lon="-2.9949316">
<ele>35.706055</ele>
<time>2011-05-15T09:30:56.000Z</time>
</trkpt>
<trkpt lat="43.2415579" lon="-2.9949196">
<ele>36.186768</ele>
<time>2011-05-15T09:31:10.000Z</time>
</trkpt>
<trkpt lat="43.2415634" lon="-2.9948974">
<ele>35.225464</ele>
<time>2011-05-15T09:31:30.000Z</time>
</trkpt>
<trkpt lat="43.2415655" lon="-2.9948987">
<ele>35.225464</ele>
<time>2011-05-15T09:31:50.000Z</time>
</trkpt>
<trkpt lat="43.2415520" lon="-2.9948998">
<ele>35.225464</ele>
<time>2011-05-15T09:32:22.000Z</time>
</trkpt>
<trkpt lat="43.2415361" lon="-2.9948696">
<ele>35.225464</ele>
<time>2011-05-15T09:32:28.000Z</time>
</trkpt>
<trkpt lat="43.2415118" lon="-2.9948075">
<ele>35.225464</ele>
<time>2011-05-15T09:32:33.000Z</time>
</trkpt>
<trkpt lat="43.2415558" lon="-2.9947284">
<ele>35.225464</ele>
<time>2011-05-15T09:32:42.000Z</time>
</trkpt>
<trkpt lat="43.2416155" lon="-2.9946911">
<ele>34.264160</ele>
<time>2011-05-15T09:32:51.000Z</time>
</trkpt>
<trkpt lat="43.2416501" lon="-2.9946414">
<ele>33.302856</ele>
<time>2011-05-15T09:32:55.000Z</time>
</trkpt>
<trkpt lat="43.2418154" lon="-2.9944315">
<ele>34.744873</ele>
<time>2011-05-15T09:33:14.000Z</time>
</trkpt>
<trkpt lat="43.2417582" lon="-2.9944956">
<ele>34.264160</ele>
<time>2011-05-15T09:33:21.000Z</time>
</trkpt>
<trkpt lat="43.2417940" lon="-2.9945962">
<ele>33.302856</ele>
<time>2011-05-15T09:33:28.000Z</time>
</trkpt>
<trkpt lat="43.2418141" lon="-2.9946388">
<ele>30.899538</ele>
<time>2011-05-15T09:33:32.000Z</time>
</trkpt>
<trkpt lat="43.2418237" lon="-2.9946534">
<ele>30.899538</ele>
<time>2011-05-15T09:33:33.000Z</time>
</trkpt>
<trkpt lat="43.2417282" lon="-2.9949195">
<ele>30.899538</ele>
<time>2011-05-15T09:33:50.000Z</time>
</trkpt>
<trkpt lat="43.2417206" lon="-2.9949693">
<ele>31.860718</ele>
<time>2011-05-15T09:33:53.000Z</time>
</trkpt>
<trkpt lat="43.2417645" lon="-2.9950642">
<ele>31.860718</ele>
<time>2011-05-15T09:33:59.000Z</time>
</trkpt>
<trkpt lat="43.2419495" lon="-2.9953936">
<ele>32.341553</ele>
<time>2011-05-15T09:34:19.000Z</time>
</trkpt>
<trkpt lat="43.2421199" lon="-2.9955981">
<ele>31.380127</ele>
<time>2011-05-15T09:34:36.000Z</time>
</trkpt>
<trkpt lat="43.2421404" lon="-2.9956391">
<ele>33.302856</ele>
<time>2011-05-15T09:34:41.000Z</time>
</trkpt>
<trkpt lat="43.2421770" lon="-2.9958897">
<ele>32.822266</ele>
<time>2011-05-15T09:34:58.000Z</time>
</trkpt>
<trkpt lat="43.2422043" lon="-2.9961416">
<ele>33.302856</ele>
<time>2011-05-15T09:35:12.000Z</time>
</trkpt>
<trkpt lat="43.2421824" lon="-2.9961841">
<ele>31.860718</ele>
<time>2011-05-15T09:35:15.000Z</time>
</trkpt>
<trkpt lat="43.2421330" lon="-2.9962654">
<ele>31.380127</ele>
<time>2011-05-15T09:35:21.000Z</time>
</trkpt>
<trkpt lat="43.2421608" lon="-2.9963457">
<ele>30.418823</ele>
<time>2011-05-15T09:35:27.000Z</time>
</trkpt>
<trkpt lat="43.2422614" lon="-2.9963042">
<ele>30.899538</ele>
<time>2011-05-15T09:35:36.000Z</time>
</trkpt>
<trkpt lat="43.2422722" lon="-2.9963073">
<ele>31.380127</ele>
<time>2011-05-15T09:35:37.000Z</time>
</trkpt>
<trkpt lat="43.2423064" lon="-2.9962850">
<ele>30.899538</ele>
<time>2011-05-15T09:35:42.000Z</time>
</trkpt>
<trkpt lat="43.2424507" lon="-2.9961223">
<ele>30.899538</ele>
<time>2011-05-15T09:35:56.000Z</time>
</trkpt>
<trkpt lat="43.2426612" lon="-2.9958645">
<ele>30.899538</ele>
<time>2011-05-15T09:36:13.000Z</time>
</trkpt>
<trkpt lat="43.2428181" lon="-2.9956818">
<ele>29.938110</ele>
<time>2011-05-15T09:36:26.000Z</time>
</trkpt>
<trkpt lat="43.2430270" lon="-2.9954270">
<ele>29.938110</ele>
<time>2011-05-15T09:36:44.000Z</time>
</trkpt>
<trkpt lat="43.2431949" lon="-2.9951676">
<ele>29.457521</ele>
<time>2011-05-15T09:37:01.000Z</time>
</trkpt>
<trkpt lat="43.2433337" lon="-2.9949537">
<ele>29.457521</ele>
<time>2011-05-15T09:37:14.000Z</time>
</trkpt>
<trkpt lat="43.2434738" lon="-2.9947330">
<ele>30.418823</ele>
<time>2011-05-15T09:37:28.000Z</time>
</trkpt>
<trkpt lat="43.2436650" lon="-2.9944953">
<ele>30.418823</ele>
<time>2011-05-15T09:37:45.000Z</time>
</trkpt>
<trkpt lat="43.2438646" lon="-2.9942082">
<ele>30.899538</ele>
<time>2011-05-15T09:38:04.000Z</time>
</trkpt>
<trkpt lat="43.2440329" lon="-2.9939659">
<ele>30.899538</ele>
<time>2011-05-15T09:38:20.000Z</time>
</trkpt>
<trkpt lat="43.2440907" lon="-2.9939211">
<ele>30.899538</ele>
<time>2011-05-15T09:38:24.000Z</time>
</trkpt>
<trkpt lat="43.2441140" lon="-2.9938966">
<ele>30.418823</ele>
<time>2011-05-15T09:38:26.000Z</time>
</trkpt>
<trkpt lat="43.2442040" lon="-2.9937899">
<ele>30.899538</ele>
<time>2011-05-15T09:38:34.000Z</time>
</trkpt>
<trkpt lat="43.2442536" lon="-2.9937337">
<ele>30.899538</ele>
<time>2011-05-15T09:38:38.000Z</time>
</trkpt>
<trkpt lat="43.2444432" lon="-2.9935467">
<ele>30.899538</ele>
<time>2011-05-15T09:38:53.000Z</time>
</trkpt>
<trkpt lat="43.2446357" lon="-2.9934011">
<ele>30.899538</ele>
<time>2011-05-15T09:39:09.000Z</time>
</trkpt>
<trkpt lat="43.2449073" lon="-2.9932121">
<ele>30.899538</ele>
<time>2011-05-15T09:39:30.000Z</time>
</trkpt>
<trkpt lat="43.2450140" lon="-2.9931444">
<ele>30.899538</ele>
<time>2011-05-15T09:39:38.000Z</time>
</trkpt>
<trkpt lat="43.2453080" lon="-2.9929858">
<ele>31.860718</ele>
<time>2011-05-15T09:39:59.000Z</time>
</trkpt>
<trkpt lat="43.2455096" lon="-2.9929144">
<ele>33.302856</ele>
<time>2011-05-15T09:40:13.000Z</time>
</trkpt>
<trkpt lat="43.2455725" lon="-2.9930236">
<ele>34.744873</ele>
<time>2011-05-15T09:40:26.000Z</time>
</trkpt>
<trkpt lat="43.2455760" lon="-2.9930744">
<ele>35.225464</ele>
<time>2011-05-15T09:40:30.000Z</time>
</trkpt>
<trkpt lat="43.2455775" lon="-2.9930983">
<ele>35.706055</ele>
<time>2011-05-15T09:40:34.000Z</time>
</trkpt>
<trkpt lat="43.2456252" lon="-2.9931982">
<ele>37.148071</ele>
<time>2011-05-15T09:40:40.000Z</time>
</trkpt>
<trkpt lat="43.2457646" lon="-2.9933175">
<ele>39.551270</ele>
<time>2011-05-15T09:40:55.000Z</time>
</trkpt>
<trkpt lat="43.2458698" lon="-2.9934369">
<ele>42.916019</ele>
<time>2011-05-15T09:41:07.000Z</time>
</trkpt>
<trkpt lat="43.2460122" lon="-2.9935266">
<ele>45.799927</ele>
<time>2011-05-15T09:41:21.000Z</time>
</trkpt>
<trkpt lat="43.2460745" lon="-2.9935909">
<ele>47.241825</ele>
<time>2011-05-15T09:41:28.000Z</time>
</trkpt>
<trkpt lat="43.2461115" lon="-2.9936602">
<ele>47.722534</ele>
<time>2011-05-15T09:41:33.000Z</time>
</trkpt>
<trkpt lat="43.2461203" lon="-2.9938028">
<ele>49.164551</ele>
<time>2011-05-15T09:41:41.000Z</time>
</trkpt>
<trkpt lat="43.2463032" lon="-2.9939612">
<ele>51.087154</ele>
<time>2011-05-15T09:41:58.000Z</time>
</trkpt>
<trkpt lat="43.2464700" lon="-2.9941067">
<ele>53.971188</ele>
<time>2011-05-15T09:42:14.000Z</time>
</trkpt>
<trkpt lat="43.2465842" lon="-2.9943217">
<ele>55.413086</ele>
<time>2011-05-15T09:42:32.000Z</time>
</trkpt>
<trkpt lat="43.2466623" lon="-2.9946016">
<ele>56.855103</ele>
<time>2011-05-15T09:42:49.000Z</time>
</trkpt>
<trkpt lat="43.2466618" lon="-2.9946564">
<ele>58.297119</ele>
<time>2011-05-15T09:42:52.000Z</time>
</trkpt>
<trkpt lat="43.2466565" lon="-2.9946710">
<ele>58.297119</ele>
<time>2011-05-15T09:42:53.000Z</time>
</trkpt>
<trkpt lat="43.2466204" lon="-2.9947038">
<ele>59.258427</ele>
<time>2011-05-15T09:42:57.000Z</time>
</trkpt>
<trkpt lat="43.2465932" lon="-2.9946839">
<ele>59.739136</ele>
<time>2011-05-15T09:43:01.000Z</time>
</trkpt>
<trkpt lat="43.2464778" lon="-2.9945761">
<ele>63.584351</ele>
<time>2011-05-15T09:43:17.000Z</time>
</trkpt>
<trkpt lat="43.2463811" lon="-2.9945316">
<ele>66.468262</ele>
<time>2011-05-15T09:43:29.000Z</time>
</trkpt>
<trkpt lat="43.2462462" lon="-2.9945501">
<ele>69.352295</ele>
<time>2011-05-15T09:43:43.000Z</time>
</trkpt>
<trkpt lat="43.2460598" lon="-2.9945746">
<ele>72.716919</ele>
<time>2011-05-15T09:43:58.000Z</time>
</trkpt>
<trkpt lat="43.2458660" lon="-2.9946459">
<ele>75.120239</ele>
<time>2011-05-15T09:44:16.000Z</time>
</trkpt>
<trkpt lat="43.2458167" lon="-2.9946572">
<ele>75.600830</ele>
<time>2011-05-15T09:44:21.000Z</time>
</trkpt>
<trkpt lat="43.2456864" lon="-2.9947207">
<ele>78.965446</ele>
<time>2011-05-15T09:44:35.000Z</time>
</trkpt>
<trkpt lat="43.2456657" lon="-2.9947784">
<ele>80.888176</ele>
<time>2011-05-15T09:44:41.000Z</time>
</trkpt>
<trkpt lat="43.2457386" lon="-2.9948915">
<ele>83.771973</ele>
<time>2011-05-15T09:44:53.000Z</time>
</trkpt>
<trkpt lat="43.2458143" lon="-2.9949164">
<ele>84.733398</ele>
<time>2011-05-15T09:45:01.000Z</time>
</trkpt>
<trkpt lat="43.2458351" lon="-2.9949253">
<ele>85.213989</ele>
<time>2011-05-15T09:45:03.000Z</time>
</trkpt>
<trkpt lat="43.2460086" lon="-2.9949754">
<ele>87.617195</ele>
<time>2011-05-15T09:45:19.000Z</time>
</trkpt>
<trkpt lat="43.2460678" lon="-2.9950043">
<ele>89.059326</ele>
<time>2011-05-15T09:45:26.000Z</time>
</trkpt>
<trkpt lat="43.2461329" lon="-2.9950836">
<ele>91.462532</ele>
<time>2011-05-15T09:45:35.000Z</time>
</trkpt>
<trkpt lat="43.2460914" lon="-2.9951557">
<ele>93.385124</ele>
<time>2011-05-15T09:45:44.000Z</time>
</trkpt>
<trkpt lat="43.2459733" lon="-2.9952080">
<ele>96.749878</ele>
<time>2011-05-15T09:45:58.000Z</time>
</trkpt>
<trkpt lat="43.2458595" lon="-2.9953164">
<ele>99.153076</ele>
<time>2011-05-15T09:46:13.000Z</time>
</trkpt>
<trkpt lat="43.2458423" lon="-2.9953509">
<ele>100.114502</ele>
<time>2011-05-15T09:46:16.000Z</time>
</trkpt>
<trkpt lat="43.2457965" lon="-2.9955147">
<ele>103.959717</ele>
<time>2011-05-15T09:46:30.000Z</time>
</trkpt>
<trkpt lat="43.2457677" lon="-2.9956312">
<ele>106.843628</ele>
<time>2011-05-15T09:46:40.000Z</time>
</trkpt>
<trkpt lat="43.2457444" lon="-2.9957534">
<ele>109.246948</ele>
<time>2011-05-15T09:46:50.000Z</time>
</trkpt>
<trkpt lat="43.2457276" lon="-2.9958554">
<ele>111.169556</ele>
<time>2011-05-15T09:46:58.000Z</time>
</trkpt>
<trkpt lat="43.2457048" lon="-2.9960056">
<ele>113.573006</ele>
<time>2011-05-15T09:47:09.000Z</time>
</trkpt>
<trkpt lat="43.2456610" lon="-2.9961856">
<ele>116.937508</ele>
<time>2011-05-15T09:47:23.000Z</time>
</trkpt>
<trkpt lat="43.2456299" lon="-2.9963234">
<ele>118.379395</ele>
<time>2011-05-15T09:47:33.000Z</time>
</trkpt>
<trkpt lat="43.2456175" lon="-2.9965259">
<ele>121.744141</ele>
<time>2011-05-15T09:47:46.000Z</time>
</trkpt>
<trkpt lat="43.2456064" lon="-2.9967855">
<ele>124.628052</ele>
<time>2011-05-15T09:48:01.000Z</time>
</trkpt>
<trkpt lat="43.2455537" lon="-2.9970735">
<ele>126.550659</ele>
<time>2011-05-15T09:48:17.000Z</time>
</trkpt>
<trkpt lat="43.2455429" lon="-2.9971419">
<ele>127.031372</ele>
<time>2011-05-15T09:48:21.000Z</time>
</trkpt>
<trkpt lat="43.2455299" lon="-2.9973924">
<ele>128.473389</ele>
<time>2011-05-15T09:48:35.000Z</time>
</trkpt>
<trkpt lat="43.2454884" lon="-2.9977039">
<ele>127.992554</ele>
<time>2011-05-15T09:48:50.000Z</time>
</trkpt>
<trkpt lat="43.2454634" lon="-2.9979551">
<ele>128.954102</ele>
<time>2011-05-15T09:49:01.000Z</time>
</trkpt>
<trkpt lat="43.2455278" lon="-2.9982803">
<ele>129.434692</ele>
<time>2011-05-15T09:49:16.000Z</time>
</trkpt>
<trkpt lat="43.2456097" lon="-2.9985010">
<ele>127.992554</ele>
<time>2011-05-15T09:49:29.000Z</time>
</trkpt>
<trkpt lat="43.2456435" lon="-2.9985886">
<ele>128.473389</ele>
<time>2011-05-15T09:49:34.000Z</time>
</trkpt>
<trkpt lat="43.2457826" lon="-2.9988642">
<ele>129.434692</ele>
<time>2011-05-15T09:49:51.000Z</time>
</trkpt>
<trkpt lat="43.2457884" lon="-2.9989555">
<ele>130.876709</ele>
<time>2011-05-15T09:49:56.000Z</time>
</trkpt>
<trkpt lat="43.2458195" lon="-2.9990629">
<ele>131.357300</ele>
<time>2011-05-15T09:50:02.000Z</time>
</trkpt>
<trkpt lat="43.2458541" lon="-2.9993045">
<ele>131.837891</ele>
<time>2011-05-15T09:50:15.000Z</time>
</trkpt>
<trkpt lat="43.2458437" lon="-2.9994906">
<ele>132.318604</ele>
<time>2011-05-15T09:50:24.000Z</time>
</trkpt>
<trkpt lat="43.2458366" lon="-2.9995226">
<ele>133.760498</ele>
<time>2011-05-15T09:50:26.000Z</time>
</trkpt>
<trkpt lat="43.2457205" lon="-2.9995854">
<ele>134.721924</ele>
<time>2011-05-15T09:50:37.000Z</time>
</trkpt>
<trkpt lat="43.2456971" lon="-2.9996433">
<ele>135.202515</ele>
<time>2011-05-15T09:50:41.000Z</time>
</trkpt>
<trkpt lat="43.2456699" lon="-2.9997306">
<ele>137.125244</ele>
<time>2011-05-15T09:50:46.000Z</time>
</trkpt>
<trkpt lat="43.2456192" lon="-2.9998856">
<ele>139.047852</ele>
<time>2011-05-15T09:50:57.000Z</time>
</trkpt>
<trkpt lat="43.2455822" lon="-2.9999397">
<ele>140.009155</ele>
<time>2011-05-15T09:51:01.000Z</time>
</trkpt>
<trkpt lat="43.2455631" lon="-2.9999718">
<ele>140.489868</ele>
<time>2011-05-15T09:51:03.000Z</time>
</trkpt>
<trkpt lat="43.2455062" lon="-3.0000343">
<ele>141.931763</ele>
<time>2011-05-15T09:51:08.000Z</time>
</trkpt>
<trkpt lat="43.2454978" lon="-3.0000779">
<ele>142.412476</ele>
<time>2011-05-15T09:51:10.000Z</time>
</trkpt>
<trkpt lat="43.2454481" lon="-3.0002730">
<ele>144.335205</ele>
<time>2011-05-15T09:51:20.000Z</time>
</trkpt>
<trkpt lat="43.2454477" lon="-3.0002955">
<ele>144.815796</ele>
<time>2011-05-15T09:51:21.000Z</time>
</trkpt>
<trkpt lat="43.2454449" lon="-3.0005684">
<ele>146.257813</ele>
<time>2011-05-15T09:51:35.000Z</time>
</trkpt>
<trkpt lat="43.2454376" lon="-3.0008304">
<ele>149.622314</ele>
<time>2011-05-15T09:51:49.000Z</time>
</trkpt>
<trkpt lat="43.2454096" lon="-3.0010588">
<ele>149.622314</ele>
<time>2011-05-15T09:52:00.000Z</time>
</trkpt>
<trkpt lat="43.2453668" lon="-3.0011962">
<ele>151.064209</ele>
<time>2011-05-15T09:52:07.000Z</time>
</trkpt>
<trkpt lat="43.2453129" lon="-3.0012631">
<ele>152.025757</ele>
<time>2011-05-15T09:52:12.000Z</time>
</trkpt>
<trkpt lat="43.2452487" lon="-3.0013388">
<ele>152.506348</ele>
<time>2011-05-15T09:52:18.000Z</time>
</trkpt>
<trkpt lat="43.2452145" lon="-3.0014278">
<ele>153.467651</ele>
<time>2011-05-15T09:52:23.000Z</time>
</trkpt>
<trkpt lat="43.2451854" lon="-3.0016816">
<ele>156.351547</ele>
<time>2011-05-15T09:52:37.000Z</time>
</trkpt>
<trkpt lat="43.2451616" lon="-3.0018960">
<ele>160.196899</ele>
<time>2011-05-15T09:52:50.000Z</time>
</trkpt>
<trkpt lat="43.2451591" lon="-3.0019127">
<ele>160.196899</ele>
<time>2011-05-15T09:52:51.000Z</time>
</trkpt>
<trkpt lat="43.2451755" lon="-3.0021986">
<ele>163.080811</ele>
<time>2011-05-15T09:53:06.000Z</time>
</trkpt>
<trkpt lat="43.2452203" lon="-3.0024452">
<ele>165.964722</ele>
<time>2011-05-15T09:53:20.000Z</time>
</trkpt>
<trkpt lat="43.2452305" lon="-3.0024797">
<ele>166.926041</ele>
<time>2011-05-15T09:53:22.000Z</time>
</trkpt>
<trkpt lat="43.2452912" lon="-3.0026470">
<ele>168.848770</ele>
<time>2011-05-15T09:53:32.000Z</time>
</trkpt>
<trkpt lat="43.2453828" lon="-3.0028092">
<ele>170.771362</ele>
<time>2011-05-15T09:53:43.000Z</time>
</trkpt>
<trkpt lat="43.2454792" lon="-3.0029828">
<ele>174.135864</ele>
<time>2011-05-15T09:53:55.000Z</time>
</trkpt>
<trkpt lat="43.2455738" lon="-3.0031683">
<ele>174.616577</ele>
<time>2011-05-15T09:54:07.000Z</time>
</trkpt>
<trkpt lat="43.2456727" lon="-3.0033786">
<ele>172.693954</ele>
<time>2011-05-15T09:54:18.000Z</time>
</trkpt>
<trkpt lat="43.2457469" lon="-3.0035719">
<ele>173.174683</ele>
<time>2011-05-15T09:54:28.000Z</time>
</trkpt>
<trkpt lat="43.2457315" lon="-3.0038131">
<ele>173.655273</ele>
<time>2011-05-15T09:54:41.000Z</time>
</trkpt>
<trkpt lat="43.2457341" lon="-3.0039055">
<ele>174.135864</ele>
<time>2011-05-15T09:54:46.000Z</time>
</trkpt>
<trkpt lat="43.2457309" lon="-3.0039374">
<ele>173.174683</ele>
<time>2011-05-15T09:54:48.000Z</time>
</trkpt>
<trkpt lat="43.2457388" lon="-3.0040163">
<ele>173.655273</ele>
<time>2011-05-15T09:54:52.000Z</time>
</trkpt>
<trkpt lat="43.2457599" lon="-3.0042752">
<ele>173.655273</ele>
<time>2011-05-15T09:55:03.000Z</time>
</trkpt>
<trkpt lat="43.2457698" lon="-3.0044741">
<ele>173.655273</ele>
<time>2011-05-15T09:55:13.000Z</time>
</trkpt>
<trkpt lat="43.2457652" lon="-3.0046540">
<ele>172.693954</ele>
<time>2011-05-15T09:55:22.000Z</time>
</trkpt>
<trkpt lat="43.2458219" lon="-3.0048750">
<ele>172.693954</ele>
<time>2011-05-15T09:55:31.000Z</time>
</trkpt>
<trkpt lat="43.2460239" lon="-3.0051324">
<ele>174.135864</ele>
<time>2011-05-15T09:55:46.000Z</time>
</trkpt>
<trkpt lat="43.2461614" lon="-3.0052285">
<ele>173.174683</ele>
<time>2011-05-15T09:55:56.000Z</time>
</trkpt>
<trkpt lat="43.2463228" lon="-3.0053817">
<ele>174.135864</ele>
<time>2011-05-15T09:56:10.000Z</time>
</trkpt>
<trkpt lat="43.2464463" lon="-3.0055837">
<ele>177.981186</ele>
<time>2011-05-15T09:56:24.000Z</time>
</trkpt>
<trkpt lat="43.2464556" lon="-3.0056000">
<ele>177.981186</ele>
<time>2011-05-15T09:56:25.000Z</time>
</trkpt>
<trkpt lat="43.2464863" lon="-3.0056598">
<ele>178.461914</ele>
<time>2011-05-15T09:56:29.000Z</time>
</trkpt>
<trkpt lat="43.2466140" lon="-3.0058449">
<ele>181.826416</ele>
<time>2011-05-15T09:56:43.000Z</time>
</trkpt>
<trkpt lat="43.2467106" lon="-3.0059412">
<ele>183.268448</ele>
<time>2011-05-15T09:56:52.000Z</time>
</trkpt>
<trkpt lat="43.2468442" lon="-3.0060392">
<ele>186.152466</ele>
<time>2011-05-15T09:57:04.000Z</time>
</trkpt>
<trkpt lat="43.2470307" lon="-3.0061826">
<ele>189.516968</ele>
<time>2011-05-15T09:57:21.000Z</time>
</trkpt>
<trkpt lat="43.2472248" lon="-3.0063902">
<ele>190.958984</ele>
<time>2011-05-15T09:57:39.000Z</time>
</trkpt>
<trkpt lat="43.2473677" lon="-3.0065205">
<ele>192.881714</ele>
<time>2011-05-15T09:57:52.000Z</time>
</trkpt>
<trkpt lat="43.2474376" lon="-3.0065772">
<ele>193.843018</ele>
<time>2011-05-15T09:57:58.000Z</time>
</trkpt>
<trkpt lat="43.2475327" lon="-3.0066425">
<ele>194.804321</ele>
<time>2011-05-15T09:58:06.000Z</time>
</trkpt>
<trkpt lat="43.2476417" lon="-3.0067306">
<ele>195.284912</ele>
<time>2011-05-15T09:58:15.000Z</time>
</trkpt>
<trkpt lat="43.2477217" lon="-3.0067809">
<ele>195.284912</ele>
<time>2011-05-15T09:58:21.000Z</time>
</trkpt>
<trkpt lat="43.2477656" lon="-3.0068272">
<ele>197.207520</ele>
<time>2011-05-15T09:58:26.000Z</time>
</trkpt>
<trkpt lat="43.2479577" lon="-3.0069840">
<ele>200.091675</ele>
<time>2011-05-15T09:58:44.000Z</time>
</trkpt>
<trkpt lat="43.2480927" lon="-3.0070862">
<ele>203.456177</ele>
<time>2011-05-15T09:58:56.000Z</time>
</trkpt>
<trkpt lat="43.2481355" lon="-3.0071214">
<ele>204.898087</ele>
<time>2011-05-15T09:59:00.000Z</time>
</trkpt>
<trkpt lat="43.2482051" lon="-3.0071784">
<ele>207.301392</ele>
<time>2011-05-15T09:59:07.000Z</time>
</trkpt>
<trkpt lat="43.2482241" lon="-3.0071916">
<ele>207.301392</ele>
<time>2011-05-15T09:59:09.000Z</time>
</trkpt>
<trkpt lat="43.2482198" lon="-3.0072884">
<ele>208.743408</ele>
<time>2011-05-15T09:59:16.000Z</time>
</trkpt>
<trkpt lat="43.2481630" lon="-3.0073724">
<ele>211.146729</ele>
<time>2011-05-15T09:59:24.000Z</time>
</trkpt>
<trkpt lat="43.2480039" lon="-3.0076864">
<ele>214.030640</ele>
<time>2011-05-15T09:59:46.000Z</time>
</trkpt>
<trkpt lat="43.2479640" lon="-3.0078536">
<ele>216.433945</ele>
<time>2011-05-15T09:59:57.000Z</time>
</trkpt>
<trkpt lat="43.2479015" lon="-3.0079556">
<ele>218.837280</ele>
<time>2011-05-15T10:00:05.000Z</time>
</trkpt>
<trkpt lat="43.2478428" lon="-3.0080170">
<ele>218.837280</ele>
<time>2011-05-15T10:00:11.000Z</time>
</trkpt>
<trkpt lat="43.2477810" lon="-3.0081816">
<ele>222.682495</ele>
<time>2011-05-15T10:00:23.000Z</time>
</trkpt>
<trkpt lat="43.2476901" lon="-3.0083182">
<ele>225.566528</ele>
<time>2011-05-15T10:00:37.000Z</time>
</trkpt>
<trkpt lat="43.2475952" lon="-3.0084298">
<ele>227.008545</ele>
<time>2011-05-15T10:00:47.000Z</time>
</trkpt>
<trkpt lat="43.2475645" lon="-3.0084692">
<ele>225.566528</ele>
<time>2011-05-15T10:00:50.000Z</time>
</trkpt>
<trkpt lat="43.2475414" lon="-3.0085059">
<ele>226.527832</ele>
<time>2011-05-15T10:00:53.000Z</time>
</trkpt>
<trkpt lat="43.2475305" lon="-3.0085427">
<ele>225.566528</ele>
<time>2011-05-15T10:00:56.000Z</time>
</trkpt>
<trkpt lat="43.2474985" lon="-3.0086468">
<ele>224.605225</ele>
<time>2011-05-15T10:01:02.000Z</time>
</trkpt>
<trkpt lat="43.2474811" lon="-3.0087223">
<ele>225.085938</ele>
<time>2011-05-15T10:01:06.000Z</time>
</trkpt>
<trkpt lat="43.2474803" lon="-3.0088416">
<ele>226.047119</ele>
<time>2011-05-15T10:01:12.000Z</time>
</trkpt>
<trkpt lat="43.2474650" lon="-3.0090373">
<ele>227.008545</ele>
<time>2011-05-15T10:01:23.000Z</time>
</trkpt>
<trkpt lat="43.2474746" lon="-3.0092891">
<ele>229.892334</ele>
<time>2011-05-15T10:01:37.000Z</time>
</trkpt>
<trkpt lat="43.2475300" lon="-3.0095228">
<ele>233.257080</ele>
<time>2011-05-15T10:01:51.000Z</time>
</trkpt>
<trkpt lat="43.2475636" lon="-3.0097247">
<ele>236.140991</ele>
<time>2011-05-15T10:02:03.000Z</time>
</trkpt>
<trkpt lat="43.2475813" lon="-3.0099684">
<ele>237.582901</ele>
<time>2011-05-15T10:02:18.000Z</time>
</trkpt>
<trkpt lat="43.2476197" lon="-3.0101941">
<ele>240.947632</ele>
<time>2011-05-15T10:02:32.000Z</time>
</trkpt>
<trkpt lat="43.2476474" lon="-3.0104004">
<ele>243.350845</ele>
<time>2011-05-15T10:02:47.000Z</time>
</trkpt>
<trkpt lat="43.2476508" lon="-3.0105219">
<ele>246.234863</ele>
<time>2011-05-15T10:02:58.000Z</time>
</trkpt>
<trkpt lat="43.2476553" lon="-3.0106598">
<ele>249.599487</ele>
<time>2011-05-15T10:03:10.000Z</time>
</trkpt>
<trkpt lat="43.2476787" lon="-3.0108467">
<ele>251.522095</ele>
<time>2011-05-15T10:03:22.000Z</time>
</trkpt>
<trkpt lat="43.2476792" lon="-3.0108709">
<ele>252.483398</ele>
<time>2011-05-15T10:03:24.000Z</time>
</trkpt>
<trkpt lat="43.2477134" lon="-3.0109606">
<ele>253.925415</ele>
<time>2011-05-15T10:03:31.000Z</time>
</trkpt>
<trkpt lat="43.2477740" lon="-3.0111778">
<ele>256.809326</ele>
<time>2011-05-15T10:03:47.000Z</time>
</trkpt>
<trkpt lat="43.2478501" lon="-3.0113239">
<ele>259.693359</ele>
<time>2011-05-15T10:03:59.000Z</time>
</trkpt>
<trkpt lat="43.2479103" lon="-3.0113004">
<ele>262.577148</ele>
<time>2011-05-15T10:04:11.000Z</time>
</trkpt>
<trkpt lat="43.2479530" lon="-3.0112840">
<ele>264.980591</ele>
<time>2011-05-15T10:04:17.000Z</time>
</trkpt>
<trkpt lat="43.2479905" lon="-3.0113662">
<ele>268.825806</ele>
<time>2011-05-15T10:04:28.000Z</time>
</trkpt>
<trkpt lat="43.2479953" lon="-3.0113791">
<ele>268.825806</ele>
<time>2011-05-15T10:04:29.000Z</time>
</trkpt>
<trkpt lat="43.2480398" lon="-3.0114618">
<ele>269.306519</ele>
<time>2011-05-15T10:04:36.000Z</time>
</trkpt>
<trkpt lat="43.2480567" lon="-3.0115265">
<ele>269.787109</ele>
<time>2011-05-15T10:04:42.000Z</time>
</trkpt>
<trkpt lat="43.2481380" lon="-3.0115609">
<ele>274.113037</ele>
<time>2011-05-15T10:04:55.000Z</time>
</trkpt>
<trkpt lat="43.2481744" lon="-3.0115211">
<ele>276.035645</ele>
<time>2011-05-15T10:05:05.000Z</time>
</trkpt>
<trkpt lat="43.2482334" lon="-3.0114892">
<ele>277.958252</ele>
<time>2011-05-15T10:05:14.000Z</time>
</trkpt>
<trkpt lat="43.2482921" lon="-3.0114896">
<ele>280.842407</ele>
<time>2011-05-15T10:05:26.000Z</time>
</trkpt>
<trkpt lat="43.2482920" lon="-3.0115167">
<ele>282.284302</ele>
<time>2011-05-15T10:05:29.000Z</time>
</trkpt>
<trkpt lat="43.2482972" lon="-3.0115942">
<ele>284.206909</ele>
<time>2011-05-15T10:05:40.000Z</time>
</trkpt>
<trkpt lat="43.2483407" lon="-3.0117274">
<ele>286.129517</ele>
<time>2011-05-15T10:05:50.000Z</time>
</trkpt>
<trkpt lat="43.2483480" lon="-3.0117495">
<ele>287.090820</ele>
<time>2011-05-15T10:05:52.000Z</time>
</trkpt>
<trkpt lat="43.2483634" lon="-3.0118287">
<ele>289.013550</ele>
<time>2011-05-15T10:06:00.000Z</time>
</trkpt>
<trkpt lat="43.2483690" lon="-3.0119370">
<ele>289.494141</ele>
<time>2011-05-15T10:06:07.000Z</time>
</trkpt>
<trkpt lat="43.2484132" lon="-3.0121022">
<ele>292.858765</ele>
<time>2011-05-15T10:06:19.000Z</time>
</trkpt>
<trkpt lat="43.2484154" lon="-3.0121150">
<ele>292.858765</ele>
<time>2011-05-15T10:06:20.000Z</time>
</trkpt>
<trkpt lat="43.2484514" lon="-3.0122569">
<ele>295.261963</ele>
<time>2011-05-15T10:06:31.000Z</time>
</trkpt>
<trkpt lat="43.2484898" lon="-3.0124252">
<ele>298.146118</ele>
<time>2011-05-15T10:06:42.000Z</time>
</trkpt>
<trkpt lat="43.2485163" lon="-3.0125467">
<ele>300.549316</ele>
<time>2011-05-15T10:06:54.000Z</time>
</trkpt>
<trkpt lat="43.2485235" lon="-3.0125706">
<ele>301.991333</ele>
<time>2011-05-15T10:06:56.000Z</time>
</trkpt>
<trkpt lat="43.2485717" lon="-3.0127604">
<ele>305.355957</ele>
<time>2011-05-15T10:07:11.000Z</time>
</trkpt>
<trkpt lat="43.2485710" lon="-3.0127991">
<ele>306.317261</ele>
<time>2011-05-15T10:07:16.000Z</time>
</trkpt>
<trkpt lat="43.2486443" lon="-3.0129979">
<ele>310.162476</ele>
<time>2011-05-15T10:07:29.000Z</time>
</trkpt>
<trkpt lat="43.2486780" lon="-3.0131357">
<ele>312.565826</ele>
<time>2011-05-15T10:07:39.000Z</time>
</trkpt>
<trkpt lat="43.2487043" lon="-3.0132389">
<ele>314.488403</ele>
<time>2011-05-15T10:07:45.000Z</time>
</trkpt>
<trkpt lat="43.2487360" lon="-3.0133917">
<ele>317.853058</ele>
<time>2011-05-15T10:07:57.000Z</time>
</trkpt>
<trkpt lat="43.2487567" lon="-3.0134517">
<ele>318.333618</ele>
<time>2011-05-15T10:08:02.000Z</time>
</trkpt>
<trkpt lat="43.2488036" lon="-3.0136286">
<ele>322.178955</ele>
<time>2011-05-15T10:08:17.000Z</time>
</trkpt>
<trkpt lat="43.2488286" lon="-3.0136808">
<ele>323.140381</ele>
<time>2011-05-15T10:08:22.000Z</time>
</trkpt>
<trkpt lat="43.2488582" lon="-3.0138285">
<ele>326.985596</ele>
<time>2011-05-15T10:08:34.000Z</time>
</trkpt>
<trkpt lat="43.2488971" lon="-3.0139538">
<ele>329.869507</ele>
<time>2011-05-15T10:08:45.000Z</time>
</trkpt>
<trkpt lat="43.2489355" lon="-3.0141119">
<ele>332.753540</ele>
<time>2011-05-15T10:08:58.000Z</time>
</trkpt>
<trkpt lat="43.2489425" lon="-3.0141386">
<ele>334.195465</ele>
<time>2011-05-15T10:09:01.000Z</time>
</trkpt>
<trkpt lat="43.2489799" lon="-3.0142729">
<ele>336.598877</ele>
<time>2011-05-15T10:09:12.000Z</time>
</trkpt>
<trkpt lat="43.2490092" lon="-3.0142992">
<ele>337.560059</ele>
<time>2011-05-15T10:09:17.000Z</time>
</trkpt>
<trkpt lat="43.2490279" lon="-3.0141435">
<ele>337.079468</ele>
<time>2011-05-15T10:09:26.000Z</time>
</trkpt>
<trkpt lat="43.2490672" lon="-3.0138243">
<ele>339.482697</ele>
<time>2011-05-15T10:09:44.000Z</time>
</trkpt>
<trkpt lat="43.2490705" lon="-3.0137734">
<ele>339.482697</ele>
<time>2011-05-15T10:09:47.000Z</time>
</trkpt>
<trkpt lat="43.2490997" lon="-3.0137443">
<ele>339.963348</ele>
<time>2011-05-15T10:09:52.000Z</time>
</trkpt>
<trkpt lat="43.2491385" lon="-3.0138922">
<ele>343.808594</ele>
<time>2011-05-15T10:10:05.000Z</time>
</trkpt>
<trkpt lat="43.2491900" lon="-3.0140113">
<ele>347.173218</ele>
<time>2011-05-15T10:10:16.000Z</time>
</trkpt>
<trkpt lat="43.2492586" lon="-3.0141175">
<ele>350.537872</ele>
<time>2011-05-15T10:10:27.000Z</time>
</trkpt>
<trkpt lat="43.2493399" lon="-3.0143136">
<ele>353.421875</ele>
<time>2011-05-15T10:10:43.000Z</time>
</trkpt>
<trkpt lat="43.2494073" lon="-3.0144635">
<ele>355.825195</ele>
<time>2011-05-15T10:10:58.000Z</time>
</trkpt>
<trkpt lat="43.2494530" lon="-3.0145283">
<ele>359.189697</ele>
<time>2011-05-15T10:11:06.000Z</time>
</trkpt>
<trkpt lat="43.2495228" lon="-3.0144949">
<ele>362.554321</ele>
<time>2011-05-15T10:11:19.000Z</time>
</trkpt>
<trkpt lat="43.2495295" lon="-3.0144869">
<ele>363.035034</ele>
<time>2011-05-15T10:11:20.000Z</time>
</trkpt>
<trkpt lat="43.2495601" lon="-3.0144397">
<ele>364.476929</ele>
<time>2011-05-15T10:11:26.000Z</time>
</trkpt>
<trkpt lat="43.2496032" lon="-3.0143215">
<ele>367.360931</ele>
<time>2011-05-15T10:11:38.000Z</time>
</trkpt>
<trkpt lat="43.2496801" lon="-3.0142737">
<ele>370.725586</ele>
<time>2011-05-15T10:11:50.000Z</time>
</trkpt>
<trkpt lat="43.2496861" lon="-3.0142657">
<ele>370.725586</ele>
<time>2011-05-15T10:11:51.000Z</time>
</trkpt>
<trkpt lat="43.2497652" lon="-3.0142123">
<ele>374.090088</ele>
<time>2011-05-15T10:12:04.000Z</time>
</trkpt>
<trkpt lat="43.2497729" lon="-3.0142137">
<ele>374.090088</ele>
<time>2011-05-15T10:12:05.000Z</time>
</trkpt>
<trkpt lat="43.2498046" lon="-3.0142038">
<ele>375.532104</ele>
<time>2011-05-15T10:12:10.000Z</time>
</trkpt>
<trkpt lat="43.2498361" lon="-3.0141942">
<ele>376.974243</ele>
<time>2011-05-15T10:12:15.000Z</time>
</trkpt>
<trkpt lat="43.2499098" lon="-3.0141233">
<ele>379.858032</ele>
<time>2011-05-15T10:12:26.000Z</time>
</trkpt>
<trkpt lat="43.2499163" lon="-3.0141190">
<ele>380.338745</ele>
<time>2011-05-15T10:12:27.000Z</time>
</trkpt>
<trkpt lat="43.2499455" lon="-3.0141387">
<ele>381.300049</ele>
<time>2011-05-15T10:12:32.000Z</time>
</trkpt>
<trkpt lat="43.2499755" lon="-3.0142982">
<ele>384.664795</ele>
<time>2011-05-15T10:12:45.000Z</time>
</trkpt>
<trkpt lat="43.2499803" lon="-3.0143116">
<ele>384.664795</ele>
<time>2011-05-15T10:12:46.000Z</time>
</trkpt>
<trkpt lat="43.2500276" lon="-3.0144086">
<ele>386.587402</ele>
<time>2011-05-15T10:12:54.000Z</time>
</trkpt>
<trkpt lat="43.2501300" lon="-3.0145911">
<ele>388.510010</ele>
<time>2011-05-15T10:13:09.000Z</time>
</trkpt>
<trkpt lat="43.2502818" lon="-3.0147524">
<ele>388.990570</ele>
<time>2011-05-15T10:13:24.000Z</time>
</trkpt>
<trkpt lat="43.2503418" lon="-3.0147821">
<ele>386.106689</ele>
<time>2011-05-15T10:13:32.000Z</time>
</trkpt>
<trkpt lat="43.2503941" lon="-3.0148381">
<ele>388.029297</ele>
<time>2011-05-15T10:13:39.000Z</time>
</trkpt>
<trkpt lat="43.2503956" lon="-3.0148506">
<ele>388.029297</ele>
<time>2011-05-15T10:13:40.000Z</time>
</trkpt>
<trkpt lat="43.2504340" lon="-3.0149722">
<ele>391.874512</ele>
<time>2011-05-15T10:13:50.000Z</time>
</trkpt>
<trkpt lat="43.2504542" lon="-3.0151494">
<ele>394.758514</ele>
<time>2011-05-15T10:14:05.000Z</time>
</trkpt>
<trkpt lat="43.2504832" lon="-3.0152629">
<ele>398.123169</ele>
<time>2011-05-15T10:14:16.000Z</time>
</trkpt>
<trkpt lat="43.2505477" lon="-3.0154549">
<ele>401.007080</ele>
<time>2011-05-15T10:14:34.000Z</time>
</trkpt>
<trkpt lat="43.2505779" lon="-3.0155382">
<ele>403.891113</ele>
<time>2011-05-15T10:14:42.000Z</time>
</trkpt>
<trkpt lat="43.2506090" lon="-3.0157176">
<ele>407.255615</ele>
<time>2011-05-15T10:14:57.000Z</time>
</trkpt>
<trkpt lat="43.2506696" lon="-3.0158601">
<ele>410.620270</ele>
<time>2011-05-15T10:15:11.000Z</time>
</trkpt>
<trkpt lat="43.2506971" lon="-3.0159823">
<ele>413.984863</ele>
<time>2011-05-15T10:15:22.000Z</time>
</trkpt>
<trkpt lat="43.2507002" lon="-3.0161796">
<ele>414.946167</ele>
<time>2011-05-15T10:15:36.000Z</time>
</trkpt>
<trkpt lat="43.2506567" lon="-3.0164465">
<ele>416.388153</ele>
<time>2011-05-15T10:15:52.000Z</time>
</trkpt>
<trkpt lat="43.2506412" lon="-3.0165530">
<ele>417.349609</ele>
<time>2011-05-15T10:15:58.000Z</time>
</trkpt>
<trkpt lat="43.2506151" lon="-3.0166952">
<ele>417.830200</ele>
<time>2011-05-15T10:16:06.000Z</time>
</trkpt>
<trkpt lat="43.2505967" lon="-3.0168018">
<ele>418.310791</ele>
<time>2011-05-15T10:16:12.000Z</time>
</trkpt>
<trkpt lat="43.2505945" lon="-3.0168644">
<ele>417.830200</ele>
<time>2011-05-15T10:16:15.000Z</time>
</trkpt>
<trkpt lat="43.2505738" lon="-3.0169334">
<ele>417.830200</ele>
<time>2011-05-15T10:16:19.000Z</time>
</trkpt>
<trkpt lat="43.2505232" lon="-3.0171307">
<ele>418.310791</ele>
<time>2011-05-15T10:16:30.000Z</time>
</trkpt>
<trkpt lat="43.2505151" lon="-3.0172390">
<ele>420.714111</ele>
<time>2011-05-15T10:16:36.000Z</time>
</trkpt>
<trkpt lat="43.2505070" lon="-3.0173913">
<ele>422.156006</ele>
<time>2011-05-15T10:16:48.000Z</time>
</trkpt>
<trkpt lat="43.2504868" lon="-3.0175663">
<ele>425.040192</ele>
<time>2011-05-15T10:17:01.000Z</time>
</trkpt>
<trkpt lat="43.2504923" lon="-3.0176426">
<ele>426.962769</ele>
<time>2011-05-15T10:17:08.000Z</time>
</trkpt>
<trkpt lat="43.2504831" lon="-3.0177850">
<ele>429.365967</ele>
<time>2011-05-15T10:17:22.000Z</time>
</trkpt>
<trkpt lat="43.2504824" lon="-3.0178636">
<ele>432.730713</ele>
<time>2011-05-15T10:17:31.000Z</time>
</trkpt>
<trkpt lat="43.2504723" lon="-3.0178820">
<ele>433.211273</ele>
<time>2011-05-15T10:17:33.000Z</time>
</trkpt>
<trkpt lat="43.2504080" lon="-3.0180048">
<ele>435.133911</ele>
<time>2011-05-15T10:17:46.000Z</time>
</trkpt>
<trkpt lat="43.2503650" lon="-3.0181196">
<ele>437.056519</ele>
<time>2011-05-15T10:17:55.000Z</time>
</trkpt>
<trkpt lat="43.2502952" lon="-3.0182446">
<ele>438.498505</ele>
<time>2011-05-15T10:18:07.000Z</time>
</trkpt>
<trkpt lat="43.2502216" lon="-3.0184184">
<ele>440.421265</ele>
<time>2011-05-15T10:18:24.000Z</time>
</trkpt>
<trkpt lat="43.2501408" lon="-3.0185942">
<ele>441.382446</ele>
<time>2011-05-15T10:18:38.000Z</time>
</trkpt>
<trkpt lat="43.2501380" lon="-3.0186081">
<ele>441.382446</ele>
<time>2011-05-15T10:18:39.000Z</time>
</trkpt>
<trkpt lat="43.2500769" lon="-3.0187721">
<ele>442.343872</ele>
<time>2011-05-15T10:18:50.000Z</time>
</trkpt>
<trkpt lat="43.2500597" lon="-3.0188117">
<ele>443.785736</ele>
<time>2011-05-15T10:18:53.000Z</time>
</trkpt>
<trkpt lat="43.2500357" lon="-3.0188516">
<ele>442.824463</ele>
<time>2011-05-15T10:18:56.000Z</time>
</trkpt>
<trkpt lat="43.2499434" lon="-3.0190835">
<ele>444.266449</ele>
<time>2011-05-15T10:19:10.000Z</time>
</trkpt>
<trkpt lat="43.2498583" lon="-3.0194137">
<ele>446.669678</ele>
<time>2011-05-15T10:19:30.000Z</time>
</trkpt>
<trkpt lat="43.2497979" lon="-3.0195861">
<ele>448.592407</ele>
<time>2011-05-15T10:19:43.000Z</time>
</trkpt>
<trkpt lat="43.2497125" lon="-3.0196378">
<ele>446.669678</ele>
<time>2011-05-15T10:19:51.000Z</time>
</trkpt>
<trkpt lat="43.2496541" lon="-3.0196842">
<ele>446.189087</ele>
<time>2011-05-15T10:19:56.000Z</time>
</trkpt>
<trkpt lat="43.2494858" lon="-3.0198940">
<ele>447.630981</ele>
<time>2011-05-15T10:20:13.000Z</time>
</trkpt>
<trkpt lat="43.2493798" lon="-3.0200638">
<ele>450.515015</ele>
<time>2011-05-15T10:20:27.000Z</time>
</trkpt>
<trkpt lat="43.2492633" lon="-3.0202016">
<ele>453.879639</ele>
<time>2011-05-15T10:20:43.000Z</time>
</trkpt>
<trkpt lat="43.2491784" lon="-3.0203440">
<ele>457.244263</ele>
<time>2011-05-15T10:20:58.000Z</time>
</trkpt>
<trkpt lat="43.2489989" lon="-3.0205860">
<ele>458.686157</ele>
<time>2011-05-15T10:21:20.000Z</time>
</trkpt>
<trkpt lat="43.2488384" lon="-3.0207595">
<ele>460.608765</ele>
<time>2011-05-15T10:21:38.000Z</time>
</trkpt>
<trkpt lat="43.2487219" lon="-3.0209330">
<ele>463.973389</ele>
<time>2011-05-15T10:21:53.000Z</time>
</trkpt>
<trkpt lat="43.2487072" lon="-3.0209760">
<ele>465.415527</ele>
<time>2011-05-15T10:21:57.000Z</time>
</trkpt>
<trkpt lat="43.2486737" lon="-3.0210210">
<ele>466.857422</ele>
<time>2011-05-15T10:22:02.000Z</time>
</trkpt>
<trkpt lat="43.2485686" lon="-3.0211371">
<ele>469.741333</ele>
<time>2011-05-15T10:22:18.000Z</time>
</trkpt>
<trkpt lat="43.2484680" lon="-3.0211903">
<ele>473.106079</ele>
<time>2011-05-15T10:22:32.000Z</time>
</trkpt>
<trkpt lat="43.2484505" lon="-3.0212043">
<ele>474.547974</ele>
<time>2011-05-15T10:22:35.000Z</time>
</trkpt>
<trkpt lat="43.2483769" lon="-3.0212505">
<ele>477.912476</ele>
<time>2011-05-15T10:22:47.000Z</time>
</trkpt>
<trkpt lat="43.2483038" lon="-3.0212902">
<ele>480.796631</ele>
<time>2011-05-15T10:22:58.000Z</time>
</trkpt>
<trkpt lat="43.2482267" lon="-3.0213349">
<ele>483.680420</ele>
<time>2011-05-15T10:23:10.000Z</time>
</trkpt>
<trkpt lat="43.2481840" lon="-3.0213630">
<ele>486.083740</ele>
<time>2011-05-15T10:23:17.000Z</time>
</trkpt>
<trkpt lat="43.2481076" lon="-3.0213972">
<ele>489.448364</ele>
<time>2011-05-15T10:23:29.000Z</time>
</trkpt>
<trkpt lat="43.2480975" lon="-3.0214084">
<ele>490.409821</ele>
<time>2011-05-15T10:23:31.000Z</time>
</trkpt>
<trkpt lat="43.2480718" lon="-3.0214292">
<ele>491.851685</ele>
<time>2011-05-15T10:23:36.000Z</time>
</trkpt>
<trkpt lat="43.2480307" lon="-3.0214509">
<ele>493.774292</ele>
<time>2011-05-15T10:23:43.000Z</time>
</trkpt>
<trkpt lat="43.2479750" lon="-3.0214780">
<ele>496.658325</ele>
<time>2011-05-15T10:23:53.000Z</time>
</trkpt>
<trkpt lat="43.2479526" lon="-3.0214857">
<ele>498.100342</ele>
<time>2011-05-15T10:23:57.000Z</time>
</trkpt>
<trkpt lat="43.2479252" lon="-3.0214980">
<ele>499.061523</ele>
<time>2011-05-15T10:24:02.000Z</time>
</trkpt>
<trkpt lat="43.2478967" lon="-3.0215168">
<ele>500.503540</ele>
<time>2011-05-15T10:24:07.000Z</time>
</trkpt>
<trkpt lat="43.2478655" lon="-3.0215202">
<ele>501.945557</ele>
<time>2011-05-15T10:24:12.000Z</time>
</trkpt>
<trkpt lat="43.2478364" lon="-3.0215292">
<ele>502.906769</ele>
<time>2011-05-15T10:24:17.000Z</time>
</trkpt>
<trkpt lat="43.2477582" lon="-3.0215249">
<ele>506.752075</ele>
<time>2011-05-15T10:24:29.000Z</time>
</trkpt>
<trkpt lat="43.2477516" lon="-3.0215228">
<ele>506.752075</ele>
<time>2011-05-15T10:24:30.000Z</time>
</trkpt>
<trkpt lat="43.2476212" lon="-3.0214910">
<ele>510.597290</ele>
<time>2011-05-15T10:24:47.000Z</time>
</trkpt>
<trkpt lat="43.2475334" lon="-3.0215217">
<ele>513.481445</ele>
<time>2011-05-15T10:24:59.000Z</time>
</trkpt>
<trkpt lat="43.2475120" lon="-3.0215360">
<ele>514.923340</ele>
<time>2011-05-15T10:25:02.000Z</time>
</trkpt>
<trkpt lat="43.2473902" lon="-3.0216039">
<ele>517.807251</ele>
<time>2011-05-15T10:25:17.000Z</time>
</trkpt>
<trkpt lat="43.2473679" lon="-3.0216188">
<ele>518.768555</ele>
<time>2011-05-15T10:25:20.000Z</time>
</trkpt>
<trkpt lat="43.2473181" lon="-3.0216520">
<ele>520.691284</ele>
<time>2011-05-15T10:25:27.000Z</time>
</trkpt>
<trkpt lat="43.2472350" lon="-3.0217020">
<ele>524.055786</ele>
<time>2011-05-15T10:25:38.000Z</time>
</trkpt>
<trkpt lat="43.2472228" lon="-3.0217132">
<ele>525.017212</ele>
<time>2011-05-15T10:25:40.000Z</time>
</trkpt>
<trkpt lat="43.2471348" lon="-3.0217784">
<ele>527.901001</ele>
<time>2011-05-15T10:25:52.000Z</time>
</trkpt>
<trkpt lat="43.2470372" lon="-3.0218317">
<ele>531.265747</ele>
<time>2011-05-15T10:26:04.000Z</time>
</trkpt>
<trkpt lat="43.2469675" lon="-3.0218885">
<ele>532.227051</ele>
<time>2011-05-15T10:26:19.000Z</time>
</trkpt>
<trkpt lat="43.2469623" lon="-3.0218980">
<ele>533.668945</ele>
<time>2011-05-15T10:27:08.000Z</time>
</trkpt>
<trkpt lat="43.2469471" lon="-3.0219313">
<ele>534.149658</ele>
<time>2011-05-15T10:27:13.000Z</time>
</trkpt>
<trkpt lat="43.2469105" lon="-3.0219797">
<ele>535.591553</ele>
<time>2011-05-15T10:27:18.000Z</time>
</trkpt>
<trkpt lat="43.2468100" lon="-3.0220598">
<ele>539.436890</ele>
<time>2011-05-15T10:27:30.000Z</time>
</trkpt>
<trkpt lat="43.2467162" lon="-3.0221051">
<ele>542.320923</ele>
<time>2011-05-15T10:27:42.000Z</time>
</trkpt>
<trkpt lat="43.2466165" lon="-3.0220964">
<ele>546.166260</ele>
<time>2011-05-15T10:27:55.000Z</time>
</trkpt>
<trkpt lat="43.2466089" lon="-3.0220965">
<ele>546.166260</ele>
<time>2011-05-15T10:27:56.000Z</time>
</trkpt>
<trkpt lat="43.2465125" lon="-3.0220901">
<ele>549.530762</ele>
<time>2011-05-15T10:28:09.000Z</time>
</trkpt>
<trkpt lat="43.2464208" lon="-3.0220840">
<ele>552.895264</ele>
<time>2011-05-15T10:28:21.000Z</time>
</trkpt>
<trkpt lat="43.2464055" lon="-3.0220836">
<ele>553.856689</ele>
<time>2011-05-15T10:28:23.000Z</time>
</trkpt>
<trkpt lat="43.2463112" lon="-3.0220968">
<ele>557.221436</ele>
<time>2011-05-15T10:28:33.000Z</time>
</trkpt>
<trkpt lat="43.2463023" lon="-3.0220959">
<ele>557.221436</ele>
<time>2011-05-15T10:28:34.000Z</time>
</trkpt>
<trkpt lat="43.2461517" lon="-3.0220695">
<ele>559.624756</ele>
<time>2011-05-15T10:28:50.000Z</time>
</trkpt>
<trkpt lat="43.2461381" lon="-3.0220715">
<ele>561.066650</ele>
<time>2011-05-15T10:28:57.000Z</time>
</trkpt>
<trkpt lat="43.2461633" lon="-3.0221372">
<ele>561.066650</ele>
<time>2011-05-15T10:29:11.000Z</time>
</trkpt>
<trkpt lat="43.2462441" lon="-3.0222187">
<ele>559.144043</ele>
<time>2011-05-15T10:29:20.000Z</time>
</trkpt>
<trkpt lat="43.2463179" lon="-3.0222948">
<ele>559.144043</ele>
<time>2011-05-15T10:29:28.000Z</time>
</trkpt>
<trkpt lat="43.2464017" lon="-3.0222984">
<ele>554.817871</ele>
<time>2011-05-15T10:29:36.000Z</time>
</trkpt>
<trkpt lat="43.2464478" lon="-3.0223278">
<ele>552.414551</ele>
<time>2011-05-15T10:29:40.000Z</time>
</trkpt>
<trkpt lat="43.2464954" lon="-3.0223343">
<ele>550.011475</ele>
<time>2011-05-15T10:29:45.000Z</time>
</trkpt>
<trkpt lat="43.2465590" lon="-3.0223004">
<ele>547.608154</ele>
<time>2011-05-15T10:29:52.000Z</time>
</trkpt>
<trkpt lat="43.2466027" lon="-3.0222897">
<ele>545.204834</ele>
<time>2011-05-15T10:29:56.000Z</time>
</trkpt>
<trkpt lat="43.2466502" lon="-3.0222851">
<ele>543.762817</ele>
<time>2011-05-15T10:30:01.000Z</time>
</trkpt>
<trkpt lat="43.2466845" lon="-3.0223098">
<ele>541.359497</ele>
<time>2011-05-15T10:30:05.000Z</time>
</trkpt>
<trkpt lat="43.2466909" lon="-3.0223352">
<ele>540.398315</ele>
<time>2011-05-15T10:30:07.000Z</time>
</trkpt>
<trkpt lat="43.2467016" lon="-3.0223732">
<ele>539.436890</ele>
<time>2011-05-15T10:30:10.000Z</time>
</trkpt>
<trkpt lat="43.2467272" lon="-3.0224089">
<ele>537.514282</ele>
<time>2011-05-15T10:30:14.000Z</time>
</trkpt>
<trkpt lat="43.2467790" lon="-3.0224689">
<ele>537.033691</ele>
<time>2011-05-15T10:30:21.000Z</time>
</trkpt>
<trkpt lat="43.2467685" lon="-3.0225054">
<ele>535.110962</ele>
<time>2011-05-15T10:30:24.000Z</time>
</trkpt>
<trkpt lat="43.2467456" lon="-3.0225518">
<ele>533.188354</ele>
<time>2011-05-15T10:30:29.000Z</time>
</trkpt>
<trkpt lat="43.2467165" lon="-3.0226300">
<ele>529.823730</ele>
<time>2011-05-15T10:30:38.000Z</time>
</trkpt>
<trkpt lat="43.2467139" lon="-3.0226419">
<ele>530.304443</ele>
<time>2011-05-15T10:30:39.000Z</time>
</trkpt>
<trkpt lat="43.2466970" lon="-3.0227025">
<ele>527.420410</ele>
<time>2011-05-15T10:30:44.000Z</time>
</trkpt>
<trkpt lat="43.2466953" lon="-3.0227159">
<ele>526.939819</ele>
<time>2011-05-15T10:30:45.000Z</time>
</trkpt>
<trkpt lat="43.2466810" lon="-3.0227724">
<ele>525.497803</ele>
<time>2011-05-15T10:30:49.000Z</time>
</trkpt>
<trkpt lat="43.2466706" lon="-3.0228083">
<ele>524.055786</ele>
<time>2011-05-15T10:30:52.000Z</time>
</trkpt>
<trkpt lat="43.2466661" lon="-3.0228365">
<ele>522.613892</ele>
<time>2011-05-15T10:30:54.000Z</time>
</trkpt>
<trkpt lat="43.2466523" lon="-3.0228610">
<ele>521.652588</ele>
<time>2011-05-15T10:30:56.000Z</time>
</trkpt>
<trkpt lat="43.2466431" lon="-3.0229020">
<ele>519.729858</ele>
<time>2011-05-15T10:30:59.000Z</time>
</trkpt>
<trkpt lat="43.2466145" lon="-3.0229926">
<ele>515.884644</ele>
<time>2011-05-15T10:31:05.000Z</time>
</trkpt>
<trkpt lat="43.2466105" lon="-3.0230077">
<ele>516.365234</ele>
<time>2011-05-15T10:31:06.000Z</time>
</trkpt>
<trkpt lat="43.2465938" lon="-3.0230616">
<ele>513.962036</ele>
<time>2011-05-15T10:31:10.000Z</time>
</trkpt>
<trkpt lat="43.2466094" lon="-3.0231210">
<ele>511.558716</ele>
<time>2011-05-15T10:31:14.000Z</time>
</trkpt>
<trkpt lat="43.2466084" lon="-3.0231847">
<ele>509.636078</ele>
<time>2011-05-15T10:31:18.000Z</time>
</trkpt>
<trkpt lat="43.2466025" lon="-3.0232340">
<ele>507.713501</ele>
<time>2011-05-15T10:31:21.000Z</time>
</trkpt>
<trkpt lat="43.2465981" lon="-3.0232801">
<ele>505.790894</ele>
<time>2011-05-15T10:31:24.000Z</time>
</trkpt>
<trkpt lat="43.2465546" lon="-3.0233439">
<ele>503.387482</ele>
<time>2011-05-15T10:31:30.000Z</time>
</trkpt>
<trkpt lat="43.2465811" lon="-3.0234027">
<ele>500.503540</ele>
<time>2011-05-15T10:31:35.000Z</time>
</trkpt>
<trkpt lat="43.2465955" lon="-3.0234218">
<ele>499.061523</ele>
<time>2011-05-15T10:31:37.000Z</time>
</trkpt>
<trkpt lat="43.2466161" lon="-3.0234796">
<ele>495.696899</ele>
<time>2011-05-15T10:31:44.000Z</time>
</trkpt>
<trkpt lat="43.2465903" lon="-3.0235520">
<ele>491.370972</ele>
<time>2011-05-15T10:31:50.000Z</time>
</trkpt>
<trkpt lat="43.2465846" lon="-3.0235614">
<ele>490.890381</ele>
<time>2011-05-15T10:31:51.000Z</time>
</trkpt>
<trkpt lat="43.2465458" lon="-3.0236494">
<ele>488.006470</ele>
<time>2011-05-15T10:31:57.000Z</time>
</trkpt>
<trkpt lat="43.2465411" lon="-3.0236784">
<ele>487.045074</ele>
<time>2011-05-15T10:31:59.000Z</time>
</trkpt>
<trkpt lat="43.2465043" lon="-3.0237613">
<ele>483.680420</ele>
<time>2011-05-15T10:32:06.000Z</time>
</trkpt>
<trkpt lat="43.2464837" lon="-3.0238131">
<ele>479.835083</ele>
<time>2011-05-15T10:32:10.000Z</time>
</trkpt>
<trkpt lat="43.2464633" lon="-3.0238815">
<ele>478.393188</ele>
<time>2011-05-15T10:32:15.000Z</time>
</trkpt>
<trkpt lat="43.2464489" lon="-3.0239255">
<ele>476.470551</ele>
<time>2011-05-15T10:32:19.000Z</time>
</trkpt>
<trkpt lat="43.2464364" lon="-3.0239455">
<ele>475.028687</ele>
<time>2011-05-15T10:32:21.000Z</time>
</trkpt>
<trkpt lat="43.2464435" lon="-3.0240486">
<ele>471.663940</ele>
<time>2011-05-15T10:32:29.000Z</time>
</trkpt>
<trkpt lat="43.2464385" lon="-3.0240706">
<ele>471.183319</ele>
<time>2011-05-15T10:32:31.000Z</time>
</trkpt>
<trkpt lat="43.2464292" lon="-3.0240975">
<ele>469.260742</ele>
<time>2011-05-15T10:32:33.000Z</time>
</trkpt>
<trkpt lat="43.2464282" lon="-3.0241110">
<ele>468.780029</ele>
<time>2011-05-15T10:32:34.000Z</time>
</trkpt>
<trkpt lat="43.2464280" lon="-3.0241514">
<ele>467.818726</ele>
<time>2011-05-15T10:32:37.000Z</time>
</trkpt>
<trkpt lat="43.2464040" lon="-3.0242321">
<ele>463.973389</ele>
<time>2011-05-15T10:32:43.000Z</time>
</trkpt>
<trkpt lat="43.2463960" lon="-3.0242918">
<ele>461.089478</ele>
<time>2011-05-15T10:32:47.000Z</time>
</trkpt>
<trkpt lat="43.2463738" lon="-3.0243591">
<ele>458.686157</ele>
<time>2011-05-15T10:32:52.000Z</time>
</trkpt>
<trkpt lat="43.2463722" lon="-3.0243731">
<ele>458.205566</ele>
<time>2011-05-15T10:32:53.000Z</time>
</trkpt>
<trkpt lat="43.2463737" lon="-3.0243995">
<ele>456.763550</ele>
<time>2011-05-15T10:32:55.000Z</time>
</trkpt>
<trkpt lat="43.2463553" lon="-3.0244478">
<ele>455.321533</ele>
<time>2011-05-15T10:32:59.000Z</time>
</trkpt>
<trkpt lat="43.2463609" lon="-3.0245182">
<ele>452.437622</ele>
<time>2011-05-15T10:33:06.000Z</time>
</trkpt>
<trkpt lat="43.2463510" lon="-3.0246424">
<ele>448.592407</ele>
<time>2011-05-15T10:33:17.000Z</time>
</trkpt>
<trkpt lat="43.2463441" lon="-3.0247179">
<ele>444.747070</ele>
<time>2011-05-15T10:33:23.000Z</time>
</trkpt>
<trkpt lat="43.2463322" lon="-3.0247725">
<ele>444.266449</ele>
<time>2011-05-15T10:33:27.000Z</time>
</trkpt>
<trkpt lat="43.2463296" lon="-3.0248419">
<ele>441.863159</ele>
<time>2011-05-15T10:33:32.000Z</time>
</trkpt>
<trkpt lat="43.2463132" lon="-3.0249407">
<ele>438.017853</ele>
<time>2011-05-15T10:33:39.000Z</time>
</trkpt>
<trkpt lat="43.2462992" lon="-3.0250266">
<ele>436.095215</ele>
<time>2011-05-15T10:33:45.000Z</time>
</trkpt>
<trkpt lat="43.2462754" lon="-3.0251180">
<ele>432.730713</ele>
<time>2011-05-15T10:33:51.000Z</time>
</trkpt>
<trkpt lat="43.2462653" lon="-3.0251939">
<ele>429.846558</ele>
<time>2011-05-15T10:33:56.000Z</time>
</trkpt>
<trkpt lat="43.2462521" lon="-3.0253113">
<ele>427.443329</ele>
<time>2011-05-15T10:34:04.000Z</time>
</trkpt>
<trkpt lat="43.2462372" lon="-3.0254644">
<ele>423.598022</ele>
<time>2011-05-15T10:34:13.000Z</time>
</trkpt>
<trkpt lat="43.2462339" lon="-3.0254835">
<ele>424.078735</ele>
<time>2011-05-15T10:34:14.000Z</time>
</trkpt>
<trkpt lat="43.2462403" lon="-3.0255934">
<ele>421.194824</ele>
<time>2011-05-15T10:34:20.000Z</time>
</trkpt>
<trkpt lat="43.2462737" lon="-3.0258057">
<ele>417.349609</ele>
<time>2011-05-15T10:34:32.000Z</time>
</trkpt>
<trkpt lat="43.2462829" lon="-3.0258240">
<ele>416.868866</ele>
<time>2011-05-15T10:34:38.000Z</time>
</trkpt>
<trkpt lat="43.2462887" lon="-3.0258124">
<ele>417.349609</ele>
<time>2011-05-15T10:36:04.000Z</time>
</trkpt>
<trkpt lat="43.2462862" lon="-3.0258225">
<ele>417.349609</ele>
<time>2011-05-15T10:36:11.000Z</time>
</trkpt>
<trkpt lat="43.2463122" lon="-3.0259313">
<ele>416.868866</ele>
<time>2011-05-15T10:36:18.000Z</time>
</trkpt>
<trkpt lat="43.2463638" lon="-3.0260189">
<ele>414.946167</ele>
<time>2011-05-15T10:36:24.000Z</time>
</trkpt>
<trkpt lat="43.2463900" lon="-3.0260456">
<ele>413.984863</ele>
<time>2011-05-15T10:36:27.000Z</time>
</trkpt>
<trkpt lat="43.2464062" lon="-3.0260845">
<ele>413.023560</ele>
<time>2011-05-15T10:36:29.000Z</time>
</trkpt>
<trkpt lat="43.2464286" lon="-3.0261353">
<ele>413.023560</ele>
<time>2011-05-15T10:36:32.000Z</time>
</trkpt>
<trkpt lat="43.2464970" lon="-3.0263845">
<ele>411.581635</ele>
<time>2011-05-15T10:36:47.000Z</time>
</trkpt>
<trkpt lat="43.2466310" lon="-3.0266036">
<ele>411.581635</ele>
<time>2011-05-15T10:37:04.000Z</time>
</trkpt>
<trkpt lat="43.2468287" lon="-3.0268814">
<ele>411.581635</ele>
<time>2011-05-15T10:37:25.000Z</time>
</trkpt>
<trkpt lat="43.2468602" lon="-3.0269259">
<ele>408.697632</ele>
<time>2011-05-15T10:37:28.000Z</time>
</trkpt>
<trkpt lat="43.2468695" lon="-3.0269420">
<ele>408.697632</ele>
<time>2011-05-15T10:37:29.000Z</time>
</trkpt>
<trkpt lat="43.2469220" lon="-3.0270487">
<ele>408.697632</ele>
<time>2011-05-15T10:37:36.000Z</time>
</trkpt>
<trkpt lat="43.2470222" lon="-3.0273002">
<ele>405.813690</ele>
<time>2011-05-15T10:37:50.000Z</time>
</trkpt>
<trkpt lat="43.2471420" lon="-3.0275743">
<ele>404.371704</ele>
<time>2011-05-15T10:38:05.000Z</time>
</trkpt>
<trkpt lat="43.2471574" lon="-3.0276961">
<ele>403.891113</ele>
<time>2011-05-15T10:38:11.000Z</time>
</trkpt>
<trkpt lat="43.2470506" lon="-3.0279174">
<ele>400.526459</ele>
<time>2011-05-15T10:38:26.000Z</time>
</trkpt>
<trkpt lat="43.2468368" lon="-3.0279850">
<ele>398.603760</ele>
<time>2011-05-15T10:38:41.000Z</time>
</trkpt>
<trkpt lat="43.2467155" lon="-3.0282172">
<ele>397.161743</ele>
<time>2011-05-15T10:38:55.000Z</time>
</trkpt>
<trkpt lat="43.2466507" lon="-3.0285062">
<ele>395.239136</ele>
<time>2011-05-15T10:39:10.000Z</time>
</trkpt>
<trkpt lat="43.2466048" lon="-3.0286129">
<ele>393.316528</ele>
<time>2011-05-15T10:39:16.000Z</time>
</trkpt>
<trkpt lat="43.2465239" lon="-3.0288554">
<ele>390.913208</ele>
<time>2011-05-15T10:39:29.000Z</time>
</trkpt>
<trkpt lat="43.2464799" lon="-3.0291579">
<ele>388.990570</ele>
<time>2011-05-15T10:39:44.000Z</time>
</trkpt>
<trkpt lat="43.2464727" lon="-3.0292287">
<ele>388.510010</ele>
<time>2011-05-15T10:39:48.000Z</time>
</trkpt>
<trkpt lat="43.2464085" lon="-3.0294602">
<ele>386.587402</ele>
<time>2011-05-15T10:40:02.000Z</time>
</trkpt>
<trkpt lat="43.2463373" lon="-3.0295153">
<ele>385.625977</ele>
<time>2011-05-15T10:40:07.000Z</time>
</trkpt>
<trkpt lat="43.2461643" lon="-3.0296061">
<ele>384.664795</ele>
<time>2011-05-15T10:40:20.000Z</time>
</trkpt>
<trkpt lat="43.2459934" lon="-3.0296261">
<ele>383.703247</ele>
<time>2011-05-15T10:40:32.000Z</time>
</trkpt>
<trkpt lat="43.2457636" lon="-3.0295998">
<ele>383.703247</ele>
<time>2011-05-15T10:40:47.000Z</time>
</trkpt>
<trkpt lat="43.2455543" lon="-3.0295708">
<ele>383.222687</ele>
<time>2011-05-15T10:41:01.000Z</time>
</trkpt>
<trkpt lat="43.2453203" lon="-3.0295326">
<ele>383.703247</ele>
<time>2011-05-15T10:41:17.000Z</time>
</trkpt>
<trkpt lat="43.2451099" lon="-3.0295322">
<ele>383.703247</ele>
<time>2011-05-15T10:41:31.000Z</time>
</trkpt>
<trkpt lat="43.2449021" lon="-3.0295045">
<ele>383.703247</ele>
<time>2011-05-15T10:41:47.000Z</time>
</trkpt>
<trkpt lat="43.2446966" lon="-3.0294603">
<ele>385.145386</ele>
<time>2011-05-15T10:42:01.000Z</time>
</trkpt>
<trkpt lat="43.2444709" lon="-3.0294702">
<ele>385.625977</ele>
<time>2011-05-15T10:42:16.000Z</time>
</trkpt>
<trkpt lat="43.2442256" lon="-3.0295053">
<ele>388.029297</ele>
<time>2011-05-15T10:42:33.000Z</time>
</trkpt>
<trkpt lat="43.2440515" lon="-3.0294155">
<ele>386.587402</ele>
<time>2011-05-15T10:42:46.000Z</time>
</trkpt>
<trkpt lat="43.2438811" lon="-3.0292921">
<ele>385.145386</ele>
<time>2011-05-15T10:42:59.000Z</time>
</trkpt>
<trkpt lat="43.2436620" lon="-3.0292187">
<ele>386.106689</ele>
<time>2011-05-15T10:43:13.000Z</time>
</trkpt>
<trkpt lat="43.2435901" lon="-3.0292118">
<ele>385.625977</ele>
<time>2011-05-15T10:43:18.000Z</time>
</trkpt>
<trkpt lat="43.2433870" lon="-3.0292160">
<ele>386.106689</ele>
<time>2011-05-15T10:43:32.000Z</time>
</trkpt>
<trkpt lat="43.2433270" lon="-3.0291927">
<ele>386.587402</ele>
<time>2011-05-15T10:43:36.000Z</time>
</trkpt>
<trkpt lat="43.2432594" lon="-3.0291702">
<ele>386.106689</ele>
<time>2011-05-15T10:43:41.000Z</time>
</trkpt>
<trkpt lat="43.2431293" lon="-3.0291641">
<ele>388.029297</ele>
<time>2011-05-15T10:43:51.000Z</time>
</trkpt>
<trkpt lat="43.2429399" lon="-3.0291669">
<ele>389.951904</ele>
<time>2011-05-15T10:44:04.000Z</time>
</trkpt>
<trkpt lat="43.2428461" lon="-3.0291782">
<ele>390.913208</ele>
<time>2011-05-15T10:44:11.000Z</time>
</trkpt>
<trkpt lat="43.2426166" lon="-3.0292086">
<ele>393.316528</ele>
<time>2011-05-15T10:44:29.000Z</time>
</trkpt>
<trkpt lat="43.2425370" lon="-3.0292470">
<ele>395.719849</ele>
<time>2011-05-15T10:44:36.000Z</time>
</trkpt>
<trkpt lat="43.2423865" lon="-3.0294325">
<ele>397.642456</ele>
<time>2011-05-15T10:44:52.000Z</time>
</trkpt>
<trkpt lat="43.2422789" lon="-3.0296419">
<ele>398.123169</ele>
<time>2011-05-15T10:45:06.000Z</time>
</trkpt>
<trkpt lat="43.2421938" lon="-3.0298343">
<ele>396.200562</ele>
<time>2011-05-15T10:45:19.000Z</time>
</trkpt>
<trkpt lat="43.2421703" lon="-3.0300189">
<ele>396.200562</ele>
<time>2011-05-15T10:45:30.000Z</time>
</trkpt>
<trkpt lat="43.2421619" lon="-3.0300524">
<ele>395.239136</ele>
<time>2011-05-15T10:45:32.000Z</time>
</trkpt>
<trkpt lat="43.2421633" lon="-3.0301276">
<ele>394.758514</ele>
<time>2011-05-15T10:45:36.000Z</time>
</trkpt>
<trkpt lat="43.2421475" lon="-3.0304212">
<ele>395.719849</ele>
<time>2011-05-15T10:45:51.000Z</time>
</trkpt>
<trkpt lat="43.2421464" lon="-3.0304639">
<ele>396.200562</ele>
<time>2011-05-15T10:45:53.000Z</time>
</trkpt>
<trkpt lat="43.2421623" lon="-3.0305481">
<ele>397.642456</ele>
<time>2011-05-15T10:45:57.000Z</time>
</trkpt>
<trkpt lat="43.2423006" lon="-3.0307540">
<ele>397.161743</ele>
<time>2011-05-15T10:46:11.000Z</time>
</trkpt>
<trkpt lat="43.2423240" lon="-3.0308083">
<ele>397.161743</ele>
<time>2011-05-15T10:46:14.000Z</time>
</trkpt>
<trkpt lat="43.2422209" lon="-3.0311265">
<ele>396.681152</ele>
<time>2011-05-15T10:46:31.000Z</time>
</trkpt>
<trkpt lat="43.2421395" lon="-3.0313399">
<ele>394.758514</ele>
<time>2011-05-15T10:46:44.000Z</time>
</trkpt>
<trkpt lat="43.2421124" lon="-3.0313886">
<ele>393.316528</ele>
<time>2011-05-15T10:46:47.000Z</time>
</trkpt>
<trkpt lat="43.2420541" lon="-3.0314734">
<ele>391.393799</ele>
<time>2011-05-15T10:46:53.000Z</time>
</trkpt>
<trkpt lat="43.2420157" lon="-3.0315102">
<ele>389.951904</ele>
<time>2011-05-15T10:46:57.000Z</time>
</trkpt>
<trkpt lat="43.2419349" lon="-3.0315396">
<ele>388.990570</ele>
<time>2011-05-15T10:47:03.000Z</time>
</trkpt>
<trkpt lat="43.2417796" lon="-3.0314791">
<ele>388.990570</ele>
<time>2011-05-15T10:47:16.000Z</time>
</trkpt>
<trkpt lat="43.2417481" lon="-3.0314432">
<ele>389.471191</ele>
<time>2011-05-15T10:47:19.000Z</time>
</trkpt>
<trkpt lat="43.2417170" lon="-3.0313917">
<ele>389.471191</ele>
<time>2011-05-15T10:47:23.000Z</time>
</trkpt>
<trkpt lat="43.2415743" lon="-3.0312700">
<ele>392.835938</ele>
<time>2011-05-15T10:47:36.000Z</time>
</trkpt>
<trkpt lat="43.2413553" lon="-3.0311870">
<ele>395.719849</ele>
<time>2011-05-15T10:47:54.000Z</time>
</trkpt>
<trkpt lat="43.2411793" lon="-3.0312227">
<ele>398.603760</ele>
<time>2011-05-15T10:48:09.000Z</time>
</trkpt>
<trkpt lat="43.2411227" lon="-3.0312326">
<ele>398.603760</ele>
<time>2011-05-15T10:48:13.000Z</time>
</trkpt>
<trkpt lat="43.2410382" lon="-3.0312549">
<ele>400.045898</ele>
<time>2011-05-15T10:48:21.000Z</time>
</trkpt>
<trkpt lat="43.2410047" lon="-3.0312612">
<ele>401.007080</ele>
<time>2011-05-15T10:48:24.000Z</time>
</trkpt>
<trkpt lat="43.2408205" lon="-3.0313123">
<ele>403.410400</ele>
<time>2011-05-15T10:48:40.000Z</time>
</trkpt>
<trkpt lat="43.2407571" lon="-3.0313485">
<ele>403.891113</ele>
<time>2011-05-15T10:48:46.000Z</time>
</trkpt>
<trkpt lat="43.2407289" lon="-3.0313495">
<ele>404.371704</ele>
<time>2011-05-15T10:48:48.000Z</time>
</trkpt>
<trkpt lat="43.2405581" lon="-3.0315007">
<ele>406.774902</ele>
<time>2011-05-15T10:49:05.000Z</time>
</trkpt>
<trkpt lat="43.2403691" lon="-3.0314609">
<ele>410.620270</ele>
<time>2011-05-15T10:49:20.000Z</time>
</trkpt>
<trkpt lat="43.2402047" lon="-3.0313869">
<ele>413.504272</ele>
<time>2011-05-15T10:49:35.000Z</time>
</trkpt>
<trkpt lat="43.2401616" lon="-3.0313898">
<ele>413.984863</ele>
<time>2011-05-15T10:49:39.000Z</time>
</trkpt>
<trkpt lat="43.2401039" lon="-3.0313920">
<ele>414.946167</ele>
<time>2011-05-15T10:49:44.000Z</time>
</trkpt>
<trkpt lat="43.2398974" lon="-3.0314875">
<ele>418.310791</ele>
<time>2011-05-15T10:50:00.000Z</time>
</trkpt>
<trkpt lat="43.2397162" lon="-3.0316405">
<ele>420.233398</ele>
<time>2011-05-15T10:50:16.000Z</time>
</trkpt>
<trkpt lat="43.2395868" lon="-3.0317557">
<ele>422.636719</ele>
<time>2011-05-15T10:50:30.000Z</time>
</trkpt>
<trkpt lat="43.2394226" lon="-3.0318529">
<ele>425.040192</ele>
<time>2011-05-15T10:50:46.000Z</time>
</trkpt>
<trkpt lat="43.2392750" lon="-3.0319177">
<ele>426.482056</ele>
<time>2011-05-15T10:50:58.000Z</time>
</trkpt>
<trkpt lat="43.2391180" lon="-3.0320376">
<ele>429.365967</ele>
<time>2011-05-15T10:51:12.000Z</time>
</trkpt>
<trkpt lat="43.2389435" lon="-3.0321698">
<ele>432.250000</ele>
<time>2011-05-15T10:51:31.000Z</time>
</trkpt>
<trkpt lat="43.2388353" lon="-3.0322639">
<ele>434.653320</ele>
<time>2011-05-15T10:51:44.000Z</time>
</trkpt>
<trkpt lat="43.2386946" lon="-3.0323827">
<ele>437.056519</ele>
<time>2011-05-15T10:51:58.000Z</time>
</trkpt>
<trkpt lat="43.2385913" lon="-3.0324947">
<ele>438.017853</ele>
<time>2011-05-15T10:52:11.000Z</time>
</trkpt>
<trkpt lat="43.2384866" lon="-3.0326700">
<ele>440.421265</ele>
<time>2011-05-15T10:52:25.000Z</time>
</trkpt>
<trkpt lat="43.2383603" lon="-3.0327942">
<ele>443.305084</ele>
<time>2011-05-15T10:52:39.000Z</time>
</trkpt>
<trkpt lat="43.2382551" lon="-3.0329245">
<ele>445.708374</ele>
<time>2011-05-15T10:52:51.000Z</time>
</trkpt>
<trkpt lat="43.2382691" lon="-3.0331780">
<ele>450.515015</ele>
<time>2011-05-15T10:53:06.000Z</time>
</trkpt>
<trkpt lat="43.2384021" lon="-3.0334387">
<ele>450.515015</ele>
<time>2011-05-15T10:53:25.000Z</time>
</trkpt>
<trkpt lat="43.2384472" lon="-3.0334845">
<ele>450.995605</ele>
<time>2011-05-15T10:53:30.000Z</time>
</trkpt>
<trkpt lat="43.2384912" lon="-3.0336235">
<ele>450.515015</ele>
<time>2011-05-15T10:53:39.000Z</time>
</trkpt>
<trkpt lat="43.2385498" lon="-3.0337413">
<ele>452.437622</ele>
<time>2011-05-15T10:53:48.000Z</time>
</trkpt>
<trkpt lat="43.2386912" lon="-3.0340592">
<ele>454.840820</ele>
<time>2011-05-15T10:54:10.000Z</time>
</trkpt>
<trkpt lat="43.2388108" lon="-3.0343997">
<ele>456.763550</ele>
<time>2011-05-15T10:54:31.000Z</time>
</trkpt>
<trkpt lat="43.2389021" lon="-3.0347328">
<ele>458.205566</ele>
<time>2011-05-15T10:54:49.000Z</time>
</trkpt>
<trkpt lat="43.2389859" lon="-3.0351275">
<ele>457.725006</ele>
<time>2011-05-15T10:55:10.000Z</time>
</trkpt>
<trkpt lat="43.2390358" lon="-3.0354666">
<ele>459.166870</ele>
<time>2011-05-15T10:55:28.000Z</time>
</trkpt>
<trkpt lat="43.2390998" lon="-3.0357719">
<ele>460.608765</ele>
<time>2011-05-15T10:55:45.000Z</time>
</trkpt>
<trkpt lat="43.2392152" lon="-3.0360635">
<ele>461.089478</ele>
<time>2011-05-15T10:56:03.000Z</time>
</trkpt>
<trkpt lat="43.2391547" lon="-3.0363037">
<ele>462.531372</ele>
<time>2011-05-15T10:56:19.000Z</time>
</trkpt>
<trkpt lat="43.2390935" lon="-3.0364299">
<ele>462.050781</ele>
<time>2011-05-15T10:56:29.000Z</time>
</trkpt>
<trkpt lat="43.2390837" lon="-3.0364950">
<ele>463.012085</ele>
<time>2011-05-15T10:56:33.000Z</time>
</trkpt>
<trkpt lat="43.2390310" lon="-3.0365753">
<ele>462.531372</ele>
<time>2011-05-15T10:56:40.000Z</time>
</trkpt>
<trkpt lat="43.2389927" lon="-3.0366354">
<ele>463.012085</ele>
<time>2011-05-15T10:56:45.000Z</time>
</trkpt>
<trkpt lat="43.2388997" lon="-3.0368581">
<ele>464.454102</ele>
<time>2011-05-15T10:56:58.000Z</time>
</trkpt>
<trkpt lat="43.2388698" lon="-3.0368808">
<ele>464.454102</ele>
<time>2011-05-15T10:57:01.000Z</time>
</trkpt>
<trkpt lat="43.2388420" lon="-3.0369040">
<ele>464.934814</ele>
<time>2011-05-15T10:57:04.000Z</time>
</trkpt>
<trkpt lat="43.2387000" lon="-3.0371337">
<ele>467.818726</ele>
<time>2011-05-15T10:57:18.000Z</time>
</trkpt>
<trkpt lat="43.2386689" lon="-3.0371499">
<ele>469.260742</ele>
<time>2011-05-15T10:57:21.000Z</time>
</trkpt>
<trkpt lat="43.2386159" lon="-3.0372016">
<ele>471.663940</ele>
<time>2011-05-15T10:57:28.000Z</time>
</trkpt>
<trkpt lat="43.2385673" lon="-3.0375557">
<ele>473.106079</ele>
<time>2011-05-15T10:57:44.000Z</time>
</trkpt>
<trkpt lat="43.2385638" lon="-3.0377144">
<ele>474.547974</ele>
<time>2011-05-15T10:57:52.000Z</time>
</trkpt>
<trkpt lat="43.2385771" lon="-3.0380164">
<ele>475.989899</ele>
<time>2011-05-15T10:58:08.000Z</time>
</trkpt>
<trkpt lat="43.2385776" lon="-3.0381698">
<ele>477.912476</ele>
<time>2011-05-15T10:58:18.000Z</time>
</trkpt>
<trkpt lat="43.2385518" lon="-3.0382397">
<ele>479.354492</ele>
<time>2011-05-15T10:58:23.000Z</time>
</trkpt>
<trkpt lat="43.2385183" lon="-3.0384966">
<ele>479.835083</ele>
<time>2011-05-15T10:58:39.000Z</time>
</trkpt>
<trkpt lat="43.2385156" lon="-3.0386242">
<ele>480.796631</ele>
<time>2011-05-15T10:58:46.000Z</time>
</trkpt>
<trkpt lat="43.2385265" lon="-3.0388640">
<ele>481.757782</ele>
<time>2011-05-15T10:58:59.000Z</time>
</trkpt>
<trkpt lat="43.2385607" lon="-3.0391733">
<ele>484.641846</ele>
<time>2011-05-15T10:59:18.000Z</time>
</trkpt>
<trkpt lat="43.2385610" lon="-3.0392170">
<ele>485.122437</ele>
<time>2011-05-15T10:59:21.000Z</time>
</trkpt>
<trkpt lat="43.2386011" lon="-3.0394363">
<ele>488.487183</ele>
<time>2011-05-15T10:59:36.000Z</time>
</trkpt>
<trkpt lat="43.2386420" lon="-3.0397775">
<ele>490.409821</ele>
<time>2011-05-15T10:59:56.000Z</time>
</trkpt>
<trkpt lat="43.2387170" lon="-3.0400739">
<ele>491.851685</ele>
<time>2011-05-15T11:00:15.000Z</time>
</trkpt>
<trkpt lat="43.2387454" lon="-3.0401742">
<ele>493.293579</ele>
<time>2011-05-15T11:00:22.000Z</time>
</trkpt>
<trkpt lat="43.2387430" lon="-3.0402088">
<ele>493.293579</ele>
<time>2011-05-15T11:00:24.000Z</time>
</trkpt>
<trkpt lat="43.2387492" lon="-3.0405412">
<ele>496.658325</ele>
<time>2011-05-15T11:00:45.000Z</time>
</trkpt>
<trkpt lat="43.2387647" lon="-3.0407696">
<ele>499.542236</ele>
<time>2011-05-15T11:01:01.000Z</time>
</trkpt>
<trkpt lat="43.2387705" lon="-3.0407816">
<ele>500.022949</ele>
<time>2011-05-15T11:01:02.000Z</time>
</trkpt>
<trkpt lat="43.2387741" lon="-3.0408255">
<ele>500.984131</ele>
<time>2011-05-15T11:01:05.000Z</time>
</trkpt>
<trkpt lat="43.2388222" lon="-3.0411090">
<ele>503.868134</ele>
<time>2011-05-15T11:01:25.000Z</time>
</trkpt>
<trkpt lat="43.2388470" lon="-3.0412369">
<ele>505.310181</ele>
<time>2011-05-15T11:01:37.000Z</time>
</trkpt>
<trkpt lat="43.2388736" lon="-3.0413861">
<ele>508.674713</ele>
<time>2011-05-15T11:01:48.000Z</time>
</trkpt>
<trkpt lat="43.2389160" lon="-3.0415661">
<ele>510.116699</ele>
<time>2011-05-15T11:02:02.000Z</time>
</trkpt>
<trkpt lat="43.2389558" lon="-3.0417591">
<ele>513.481445</ele>
<time>2011-05-15T11:02:16.000Z</time>
</trkpt>
<trkpt lat="43.2389176" lon="-3.0418335">
<ele>513.962036</ele>
<time>2011-05-15T11:02:24.000Z</time>
</trkpt>
<trkpt lat="43.2388369" lon="-3.0419315">
<ele>515.884644</ele>
<time>2011-05-15T11:02:37.000Z</time>
</trkpt>
<trkpt lat="43.2387399" lon="-3.0420485">
<ele>519.729858</ele>
<time>2011-05-15T11:02:53.000Z</time>
</trkpt>
<trkpt lat="43.2387338" lon="-3.0420543">
<ele>519.729858</ele>
<time>2011-05-15T11:02:54.000Z</time>
</trkpt>
<trkpt lat="43.2386630" lon="-3.0421211">
<ele>522.613892</ele>
<time>2011-05-15T11:03:05.000Z</time>
</trkpt>
<trkpt lat="43.2385979" lon="-3.0421751">
<ele>525.978394</ele>
<time>2011-05-15T11:03:16.000Z</time>
</trkpt>
<trkpt lat="43.2385011" lon="-3.0422052">
<ele>529.343140</ele>
<time>2011-05-15T11:03:30.000Z</time>
</trkpt>
<trkpt lat="43.2384275" lon="-3.0422779">
<ele>532.227051</ele>
<time>2011-05-15T11:03:40.000Z</time>
</trkpt>
<trkpt lat="43.2383530" lon="-3.0422939">
<ele>532.227051</ele>
<time>2011-05-15T11:03:50.000Z</time>
</trkpt>
<trkpt lat="43.2383289" lon="-3.0422371">
<ele>531.746338</ele>
<time>2011-05-15T11:03:56.000Z</time>
</trkpt>
<trkpt lat="43.2383253" lon="-3.0422074">
<ele>532.227051</ele>
<time>2011-05-15T11:03:59.000Z</time>
</trkpt>
<trkpt lat="43.2382950" lon="-3.0422905">
<ele>535.110962</ele>
<time>2011-05-15T11:04:10.000Z</time>
</trkpt>
<trkpt lat="43.2382442" lon="-3.0423259">
<ele>537.994995</ele>
<time>2011-05-15T11:04:20.000Z</time>
</trkpt>
<trkpt lat="43.2382260" lon="-3.0423388">
<ele>539.436890</ele>
<time>2011-05-15T11:04:23.000Z</time>
</trkpt>
<trkpt lat="43.2381795" lon="-3.0423738">
<ele>542.320923</ele>
<time>2011-05-15T11:04:32.000Z</time>
</trkpt>
<trkpt lat="43.2381188" lon="-3.0424388">
<ele>545.685547</ele>
<time>2011-05-15T11:04:45.000Z</time>
</trkpt>
<trkpt lat="43.2380415" lon="-3.0424608">
<ele>549.050049</ele>
<time>2011-05-15T11:04:57.000Z</time>
</trkpt>
<trkpt lat="43.2380079" lon="-3.0424796">
<ele>550.972656</ele>
<time>2011-05-15T11:05:03.000Z</time>
</trkpt>
<trkpt lat="43.2379534" lon="-3.0425133">
<ele>553.856689</ele>
<time>2011-05-15T11:05:14.000Z</time>
</trkpt>
<trkpt lat="43.2379048" lon="-3.0425460">
<ele>557.221436</ele>
<time>2011-05-15T11:05:24.000Z</time>
</trkpt>
<trkpt lat="43.2379022" lon="-3.0425579">
<ele>557.702148</ele>
<time>2011-05-15T11:05:26.000Z</time>
</trkpt>
<trkpt lat="43.2378598" lon="-3.0425998">
<ele>560.585938</ele>
<time>2011-05-15T11:05:36.000Z</time>
</trkpt>
<trkpt lat="43.2377691" lon="-3.0426221">
<ele>564.431152</ele>
<time>2011-05-15T11:05:50.000Z</time>
</trkpt>
<trkpt lat="43.2377603" lon="-3.0426320">
<ele>564.911865</ele>
<time>2011-05-15T11:05:52.000Z</time>
</trkpt>
<trkpt lat="43.2377058" lon="-3.0426566">
<ele>568.276367</ele>
<time>2011-05-15T11:06:03.000Z</time>
</trkpt>
<trkpt lat="43.2376338" lon="-3.0427016">
<ele>571.640869</ele>
<time>2011-05-15T11:06:19.000Z</time>
</trkpt>
<trkpt lat="43.2376236" lon="-3.0427060">
<ele>571.640869</ele>
<time>2011-05-15T11:06:21.000Z</time>
</trkpt>
<trkpt lat="43.2375899" lon="-3.0427298">
<ele>575.005859</ele>
<time>2011-05-15T11:06:29.000Z</time>
</trkpt>
<trkpt lat="43.2375810" lon="-3.0427526">
<ele>576.447754</ele>
<time>2011-05-15T11:06:34.000Z</time>
</trkpt>
<trkpt lat="43.2375330" lon="-3.0427883">
<ele>579.812256</ele>
<time>2011-05-15T11:06:46.000Z</time>
</trkpt>
<trkpt lat="43.2374656" lon="-3.0428028">
<ele>582.696289</ele>
<time>2011-05-15T11:06:57.000Z</time>
</trkpt>
<trkpt lat="43.2374024" lon="-3.0428599">
<ele>586.060791</ele>
<time>2011-05-15T11:07:10.000Z</time>
</trkpt>
<trkpt lat="43.2373413" lon="-3.0429244">
<ele>588.945068</ele>
<time>2011-05-15T11:07:23.000Z</time>
</trkpt>
<trkpt lat="43.2373017" lon="-3.0429660">
<ele>591.828857</ele>
<time>2011-05-15T11:07:31.000Z</time>
</trkpt>
<trkpt lat="43.2372406" lon="-3.0430160">
<ele>593.751465</ele>
<time>2011-05-15T11:07:42.000Z</time>
</trkpt>
<trkpt lat="43.2371914" lon="-3.0430515">
<ele>596.154785</ele>
<time>2011-05-15T11:07:51.000Z</time>
</trkpt>
<trkpt lat="43.2371188" lon="-3.0431028">
<ele>599.519287</ele>
<time>2011-05-15T11:08:04.000Z</time>
</trkpt>
<trkpt lat="43.2370548" lon="-3.0431510">
<ele>602.883789</ele>
<time>2011-05-15T11:08:16.000Z</time>
</trkpt>
<trkpt lat="43.2369573" lon="-3.0431761">
<ele>605.768066</ele>
<time>2011-05-15T11:08:29.000Z</time>
</trkpt>
<trkpt lat="43.2368484" lon="-3.0432317">
<ele>609.132568</ele>
<time>2011-05-15T11:08:45.000Z</time>
</trkpt>
<trkpt lat="43.2367865" lon="-3.0432933">
<ele>612.497070</ele>
<time>2011-05-15T11:08:58.000Z</time>
</trkpt>
<trkpt lat="43.2367262" lon="-3.0433586">
<ele>615.381104</ele>
<time>2011-05-15T11:09:11.000Z</time>
</trkpt>
<trkpt lat="43.2367112" lon="-3.0433602">
<ele>616.342285</ele>
<time>2011-05-15T11:09:13.000Z</time>
</trkpt>
<trkpt lat="43.2366475" lon="-3.0434085">
<ele>619.226318</ele>
<time>2011-05-15T11:09:26.000Z</time>
</trkpt>
<trkpt lat="43.2365741" lon="-3.0434370">
<ele>622.591064</ele>
<time>2011-05-15T11:09:38.000Z</time>
</trkpt>
<trkpt lat="43.2365125" lon="-3.0435074">
<ele>625.955566</ele>
<time>2011-05-15T11:09:51.000Z</time>
</trkpt>
<trkpt lat="43.2364342" lon="-3.0435442">
<ele>629.320068</ele>
<time>2011-05-15T11:10:04.000Z</time>
</trkpt>
<trkpt lat="43.2364138" lon="-3.0435616">
<ele>630.281555</ele>
<time>2011-05-15T11:10:09.000Z</time>
</trkpt>
<trkpt lat="43.2363648" lon="-3.0435881">
<ele>632.204102</ele>
<time>2011-05-15T11:10:17.000Z</time>
</trkpt>
<trkpt lat="43.2362923" lon="-3.0436548">
<ele>635.088135</ele>
<time>2011-05-15T11:10:30.000Z</time>
</trkpt>
<trkpt lat="43.2361932" lon="-3.0437372">
<ele>638.452881</ele>
<time>2011-05-15T11:10:46.000Z</time>
</trkpt>
<trkpt lat="43.2361120" lon="-3.0438022">
<ele>641.817444</ele>
<time>2011-05-15T11:10:58.000Z</time>
</trkpt>
<trkpt lat="43.2360147" lon="-3.0439037">
<ele>645.181885</ele>
<time>2011-05-15T11:11:14.000Z</time>
</trkpt>
<trkpt lat="43.2360074" lon="-3.0439099">
<ele>645.181885</ele>
<time>2011-05-15T11:11:15.000Z</time>
</trkpt>
<trkpt lat="43.2358685" lon="-3.0440341">
<ele>648.546387</ele>
<time>2011-05-15T11:11:32.000Z</time>
</trkpt>
<trkpt lat="43.2356800" lon="-3.0443237">
<ele>650.949707</ele>
<time>2011-05-15T11:11:55.000Z</time>
</trkpt>
<trkpt lat="43.2355451" lon="-3.0445506">
<ele>654.314636</ele>
<time>2011-05-15T11:12:15.000Z</time>
</trkpt>
<trkpt lat="43.2354151" lon="-3.0447111">
<ele>657.679199</ele>
<time>2011-05-15T11:12:35.000Z</time>
</trkpt>
<trkpt lat="43.2353219" lon="-3.0448063">
<ele>660.562988</ele>
<time>2011-05-15T11:12:48.000Z</time>
</trkpt>
<trkpt lat="43.2352039" lon="-3.0449371">
<ele>663.927490</ele>
<time>2011-05-15T11:13:05.000Z</time>
</trkpt>
<trkpt lat="43.2350994" lon="-3.0450661">
<ele>667.292236</ele>
<time>2011-05-15T11:13:22.000Z</time>
</trkpt>
<trkpt lat="43.2350822" lon="-3.0450882">
<ele>668.734375</ele>
<time>2011-05-15T11:13:25.000Z</time>
</trkpt>
<trkpt lat="43.2350480" lon="-3.0451090">
<ele>669.695801</ele>
<time>2011-05-15T11:13:30.000Z</time>
</trkpt>
<trkpt lat="43.2349896" lon="-3.0451613">
<ele>671.137695</ele>
<time>2011-05-15T11:13:39.000Z</time>
</trkpt>
<trkpt lat="43.2348922" lon="-3.0452903">
<ele>674.502258</ele>
<time>2011-05-15T11:13:55.000Z</time>
</trkpt>
<trkpt lat="43.2348088" lon="-3.0454222">
<ele>677.866699</ele>
<time>2011-05-15T11:14:11.000Z</time>
</trkpt>
<trkpt lat="43.2347210" lon="-3.0455182">
<ele>681.231445</ele>
<time>2011-05-15T11:14:24.000Z</time>
</trkpt>
<trkpt lat="43.2346151" lon="-3.0456280">
<ele>684.115479</ele>
<time>2011-05-15T11:14:40.000Z</time>
</trkpt>
<trkpt lat="43.2345564" lon="-3.0457045">
<ele>687.479980</ele>
<time>2011-05-15T11:14:50.000Z</time>
</trkpt>
<trkpt lat="43.2344793" lon="-3.0458057">
<ele>690.364014</ele>
<time>2011-05-15T11:15:05.000Z</time>
</trkpt>
<trkpt lat="43.2344140" lon="-3.0458858">
<ele>693.728516</ele>
<time>2011-05-15T11:15:17.000Z</time>
</trkpt>
<trkpt lat="43.2343741" lon="-3.0459439">
<ele>695.170471</ele>
<time>2011-05-15T11:15:26.000Z</time>
</trkpt>
<trkpt lat="43.2343346" lon="-3.0459855">
<ele>697.093018</ele>
<time>2011-05-15T11:15:32.000Z</time>
</trkpt>
<trkpt lat="43.2342534" lon="-3.0460816">
<ele>699.977051</ele>
<time>2011-05-15T11:15:49.000Z</time>
</trkpt>
<trkpt lat="43.2341701" lon="-3.0461942">
<ele>703.341797</ele>
<time>2011-05-15T11:16:06.000Z</time>
</trkpt>
<trkpt lat="43.2341393" lon="-3.0462330">
<ele>705.745117</ele>
<time>2011-05-15T11:16:13.000Z</time>
</trkpt>
<trkpt lat="43.2340730" lon="-3.0462989">
<ele>708.628906</ele>
<time>2011-05-15T11:16:26.000Z</time>
</trkpt>
<trkpt lat="43.2340353" lon="-3.0463396">
<ele>710.551514</ele>
<time>2011-05-15T11:16:33.000Z</time>
</trkpt>
<trkpt lat="43.2339482" lon="-3.0464459">
<ele>713.916016</ele>
<time>2011-05-15T11:16:48.000Z</time>
</trkpt>
<trkpt lat="43.2338778" lon="-3.0465080">
<ele>717.281006</ele>
<time>2011-05-15T11:17:01.000Z</time>
</trkpt>
<trkpt lat="43.2338175" lon="-3.0465784">
<ele>720.645508</ele>
<time>2011-05-15T11:17:14.000Z</time>
</trkpt>
<trkpt lat="43.2337630" lon="-3.0466645">
<ele>723.529541</ele>
<time>2011-05-15T11:17:27.000Z</time>
</trkpt>
<trkpt lat="43.2337083" lon="-3.0467188">
<ele>726.894043</ele>
<time>2011-05-15T11:17:38.000Z</time>
</trkpt>
<trkpt lat="43.2336484" lon="-3.0467915">
<ele>729.777832</ele>
<time>2011-05-15T11:17:51.000Z</time>
</trkpt>
<trkpt lat="43.2336137" lon="-3.0468236">
<ele>731.700439</ele>
<time>2011-05-15T11:17:58.000Z</time>
</trkpt>
<trkpt lat="43.2335821" lon="-3.0468392">
<ele>733.142578</ele>
<time>2011-05-15T11:18:02.000Z</time>
</trkpt>
<trkpt lat="43.2335069" lon="-3.0469092">
<ele>736.507324</ele>
<time>2011-05-15T11:18:16.000Z</time>
</trkpt>
<trkpt lat="43.2334547" lon="-3.0469628">
<ele>739.871887</ele>
<time>2011-05-15T11:18:27.000Z</time>
</trkpt>
<trkpt lat="43.2333764" lon="-3.0470613">
<ele>743.236328</ele>
<time>2011-05-15T11:18:43.000Z</time>
</trkpt>
<trkpt lat="43.2333280" lon="-3.0471218">
<ele>744.678223</ele>
<time>2011-05-15T11:18:51.000Z</time>
</trkpt>
<trkpt lat="43.2331868" lon="-3.0472827">
<ele>748.523682</ele>
<time>2011-05-15T11:19:11.000Z</time>
</trkpt>
<trkpt lat="43.2331227" lon="-3.0473680">
<ele>751.888367</ele>
<time>2011-05-15T11:19:23.000Z</time>
</trkpt>
<trkpt lat="43.2330334" lon="-3.0474944">
<ele>755.252930</ele>
<time>2011-05-15T11:19:39.000Z</time>
</trkpt>
<trkpt lat="43.2329240" lon="-3.0477421">
<ele>756.694824</ele>
<time>2011-05-15T11:19:58.000Z</time>
</trkpt>
<trkpt lat="43.2328491" lon="-3.0479010">
<ele>753.811035</ele>
<time>2011-05-15T11:20:09.000Z</time>
</trkpt>
<trkpt lat="43.2328184" lon="-3.0479654">
<ele>752.849609</ele>
<time>2011-05-15T11:20:14.000Z</time>
</trkpt>
<trkpt lat="43.2327708" lon="-3.0481065">
<ele>750.927063</ele>
<time>2011-05-15T11:20:23.000Z</time>
</trkpt>
<trkpt lat="43.2327682" lon="-3.0481333">
<ele>749.965820</ele>
<time>2011-05-15T11:20:25.000Z</time>
</trkpt>
<trkpt lat="43.2327499" lon="-3.0481889">
<ele>749.485107</ele>
<time>2011-05-15T11:20:29.000Z</time>
</trkpt>
<trkpt lat="43.2327299" lon="-3.0482792">
<ele>748.523682</ele>
<time>2011-05-15T11:20:34.000Z</time>
</trkpt>
<trkpt lat="43.2326992" lon="-3.0484491">
<ele>746.601074</ele>
<time>2011-05-15T11:20:43.000Z</time>
</trkpt>
<trkpt lat="43.2326505" lon="-3.0485989">
<ele>745.158936</ele>
<time>2011-05-15T11:20:52.000Z</time>
</trkpt>
<trkpt lat="43.2326288" lon="-3.0486666">
<ele>744.678223</ele>
<time>2011-05-15T11:20:56.000Z</time>
</trkpt>
<trkpt lat="43.2325983" lon="-3.0487672">
<ele>744.678223</ele>
<time>2011-05-15T11:21:03.000Z</time>
</trkpt>
<trkpt lat="43.2325560" lon="-3.0489170">
<ele>742.755859</ele>
<time>2011-05-15T11:21:12.000Z</time>
</trkpt>
<trkpt lat="43.2325081" lon="-3.0492110">
<ele>743.236328</ele>
<time>2011-05-15T11:21:28.000Z</time>
</trkpt>
<trkpt lat="43.2324336" lon="-3.0495629">
<ele>745.158936</ele>
<time>2011-05-15T11:21:48.000Z</time>
</trkpt>
<trkpt lat="43.2323770" lon="-3.0497520">
<ele>747.562256</ele>
<time>2011-05-15T11:22:04.000Z</time>
</trkpt>
<trkpt lat="43.2323412" lon="-3.0498489">
<ele>750.446533</ele>
<time>2011-05-15T11:22:15.000Z</time>
</trkpt>
<trkpt lat="43.2322965" lon="-3.0499902">
<ele>754.291748</ele>
<time>2011-05-15T11:22:30.000Z</time>
</trkpt>
<trkpt lat="43.2322730" lon="-3.0501265">
<ele>757.656250</ele>
<time>2011-05-15T11:22:45.000Z</time>
</trkpt>
<trkpt lat="43.2322720" lon="-3.0501337">
<ele>757.656250</ele>
<time>2011-05-15T11:22:46.000Z</time>
</trkpt>
<trkpt lat="43.2322585" lon="-3.0502012">
<ele>760.540100</ele>
<time>2011-05-15T11:22:55.000Z</time>
</trkpt>
<trkpt lat="43.2322389" lon="-3.0502825">
<ele>763.424072</ele>
<time>2011-05-15T11:23:07.000Z</time>
</trkpt>
<trkpt lat="43.2322190" lon="-3.0503417">
<ele>764.866211</ele>
<time>2011-05-15T11:23:17.000Z</time>
</trkpt>
<trkpt lat="43.2322154" lon="-3.0503760">
<ele>766.788818</ele>
<time>2011-05-15T11:23:22.000Z</time>
</trkpt>
<trkpt lat="43.2322114" lon="-3.0504198">
<ele>770.153320</ele>
<time>2011-05-15T11:23:32.000Z</time>
</trkpt>
<trkpt lat="43.2321891" lon="-3.0504944">
<ele>773.518005</ele>
<time>2011-05-15T11:23:48.000Z</time>
</trkpt>
<trkpt lat="43.2321696" lon="-3.0505573">
<ele>776.882568</ele>
<time>2011-05-15T11:24:00.000Z</time>
</trkpt>
<trkpt lat="43.2321487" lon="-3.0506292">
<ele>780.247314</ele>
<time>2011-05-15T11:24:14.000Z</time>
</trkpt>
<trkpt lat="43.2321426" lon="-3.0507047">
<ele>784.092468</ele>
<time>2011-05-15T11:24:29.000Z</time>
</trkpt>
<trkpt lat="43.2321233" lon="-3.0507883">
<ele>787.457031</ele>
<time>2011-05-15T11:24:42.000Z</time>
</trkpt>
<trkpt lat="43.2321074" lon="-3.0508438">
<ele>790.341064</ele>
<time>2011-05-15T11:24:55.000Z</time>
</trkpt>
<trkpt lat="43.2320853" lon="-3.0508987">
<ele>793.705627</ele>
<time>2011-05-15T11:25:11.000Z</time>
</trkpt>
<trkpt lat="43.2320693" lon="-3.0509281">
<ele>797.070313</ele>
<time>2011-05-15T11:25:24.000Z</time>
</trkpt>
<trkpt lat="43.2320449" lon="-3.0510044">
<ele>799.954346</ele>
<time>2011-05-15T11:25:36.000Z</time>
</trkpt>
<trkpt lat="43.2320353" lon="-3.0510181">
<ele>801.876953</ele>
<time>2011-05-15T11:25:43.000Z</time>
</trkpt>
<trkpt lat="43.2320123" lon="-3.0510776">
<ele>805.241516</ele>
<time>2011-05-15T11:25:58.000Z</time>
</trkpt>
<trkpt lat="43.2320047" lon="-3.0511643">
<ele>808.125488</ele>
<time>2011-05-15T11:26:12.000Z</time>
</trkpt>
<trkpt lat="43.2319897" lon="-3.0512447">
<ele>811.009277</ele>
<time>2011-05-15T11:26:27.000Z</time>
</trkpt>
<trkpt lat="43.2319730" lon="-3.0512619">
<ele>814.374023</ele>
<time>2011-05-15T11:26:39.000Z</time>
</trkpt>
<trkpt lat="43.2319540" lon="-3.0512854">
<ele>817.257996</ele>
<time>2011-05-15T11:26:54.000Z</time>
</trkpt>
<trkpt lat="43.2319354" lon="-3.0513133">
<ele>820.622559</ele>
<time>2011-05-15T11:27:07.000Z</time>
</trkpt>
<trkpt lat="43.2319336" lon="-3.0513567">
<ele>823.987061</ele>
<time>2011-05-15T11:27:20.000Z</time>
</trkpt>
<trkpt lat="43.2319125" lon="-3.0514464">
<ele>825.909729</ele>
<time>2011-05-15T11:27:34.000Z</time>
</trkpt>
<trkpt lat="43.2319156" lon="-3.0515271">
<ele>829.274414</ele>
<time>2011-05-15T11:27:47.000Z</time>
</trkpt>
<trkpt lat="43.2318940" lon="-3.0515748">
<ele>832.639160</ele>
<time>2011-05-15T11:28:01.000Z</time>
</trkpt>
<trkpt lat="43.2319019" lon="-3.0516416">
<ele>835.042480</ele>
<time>2011-05-15T11:28:16.000Z</time>
</trkpt>
<trkpt lat="43.2318902" lon="-3.0516976">
<ele>837.926331</ele>
<time>2011-05-15T11:28:28.000Z</time>
</trkpt>
<trkpt lat="43.2319011" lon="-3.0517712">
<ele>839.848877</ele>
<time>2011-05-15T11:28:40.000Z</time>
</trkpt>
<trkpt lat="43.2319312" lon="-3.0518220">
<ele>843.213379</ele>
<time>2011-05-15T11:28:54.000Z</time>
</trkpt>
<trkpt lat="43.2319817" lon="-3.0519063">
<ele>846.578369</ele>
<time>2011-05-15T11:29:12.000Z</time>
</trkpt>
<trkpt lat="43.2320247" lon="-3.0519699">
<ele>849.462097</ele>
<time>2011-05-15T11:29:28.000Z</time>
</trkpt>
<trkpt lat="43.2321040" lon="-3.0520860">
<ele>852.345947</ele>
<time>2011-05-15T11:29:44.000Z</time>
</trkpt>
<trkpt lat="43.2321105" lon="-3.0521429">
<ele>854.749268</ele>
<time>2011-05-15T11:29:52.000Z</time>
</trkpt>
<trkpt lat="43.2321203" lon="-3.0522073">
<ele>856.671875</ele>
<time>2011-05-15T11:30:07.000Z</time>
</trkpt>
<trkpt lat="43.2320983" lon="-3.0521777">
<ele>859.555969</ele>
<time>2011-05-15T11:30:24.000Z</time>
</trkpt>
<trkpt lat="43.2320642" lon="-3.0521773">
<ele>861.959473</ele>
<time>2011-05-15T11:30:33.000Z</time>
</trkpt>
<trkpt lat="43.2320481" lon="-3.0522561">
<ele>865.323975</ele>
<time>2011-05-15T11:30:48.000Z</time>
</trkpt>
<trkpt lat="43.2319989" lon="-3.0522421">
<ele>868.207764</ele>
<time>2011-05-15T11:31:01.000Z</time>
</trkpt>
<trkpt lat="43.2319524" lon="-3.0522367">
<ele>870.611145</ele>
<time>2011-05-15T11:31:14.000Z</time>
</trkpt>
<trkpt lat="43.2318890" lon="-3.0522632">
<ele>873.495117</ele>
<time>2011-05-15T11:31:31.000Z</time>
</trkpt>
<trkpt lat="43.2318675" lon="-3.0523234">
<ele>876.859863</ele>
<time>2011-05-15T11:31:43.000Z</time>
</trkpt>
<trkpt lat="43.2318613" lon="-3.0523762">
<ele>878.782471</ele>
<time>2011-05-15T11:31:59.000Z</time>
</trkpt>
<trkpt lat="43.2318790" lon="-3.0524333">
<ele>880.705078</ele>
<time>2011-05-15T11:32:08.000Z</time>
</trkpt>
<trkpt lat="43.2319083" lon="-3.0525673">
<ele>885.511475</ele>
<time>2011-05-15T11:32:21.000Z</time>
</trkpt>
<trkpt lat="43.2319073" lon="-3.0525719">
<ele>885.031006</ele>
<time>2011-05-15T11:32:22.000Z</time>
</trkpt>
<trkpt lat="43.2318988" lon="-3.0525814">
<ele>883.588867</ele>
<time>2011-05-15T11:32:24.000Z</time>
</trkpt>
<trkpt lat="43.2318343" lon="-3.0525611">
<ele>886.472900</ele>
<time>2011-05-15T11:32:33.000Z</time>
</trkpt>
<trkpt lat="43.2317945" lon="-3.0525213">
<ele>888.876221</ele>
<time>2011-05-15T11:32:40.000Z</time>
</trkpt>
<trkpt lat="43.2316877" lon="-3.0524057">
<ele>890.798584</ele>
<time>2011-05-15T11:32:58.000Z</time>
</trkpt>
<trkpt lat="43.2315891" lon="-3.0523244">
<ele>891.760071</ele>
<time>2011-05-15T11:33:16.000Z</time>
</trkpt>
<trkpt lat="43.2315954" lon="-3.0523400">
<ele>891.760071</ele>
<time>2011-05-15T11:34:17.000Z</time>
</trkpt>
<trkpt lat="43.2315939" lon="-3.0523400">
<ele>893.202087</ele>
<time>2011-05-15T11:34:19.000Z</time>
</trkpt>
<trkpt lat="43.2315956" lon="-3.0523449">
<ele>893.202087</ele>
<time>2011-05-15T11:34:28.000Z</time>
</trkpt>
<trkpt lat="43.2315956" lon="-3.0523446">
<ele>892.240967</ele>
<time>2011-05-15T11:34:30.000Z</time>
</trkpt>
<trkpt lat="43.2315943" lon="-3.0523553">
<ele>898.489258</ele>
<time>2011-05-15T11:34:44.000Z</time>
</trkpt>
<trkpt lat="43.2315959" lon="-3.0523529">
<ele>893.202087</ele>
<time>2011-05-15T11:34:45.000Z</time>
</trkpt>
<trkpt lat="43.2315948" lon="-3.0523496">
<ele>892.240967</ele>
<time>2011-05-15T11:34:47.000Z</time>
</trkpt>
<trkpt lat="43.2315717" lon="-3.0523492">
<ele>891.279358</ele>
<time>2011-05-15T11:35:05.000Z</time>
</trkpt>
<trkpt lat="43.2315251" lon="-3.0524495">
<ele>887.914795</ele>
<time>2011-05-15T11:35:17.000Z</time>
</trkpt>
<trkpt lat="43.2315202" lon="-3.0524595">
<ele>888.395508</ele>
<time>2011-05-15T11:35:18.000Z</time>
</trkpt>
<trkpt lat="43.2315049" lon="-3.0525020">
<ele>887.914795</ele>
<time>2011-05-15T11:35:22.000Z</time>
</trkpt>
<trkpt lat="43.2314826" lon="-3.0525433">
<ele>885.992188</ele>
<time>2011-05-15T11:35:26.000Z</time>
</trkpt>
<trkpt lat="43.2314663" lon="-3.0526253">
<ele>884.550293</ele>
<time>2011-05-15T11:35:33.000Z</time>
</trkpt>
<trkpt lat="43.2314321" lon="-3.0527460">
<ele>881.185791</ele>
<time>2011-05-15T11:35:43.000Z</time>
</trkpt>
<trkpt lat="43.2314062" lon="-3.0528306">
<ele>878.782471</ele>
<time>2011-05-15T11:35:49.000Z</time>
</trkpt>
<trkpt lat="43.2313772" lon="-3.0529666">
<ele>875.417419</ele>
<time>2011-05-15T11:35:58.000Z</time>
</trkpt>
<trkpt lat="43.2313746" lon="-3.0530459">
<ele>873.495117</ele>
<time>2011-05-15T11:36:03.000Z</time>
</trkpt>
<trkpt lat="43.2313639" lon="-3.0531370">
<ele>871.091736</ele>
<time>2011-05-15T11:36:09.000Z</time>
</trkpt>
<trkpt lat="43.2313231" lon="-3.0532644">
<ele>867.727051</ele>
<time>2011-05-15T11:36:23.000Z</time>
</trkpt>
<trkpt lat="43.2313214" lon="-3.0534485">
<ele>863.881836</ele>
<time>2011-05-15T11:36:38.000Z</time>
</trkpt>
<trkpt lat="43.2313182" lon="-3.0535752">
<ele>862.439941</ele>
<time>2011-05-15T11:36:47.000Z</time>
</trkpt>
<trkpt lat="43.2313179" lon="-3.0535905">
<ele>861.959473</ele>
<time>2011-05-15T11:36:48.000Z</time>
</trkpt>
<trkpt lat="43.2313239" lon="-3.0536187">
<ele>860.997986</ele>
<time>2011-05-15T11:36:50.000Z</time>
</trkpt>
<trkpt lat="43.2313252" lon="-3.0536851">
<ele>860.517273</ele>
<time>2011-05-15T11:36:55.000Z</time>
</trkpt>
<trkpt lat="43.2313257" lon="-3.0538038">
<ele>857.633301</ele>
<time>2011-05-15T11:37:04.000Z</time>
</trkpt>
<trkpt lat="43.2313266" lon="-3.0538183">
<ele>857.633301</ele>
<time>2011-05-15T11:37:05.000Z</time>
</trkpt>
<trkpt lat="43.2313348" lon="-3.0540328">
<ele>854.268799</ele>
<time>2011-05-15T11:37:18.000Z</time>
</trkpt>
<trkpt lat="43.2313453" lon="-3.0541794">
<ele>850.904053</ele>
<time>2011-05-15T11:37:27.000Z</time>
</trkpt>
<trkpt lat="43.2313472" lon="-3.0541943">
<ele>851.384766</ele>
<time>2011-05-15T11:37:28.000Z</time>
</trkpt>
<trkpt lat="43.2313562" lon="-3.0543209">
<ele>848.981506</ele>
<time>2011-05-15T11:37:36.000Z</time>
</trkpt>
<trkpt lat="43.2313582" lon="-3.0543944">
<ele>847.058838</ele>
<time>2011-05-15T11:37:40.000Z</time>
</trkpt>
<trkpt lat="43.2313699" lon="-3.0545394">
<ele>843.694092</ele>
<time>2011-05-15T11:37:48.000Z</time>
</trkpt>
<trkpt lat="43.2313721" lon="-3.0545581">
<ele>843.694092</ele>
<time>2011-05-15T11:37:49.000Z</time>
</trkpt>
<trkpt lat="43.2313806" lon="-3.0546937">
<ele>840.329590</ele>
<time>2011-05-15T11:37:57.000Z</time>
</trkpt>
<trkpt lat="43.2313908" lon="-3.0548547">
<ele>836.964905</ele>
<time>2011-05-15T11:38:07.000Z</time>
</trkpt>
<trkpt lat="43.2313961" lon="-3.0550148">
<ele>833.600342</ele>
<time>2011-05-15T11:38:17.000Z</time>
</trkpt>
<trkpt lat="43.2313950" lon="-3.0551123">
<ele>832.158447</ele>
<time>2011-05-15T11:38:23.000Z</time>
</trkpt>
<trkpt lat="43.2314114" lon="-3.0553992">
<ele>828.793884</ele>
<time>2011-05-15T11:38:40.000Z</time>
</trkpt>
<trkpt lat="43.2314463" lon="-3.0556173">
<ele>825.428955</ele>
<time>2011-05-15T11:38:54.000Z</time>
</trkpt>
<trkpt lat="43.2315114" lon="-3.0558648">
<ele>822.064453</ele>
<time>2011-05-15T11:39:09.000Z</time>
</trkpt>
<trkpt lat="43.2315213" lon="-3.0559288">
<ele>821.103271</ele>
<time>2011-05-15T11:39:13.000Z</time>
</trkpt>
<trkpt lat="43.2315411" lon="-3.0560292">
<ele>818.219238</ele>
<time>2011-05-15T11:39:19.000Z</time>
</trkpt>
<trkpt lat="43.2315583" lon="-3.0561291">
<ele>814.374023</ele>
<time>2011-05-15T11:39:25.000Z</time>
</trkpt>
<trkpt lat="43.2315930" lon="-3.0562581">
<ele>812.451416</ele>
<time>2011-05-15T11:39:33.000Z</time>
</trkpt>
<trkpt lat="43.2316173" lon="-3.0563493">
<ele>809.567383</ele>
<time>2011-05-15T11:39:39.000Z</time>
</trkpt>
<trkpt lat="43.2316488" lon="-3.0565118">
<ele>805.722107</ele>
<time>2011-05-15T11:39:50.000Z</time>
</trkpt>
<trkpt lat="43.2316442" lon="-3.0565441">
<ele>804.280273</ele>
<time>2011-05-15T11:39:52.000Z</time>
</trkpt>
<trkpt lat="43.2316498" lon="-3.0565939">
<ele>803.318848</ele>
<time>2011-05-15T11:39:56.000Z</time>
</trkpt>
<trkpt lat="43.2316721" lon="-3.0566626">
<ele>801.396240</ele>
<time>2011-05-15T11:40:02.000Z</time>
</trkpt>
<trkpt lat="43.2317022" lon="-3.0567979">
<ele>798.031738</ele>
<time>2011-05-15T11:40:12.000Z</time>
</trkpt>
<trkpt lat="43.2317266" lon="-3.0569047">
<ele>794.186340</ele>
<time>2011-05-15T11:40:20.000Z</time>
</trkpt>
<trkpt lat="43.2317410" lon="-3.0569819">
<ele>792.744385</ele>
<time>2011-05-15T11:40:26.000Z</time>
</trkpt>
<trkpt lat="43.2317488" lon="-3.0570441">
<ele>790.821533</ele>
<time>2011-05-15T11:40:30.000Z</time>
</trkpt>
<trkpt lat="43.2317613" lon="-3.0571035">
<ele>790.341064</ele>
<time>2011-05-15T11:40:34.000Z</time>
</trkpt>
<trkpt lat="43.2317897" lon="-3.0572471">
<ele>786.015137</ele>
<time>2011-05-15T11:40:44.000Z</time>
</trkpt>
<trkpt lat="43.2317939" lon="-3.0572620">
<ele>785.534424</ele>
<time>2011-05-15T11:40:45.000Z</time>
</trkpt>
<trkpt lat="43.2318209" lon="-3.0573675">
<ele>782.650635</ele>
<time>2011-05-15T11:40:52.000Z</time>
</trkpt>
<trkpt lat="43.2318253" lon="-3.0573803">
<ele>782.650635</ele>
<time>2011-05-15T11:40:53.000Z</time>
</trkpt>
<trkpt lat="43.2318536" lon="-3.0575008">
<ele>779.285645</ele>
<time>2011-05-15T11:41:01.000Z</time>
</trkpt>
<trkpt lat="43.2318752" lon="-3.0575750">
<ele>777.843750</ele>
<time>2011-05-15T11:41:06.000Z</time>
</trkpt>
<trkpt lat="43.2318907" lon="-3.0576350">
<ele>776.882568</ele>
<time>2011-05-15T11:41:10.000Z</time>
</trkpt>
<trkpt lat="43.2319014" lon="-3.0576962">
<ele>774.959961</ele>
<time>2011-05-15T11:41:14.000Z</time>
</trkpt>
<trkpt lat="43.2319099" lon="-3.0577402">
<ele>773.518005</ele>
<time>2011-05-15T11:41:17.000Z</time>
</trkpt>
<trkpt lat="43.2319296" lon="-3.0577991">
<ele>772.075989</ele>
<time>2011-05-15T11:41:21.000Z</time>
</trkpt>
<trkpt lat="43.2319414" lon="-3.0578589">
<ele>771.595276</ele>
<time>2011-05-15T11:41:25.000Z</time>
</trkpt>
<trkpt lat="43.2319639" lon="-3.0579446">
<ele>768.230713</ele>
<time>2011-05-15T11:41:31.000Z</time>
</trkpt>
<trkpt lat="43.2319672" lon="-3.0579596">
<ele>768.230713</ele>
<time>2011-05-15T11:41:32.000Z</time>
</trkpt>
<trkpt lat="43.2320020" lon="-3.0580642">
<ele>766.788818</ele>
<time>2011-05-15T11:41:39.000Z</time>
</trkpt>
<trkpt lat="43.2320115" lon="-3.0581116">
<ele>765.346924</ele>
<time>2011-05-15T11:41:42.000Z</time>
</trkpt>
<trkpt lat="43.2320353" lon="-3.0582119">
<ele>761.501526</ele>
<time>2011-05-15T11:41:48.000Z</time>
</trkpt>
<trkpt lat="43.2320828" lon="-3.0583987">
<ele>758.617432</ele>
<time>2011-05-15T11:42:00.000Z</time>
</trkpt>
<trkpt lat="43.2320860" lon="-3.0584121">
<ele>758.617432</ele>
<time>2011-05-15T11:42:01.000Z</time>
</trkpt>
<trkpt lat="43.2321006" lon="-3.0584719">
<ele>757.175537</ele>
<time>2011-05-15T11:42:05.000Z</time>
</trkpt>
<trkpt lat="43.2321160" lon="-3.0585434">
<ele>756.214111</ele>
<time>2011-05-15T11:42:10.000Z</time>
</trkpt>
<trkpt lat="43.2321327" lon="-3.0586076">
<ele>754.291748</ele>
<time>2011-05-15T11:42:14.000Z</time>
</trkpt>
<trkpt lat="43.2322036" lon="-3.0588723">
<ele>751.407654</ele>
<time>2011-05-15T11:42:28.000Z</time>
</trkpt>
<trkpt lat="43.2322202" lon="-3.0590185">
<ele>750.446533</ele>
<time>2011-05-15T11:42:36.000Z</time>
</trkpt>
<trkpt lat="43.2322047" lon="-3.0591186">
<ele>750.446533</ele>
<time>2011-05-15T11:42:42.000Z</time>
</trkpt>
<trkpt lat="43.2322088" lon="-3.0592066">
<ele>749.004395</ele>
<time>2011-05-15T11:42:47.000Z</time>
</trkpt>
<trkpt lat="43.2322249" lon="-3.0592791">
<ele>749.004395</ele>
<time>2011-05-15T11:42:51.000Z</time>
</trkpt>
<trkpt lat="43.2322262" lon="-3.0593663">
<ele>749.965820</ele>
<time>2011-05-15T11:42:56.000Z</time>
</trkpt>
<trkpt lat="43.2322575" lon="-3.0595315">
<ele>749.965820</ele>
<time>2011-05-15T11:43:07.000Z</time>
</trkpt>
<trkpt lat="43.2322580" lon="-3.0595630">
<ele>749.965820</ele>
<time>2011-05-15T11:43:09.000Z</time>
</trkpt>
<trkpt lat="43.2322925" lon="-3.0596403">
<ele>750.446533</ele>
<time>2011-05-15T11:43:14.000Z</time>
</trkpt>
<trkpt lat="43.2323646" lon="-3.0598630">
<ele>748.043213</ele>
<time>2011-05-15T11:43:26.000Z</time>
</trkpt>
<trkpt lat="43.2323693" lon="-3.0598826">
<ele>748.043213</ele>
<time>2011-05-15T11:43:27.000Z</time>
</trkpt>
<trkpt lat="43.2323913" lon="-3.0599723">
<ele>747.081543</ele>
<time>2011-05-15T11:43:32.000Z</time>
</trkpt>
<trkpt lat="43.2323936" lon="-3.0600068">
<ele>748.043213</ele>
<time>2011-05-15T11:43:34.000Z</time>
</trkpt>
<trkpt lat="43.2324704" lon="-3.0602145">
<ele>746.601074</ele>
<time>2011-05-15T11:43:47.000Z</time>
</trkpt>
<trkpt lat="43.2324932" lon="-3.0602598">
<ele>745.158936</ele>
<time>2011-05-15T11:43:50.000Z</time>
</trkpt>
<trkpt lat="43.2325322" lon="-3.0603343">
<ele>744.678223</ele>
<time>2011-05-15T11:43:55.000Z</time>
</trkpt>
<trkpt lat="43.2325919" lon="-3.0604038">
<ele>743.717041</ele>
<time>2011-05-15T11:44:01.000Z</time>
</trkpt>
<trkpt lat="43.2326434" lon="-3.0604868">
<ele>743.236328</ele>
<time>2011-05-15T11:44:07.000Z</time>
</trkpt>
<trkpt lat="43.2326876" lon="-3.0605717">
<ele>742.275146</ele>
<time>2011-05-15T11:44:12.000Z</time>
</trkpt>
<trkpt lat="43.2327827" lon="-3.0607611">
<ele>738.429932</ele>
<time>2011-05-15T11:44:25.000Z</time>
</trkpt>
<trkpt lat="43.2328728" lon="-3.0609420">
<ele>735.065430</ele>
<time>2011-05-15T11:44:36.000Z</time>
</trkpt>
<trkpt lat="43.2328789" lon="-3.0609578">
<ele>735.545898</ele>
<time>2011-05-15T11:44:37.000Z</time>
</trkpt>
<trkpt lat="43.2329164" lon="-3.0610579">
<ele>733.623291</ele>
<time>2011-05-15T11:44:43.000Z</time>
</trkpt>
<trkpt lat="43.2329831" lon="-3.0612020">
<ele>730.258545</ele>
<time>2011-05-15T11:44:52.000Z</time>
</trkpt>
<trkpt lat="43.2330350" lon="-3.0613371">
<ele>727.374756</ele>
<time>2011-05-15T11:45:01.000Z</time>
</trkpt>
<trkpt lat="43.2330390" lon="-3.0613518">
<ele>727.374756</ele>
<time>2011-05-15T11:45:02.000Z</time>
</trkpt>
<trkpt lat="43.2331045" lon="-3.0615429">
<ele>724.010010</ele>
<time>2011-05-15T11:45:14.000Z</time>
</trkpt>
<trkpt lat="43.2331076" lon="-3.0615601">
<ele>724.010010</ele>
<time>2011-05-15T11:45:15.000Z</time>
</trkpt>
<trkpt lat="43.2331495" lon="-3.0616905">
<ele>723.048828</ele>
<time>2011-05-15T11:45:25.000Z</time>
</trkpt>
<trkpt lat="43.2331583" lon="-3.0617204">
<ele>721.126221</ele>
<time>2011-05-15T11:45:27.000Z</time>
</trkpt>
<trkpt lat="43.2331790" lon="-3.0617827">
<ele>719.684265</ele>
<time>2011-05-15T11:45:31.000Z</time>
</trkpt>
<trkpt lat="43.2331994" lon="-3.0618813">
<ele>717.761536</ele>
<time>2011-05-15T11:45:38.000Z</time>
</trkpt>
<trkpt lat="43.2332224" lon="-3.0619635">
<ele>713.916016</ele>
<time>2011-05-15T11:45:45.000Z</time>
</trkpt>
<trkpt lat="43.2332481" lon="-3.0621122">
<ele>710.551514</ele>
<time>2011-05-15T11:45:57.000Z</time>
</trkpt>
<trkpt lat="43.2332505" lon="-3.0621256">
<ele>710.070801</ele>
<time>2011-05-15T11:45:58.000Z</time>
</trkpt>
<trkpt lat="43.2332691" lon="-3.0622659">
<ele>706.225647</ele>
<time>2011-05-15T11:46:07.000Z</time>
</trkpt>
<trkpt lat="43.2332949" lon="-3.0624041">
<ele>703.341797</ele>
<time>2011-05-15T11:46:15.000Z</time>
</trkpt>
<trkpt lat="43.2332985" lon="-3.0624209">
<ele>703.341797</ele>
<time>2011-05-15T11:46:16.000Z</time>
</trkpt>
<trkpt lat="43.2333128" lon="-3.0625341">
<ele>699.977051</ele>
<time>2011-05-15T11:46:23.000Z</time>
</trkpt>
<trkpt lat="43.2333120" lon="-3.0626429">
<ele>697.573730</ele>
<time>2011-05-15T11:46:29.000Z</time>
</trkpt>
<trkpt lat="43.2333329" lon="-3.0627131">
<ele>695.651184</ele>
<time>2011-05-15T11:46:35.000Z</time>
</trkpt>
<trkpt lat="43.2333469" lon="-3.0628414">
<ele>692.286621</ele>
<time>2011-05-15T11:46:43.000Z</time>
</trkpt>
<trkpt lat="43.2333439" lon="-3.0629752">
<ele>688.922119</ele>
<time>2011-05-15T11:46:51.000Z</time>
</trkpt>
<trkpt lat="43.2333324" lon="-3.0630854">
<ele>685.076904</ele>
<time>2011-05-15T11:46:58.000Z</time>
</trkpt>
<trkpt lat="43.2333148" lon="-3.0631767">
<ele>681.711914</ele>
<time>2011-05-15T11:47:04.000Z</time>
</trkpt>
<trkpt lat="43.2333133" lon="-3.0632461">
<ele>681.231445</ele>
<time>2011-05-15T11:47:08.000Z</time>
</trkpt>
<trkpt lat="43.2333039" lon="-3.0633542">
<ele>678.347412</ele>
<time>2011-05-15T11:47:14.000Z</time>
</trkpt>
<trkpt lat="43.2332957" lon="-3.0634601">
<ele>674.021545</ele>
<time>2011-05-15T11:47:20.000Z</time>
</trkpt>
<trkpt lat="43.2332940" lon="-3.0634759">
<ele>674.982849</ele>
<time>2011-05-15T11:47:21.000Z</time>
</trkpt>
<trkpt lat="43.2332856" lon="-3.0635283">
<ele>673.541016</ele>
<time>2011-05-15T11:47:24.000Z</time>
</trkpt>
<trkpt lat="43.2332713" lon="-3.0635780">
<ele>672.098877</ele>
<time>2011-05-15T11:47:27.000Z</time>
</trkpt>
<trkpt lat="43.2332641" lon="-3.0636657">
<ele>669.215088</ele>
<time>2011-05-15T11:47:33.000Z</time>
</trkpt>
<trkpt lat="43.2332599" lon="-3.0637108">
<ele>667.772644</ele>
<time>2011-05-15T11:47:36.000Z</time>
</trkpt>
<trkpt lat="43.2332418" lon="-3.0638287">
<ele>663.927490</ele>
<time>2011-05-15T11:47:45.000Z</time>
</trkpt>
<trkpt lat="43.2332360" lon="-3.0638371">
<ele>664.888916</ele>
<time>2011-05-15T11:47:46.000Z</time>
</trkpt>
<trkpt lat="43.2332053" lon="-3.0638492">
<ele>662.966370</ele>
<time>2011-05-15T11:47:49.000Z</time>
</trkpt>
<trkpt lat="43.2331981" lon="-3.0638615">
<ele>662.005127</ele>
<time>2011-05-15T11:47:50.000Z</time>
</trkpt>
<trkpt lat="43.2331909" lon="-3.0639227">
<ele>662.005127</ele>
<time>2011-05-15T11:47:55.000Z</time>
</trkpt>
<trkpt lat="43.2332163" lon="-3.0640335">
<ele>657.198486</ele>
<time>2011-05-15T11:48:03.000Z</time>
</trkpt>
<trkpt lat="43.2332070" lon="-3.0641226">
<ele>654.314636</ele>
<time>2011-05-15T11:48:09.000Z</time>
</trkpt>
<trkpt lat="43.2331790" lon="-3.0642895">
<ele>650.949707</ele>
<time>2011-05-15T11:48:20.000Z</time>
</trkpt>
<trkpt lat="43.2331621" lon="-3.0643982">
<ele>647.585205</ele>
<time>2011-05-15T11:48:27.000Z</time>
</trkpt>
<trkpt lat="43.2331412" lon="-3.0644977">
<ele>644.220703</ele>
<time>2011-05-15T11:48:34.000Z</time>
</trkpt>
<trkpt lat="43.2331070" lon="-3.0646319">
<ele>640.375488</ele>
<time>2011-05-15T11:48:43.000Z</time>
</trkpt>
<trkpt lat="43.2330530" lon="-3.0647477">
<ele>637.491455</ele>
<time>2011-05-15T11:48:51.000Z</time>
</trkpt>
<trkpt lat="43.2329645" lon="-3.0649121">
<ele>634.126709</ele>
<time>2011-05-15T11:49:02.000Z</time>
</trkpt>
<trkpt lat="43.2329471" lon="-3.0650773">
<ele>630.281555</ele>
<time>2011-05-15T11:49:11.000Z</time>
</trkpt>
<trkpt lat="43.2329149" lon="-3.0651689">
<ele>629.320068</ele>
<time>2011-05-15T11:49:17.000Z</time>
</trkpt>
<trkpt lat="43.2328962" lon="-3.0652364">
<ele>628.358887</ele>
<time>2011-05-15T11:49:21.000Z</time>
</trkpt>
<trkpt lat="43.2328913" lon="-3.0652529">
<ele>628.358887</ele>
<time>2011-05-15T11:49:22.000Z</time>
</trkpt>
<trkpt lat="43.2328854" lon="-3.0652939">
<ele>626.436279</ele>
<time>2011-05-15T11:49:24.000Z</time>
</trkpt>
<trkpt lat="43.2328532" lon="-3.0655212">
<ele>623.552490</ele>
<time>2011-05-15T11:49:35.000Z</time>
</trkpt>
<trkpt lat="43.2329723" lon="-3.0658869">
<ele>623.071777</ele>
<time>2011-05-15T11:49:54.000Z</time>
</trkpt>
<trkpt lat="43.2330103" lon="-3.0660278">
<ele>623.071777</ele>
<time>2011-05-15T11:50:04.000Z</time>
</trkpt>
<trkpt lat="43.2328598" lon="-3.0663396">
<ele>623.071777</ele>
<time>2011-05-15T11:50:26.000Z</time>
</trkpt>
<trkpt lat="43.2328625" lon="-3.0664658">
<ele>623.552490</ele>
<time>2011-05-15T11:50:33.000Z</time>
</trkpt>
<trkpt lat="43.2329466" lon="-3.0667779">
<ele>625.955566</ele>
<time>2011-05-15T11:50:52.000Z</time>
</trkpt>
<trkpt lat="43.2329770" lon="-3.0668949">
<ele>625.955566</ele>
<time>2011-05-15T11:51:05.000Z</time>
</trkpt>
<trkpt lat="43.2329633" lon="-3.0668955">
<ele>625.474854</ele>
<time>2011-05-15T11:51:21.000Z</time>
</trkpt>
<trkpt lat="43.2329567" lon="-3.0669305">
<ele>625.955566</ele>
<time>2011-05-15T11:51:37.000Z</time>
</trkpt>
<trkpt lat="43.2329470" lon="-3.0669492">
<ele>627.878174</ele>
<time>2011-05-15T11:51:57.000Z</time>
</trkpt>
<trkpt lat="43.2329506" lon="-3.0669453">
<ele>625.955566</ele>
<time>2011-05-15T11:52:00.000Z</time>
</trkpt>
<trkpt lat="43.2329702" lon="-3.0669292">
<ele>625.955566</ele>
<time>2011-05-15T11:52:26.000Z</time>
</trkpt>
<trkpt lat="43.2329729" lon="-3.0669341">
<ele>625.474854</ele>
<time>2011-05-15T11:52:43.000Z</time>
</trkpt>
<trkpt lat="43.2329722" lon="-3.0669312">
<ele>626.436279</ele>
<time>2011-05-15T11:52:55.000Z</time>
</trkpt>
<trkpt lat="43.2329602" lon="-3.0669232">
<ele>625.474854</ele>
<time>2011-05-15T11:53:32.000Z</time>
</trkpt>
<trkpt lat="43.2329738" lon="-3.0668999">
<ele>627.397705</ele>
<time>2011-05-15T11:53:48.000Z</time>
</trkpt>
<trkpt lat="43.2329830" lon="-3.0669090">
<ele>626.436279</ele>
<time>2011-05-15T11:54:04.000Z</time>
</trkpt>
<trkpt lat="43.2329909" lon="-3.0669124">
<ele>627.397705</ele>
<time>2011-05-15T11:54:30.000Z</time>
</trkpt>
<trkpt lat="43.2329916" lon="-3.0669151">
<ele>626.436279</ele>
<time>2011-05-15T11:54:32.000Z</time>
</trkpt>
<trkpt lat="43.2329893" lon="-3.0669178">
<ele>625.955566</ele>
<time>2011-05-15T11:54:52.000Z</time>
</trkpt>
<trkpt lat="43.2329817" lon="-3.0669168">
<ele>624.032959</ele>
<time>2011-05-15T11:55:08.000Z</time>
</trkpt>
<trkpt lat="43.2329567" lon="-3.0667829">
<ele>624.513672</ele>
<time>2011-05-15T11:55:28.000Z</time>
</trkpt>
<trkpt lat="43.2329480" lon="-3.0667603">
<ele>624.032959</ele>
<time>2011-05-15T11:55:30.000Z</time>
</trkpt>
<trkpt lat="43.2329091" lon="-3.0666099">
<ele>624.513672</ele>
<time>2011-05-15T11:55:40.000Z</time>
</trkpt>
<trkpt lat="43.2328382" lon="-3.0662992">
<ele>622.591064</ele>
<time>2011-05-15T11:55:59.000Z</time>
</trkpt>
<trkpt lat="43.2328577" lon="-3.0662189">
<ele>622.110352</ele>
<time>2011-05-15T11:56:04.000Z</time>
</trkpt>
<trkpt lat="43.2329951" lon="-3.0660445">
<ele>626.916992</ele>
<time>2011-05-15T11:56:23.000Z</time>
</trkpt>
<trkpt lat="43.2329962" lon="-3.0660366">
<ele>624.513672</ele>
<time>2011-05-15T11:56:24.000Z</time>
</trkpt>
<trkpt lat="43.2329791" lon="-3.0659269">
<ele>623.071777</ele>
<time>2011-05-15T11:56:32.000Z</time>
</trkpt>
<trkpt lat="43.2330485" lon="-3.0657788">
<ele>623.552490</ele>
<time>2011-05-15T11:56:44.000Z</time>
</trkpt>
<trkpt lat="43.2331023" lon="-3.0654787">
<ele>624.994385</ele>
<time>2011-05-15T11:57:03.000Z</time>
</trkpt>
<trkpt lat="43.2330950" lon="-3.0653160">
<ele>628.358887</ele>
<time>2011-05-15T11:57:15.000Z</time>
</trkpt>
<trkpt lat="43.2331137" lon="-3.0652482">
<ele>628.358887</ele>
<time>2011-05-15T11:57:21.000Z</time>
</trkpt>
<trkpt lat="43.2331335" lon="-3.0652006">
<ele>629.800842</ele>
<time>2011-05-15T11:57:25.000Z</time>
</trkpt>
<trkpt lat="43.2332457" lon="-3.0651285">
<ele>631.723389</ele>
<time>2011-05-15T11:57:36.000Z</time>
</trkpt>
<trkpt lat="43.2334837" lon="-3.0650471">
<ele>634.126709</ele>
<time>2011-05-15T11:57:57.000Z</time>
</trkpt>
<trkpt lat="43.2336934" lon="-3.0649586">
<ele>637.972168</ele>
<time>2011-05-15T11:58:15.000Z</time>
</trkpt>
<trkpt lat="43.2339499" lon="-3.0648714">
<ele>639.414063</ele>
<time>2011-05-15T11:58:37.000Z</time>
</trkpt>
<trkpt lat="43.2341501" lon="-3.0648082">
<ele>642.778748</ele>
<time>2011-05-15T11:58:54.000Z</time>
</trkpt>
<trkpt lat="43.2344539" lon="-3.0645245">
<ele>645.181885</ele>
<time>2011-05-15T11:59:24.000Z</time>
</trkpt>
<trkpt lat="43.2346257" lon="-3.0641687">
<ele>648.065918</ele>
<time>2011-05-15T11:59:50.000Z</time>
</trkpt>
<trkpt lat="43.2347523" lon="-3.0638401">
<ele>651.430481</ele>
<time>2011-05-15T12:00:12.000Z</time>
</trkpt>
<trkpt lat="43.2349481" lon="-3.0636056">
<ele>654.314636</ele>
<time>2011-05-15T12:00:34.000Z</time>
</trkpt>
<trkpt lat="43.2351561" lon="-3.0633610">
<ele>657.679199</ele>
<time>2011-05-15T12:00:57.000Z</time>
</trkpt>
<trkpt lat="43.2353115" lon="-3.0633024">
<ele>656.717773</ele>
<time>2011-05-15T12:01:13.000Z</time>
</trkpt>
<trkpt lat="43.2354541" lon="-3.0632908">
<ele>655.756592</ele>
<time>2011-05-15T12:01:25.000Z</time>
</trkpt>
<trkpt lat="43.2355101" lon="-3.0633155">
<ele>654.314636</ele>
<time>2011-05-15T12:01:30.000Z</time>
</trkpt>
<trkpt lat="43.2355202" lon="-3.0633212">
<ele>654.314636</ele>
<time>2011-05-15T12:01:31.000Z</time>
</trkpt>
<trkpt lat="43.2355594" lon="-3.0633472">
<ele>652.872498</ele>
<time>2011-05-15T12:01:35.000Z</time>
</trkpt>
<trkpt lat="43.2356599" lon="-3.0634272">
<ele>650.949707</ele>
<time>2011-05-15T12:01:46.000Z</time>
</trkpt>
<trkpt lat="43.2357764" lon="-3.0635293">
<ele>648.065918</ele>
<time>2011-05-15T12:02:00.000Z</time>
</trkpt>
<trkpt lat="43.2357803" lon="-3.0635408">
<ele>648.546387</ele>
<time>2011-05-15T12:02:01.000Z</time>
</trkpt>
<trkpt lat="43.2359452" lon="-3.0636282">
<ele>644.701172</ele>
<time>2011-05-15T12:02:15.000Z</time>
</trkpt>
<trkpt lat="43.2359699" lon="-3.0636425">
<ele>644.220703</ele>
<time>2011-05-15T12:02:17.000Z</time>
</trkpt>
<trkpt lat="43.2360196" lon="-3.0636745">
<ele>642.778748</ele>
<time>2011-05-15T12:02:21.000Z</time>
</trkpt>
<trkpt lat="43.2361260" lon="-3.0637642">
<ele>639.414063</ele>
<time>2011-05-15T12:02:29.000Z</time>
</trkpt>
<trkpt lat="43.2362338" lon="-3.0638276">
<ele>636.530273</ele>
<time>2011-05-15T12:02:37.000Z</time>
</trkpt>
<trkpt lat="43.2363530" lon="-3.0638729">
<ele>633.165283</ele>
<time>2011-05-15T12:02:46.000Z</time>
</trkpt>
<trkpt lat="43.2363746" lon="-3.0638956">
<ele>632.204102</ele>
<time>2011-05-15T12:02:48.000Z</time>
</trkpt>
<trkpt lat="43.2364285" lon="-3.0639406">
<ele>630.762268</ele>
<time>2011-05-15T12:02:53.000Z</time>
</trkpt>
<trkpt lat="43.2365262" lon="-3.0640097">
<ele>627.397705</ele>
<time>2011-05-15T12:03:02.000Z</time>
</trkpt>
<trkpt lat="43.2366119" lon="-3.0640480">
<ele>625.955566</ele>
<time>2011-05-15T12:03:10.000Z</time>
</trkpt>
<trkpt lat="43.2366730" lon="-3.0641354">
<ele>622.591064</ele>
<time>2011-05-15T12:03:17.000Z</time>
</trkpt>
<trkpt lat="43.2367947" lon="-3.0642303">
<ele>619.707031</ele>
<time>2011-05-15T12:03:28.000Z</time>
</trkpt>
<trkpt lat="43.2369476" lon="-3.0642024">
<ele>615.861816</ele>
<time>2011-05-15T12:03:41.000Z</time>
</trkpt>
<trkpt lat="43.2370620" lon="-3.0642252">
<ele>613.938965</ele>
<time>2011-05-15T12:03:50.000Z</time>
</trkpt>
<trkpt lat="43.2371339" lon="-3.0642795">
<ele>612.977783</ele>
<time>2011-05-15T12:03:57.000Z</time>
</trkpt>
<trkpt lat="43.2371694" lon="-3.0643049">
<ele>611.535889</ele>
<time>2011-05-15T12:04:00.000Z</time>
</trkpt>
<trkpt lat="43.2372391" lon="-3.0643535">
<ele>609.613281</ele>
<time>2011-05-15T12:04:07.000Z</time>
</trkpt>
<trkpt lat="43.2373490" lon="-3.0643337">
<ele>606.729248</ele>
<time>2011-05-15T12:04:16.000Z</time>
</trkpt>
<trkpt lat="43.2374396" lon="-3.0643723">
<ele>603.364502</ele>
<time>2011-05-15T12:04:22.000Z</time>
</trkpt>
<trkpt lat="43.2374540" lon="-3.0643769">
<ele>603.845215</ele>
<time>2011-05-15T12:04:23.000Z</time>
</trkpt>
<trkpt lat="43.2375236" lon="-3.0644037">
<ele>603.845215</ele>
<time>2011-05-15T12:04:28.000Z</time>
</trkpt>
<trkpt lat="43.2375992" lon="-3.0644384">
<ele>601.922607</ele>
<time>2011-05-15T12:04:34.000Z</time>
</trkpt>
<trkpt lat="43.2377891" lon="-3.0644856">
<ele>599.519287</ele>
<time>2011-05-15T12:04:50.000Z</time>
</trkpt>
<trkpt lat="43.2378195" lon="-3.0645125">
<ele>599.519287</ele>
<time>2011-05-15T12:04:53.000Z</time>
</trkpt>
<trkpt lat="43.2380375" lon="-3.0645849">
<ele>598.077393</ele>
<time>2011-05-15T12:05:11.000Z</time>
</trkpt>
<trkpt lat="43.2382726" lon="-3.0646721">
<ele>598.077393</ele>
<time>2011-05-15T12:05:27.000Z</time>
</trkpt>
<trkpt lat="43.2385452" lon="-3.0648429">
<ele>595.674072</ele>
<time>2011-05-15T12:05:51.000Z</time>
</trkpt>
<trkpt lat="43.2385581" lon="-3.0648286">
<ele>594.232178</ele>
<time>2011-05-15T12:05:53.000Z</time>
</trkpt>
<trkpt lat="43.2385766" lon="-3.0648082">
<ele>594.232178</ele>
<time>2011-05-15T12:05:55.000Z</time>
</trkpt>
<trkpt lat="43.2387431" lon="-3.0648493">
<ele>596.154785</ele>
<time>2011-05-15T12:06:08.000Z</time>
</trkpt>
<trkpt lat="43.2388053" lon="-3.0648887">
<ele>598.077393</ele>
<time>2011-05-15T12:06:15.000Z</time>
</trkpt>
<trkpt lat="43.2390087" lon="-3.0649752">
<ele>600.961182</ele>
<time>2011-05-15T12:06:33.000Z</time>
</trkpt>
<trkpt lat="43.2392501" lon="-3.0650999">
<ele>603.845215</ele>
<time>2011-05-15T12:06:55.000Z</time>
</trkpt>
<trkpt lat="43.2394123" lon="-3.0651568">
<ele>606.729248</ele>
<time>2011-05-15T12:07:12.000Z</time>
</trkpt>
<trkpt lat="43.2395403" lon="-3.0652011">
<ele>610.093750</ele>
<time>2011-05-15T12:07:26.000Z</time>
</trkpt>
<trkpt lat="43.2396697" lon="-3.0652704">
<ele>613.458496</ele>
<time>2011-05-15T12:07:44.000Z</time>
</trkpt>
<trkpt lat="43.2396820" lon="-3.0652784">
<ele>613.938965</ele>
<time>2011-05-15T12:07:46.000Z</time>
</trkpt>
<trkpt lat="43.2397236" lon="-3.0653217">
<ele>614.900391</ele>
<time>2011-05-15T12:07:53.000Z</time>
</trkpt>
<trkpt lat="43.2398743" lon="-3.0654632">
<ele>619.226318</ele>
<time>2011-05-15T12:08:13.000Z</time>
</trkpt>
<trkpt lat="43.2399264" lon="-3.0655075">
<ele>621.149170</ele>
<time>2011-05-15T12:08:21.000Z</time>
</trkpt>
<trkpt lat="43.2400256" lon="-3.0656165">
<ele>624.032959</ele>
<time>2011-05-15T12:08:37.000Z</time>
</trkpt>
<trkpt lat="43.2400861" lon="-3.0656821">
<ele>626.436279</ele>
<time>2011-05-15T12:08:48.000Z</time>
</trkpt>
<trkpt lat="43.2401538" lon="-3.0657950">
<ele>629.800842</ele>
<time>2011-05-15T12:09:03.000Z</time>
</trkpt>
<trkpt lat="43.2402526" lon="-3.0658696">
<ele>633.645996</ele>
<time>2011-05-15T12:09:19.000Z</time>
</trkpt>
<trkpt lat="43.2403364" lon="-3.0659373">
<ele>636.530273</ele>
<time>2011-05-15T12:09:32.000Z</time>
</trkpt>
<trkpt lat="43.2404182" lon="-3.0659797">
<ele>639.894775</ele>
<time>2011-05-15T12:09:46.000Z</time>
</trkpt>
<trkpt lat="43.2404954" lon="-3.0660408">
<ele>643.259277</ele>
<time>2011-05-15T12:10:00.000Z</time>
</trkpt>
<trkpt lat="43.2405902" lon="-3.0661061">
<ele>647.104492</ele>
<time>2011-05-15T12:10:16.000Z</time>
</trkpt>
<trkpt lat="43.2405965" lon="-3.0661128">
<ele>647.104492</ele>
<time>2011-05-15T12:10:17.000Z</time>
</trkpt>
<trkpt lat="43.2406261" lon="-3.0661362">
<ele>648.065918</ele>
<time>2011-05-15T12:10:22.000Z</time>
</trkpt>
<trkpt lat="43.2406979" lon="-3.0661900">
<ele>650.949707</ele>
<time>2011-05-15T12:10:36.000Z</time>
</trkpt>
<trkpt lat="43.2407765" lon="-3.0662361">
<ele>654.314636</ele>
<time>2011-05-15T12:10:50.000Z</time>
</trkpt>
<trkpt lat="43.2408478" lon="-3.0663027">
<ele>657.198486</ele>
<time>2011-05-15T12:11:03.000Z</time>
</trkpt>
<trkpt lat="43.2409388" lon="-3.0663695">
<ele>660.082275</ele>
<time>2011-05-15T12:11:18.000Z</time>
</trkpt>
<trkpt lat="43.2410262" lon="-3.0664339">
<ele>663.447083</ele>
<time>2011-05-15T12:11:32.000Z</time>
</trkpt>
<trkpt lat="43.2411326" lon="-3.0664773">
<ele>666.330811</ele>
<time>2011-05-15T12:11:49.000Z</time>
</trkpt>
<trkpt lat="43.2412257" lon="-3.0665096">
<ele>669.695801</ele>
<time>2011-05-15T12:12:03.000Z</time>
</trkpt>
<trkpt lat="43.2413723" lon="-3.0665775">
<ele>673.541016</ele>
<time>2011-05-15T12:12:24.000Z</time>
</trkpt>
<trkpt lat="43.2413789" lon="-3.0665826">
<ele>673.541016</ele>
<time>2011-05-15T12:12:25.000Z</time>
</trkpt>
<trkpt lat="43.2414826" lon="-3.0666389">
<ele>676.905518</ele>
<time>2011-05-15T12:12:38.000Z</time>
</trkpt>
<trkpt lat="43.2415174" lon="-3.0666557">
<ele>675.944092</ele>
<time>2011-05-15T12:12:42.000Z</time>
</trkpt>
<trkpt lat="43.2416552" lon="-3.0667306">
<ele>679.308594</ele>
<time>2011-05-15T12:12:59.000Z</time>
</trkpt>
<trkpt lat="43.2416639" lon="-3.0667326">
<ele>679.789307</ele>
<time>2011-05-15T12:13:00.000Z</time>
</trkpt>
<trkpt lat="43.2417966" lon="-3.0667837">
<ele>682.673340</ele>
<time>2011-05-15T12:13:17.000Z</time>
</trkpt>
<trkpt lat="43.2419117" lon="-3.0667994">
<ele>686.038025</ele>
<time>2011-05-15T12:13:32.000Z</time>
</trkpt>
<trkpt lat="43.2420299" lon="-3.0668210">
<ele>689.402588</ele>
<time>2011-05-15T12:13:48.000Z</time>
</trkpt>
<trkpt lat="43.2420493" lon="-3.0668248">
<ele>690.364014</ele>
<time>2011-05-15T12:13:50.000Z</time>
</trkpt>
<trkpt lat="43.2421576" lon="-3.0668529">
<ele>693.247803</ele>
<time>2011-05-15T12:14:05.000Z</time>
</trkpt>
<trkpt lat="43.2422630" lon="-3.0668595">
<ele>696.612488</ele>
<time>2011-05-15T12:14:19.000Z</time>
</trkpt>
<trkpt lat="43.2423238" lon="-3.0668540">
<ele>698.534912</ele>
<time>2011-05-15T12:14:28.000Z</time>
</trkpt>
<trkpt lat="43.2424307" lon="-3.0668811">
<ele>701.899902</ele>
<time>2011-05-15T12:14:44.000Z</time>
</trkpt>
<trkpt lat="43.2425491" lon="-3.0668881">
<ele>704.783691</ele>
<time>2011-05-15T12:15:00.000Z</time>
</trkpt>
<trkpt lat="43.2426447" lon="-3.0668893">
<ele>708.148376</ele>
<time>2011-05-15T12:15:13.000Z</time>
</trkpt>
<trkpt lat="43.2427527" lon="-3.0668965">
<ele>711.512939</ele>
<time>2011-05-15T12:15:27.000Z</time>
</trkpt>
<trkpt lat="43.2428242" lon="-3.0669114">
<ele>713.916016</ele>
<time>2011-05-15T12:15:36.000Z</time>
</trkpt>
<trkpt lat="43.2429207" lon="-3.0669549">
<ele>716.800293</ele>
<time>2011-05-15T12:15:49.000Z</time>
</trkpt>
<trkpt lat="43.2430228" lon="-3.0669028">
<ele>720.645508</ele>
<time>2011-05-15T12:16:01.000Z</time>
</trkpt>
<trkpt lat="43.2430310" lon="-3.0669013">
<ele>719.203552</ele>
<time>2011-05-15T12:16:02.000Z</time>
</trkpt>
<trkpt lat="43.2430869" lon="-3.0669234">
<ele>719.684265</ele>
<time>2011-05-15T12:16:16.000Z</time>
</trkpt>
<trkpt lat="43.2431475" lon="-3.0669999">
<ele>718.242249</ele>
<time>2011-05-15T12:16:30.000Z</time>
</trkpt>
<trkpt lat="43.2432146" lon="-3.0670800">
<ele>716.800293</ele>
<time>2011-05-15T12:16:48.000Z</time>
</trkpt>
<trkpt lat="43.2432205" lon="-3.0670867">
<ele>716.800293</ele>
<time>2011-05-15T12:16:49.000Z</time>
</trkpt>
<trkpt lat="43.2432994" lon="-3.0672656">
<ele>713.435547</ele>
<time>2011-05-15T12:17:04.000Z</time>
</trkpt>
<trkpt lat="43.2433569" lon="-3.0673185">
<ele>710.070801</ele>
<time>2011-05-15T12:17:12.000Z</time>
</trkpt>
<trkpt lat="43.2433646" lon="-3.0673218">
<ele>710.070801</ele>
<time>2011-05-15T12:17:13.000Z</time>
</trkpt>
<trkpt lat="43.2434052" lon="-3.0673296">
<ele>709.109619</ele>
<time>2011-05-15T12:17:18.000Z</time>
</trkpt>
<trkpt lat="43.2434282" lon="-3.0673239">
<ele>707.667664</ele>
<time>2011-05-15T12:17:21.000Z</time>
</trkpt>
<trkpt lat="43.2434439" lon="-3.0673191">
<ele>707.667664</ele>
<time>2011-05-15T12:17:23.000Z</time>
</trkpt>
<trkpt lat="43.2434611" lon="-3.0673306">
<ele>705.745117</ele>
<time>2011-05-15T12:17:25.000Z</time>
</trkpt>
<trkpt lat="43.2435070" lon="-3.0673903">
<ele>703.822510</ele>
<time>2011-05-15T12:17:31.000Z</time>
</trkpt>
<trkpt lat="43.2435765" lon="-3.0673937">
<ele>699.977051</ele>
<time>2011-05-15T12:17:39.000Z</time>
</trkpt>
<trkpt lat="43.2436014" lon="-3.0673798">
<ele>698.534912</ele>
<time>2011-05-15T12:17:42.000Z</time>
</trkpt>
<trkpt lat="43.2436628" lon="-3.0673944">
<ele>695.651184</ele>
<time>2011-05-15T12:17:49.000Z</time>
</trkpt>
<trkpt lat="43.2437277" lon="-3.0674193">
<ele>692.286621</ele>
<time>2011-05-15T12:17:57.000Z</time>
</trkpt>
<trkpt lat="43.2437547" lon="-3.0674233">
<ele>690.844482</ele>
<time>2011-05-15T12:18:00.000Z</time>
</trkpt>
<trkpt lat="43.2437839" lon="-3.0674317">
<ele>689.402588</ele>
<time>2011-05-15T12:18:03.000Z</time>
</trkpt>
<trkpt lat="43.2438537" lon="-3.0674674">
<ele>686.038025</ele>
<time>2011-05-15T12:18:11.000Z</time>
</trkpt>
<trkpt lat="43.2439117" lon="-3.0675162">
<ele>682.673340</ele>
<time>2011-05-15T12:18:18.000Z</time>
</trkpt>
<trkpt lat="43.2439548" lon="-3.0675428">
<ele>680.270020</ele>
<time>2011-05-15T12:18:23.000Z</time>
</trkpt>
<trkpt lat="43.2440104" lon="-3.0675485">
<ele>677.386230</ele>
<time>2011-05-15T12:18:29.000Z</time>
</trkpt>
<trkpt lat="43.2440196" lon="-3.0675486">
<ele>676.905518</ele>
<time>2011-05-15T12:18:30.000Z</time>
</trkpt>
<trkpt lat="43.2440645" lon="-3.0675793">
<ele>674.982849</ele>
<time>2011-05-15T12:18:35.000Z</time>
</trkpt>
<trkpt lat="43.2441282" lon="-3.0676061">
<ele>673.541016</ele>
<time>2011-05-15T12:18:42.000Z</time>
</trkpt>
<trkpt lat="43.2441451" lon="-3.0676247">
<ele>670.656982</ele>
<time>2011-05-15T12:18:44.000Z</time>
</trkpt>
<trkpt lat="43.2441785" lon="-3.0676490">
<ele>669.215088</ele>
<time>2011-05-15T12:18:48.000Z</time>
</trkpt>
<trkpt lat="43.2442208" lon="-3.0676688">
<ele>666.811523</ele>
<time>2011-05-15T12:18:53.000Z</time>
</trkpt>
<trkpt lat="43.2442734" lon="-3.0677189">
<ele>663.447083</ele>
<time>2011-05-15T12:19:00.000Z</time>
</trkpt>
<trkpt lat="43.2443169" lon="-3.0677391">
<ele>662.005127</ele>
<time>2011-05-15T12:19:05.000Z</time>
</trkpt>
<trkpt lat="43.2443892" lon="-3.0677673">
<ele>658.640381</ele>
<time>2011-05-15T12:19:14.000Z</time>
</trkpt>
<trkpt lat="43.2443969" lon="-3.0677740">
<ele>658.159912</ele>
<time>2011-05-15T12:19:15.000Z</time>
</trkpt>
<trkpt lat="43.2444568" lon="-3.0678051">
<ele>655.275879</ele>
<time>2011-05-15T12:19:22.000Z</time>
</trkpt>
<trkpt lat="43.2445079" lon="-3.0678215">
<ele>653.353210</ele>
<time>2011-05-15T12:19:28.000Z</time>
</trkpt>
<trkpt lat="43.2445601" lon="-3.0678559">
<ele>650.949707</ele>
<time>2011-05-15T12:19:34.000Z</time>
</trkpt>
<trkpt lat="43.2446530" lon="-3.0678880">
<ele>646.143311</ele>
<time>2011-05-15T12:19:45.000Z</time>
</trkpt>
<trkpt lat="43.2447447" lon="-3.0679358">
<ele>642.778748</ele>
<time>2011-05-15T12:19:57.000Z</time>
</trkpt>
<trkpt lat="43.2448082" lon="-3.0679722">
<ele>639.894775</ele>
<time>2011-05-15T12:20:04.000Z</time>
</trkpt>
<trkpt lat="43.2448506" lon="-3.0679869">
<ele>638.933594</ele>
<time>2011-05-15T12:20:08.000Z</time>
</trkpt>
<trkpt lat="43.2449068" lon="-3.0680103">
<ele>637.491455</ele>
<time>2011-05-15T12:20:13.000Z</time>
</trkpt>
<trkpt lat="43.2449475" lon="-3.0680386">
<ele>636.530273</ele>
<time>2011-05-15T12:20:17.000Z</time>
</trkpt>
<trkpt lat="43.2450349" lon="-3.0680806">
<ele>633.165283</ele>
<time>2011-05-15T12:20:26.000Z</time>
</trkpt>
<trkpt lat="43.2452533" lon="-3.0680614">
<ele>632.684814</ele>
<time>2011-05-15T12:20:44.000Z</time>
</trkpt>
<trkpt lat="43.2454108" lon="-3.0680796">
<ele>636.049561</ele>
<time>2011-05-15T12:21:00.000Z</time>
</trkpt>
<trkpt lat="43.2455095" lon="-3.0680948">
<ele>638.452881</ele>
<time>2011-05-15T12:21:11.000Z</time>
</trkpt>
<trkpt lat="43.2455458" lon="-3.0680808">
<ele>640.856018</ele>
<time>2011-05-15T12:21:15.000Z</time>
</trkpt>
<trkpt lat="43.2456330" lon="-3.0680445">
<ele>640.856018</ele>
<time>2011-05-15T12:21:29.000Z</time>
</trkpt>
<trkpt lat="43.2457342" lon="-3.0680237">
<ele>644.701172</ele>
<time>2011-05-15T12:21:46.000Z</time>
</trkpt>
<trkpt lat="43.2457943" lon="-3.0680113">
<ele>647.104492</ele>
<time>2011-05-15T12:21:57.000Z</time>
</trkpt>
<trkpt lat="43.2459035" lon="-3.0680097">
<ele>650.469238</ele>
<time>2011-05-15T12:22:13.000Z</time>
</trkpt>
<trkpt lat="43.2459809" lon="-3.0680330">
<ele>653.353210</ele>
<time>2011-05-15T12:22:25.000Z</time>
</trkpt>
<trkpt lat="43.2460593" lon="-3.0680352">
<ele>656.717773</ele>
<time>2011-05-15T12:22:38.000Z</time>
</trkpt>
<trkpt lat="43.2461462" lon="-3.0680102">
<ele>659.601807</ele>
<time>2011-05-15T12:22:53.000Z</time>
</trkpt>
<trkpt lat="43.2461854" lon="-3.0679956">
<ele>661.524414</ele>
<time>2011-05-15T12:23:00.000Z</time>
</trkpt>
<trkpt lat="43.2462827" lon="-3.0679689">
<ele>664.888916</ele>
<time>2011-05-15T12:23:17.000Z</time>
</trkpt>
<trkpt lat="43.2463501" lon="-3.0679530">
<ele>667.772644</ele>
<time>2011-05-15T12:23:30.000Z</time>
</trkpt>
<trkpt lat="43.2464104" lon="-3.0679546">
<ele>670.656982</ele>
<time>2011-05-15T12:23:41.000Z</time>
</trkpt>
<trkpt lat="43.2464961" lon="-3.0679345">
<ele>674.502258</ele>
<time>2011-05-15T12:23:55.000Z</time>
</trkpt>
<trkpt lat="43.2465872" lon="-3.0679021">
<ele>678.347412</ele>
<time>2011-05-15T12:24:10.000Z</time>
</trkpt>
<trkpt lat="43.2466819" lon="-3.0678810">
<ele>681.711914</ele>
<time>2011-05-15T12:24:26.000Z</time>
</trkpt>
<trkpt lat="43.2467730" lon="-3.0678745">
<ele>685.076904</ele>
<time>2011-05-15T12:24:41.000Z</time>
</trkpt>
<trkpt lat="43.2468852" lon="-3.0678647">
<ele>688.922119</ele>
<time>2011-05-15T12:25:00.000Z</time>
</trkpt>
<trkpt lat="43.2468904" lon="-3.0678648">
<ele>688.922119</ele>
<time>2011-05-15T12:25:01.000Z</time>
</trkpt>
<trkpt lat="43.2469249" lon="-3.0678665">
<ele>690.844482</ele>
<time>2011-05-15T12:25:07.000Z</time>
</trkpt>
<trkpt lat="43.2470134" lon="-3.0678511">
<ele>694.209229</ele>
<time>2011-05-15T12:25:22.000Z</time>
</trkpt>
<trkpt lat="43.2470964" lon="-3.0678807">
<ele>698.054443</ele>
<time>2011-05-15T12:25:37.000Z</time>
</trkpt>
<trkpt lat="43.2471889" lon="-3.0679097">
<ele>700.938477</ele>
<time>2011-05-15T12:25:52.000Z</time>
</trkpt>
<trkpt lat="43.2473035" lon="-3.0678966">
<ele>704.783691</ele>
<time>2011-05-15T12:26:10.000Z</time>
</trkpt>
<trkpt lat="43.2473666" lon="-3.0679407">
<ele>708.628906</ele>
<time>2011-05-15T12:26:22.000Z</time>
</trkpt>
<trkpt lat="43.2474439" lon="-3.0679743">
<ele>711.512939</ele>
<time>2011-05-15T12:26:36.000Z</time>
</trkpt>
<trkpt lat="43.2475077" lon="-3.0679895">
<ele>714.877441</ele>
<time>2011-05-15T12:26:48.000Z</time>
</trkpt>
<trkpt lat="43.2475507" lon="-3.0679831">
<ele>716.800293</ele>
<time>2011-05-15T12:26:56.000Z</time>
</trkpt>
<trkpt lat="43.2476270" lon="-3.0679967">
<ele>720.164795</ele>
<time>2011-05-15T12:27:10.000Z</time>
</trkpt>
<trkpt lat="43.2476666" lon="-3.0679966">
<ele>721.606689</ele>
<time>2011-05-15T12:27:17.000Z</time>
</trkpt>
<trkpt lat="43.2477391" lon="-3.0680047">
<ele>725.451904</ele>
<time>2011-05-15T12:27:31.000Z</time>
</trkpt>
<trkpt lat="43.2478196" lon="-3.0680031">
<ele>728.816711</ele>
<time>2011-05-15T12:27:45.000Z</time>
</trkpt>
<trkpt lat="43.2478675" lon="-3.0679926">
<ele>731.219971</ele>
<time>2011-05-15T12:27:54.000Z</time>
</trkpt>
<trkpt lat="43.2479043" lon="-3.0679865">
<ele>732.662109</ele>
<time>2011-05-15T12:28:01.000Z</time>
</trkpt>
<trkpt lat="43.2479796" lon="-3.0680014">
<ele>736.026611</ele>
<time>2011-05-15T12:28:15.000Z</time>
</trkpt>
<trkpt lat="43.2480058" lon="-3.0680047">
<ele>737.468506</ele>
<time>2011-05-15T12:28:20.000Z</time>
</trkpt>
<trkpt lat="43.2480288" lon="-3.0680144">
<ele>737.949219</ele>
<time>2011-05-15T12:28:24.000Z</time>
</trkpt>
<trkpt lat="43.2481397" lon="-3.0680310">
<ele>739.871887</ele>
<time>2011-05-15T12:28:39.000Z</time>
</trkpt>
<trkpt lat="43.2484011" lon="-3.0679955">
<ele>738.910645</ele>
<time>2011-05-15T12:29:00.000Z</time>
</trkpt>
<trkpt lat="43.2485032" lon="-3.0679906">
<ele>739.871887</ele>
<time>2011-05-15T12:29:09.000Z</time>
</trkpt>
<trkpt lat="43.2486764" lon="-3.0679880">
<ele>743.717041</ele>
<time>2011-05-15T12:29:26.000Z</time>
</trkpt>
<trkpt lat="43.2487867" lon="-3.0679781">
<ele>745.158936</ele>
<time>2011-05-15T12:29:41.000Z</time>
</trkpt>
<trkpt lat="43.2488718" lon="-3.0679662">
<ele>747.081543</ele>
<time>2011-05-15T12:29:53.000Z</time>
</trkpt>
<trkpt lat="43.2488893" lon="-3.0679629">
<ele>748.043213</ele>
<time>2011-05-15T12:29:55.000Z</time>
</trkpt>
<trkpt lat="43.2490503" lon="-3.0679315">
<ele>750.446533</ele>
<time>2011-05-15T12:30:14.000Z</time>
</trkpt>
<trkpt lat="43.2492436" lon="-3.0678611">
<ele>752.849609</ele>
<time>2011-05-15T12:30:32.000Z</time>
</trkpt>
<trkpt lat="43.2493788" lon="-3.0678164">
<ele>756.214111</ele>
<time>2011-05-15T12:30:44.000Z</time>
</trkpt>
<trkpt lat="43.2495291" lon="-3.0677511">
<ele>759.578857</ele>
<time>2011-05-15T12:31:01.000Z</time>
</trkpt>
<trkpt lat="43.2496767" lon="-3.0676866">
<ele>762.943359</ele>
<time>2011-05-15T12:31:20.000Z</time>
</trkpt>
<trkpt lat="43.2498384" lon="-3.0675927">
<ele>766.308105</ele>
<time>2011-05-15T12:31:42.000Z</time>
</trkpt>
<trkpt lat="43.2499916" lon="-3.0675143">
<ele>768.711426</ele>
<time>2011-05-15T12:32:01.000Z</time>
</trkpt>
<trkpt lat="43.2500070" lon="-3.0675045">
<ele>770.153320</ele>
<time>2011-05-15T12:32:03.000Z</time>
</trkpt>
<trkpt lat="43.2501293" lon="-3.0674238">
<ele>773.037292</ele>
<time>2011-05-15T12:32:19.000Z</time>
</trkpt>
<trkpt lat="43.2501625" lon="-3.0674021">
<ele>774.479248</ele>
<time>2011-05-15T12:32:24.000Z</time>
</trkpt>
<trkpt lat="43.2502382" lon="-3.0673625">
<ele>777.363281</ele>
<time>2011-05-15T12:32:35.000Z</time>
</trkpt>
<trkpt lat="43.2503350" lon="-3.0672805">
<ele>780.247314</ele>
<time>2011-05-15T12:32:50.000Z</time>
</trkpt>
<trkpt lat="43.2504322" lon="-3.0671969">
<ele>783.611877</ele>
<time>2011-05-15T12:33:04.000Z</time>
</trkpt>
<trkpt lat="43.2506350" lon="-3.0670580">
<ele>786.015137</ele>
<time>2011-05-15T12:33:27.000Z</time>
</trkpt>
<trkpt lat="43.2508919" lon="-3.0668987">
<ele>784.573181</ele>
<time>2011-05-15T12:33:49.000Z</time>
</trkpt>
<trkpt lat="43.2510745" lon="-3.0666969">
<ele>787.457031</ele>
<time>2011-05-15T12:34:09.000Z</time>
</trkpt>
<trkpt lat="43.2512009" lon="-3.0664705">
<ele>788.899170</ele>
<time>2011-05-15T12:34:27.000Z</time>
</trkpt>
<trkpt lat="43.2512850" lon="-3.0661713">
<ele>789.860352</ele>
<time>2011-05-15T12:34:48.000Z</time>
</trkpt>
<trkpt lat="43.2513972" lon="-3.0659419">
<ele>788.899170</ele>
<time>2011-05-15T12:35:06.000Z</time>
</trkpt>
<trkpt lat="43.2514140" lon="-3.0659197">
<ele>788.418457</ele>
<time>2011-05-15T12:35:08.000Z</time>
</trkpt>
<trkpt lat="43.2516311" lon="-3.0657413">
<ele>787.457031</ele>
<time>2011-05-15T12:35:27.000Z</time>
</trkpt>
<trkpt lat="43.2517964" lon="-3.0655177">
<ele>787.457031</ele>
<time>2011-05-15T12:35:44.000Z</time>
</trkpt>
<trkpt lat="43.2518978" lon="-3.0652936">
<ele>790.341064</ele>
<time>2011-05-15T12:36:02.000Z</time>
</trkpt>
<trkpt lat="43.2520175" lon="-3.0651191">
<ele>792.744385</ele>
<time>2011-05-15T12:36:21.000Z</time>
</trkpt>
<trkpt lat="43.2521421" lon="-3.0649400">
<ele>795.628174</ele>
<time>2011-05-15T12:36:40.000Z</time>
</trkpt>
<trkpt lat="43.2522364" lon="-3.0647955">
<ele>798.512207</ele>
<time>2011-05-15T12:36:56.000Z</time>
</trkpt>
<trkpt lat="43.2523442" lon="-3.0646523">
<ele>800.435059</ele>
<time>2011-05-15T12:37:12.000Z</time>
</trkpt>
<trkpt lat="43.2524818" lon="-3.0646374">
<ele>799.473633</ele>
<time>2011-05-15T12:37:26.000Z</time>
</trkpt>
<trkpt lat="43.2525925" lon="-3.0646473">
<ele>796.589844</ele>
<time>2011-05-15T12:37:39.000Z</time>
</trkpt>
<trkpt lat="43.2527022" lon="-3.0646948">
<ele>794.666748</ele>
<time>2011-05-15T12:37:49.000Z</time>
</trkpt>
<trkpt lat="43.2527831" lon="-3.0647297">
<ele>791.782959</ele>
<time>2011-05-15T12:37:58.000Z</time>
</trkpt>
<trkpt lat="43.2529117" lon="-3.0648070">
<ele>788.899170</ele>
<time>2011-05-15T12:38:12.000Z</time>
</trkpt>
<trkpt lat="43.2529651" lon="-3.0648420">
<ele>789.379639</ele>
<time>2011-05-15T12:38:16.000Z</time>
</trkpt>
<trkpt lat="43.2531759" lon="-3.0649768">
<ele>785.053894</ele>
<time>2011-05-15T12:38:31.000Z</time>
</trkpt>
<trkpt lat="43.2531834" lon="-3.0649735">
<ele>785.534424</ele>
<time>2011-05-15T12:38:32.000Z</time>
</trkpt>
<trkpt lat="43.2532100" lon="-3.0649764">
<ele>784.573181</ele>
<time>2011-05-15T12:38:35.000Z</time>
</trkpt>
<trkpt lat="43.2533543" lon="-3.0650460">
<ele>782.650635</ele>
<time>2011-05-15T12:38:46.000Z</time>
</trkpt>
<trkpt lat="43.2534430" lon="-3.0650787">
<ele>781.689209</ele>
<time>2011-05-15T12:38:52.000Z</time>
</trkpt>
<trkpt lat="43.2535974" lon="-3.0651472">
<ele>779.285645</ele>
<time>2011-05-15T12:39:07.000Z</time>
</trkpt>
<trkpt lat="43.2536991" lon="-3.0652081">
<ele>778.324463</ele>
<time>2011-05-15T12:39:19.000Z</time>
</trkpt>
<trkpt lat="43.2538319" lon="-3.0653331">
<ele>775.440430</ele>
<time>2011-05-15T12:39:33.000Z</time>
</trkpt>
<trkpt lat="43.2540330" lon="-3.0654052">
<ele>772.075989</ele>
<time>2011-05-15T12:39:45.000Z</time>
</trkpt>
<trkpt lat="43.2540878" lon="-3.0654103">
<ele>770.634033</ele>
<time>2011-05-15T12:39:50.000Z</time>
</trkpt>
<trkpt lat="43.2542144" lon="-3.0653894">
<ele>769.192139</ele>
<time>2011-05-15T12:40:02.000Z</time>
</trkpt>
<trkpt lat="43.2542413" lon="-3.0653776">
<ele>768.230713</ele>
<time>2011-05-15T12:40:04.000Z</time>
</trkpt>
<trkpt lat="43.2543222" lon="-3.0653610">
<ele>765.346924</ele>
<time>2011-05-15T12:40:12.000Z</time>
</trkpt>
<trkpt lat="43.2544431" lon="-3.0653250">
<ele>761.982117</ele>
<time>2011-05-15T12:40:20.000Z</time>
</trkpt>
<trkpt lat="43.2545154" lon="-3.0652854">
<ele>760.059326</ele>
<time>2011-05-15T12:40:27.000Z</time>
</trkpt>
<trkpt lat="43.2545396" lon="-3.0652953">
<ele>759.578857</ele>
<time>2011-05-15T12:40:30.000Z</time>
</trkpt>
<trkpt lat="43.2546520" lon="-3.0653103">
<ele>756.214111</ele>
<time>2011-05-15T12:40:38.000Z</time>
</trkpt>
<trkpt lat="43.2547841" lon="-3.0653087">
<ele>752.849609</ele>
<time>2011-05-15T12:40:48.000Z</time>
</trkpt>
<trkpt lat="43.2547988" lon="-3.0653134">
<ele>752.849609</ele>
<time>2011-05-15T12:40:49.000Z</time>
</trkpt>
<trkpt lat="43.2548270" lon="-3.0653181">
<ele>753.330322</ele>
<time>2011-05-15T12:40:51.000Z</time>
</trkpt>
<trkpt lat="43.2548840" lon="-3.0653669">
<ele>750.927063</ele>
<time>2011-05-15T12:40:57.000Z</time>
</trkpt>
<trkpt lat="43.2549810" lon="-3.0653996">
<ele>750.927063</ele>
<time>2011-05-15T12:41:04.000Z</time>
</trkpt>
<trkpt lat="43.2551806" lon="-3.0654102">
<ele>748.523682</ele>
<time>2011-05-15T12:41:18.000Z</time>
</trkpt>
<trkpt lat="43.2553466" lon="-3.0654540">
<ele>749.965820</ele>
<time>2011-05-15T12:41:33.000Z</time>
</trkpt>
<trkpt lat="43.2555584" lon="-3.0654659">
<ele>752.849609</ele>
<time>2011-05-15T12:41:50.000Z</time>
</trkpt>
<trkpt lat="43.2556908" lon="-3.0655084">
<ele>755.733643</ele>
<time>2011-05-15T12:42:02.000Z</time>
</trkpt>
<trkpt lat="43.2557315" lon="-3.0655267">
<ele>756.694824</ele>
<time>2011-05-15T12:42:07.000Z</time>
</trkpt>
<trkpt lat="43.2558545" lon="-3.0655761">
<ele>759.578857</ele>
<time>2011-05-15T12:42:22.000Z</time>
</trkpt>
<trkpt lat="43.2559139" lon="-3.0656166">
<ele>761.982117</ele>
<time>2011-05-15T12:42:29.000Z</time>
</trkpt>
<trkpt lat="43.2560750" lon="-3.0657507">
<ele>760.540100</ele>
<time>2011-05-15T12:42:45.000Z</time>
</trkpt>
<trkpt lat="43.2562564" lon="-3.0658979">
<ele>760.540100</ele>
<time>2011-05-15T12:43:02.000Z</time>
</trkpt>
<trkpt lat="43.2565299" lon="-3.0660649">
<ele>760.540100</ele>
<time>2011-05-15T12:43:26.000Z</time>
</trkpt>
<trkpt lat="43.2565802" lon="-3.0660808">
<ele>760.059326</ele>
<time>2011-05-15T12:43:30.000Z</time>
</trkpt>
<trkpt lat="43.2566428" lon="-3.0661460">
<ele>760.540100</ele>
<time>2011-05-15T12:43:36.000Z</time>
</trkpt>
<trkpt lat="43.2567159" lon="-3.0662312">
<ele>761.020813</ele>
<time>2011-05-15T12:43:43.000Z</time>
</trkpt>
<trkpt lat="43.2569054" lon="-3.0663690">
<ele>762.943359</ele>
<time>2011-05-15T12:44:01.000Z</time>
</trkpt>
<trkpt lat="43.2570868" lon="-3.0664878">
<ele>766.308105</ele>
<time>2011-05-15T12:44:23.000Z</time>
</trkpt>
<trkpt lat="43.2571888" lon="-3.0665446">
<ele>769.192139</ele>
<time>2011-05-15T12:44:36.000Z</time>
</trkpt>
<trkpt lat="43.2572499" lon="-3.0665883">
<ele>772.556702</ele>
<time>2011-05-15T12:44:46.000Z</time>
</trkpt>
<trkpt lat="43.2572640" lon="-3.0665951">
<ele>773.998535</ele>
<time>2011-05-15T12:44:48.000Z</time>
</trkpt>
<trkpt lat="43.2573743" lon="-3.0666342">
<ele>775.921143</ele>
<time>2011-05-15T12:45:04.000Z</time>
</trkpt>
<trkpt lat="43.2574634" lon="-3.0666727">
<ele>778.805176</ele>
<time>2011-05-15T12:45:17.000Z</time>
</trkpt>
<trkpt lat="43.2575151" lon="-3.0666917">
<ele>780.728027</ele>
<time>2011-05-15T12:45:24.000Z</time>
</trkpt>
<trkpt lat="43.2575918" lon="-3.0667032">
<ele>782.650635</ele>
<time>2011-05-15T12:45:34.000Z</time>
</trkpt>
<trkpt lat="43.2576619" lon="-3.0667176">
<ele>784.092468</ele>
<time>2011-05-15T12:45:43.000Z</time>
</trkpt>
<trkpt lat="43.2577473" lon="-3.0667271">
<ele>786.495850</ele>
<time>2011-05-15T12:45:54.000Z</time>
</trkpt>
<trkpt lat="43.2578456" lon="-3.0667613">
<ele>790.341064</ele>
<time>2011-05-15T12:46:08.000Z</time>
</trkpt>
<trkpt lat="43.2579922" lon="-3.0667575">
<ele>793.224915</ele>
<time>2011-05-15T12:46:24.000Z</time>
</trkpt>
<trkpt lat="43.2580901" lon="-3.0667270">
<ele>793.705627</ele>
<time>2011-05-15T12:46:33.000Z</time>
</trkpt>
<trkpt lat="43.2582015" lon="-3.0667364">
<ele>793.705627</ele>
<time>2011-05-15T12:46:42.000Z</time>
</trkpt>
<trkpt lat="43.2583857" lon="-3.0668494">
<ele>797.070313</ele>
<time>2011-05-15T12:47:01.000Z</time>
</trkpt>
<trkpt lat="43.2584827" lon="-3.0669051">
<ele>800.435059</ele>
<time>2011-05-15T12:47:12.000Z</time>
</trkpt>
<trkpt lat="43.2586107" lon="-3.0669810">
<ele>803.799561</ele>
<time>2011-05-15T12:47:26.000Z</time>
</trkpt>
<trkpt lat="43.2587307" lon="-3.0670668">
<ele>806.683350</ele>
<time>2011-05-15T12:47:41.000Z</time>
</trkpt>
<trkpt lat="43.2588095" lon="-3.0671146">
<ele>810.047791</ele>
<time>2011-05-15T12:47:53.000Z</time>
</trkpt>
<trkpt lat="43.2588423" lon="-3.0671281">
<ele>811.489990</ele>
<time>2011-05-15T12:47:58.000Z</time>
</trkpt>
<trkpt lat="43.2589117" lon="-3.0671752">
<ele>814.374023</ele>
<time>2011-05-15T12:48:09.000Z</time>
</trkpt>
<trkpt lat="43.2589957" lon="-3.0672222">
<ele>817.738525</ele>
<time>2011-05-15T12:48:21.000Z</time>
</trkpt>
<trkpt lat="43.2590356" lon="-3.0672440">
<ele>819.661377</ele>
<time>2011-05-15T12:48:27.000Z</time>
</trkpt>
<trkpt lat="43.2590903" lon="-3.0672859">
<ele>822.545166</ele>
<time>2011-05-15T12:48:35.000Z</time>
</trkpt>
<trkpt lat="43.2591843" lon="-3.0673674">
<ele>824.467773</ele>
<time>2011-05-15T12:48:51.000Z</time>
</trkpt>
<trkpt lat="43.2591879" lon="-3.0673688">
<ele>823.506592</ele>
<time>2011-05-15T12:48:53.000Z</time>
</trkpt>
<trkpt lat="43.2591836" lon="-3.0673632">
<ele>823.987061</ele>
<time>2011-05-15T12:49:55.000Z</time>
</trkpt>
<trkpt lat="43.2592848" lon="-3.0674264">
<ele>823.025879</ele>
<time>2011-05-15T12:50:08.000Z</time>
</trkpt>
<trkpt lat="43.2593093" lon="-3.0674527">
<ele>825.428955</ele>
<time>2011-05-15T12:50:11.000Z</time>
</trkpt>
<trkpt lat="43.2593514" lon="-3.0675310">
<ele>826.871155</ele>
<time>2011-05-15T12:50:28.000Z</time>
</trkpt>
<trkpt lat="43.2593717" lon="-3.0675540">
<ele>827.832275</ele>
<time>2011-05-15T12:50:31.000Z</time>
</trkpt>
<trkpt lat="43.2594331" lon="-3.0676268">
<ele>825.428955</ele>
<time>2011-05-15T12:50:39.000Z</time>
</trkpt>
<trkpt lat="43.2595463" lon="-3.0677288">
<ele>824.948486</ele>
<time>2011-05-15T12:50:58.000Z</time>
</trkpt>
<trkpt lat="43.2595321" lon="-3.0677049">
<ele>825.428955</ele>
<time>2011-05-15T12:51:15.000Z</time>
</trkpt>
<trkpt lat="43.2596158" lon="-3.0677647">
<ele>824.467773</ele>
<time>2011-05-15T12:51:33.000Z</time>
</trkpt>
<trkpt lat="43.2598222" lon="-3.0679564">
<ele>823.987061</ele>
<time>2011-05-15T12:51:52.000Z</time>
</trkpt>
<trkpt lat="43.2598928" lon="-3.0680116">
<ele>823.506592</ele>
<time>2011-05-15T12:51:58.000Z</time>
</trkpt>
<trkpt lat="43.2599243" lon="-3.0680496">
<ele>822.064453</ele>
<time>2011-05-15T12:52:01.000Z</time>
</trkpt>
<trkpt lat="43.2599494" lon="-3.0680706">
<ele>822.064453</ele>
<time>2011-05-15T12:52:03.000Z</time>
</trkpt>
<trkpt lat="43.2600446" lon="-3.0681884">
<ele>819.661377</ele>
<time>2011-05-15T12:52:12.000Z</time>
</trkpt>
<trkpt lat="43.2601939" lon="-3.0683893">
<ele>819.180664</ele>
<time>2011-05-15T12:52:27.000Z</time>
</trkpt>
<trkpt lat="43.2603068" lon="-3.0684863">
<ele>817.257996</ele>
<time>2011-05-15T12:52:36.000Z</time>
</trkpt>
<trkpt lat="43.2604645" lon="-3.0686404">
<ele>817.257996</ele>
<time>2011-05-15T12:52:51.000Z</time>
</trkpt>
<trkpt lat="43.2605648" lon="-3.0687198">
<ele>816.296692</ele>
<time>2011-05-15T12:52:59.000Z</time>
</trkpt>
<trkpt lat="43.2605958" lon="-3.0687462">
<ele>815.816162</ele>
<time>2011-05-15T12:53:02.000Z</time>
</trkpt>
<trkpt lat="43.2606321" lon="-3.0688194">
<ele>813.412842</ele>
<time>2011-05-15T12:53:10.000Z</time>
</trkpt>
<trkpt lat="43.2606894" lon="-3.0688822">
<ele>812.451416</ele>
<time>2011-05-15T12:53:16.000Z</time>
</trkpt>
<trkpt lat="43.2608875" lon="-3.0690446">
<ele>811.009277</ele>
<time>2011-05-15T12:53:34.000Z</time>
</trkpt>
<trkpt lat="43.2610634" lon="-3.0693123">
<ele>811.009277</ele>
<time>2011-05-15T12:53:54.000Z</time>
</trkpt>
<trkpt lat="43.2612695" lon="-3.0695363">
<ele>811.009277</ele>
<time>2011-05-15T12:54:14.000Z</time>
</trkpt>
<trkpt lat="43.2614759" lon="-3.0697641">
<ele>810.528564</ele>
<time>2011-05-15T12:54:33.000Z</time>
</trkpt>
<trkpt lat="43.2616157" lon="-3.0699394">
<ele>813.893311</ele>
<time>2011-05-15T12:54:49.000Z</time>
</trkpt>
<trkpt lat="43.2617353" lon="-3.0700708">
<ele>817.257996</ele>
<time>2011-05-15T12:55:04.000Z</time>
</trkpt>
<trkpt lat="43.2617426" lon="-3.0700802">
<ele>816.777283</ele>
<time>2011-05-15T12:55:05.000Z</time>
</trkpt>
<trkpt lat="43.2618425" lon="-3.0702677">
<ele>815.816162</ele>
<time>2011-05-15T12:55:19.000Z</time>
</trkpt>
<trkpt lat="43.2620057" lon="-3.0704977">
<ele>814.854736</ele>
<time>2011-05-15T12:55:36.000Z</time>
</trkpt>
<trkpt lat="43.2620498" lon="-3.0705556">
<ele>815.335449</ele>
<time>2011-05-15T12:55:43.000Z</time>
</trkpt>
<trkpt lat="43.2622078" lon="-3.0708050">
<ele>815.335449</ele>
<time>2011-05-15T12:56:02.000Z</time>
</trkpt>
<trkpt lat="43.2623125" lon="-3.0709479">
<ele>813.893311</ele>
<time>2011-05-15T12:56:12.000Z</time>
</trkpt>
<trkpt lat="43.2624785" lon="-3.0712202">
<ele>814.854736</ele>
<time>2011-05-15T12:56:30.000Z</time>
</trkpt>
<trkpt lat="43.2626301" lon="-3.0714033">
<ele>818.219238</ele>
<time>2011-05-15T12:56:45.000Z</time>
</trkpt>
<trkpt lat="43.2628569" lon="-3.0717321">
<ele>815.816162</ele>
<time>2011-05-15T12:57:08.000Z</time>
</trkpt>
<trkpt lat="43.2630127" lon="-3.0719553">
<ele>812.932129</ele>
<time>2011-05-15T12:57:23.000Z</time>
</trkpt>
<trkpt lat="43.2631418" lon="-3.0720966">
<ele>809.567383</ele>
<time>2011-05-15T12:57:33.000Z</time>
</trkpt>
<trkpt lat="43.2633484" lon="-3.0722516">
<ele>806.202637</ele>
<time>2011-05-15T12:57:50.000Z</time>
</trkpt>
<trkpt lat="43.2636067" lon="-3.0723646">
<ele>806.202637</ele>
<time>2011-05-15T12:58:09.000Z</time>
</trkpt>
<trkpt lat="43.2636438" lon="-3.0723813">
<ele>804.760803</ele>
<time>2011-05-15T12:58:11.000Z</time>
</trkpt>
<trkpt lat="43.2638820" lon="-3.0724715">
<ele>804.280273</ele>
<time>2011-05-15T12:58:29.000Z</time>
</trkpt>
<trkpt lat="43.2639815" lon="-3.0725512">
<ele>802.357422</ele>
<time>2011-05-15T12:58:36.000Z</time>
</trkpt>
<trkpt lat="43.2641163" lon="-3.0726298">
<ele>799.473633</ele>
<time>2011-05-15T12:58:45.000Z</time>
</trkpt>
<trkpt lat="43.2641307" lon="-3.0726410">
<ele>799.473633</ele>
<time>2011-05-15T12:58:46.000Z</time>
</trkpt>
<trkpt lat="43.2642229" lon="-3.0726998">
<ele>796.109070</ele>
<time>2011-05-15T12:58:52.000Z</time>
</trkpt>
<trkpt lat="43.2643113" lon="-3.0727457">
<ele>794.186340</ele>
<time>2011-05-15T12:58:58.000Z</time>
</trkpt>
<trkpt lat="43.2644590" lon="-3.0728319">
<ele>790.341064</ele>
<time>2011-05-15T12:59:08.000Z</time>
</trkpt>
<trkpt lat="43.2645527" lon="-3.0728842">
<ele>788.899170</ele>
<time>2011-05-15T12:59:14.000Z</time>
</trkpt>
<trkpt lat="43.2647469" lon="-3.0729957">
<ele>785.053894</ele>
<time>2011-05-15T12:59:26.000Z</time>
</trkpt>
<trkpt lat="43.2648593" lon="-3.0730661">
<ele>783.131165</ele>
<time>2011-05-15T12:59:33.000Z</time>
</trkpt>
<trkpt lat="43.2649988" lon="-3.0731509">
<ele>779.766357</ele>
<time>2011-05-15T12:59:42.000Z</time>
</trkpt>
<trkpt lat="43.2651045" lon="-3.0732355">
<ele>776.401855</ele>
<time>2011-05-15T12:59:50.000Z</time>
</trkpt>
<trkpt lat="43.2652403" lon="-3.0733395">
<ele>773.518005</ele>
<time>2011-05-15T13:00:00.000Z</time>
</trkpt>
<trkpt lat="43.2653323" lon="-3.0733908">
<ele>770.153320</ele>
<time>2011-05-15T13:00:06.000Z</time>
</trkpt>
<trkpt lat="43.2653480" lon="-3.0733959">
<ele>769.672852</ele>
<time>2011-05-15T13:00:07.000Z</time>
</trkpt>
<trkpt lat="43.2654687" lon="-3.0734465">
<ele>766.308105</ele>
<time>2011-05-15T13:00:15.000Z</time>
</trkpt>
<trkpt lat="43.2654838" lon="-3.0734510">
<ele>766.788818</ele>
<time>2011-05-15T13:00:16.000Z</time>
</trkpt>
<trkpt lat="43.2655805" lon="-3.0734679">
<ele>763.424072</ele>
<time>2011-05-15T13:00:22.000Z</time>
</trkpt>
<trkpt lat="43.2657237" lon="-3.0735155">
<ele>761.982117</ele>
<time>2011-05-15T13:00:31.000Z</time>
</trkpt>
<trkpt lat="43.2658515" lon="-3.0735596">
<ele>759.578857</ele>
<time>2011-05-15T13:00:39.000Z</time>
</trkpt>
<trkpt lat="43.2659865" lon="-3.0735938">
<ele>756.694824</ele>
<time>2011-05-15T13:00:48.000Z</time>
</trkpt>
<trkpt lat="43.2661644" lon="-3.0736472">
<ele>753.330322</ele>
<time>2011-05-15T13:01:00.000Z</time>
</trkpt>
<trkpt lat="43.2662880" lon="-3.0737430">
<ele>749.965820</ele>
<time>2011-05-15T13:01:09.000Z</time>
</trkpt>
<trkpt lat="43.2664068" lon="-3.0738238">
<ele>746.601074</ele>
<time>2011-05-15T13:01:18.000Z</time>
</trkpt>
<trkpt lat="43.2664745" lon="-3.0738834">
<ele>745.158936</ele>
<time>2011-05-15T13:01:24.000Z</time>
</trkpt>
<trkpt lat="43.2665376" lon="-3.0739677">
<ele>741.794434</ele>
<time>2011-05-15T13:01:31.000Z</time>
</trkpt>
<trkpt lat="43.2665597" lon="-3.0739927">
<ele>741.313721</ele>
<time>2011-05-15T13:01:33.000Z</time>
</trkpt>
<trkpt lat="43.2666508" lon="-3.0740780">
<ele>737.468506</ele>
<time>2011-05-15T13:01:41.000Z</time>
</trkpt>
<trkpt lat="43.2666611" lon="-3.0740891">
<ele>737.468506</ele>
<time>2011-05-15T13:01:42.000Z</time>
</trkpt>
<trkpt lat="43.2666908" lon="-3.0741234">
<ele>736.026611</ele>
<time>2011-05-15T13:01:45.000Z</time>
</trkpt>
<trkpt lat="43.2667876" lon="-3.0741995">
<ele>732.662109</ele>
<time>2011-05-15T13:01:53.000Z</time>
</trkpt>
<trkpt lat="43.2668299" lon="-3.0742298">
<ele>731.219971</ele>
<time>2011-05-15T13:01:57.000Z</time>
</trkpt>
<trkpt lat="43.2669077" lon="-3.0742712">
<ele>728.335999</ele>
<time>2011-05-15T13:02:04.000Z</time>
</trkpt>
<trkpt lat="43.2669549" lon="-3.0742894">
<ele>726.413330</ele>
<time>2011-05-15T13:02:08.000Z</time>
</trkpt>
<trkpt lat="43.2670076" lon="-3.0743273">
<ele>724.971436</ele>
<time>2011-05-15T13:02:13.000Z</time>
</trkpt>
<trkpt lat="43.2670313" lon="-3.0743491">
<ele>723.529541</ele>
<time>2011-05-15T13:02:15.000Z</time>
</trkpt>
<trkpt lat="43.2671045" lon="-3.0743995">
<ele>720.164795</ele>
<time>2011-05-15T13:02:22.000Z</time>
</trkpt>
<trkpt lat="43.2671665" lon="-3.0744734">
<ele>716.800293</ele>
<time>2011-05-15T13:02:29.000Z</time>
</trkpt>
<trkpt lat="43.2672169" lon="-3.0745409">
<ele>714.877441</ele>
<time>2011-05-15T13:02:34.000Z</time>
</trkpt>
<trkpt lat="43.2673051" lon="-3.0746551">
<ele>710.551514</ele>
<time>2011-05-15T13:02:43.000Z</time>
</trkpt>
<trkpt lat="43.2674107" lon="-3.0747227">
<ele>706.706360</ele>
<time>2011-05-15T13:02:53.000Z</time>
</trkpt>
<trkpt lat="43.2674174" lon="-3.0747267">
<ele>706.706360</ele>
<time>2011-05-15T13:02:54.000Z</time>
</trkpt>
<trkpt lat="43.2674713" lon="-3.0747656">
<ele>704.783691</ele>
<time>2011-05-15T13:03:01.000Z</time>
</trkpt>
<trkpt lat="43.2675437" lon="-3.0748298">
<ele>701.899902</ele>
<time>2011-05-15T13:03:09.000Z</time>
</trkpt>
<trkpt lat="43.2675522" lon="-3.0748462">
<ele>702.380371</ele>
<time>2011-05-15T13:03:10.000Z</time>
</trkpt>
<trkpt lat="43.2676542" lon="-3.0749226">
<ele>699.977051</ele>
<time>2011-05-15T13:03:20.000Z</time>
</trkpt>
<trkpt lat="43.2678023" lon="-3.0749856">
<ele>697.573730</ele>
<time>2011-05-15T13:03:33.000Z</time>
</trkpt>
<trkpt lat="43.2679490" lon="-3.0751558">
<ele>697.573730</ele>
<time>2011-05-15T13:03:44.000Z</time>
</trkpt>
<trkpt lat="43.2679883" lon="-3.0751650">
<ele>695.651184</ele>
<time>2011-05-15T13:03:46.000Z</time>
</trkpt>
<trkpt lat="43.2682148" lon="-3.0750267">
<ele>695.170471</ele>
<time>2011-05-15T13:04:00.000Z</time>
</trkpt>
<trkpt lat="43.2683877" lon="-3.0749640">
<ele>695.170471</ele>
<time>2011-05-15T13:04:14.000Z</time>
</trkpt>
<trkpt lat="43.2685569" lon="-3.0749262">
<ele>693.728516</ele>
<time>2011-05-15T13:04:30.000Z</time>
</trkpt>
<trkpt lat="43.2688242" lon="-3.0749874">
<ele>692.767334</ele>
<time>2011-05-15T13:04:41.000Z</time>
</trkpt>
<trkpt lat="43.2688803" lon="-3.0750147">
<ele>693.728516</ele>
<time>2011-05-15T13:04:44.000Z</time>
</trkpt>
<trkpt lat="43.2691013" lon="-3.0750830">
<ele>692.286621</ele>
<time>2011-05-15T13:05:00.000Z</time>
</trkpt>
<trkpt lat="43.2693324" lon="-3.0750392">
<ele>691.325195</ele>
<time>2011-05-15T13:05:16.000Z</time>
</trkpt>
<trkpt lat="43.2694026" lon="-3.0750178">
<ele>691.805908</ele>
<time>2011-05-15T13:05:21.000Z</time>
</trkpt>
<trkpt lat="43.2696481" lon="-3.0750278">
<ele>690.364014</ele>
<time>2011-05-15T13:05:37.000Z</time>
</trkpt>
<trkpt lat="43.2698584" lon="-3.0750831">
<ele>688.922119</ele>
<time>2011-05-15T13:05:51.000Z</time>
</trkpt>
<trkpt lat="43.2700603" lon="-3.0751757">
<ele>686.999268</ele>
<time>2011-05-15T13:06:06.000Z</time>
</trkpt>
<trkpt lat="43.2702630" lon="-3.0753037">
<ele>686.518738</ele>
<time>2011-05-15T13:06:21.000Z</time>
</trkpt>
<trkpt lat="43.2704385" lon="-3.0754173">
<ele>685.557434</ele>
<time>2011-05-15T13:06:35.000Z</time>
</trkpt>
<trkpt lat="43.2705761" lon="-3.0755494">
<ele>685.557434</ele>
<time>2011-05-15T13:06:47.000Z</time>
</trkpt>
<trkpt lat="43.2706068" lon="-3.0755918">
<ele>684.115479</ele>
<time>2011-05-15T13:06:50.000Z</time>
</trkpt>
<trkpt lat="43.2706409" lon="-3.0756415">
<ele>684.115479</ele>
<time>2011-05-15T13:06:54.000Z</time>
</trkpt>
<trkpt lat="43.2706860" lon="-3.0757011">
<ele>683.634521</ele>
<time>2011-05-15T13:06:58.000Z</time>
</trkpt>
<trkpt lat="43.2708103" lon="-3.0759207">
<ele>681.711914</ele>
<time>2011-05-15T13:07:11.000Z</time>
</trkpt>
<trkpt lat="43.2709607" lon="-3.0761715">
<ele>679.789307</ele>
<time>2011-05-15T13:07:25.000Z</time>
</trkpt>
<trkpt lat="43.2709818" lon="-3.0761995">
<ele>679.308594</ele>
<time>2011-05-15T13:07:27.000Z</time>
</trkpt>
<trkpt lat="43.2710865" lon="-3.0763988">
<ele>678.828125</ele>
<time>2011-05-15T13:07:39.000Z</time>
</trkpt>
<trkpt lat="43.2711518" lon="-3.0766683">
<ele>675.944092</ele>
<time>2011-05-15T13:07:53.000Z</time>
</trkpt>
<trkpt lat="43.2712291" lon="-3.0769516">
<ele>673.541016</ele>
<time>2011-05-15T13:08:08.000Z</time>
</trkpt>
<trkpt lat="43.2712612" lon="-3.0770407">
<ele>673.060303</ele>
<time>2011-05-15T13:08:13.000Z</time>
</trkpt>
<trkpt lat="43.2712831" lon="-3.0771265">
<ele>673.060303</ele>
<time>2011-05-15T13:08:18.000Z</time>
</trkpt>
<trkpt lat="43.2713541" lon="-3.0773853">
<ele>669.695801</ele>
<time>2011-05-15T13:08:32.000Z</time>
</trkpt>
<trkpt lat="43.2714119" lon="-3.0775275">
<ele>668.734375</ele>
<time>2011-05-15T13:08:40.000Z</time>
</trkpt>
<trkpt lat="43.2714818" lon="-3.0778650">
<ele>668.253662</ele>
<time>2011-05-15T13:08:58.000Z</time>
</trkpt>
<trkpt lat="43.2714848" lon="-3.0779845">
<ele>667.292236</ele>
<time>2011-05-15T13:09:04.000Z</time>
</trkpt>
<trkpt lat="43.2714377" lon="-3.0783072">
<ele>665.369629</ele>
<time>2011-05-15T13:09:21.000Z</time>
</trkpt>
<trkpt lat="43.2714185" lon="-3.0784875">
<ele>662.966370</ele>
<time>2011-05-15T13:09:31.000Z</time>
</trkpt>
<trkpt lat="43.2714549" lon="-3.0785754">
<ele>662.005127</ele>
<time>2011-05-15T13:09:36.000Z</time>
</trkpt>
<trkpt lat="43.2715428" lon="-3.0785911">
<ele>661.043701</ele>
<time>2011-05-15T13:09:42.000Z</time>
</trkpt>
<trkpt lat="43.2717262" lon="-3.0785201">
<ele>658.640381</ele>
<time>2011-05-15T13:09:56.000Z</time>
</trkpt>
<trkpt lat="43.2718885" lon="-3.0784445">
<ele>655.756592</ele>
<time>2011-05-15T13:10:08.000Z</time>
</trkpt>
<trkpt lat="43.2719024" lon="-3.0784351">
<ele>655.756592</ele>
<time>2011-05-15T13:10:09.000Z</time>
</trkpt>
<trkpt lat="43.2721576" lon="-3.0782936">
<ele>652.872498</ele>
<time>2011-05-15T13:10:28.000Z</time>
</trkpt>
<trkpt lat="43.2723552" lon="-3.0781535">
<ele>651.430481</ele>
<time>2011-05-15T13:10:43.000Z</time>
</trkpt>
<trkpt lat="43.2725659" lon="-3.0780652">
<ele>650.949707</ele>
<time>2011-05-15T13:10:58.000Z</time>
</trkpt>
<trkpt lat="43.2727518" lon="-3.0780451">
<ele>652.872498</ele>
<time>2011-05-15T13:11:14.000Z</time>
</trkpt>
<trkpt lat="43.2728048" lon="-3.0780644">
<ele>654.314636</ele>
<time>2011-05-15T13:11:19.000Z</time>
</trkpt>
<trkpt lat="43.2729590" lon="-3.0781359">
<ele>657.679199</ele>
<time>2011-05-15T13:11:33.000Z</time>
</trkpt>
<trkpt lat="43.2731739" lon="-3.0782721">
<ele>658.159912</ele>
<time>2011-05-15T13:11:51.000Z</time>
</trkpt>
<trkpt lat="43.2732889" lon="-3.0783269">
<ele>660.562988</ele>
<time>2011-05-15T13:12:00.000Z</time>
</trkpt>
<trkpt lat="43.2734972" lon="-3.0784294">
<ele>663.927490</ele>
<time>2011-05-15T13:12:19.000Z</time>
</trkpt>
<trkpt lat="43.2735073" lon="-3.0784339">
<ele>664.408203</ele>
<time>2011-05-15T13:12:20.000Z</time>
</trkpt>
<trkpt lat="43.2736361" lon="-3.0784712">
<ele>666.811523</ele>
<time>2011-05-15T13:12:32.000Z</time>
</trkpt>
<trkpt lat="43.2737490" lon="-3.0785424">
<ele>670.176270</ele>
<time>2011-05-15T13:12:45.000Z</time>
</trkpt>
<trkpt lat="43.2738713" lon="-3.0786051">
<ele>673.060303</ele>
<time>2011-05-15T13:12:58.000Z</time>
</trkpt>
<trkpt lat="43.2739412" lon="-3.0786594">
<ele>675.944092</ele>
<time>2011-05-15T13:13:06.000Z</time>
</trkpt>
<trkpt lat="43.2739796" lon="-3.0786728">
<ele>675.944092</ele>
<time>2011-05-15T13:13:10.000Z</time>
</trkpt>
<trkpt lat="43.2741494" lon="-3.0787280">
<ele>678.828125</ele>
<time>2011-05-15T13:13:26.000Z</time>
</trkpt>
<trkpt lat="43.2741852" lon="-3.0787569">
<ele>679.789307</ele>
<time>2011-05-15T13:13:30.000Z</time>
</trkpt>
<trkpt lat="43.2742408" lon="-3.0787501">
<ele>681.711914</ele>
<time>2011-05-15T13:13:36.000Z</time>
</trkpt>
<trkpt lat="43.2743708" lon="-3.0787708">
<ele>685.076904</ele>
<time>2011-05-15T13:13:51.000Z</time>
</trkpt>
<trkpt lat="43.2743824" lon="-3.0787771">
<ele>686.038025</ele>
<time>2011-05-15T13:13:53.000Z</time>
</trkpt>
<trkpt lat="43.2744494" lon="-3.0788320">
<ele>689.402588</ele>
<time>2011-05-15T13:14:04.000Z</time>
</trkpt>
<trkpt lat="43.2744573" lon="-3.0788357">
<ele>689.402588</ele>
<time>2011-05-15T13:14:05.000Z</time>
</trkpt>
<trkpt lat="43.2745575" lon="-3.0788657">
<ele>692.767334</ele>
<time>2011-05-15T13:14:19.000Z</time>
</trkpt>
<trkpt lat="43.2746280" lon="-3.0789335">
<ele>695.651184</ele>
<time>2011-05-15T13:14:31.000Z</time>
</trkpt>
<trkpt lat="43.2747198" lon="-3.0789704">
<ele>699.015625</ele>
<time>2011-05-15T13:14:45.000Z</time>
</trkpt>
<trkpt lat="43.2748224" lon="-3.0789677">
<ele>702.861084</ele>
<time>2011-05-15T13:15:00.000Z</time>
</trkpt>
<trkpt lat="43.2748281" lon="-3.0789654">
<ele>702.861084</ele>
<time>2011-05-15T13:15:01.000Z</time>
</trkpt>
<trkpt lat="43.2748990" lon="-3.0790006">
<ele>706.225647</ele>
<time>2011-05-15T13:15:13.000Z</time>
</trkpt>
<trkpt lat="43.2749606" lon="-3.0790288">
<ele>709.590332</ele>
<time>2011-05-15T13:15:23.000Z</time>
</trkpt>
<trkpt lat="43.2750338" lon="-3.0790437">
<ele>712.474121</ele>
<time>2011-05-15T13:15:34.000Z</time>
</trkpt>
<trkpt lat="43.2750713" lon="-3.0790530">
<ele>713.916016</ele>
<time>2011-05-15T13:15:39.000Z</time>
</trkpt>
<trkpt lat="43.2751473" lon="-3.0791200">
<ele>717.281006</ele>
<time>2011-05-15T13:15:52.000Z</time>
</trkpt>
<trkpt lat="43.2751921" lon="-3.0791361">
<ele>719.203552</ele>
<time>2011-05-15T13:16:00.000Z</time>
</trkpt>
<trkpt lat="43.2752885" lon="-3.0791583">
<ele>723.048828</ele>
<time>2011-05-15T13:16:14.000Z</time>
</trkpt>
<trkpt lat="43.2753937" lon="-3.0791548">
<ele>726.413330</ele>
<time>2011-05-15T13:16:29.000Z</time>
</trkpt>
<trkpt lat="43.2754884" lon="-3.0791690">
<ele>729.777832</ele>
<time>2011-05-15T13:16:43.000Z</time>
</trkpt>
<trkpt lat="43.2755512" lon="-3.0791693">
<ele>733.142578</ele>
<time>2011-05-15T13:16:52.000Z</time>
</trkpt>
<trkpt lat="43.2755583" lon="-3.0791665">
<ele>732.662109</ele>
<time>2011-05-15T13:16:53.000Z</time>
</trkpt>
<trkpt lat="43.2756031" lon="-3.0791515">
<ele>734.104004</ele>
<time>2011-05-15T13:16:59.000Z</time>
</trkpt>
<trkpt lat="43.2757197" lon="-3.0792019">
<ele>737.468506</ele>
<time>2011-05-15T13:17:14.000Z</time>
</trkpt>
<trkpt lat="43.2757999" lon="-3.0792289">
<ele>740.352478</ele>
<time>2011-05-15T13:17:25.000Z</time>
</trkpt>
<trkpt lat="43.2758600" lon="-3.0792771">
<ele>741.313721</ele>
<time>2011-05-15T13:17:40.000Z</time>
</trkpt>
<trkpt lat="43.2758651" lon="-3.0792745">
<ele>741.313721</ele>
<time>2011-05-15T13:17:52.000Z</time>
</trkpt>
<trkpt lat="43.2758853" lon="-3.0792713">
<ele>741.794434</ele>
<time>2011-05-15T13:18:33.000Z</time>
</trkpt>
<trkpt lat="43.2758849" lon="-3.0792696">
<ele>745.158936</ele>
<time>2011-05-15T13:18:35.000Z</time>
</trkpt>
<trkpt lat="43.2758818" lon="-3.0792743">
<ele>741.313721</ele>
<time>2011-05-15T13:18:37.000Z</time>
</trkpt>
<trkpt lat="43.2758817" lon="-3.0792738">
<ele>741.313721</ele>
<time>2011-05-15T13:18:38.000Z</time>
</trkpt>
<trkpt lat="43.2758961" lon="-3.0792568">
<ele>742.275146</ele>
<time>2011-05-15T13:18:55.000Z</time>
</trkpt>
<trkpt lat="43.2759532" lon="-3.0793079">
<ele>744.197754</ele>
<time>2011-05-15T13:19:08.000Z</time>
</trkpt>
<trkpt lat="43.2760366" lon="-3.0793860">
<ele>745.639648</ele>
<time>2011-05-15T13:19:20.000Z</time>
</trkpt>
<trkpt lat="43.2760719" lon="-3.0793899">
<ele>747.081543</ele>
<time>2011-05-15T13:19:24.000Z</time>
</trkpt>
<trkpt lat="43.2762566" lon="-3.0794791">
<ele>748.523682</ele>
<time>2011-05-15T13:19:43.000Z</time>
</trkpt>
<trkpt lat="43.2763281" lon="-3.0796499">
<ele>747.562256</ele>
<time>2011-05-15T13:19:56.000Z</time>
</trkpt>
<trkpt lat="43.2763817" lon="-3.0798158">
<ele>749.004395</ele>
<time>2011-05-15T13:20:08.000Z</time>
</trkpt>
<trkpt lat="43.2763857" lon="-3.0800001">
<ele>748.523682</ele>
<time>2011-05-15T13:20:23.000Z</time>
</trkpt>
<trkpt lat="43.2763883" lon="-3.0800199">
<ele>748.043213</ele>
<time>2011-05-15T13:20:24.000Z</time>
</trkpt>
<trkpt lat="43.2764031" lon="-3.0800831">
<ele>747.562256</ele>
<time>2011-05-15T13:20:29.000Z</time>
</trkpt>
<trkpt lat="43.2764325" lon="-3.0802196">
<ele>744.678223</ele>
<time>2011-05-15T13:20:44.000Z</time>
</trkpt>
<trkpt lat="43.2764545" lon="-3.0803794">
<ele>743.236328</ele>
<time>2011-05-15T13:20:54.000Z</time>
</trkpt>
<trkpt lat="43.2765255" lon="-3.0805802">
<ele>741.794434</ele>
<time>2011-05-15T13:21:06.000Z</time>
</trkpt>
<trkpt lat="43.2765290" lon="-3.0806350">
<ele>740.352478</ele>
<time>2011-05-15T13:21:09.000Z</time>
</trkpt>
<trkpt lat="43.2765187" lon="-3.0806949">
<ele>739.391174</ele>
<time>2011-05-15T13:21:12.000Z</time>
</trkpt>
<trkpt lat="43.2765487" lon="-3.0807911">
<ele>738.429932</ele>
<time>2011-05-15T13:21:17.000Z</time>
</trkpt>
<trkpt lat="43.2766045" lon="-3.0808779">
<ele>736.987793</ele>
<time>2011-05-15T13:21:24.000Z</time>
</trkpt>
<trkpt lat="43.2766681" lon="-3.0810854">
<ele>733.623291</ele>
<time>2011-05-15T13:21:36.000Z</time>
</trkpt>
<trkpt lat="43.2766727" lon="-3.0811041">
<ele>733.623291</ele>
<time>2011-05-15T13:21:37.000Z</time>
</trkpt>
<trkpt lat="43.2767001" lon="-3.0811760">
<ele>732.662109</ele>
<time>2011-05-15T13:21:41.000Z</time>
</trkpt>
<trkpt lat="43.2768388" lon="-3.0813283">
<ele>729.777832</ele>
<time>2011-05-15T13:21:53.000Z</time>
</trkpt>
<trkpt lat="43.2768999" lon="-3.0813908">
<ele>727.855286</ele>
<time>2011-05-15T13:21:59.000Z</time>
</trkpt>
<trkpt lat="43.2769515" lon="-3.0814396">
<ele>726.413330</ele>
<time>2011-05-15T13:22:04.000Z</time>
</trkpt>
<trkpt lat="43.2770265" lon="-3.0815002">
<ele>724.971436</ele>
<time>2011-05-15T13:22:11.000Z</time>
</trkpt>
<trkpt lat="43.2770461" lon="-3.0815199">
<ele>724.010010</ele>
<time>2011-05-15T13:22:13.000Z</time>
</trkpt>
<trkpt lat="43.2771287" lon="-3.0815743">
<ele>721.606689</ele>
<time>2011-05-15T13:22:20.000Z</time>
</trkpt>
<trkpt lat="43.2771802" lon="-3.0816063">
<ele>719.684265</ele>
<time>2011-05-15T13:22:24.000Z</time>
</trkpt>
<trkpt lat="43.2772941" lon="-3.0816824">
<ele>715.838867</ele>
<time>2011-05-15T13:22:33.000Z</time>
</trkpt>
<trkpt lat="43.2774056" lon="-3.0817544">
<ele>711.512939</ele>
<time>2011-05-15T13:22:42.000Z</time>
</trkpt>
<trkpt lat="43.2774181" lon="-3.0817614">
<ele>711.512939</ele>
<time>2011-05-15T13:22:43.000Z</time>
</trkpt>
<trkpt lat="43.2775259" lon="-3.0818457">
<ele>708.148376</ele>
<time>2011-05-15T13:22:52.000Z</time>
</trkpt>
<trkpt lat="43.2775674" lon="-3.0818645">
<ele>706.706360</ele>
<time>2011-05-15T13:22:55.000Z</time>
</trkpt>
<trkpt lat="43.2775956" lon="-3.0818823">
<ele>706.225647</ele>
<time>2011-05-15T13:22:57.000Z</time>
</trkpt>
<trkpt lat="43.2776645" lon="-3.0819053">
<ele>704.303223</ele>
<time>2011-05-15T13:23:02.000Z</time>
</trkpt>
<trkpt lat="43.2778191" lon="-3.0819520">
<ele>700.938477</ele>
<time>2011-05-15T13:23:13.000Z</time>
</trkpt>
<trkpt lat="43.2780164" lon="-3.0819899">
<ele>696.612488</ele>
<time>2011-05-15T13:23:26.000Z</time>
</trkpt>
<trkpt lat="43.2782770" lon="-3.0820975">
<ele>694.689697</ele>
<time>2011-05-15T13:23:44.000Z</time>
</trkpt>
<trkpt lat="43.2783208" lon="-3.0821157">
<ele>693.247803</ele>
<time>2011-05-15T13:23:47.000Z</time>
</trkpt>
<trkpt lat="43.2784743" lon="-3.0821985">
<ele>690.844482</ele>
<time>2011-05-15T13:23:58.000Z</time>
</trkpt>
<trkpt lat="43.2785687" lon="-3.0822555">
<ele>689.402588</ele>
<time>2011-05-15T13:24:05.000Z</time>
</trkpt>
<trkpt lat="43.2786510" lon="-3.0823066">
<ele>687.960693</ele>
<time>2011-05-15T13:24:11.000Z</time>
</trkpt>
<trkpt lat="43.2787480" lon="-3.0823550">
<ele>686.999268</ele>
<time>2011-05-15T13:24:18.000Z</time>
</trkpt>
<trkpt lat="43.2789431" lon="-3.0825030">
<ele>684.596191</ele>
<time>2011-05-15T13:24:33.000Z</time>
</trkpt>
<trkpt lat="43.2792000" lon="-3.0827049">
<ele>684.115479</ele>
<time>2011-05-15T13:24:53.000Z</time>
</trkpt>
<trkpt lat="43.2794750" lon="-3.0828169">
<ele>681.231445</ele>
<time>2011-05-15T13:25:12.000Z</time>
</trkpt>
<trkpt lat="43.2794892" lon="-3.0828231">
<ele>681.231445</ele>
<time>2011-05-15T13:25:13.000Z</time>
</trkpt>
<trkpt lat="43.2795507" lon="-3.0828383">
<ele>680.750732</ele>
<time>2011-05-15T13:25:17.000Z</time>
</trkpt>
<trkpt lat="43.2798444" lon="-3.0829258">
<ele>681.711914</ele>
<time>2011-05-15T13:25:38.000Z</time>
</trkpt>
<trkpt lat="43.2800217" lon="-3.0829947">
<ele>685.076904</ele>
<time>2011-05-15T13:25:54.000Z</time>
</trkpt>
<trkpt lat="43.2800305" lon="-3.0830085">
<ele>686.038025</ele>
<time>2011-05-15T13:25:56.000Z</time>
</trkpt>
<trkpt lat="43.2801407" lon="-3.0830569">
<ele>688.922119</ele>
<time>2011-05-15T13:26:09.000Z</time>
</trkpt>
<trkpt lat="43.2802417" lon="-3.0831069">
<ele>692.286621</ele>
<time>2011-05-15T13:26:21.000Z</time>
</trkpt>
<trkpt lat="43.2803920" lon="-3.0831620">
<ele>696.612488</ele>
<time>2011-05-15T13:26:40.000Z</time>
</trkpt>
<trkpt lat="43.2803994" lon="-3.0831663">
<ele>696.612488</ele>
<time>2011-05-15T13:26:41.000Z</time>
</trkpt>
<trkpt lat="43.2804926" lon="-3.0832030">
<ele>699.977051</ele>
<time>2011-05-15T13:26:53.000Z</time>
</trkpt>
<trkpt lat="43.2805007" lon="-3.0832054">
<ele>699.977051</ele>
<time>2011-05-15T13:26:54.000Z</time>
</trkpt>
<trkpt lat="43.2806441" lon="-3.0832683">
<ele>703.822510</ele>
<time>2011-05-15T13:27:13.000Z</time>
</trkpt>
<trkpt lat="43.2806591" lon="-3.0832768">
<ele>704.783691</ele>
<time>2011-05-15T13:27:15.000Z</time>
</trkpt>
<trkpt lat="43.2807588" lon="-3.0833262">
<ele>707.667664</ele>
<time>2011-05-15T13:27:28.000Z</time>
</trkpt>
<trkpt lat="43.2808225" lon="-3.0833603">
<ele>710.551514</ele>
<time>2011-05-15T13:27:37.000Z</time>
</trkpt>
<trkpt lat="43.2809047" lon="-3.0834072">
<ele>713.435547</ele>
<time>2011-05-15T13:27:48.000Z</time>
</trkpt>
<trkpt lat="43.2810007" lon="-3.0835112">
<ele>716.800293</ele>
<time>2011-05-15T13:28:04.000Z</time>
</trkpt>
<trkpt lat="43.2810696" lon="-3.0837070">
<ele>719.203552</ele>
<time>2011-05-15T13:28:22.000Z</time>
</trkpt>
<trkpt lat="43.2810948" lon="-3.0837964">
<ele>721.126221</ele>
<time>2011-05-15T13:28:30.000Z</time>
</trkpt>
<trkpt lat="43.2812084" lon="-3.0840124">
<ele>723.529541</ele>
<time>2011-05-15T13:28:48.000Z</time>
</trkpt>
<trkpt lat="43.2813266" lon="-3.0842224">
<ele>724.490723</ele>
<time>2011-05-15T13:29:07.000Z</time>
</trkpt>
<trkpt lat="43.2813286" lon="-3.0842399">
<ele>723.529541</ele>
<time>2011-05-15T13:29:09.000Z</time>
</trkpt>
<trkpt lat="43.2813400" lon="-3.0842714">
<ele>724.490723</ele>
<time>2011-05-15T13:29:15.000Z</time>
</trkpt>
<trkpt lat="43.2813439" lon="-3.0842992">
<ele>724.010010</ele>
<time>2011-05-15T13:29:17.000Z</time>
</trkpt>
<trkpt lat="43.2813654" lon="-3.0843538">
<ele>720.645508</ele>
<time>2011-05-15T13:29:21.000Z</time>
</trkpt>
<trkpt lat="43.2814660" lon="-3.0847441">
<ele>721.126221</ele>
<time>2011-05-15T13:29:44.000Z</time>
</trkpt>
<trkpt lat="43.2815358" lon="-3.0850177">
<ele>720.164795</ele>
<time>2011-05-15T13:29:59.000Z</time>
</trkpt>
<trkpt lat="43.2815543" lon="-3.0851025">
<ele>718.242249</ele>
<time>2011-05-15T13:30:04.000Z</time>
</trkpt>
<trkpt lat="43.2815845" lon="-3.0851956">
<ele>717.761536</ele>
<time>2011-05-15T13:30:09.000Z</time>
</trkpt>
<trkpt lat="43.2815881" lon="-3.0852881">
<ele>717.761536</ele>
<time>2011-05-15T13:30:15.000Z</time>
</trkpt>
<trkpt lat="43.2816004" lon="-3.0853895">
<ele>716.800293</ele>
<time>2011-05-15T13:30:21.000Z</time>
</trkpt>
<trkpt lat="43.2816062" lon="-3.0854247">
<ele>715.838867</ele>
<time>2011-05-15T13:30:23.000Z</time>
</trkpt>
<trkpt lat="43.2816451" lon="-3.0856279">
<ele>713.435547</ele>
<time>2011-05-15T13:30:36.000Z</time>
</trkpt>
<trkpt lat="43.2817405" lon="-3.0859210">
<ele>711.512939</ele>
<time>2011-05-15T13:30:54.000Z</time>
</trkpt>
<trkpt lat="43.2817652" lon="-3.0860166">
<ele>710.070801</ele>
<time>2011-05-15T13:30:59.000Z</time>
</trkpt>
<trkpt lat="43.2818041" lon="-3.0860976">
<ele>709.109619</ele>
<time>2011-05-15T13:31:04.000Z</time>
</trkpt>
<trkpt lat="43.2818807" lon="-3.0863206">
<ele>708.148376</ele>
<time>2011-05-15T13:31:17.000Z</time>
</trkpt>
<trkpt lat="43.2818899" lon="-3.0863591">
<ele>706.706360</ele>
<time>2011-05-15T13:31:19.000Z</time>
</trkpt>
<trkpt lat="43.2819134" lon="-3.0864672">
<ele>705.745117</ele>
<time>2011-05-15T13:31:25.000Z</time>
</trkpt>
<trkpt lat="43.2819453" lon="-3.0865708">
<ele>704.303223</ele>
<time>2011-05-15T13:31:31.000Z</time>
</trkpt>
<trkpt lat="43.2819993" lon="-3.0868061">
<ele>701.419189</ele>
<time>2011-05-15T13:31:45.000Z</time>
</trkpt>
<trkpt lat="43.2820029" lon="-3.0868250">
<ele>701.899902</ele>
<time>2011-05-15T13:31:46.000Z</time>
</trkpt>
<trkpt lat="43.2820290" lon="-3.0870365">
<ele>699.977051</ele>
<time>2011-05-15T13:31:57.000Z</time>
</trkpt>
<trkpt lat="43.2820521" lon="-3.0871254">
<ele>699.496338</ele>
<time>2011-05-15T13:32:02.000Z</time>
</trkpt>
<trkpt lat="43.2820681" lon="-3.0872150">
<ele>698.054443</ele>
<time>2011-05-15T13:32:07.000Z</time>
</trkpt>
<trkpt lat="43.2821066" lon="-3.0873575">
<ele>698.054443</ele>
<time>2011-05-15T13:32:15.000Z</time>
</trkpt>
<trkpt lat="43.2821575" lon="-3.0875133">
<ele>696.612488</ele>
<time>2011-05-15T13:32:23.000Z</time>
</trkpt>
<trkpt lat="43.2822537" lon="-3.0877615">
<ele>693.728516</ele>
<time>2011-05-15T13:32:38.000Z</time>
</trkpt>
<trkpt lat="43.2822886" lon="-3.0878578">
<ele>693.247803</ele>
<time>2011-05-15T13:32:43.000Z</time>
</trkpt>
<trkpt lat="43.2823391" lon="-3.0880127">
<ele>691.805908</ele>
<time>2011-05-15T13:32:52.000Z</time>
</trkpt>
<trkpt lat="43.2823574" lon="-3.0880474">
<ele>691.325195</ele>
<time>2011-05-15T13:32:54.000Z</time>
</trkpt>
<trkpt lat="43.2824381" lon="-3.0881769">
<ele>689.883301</ele>
<time>2011-05-15T13:33:04.000Z</time>
</trkpt>
<trkpt lat="43.2824523" lon="-3.0882033">
<ele>690.844482</ele>
<time>2011-05-15T13:33:06.000Z</time>
</trkpt>
<trkpt lat="43.2824854" lon="-3.0882635">
<ele>688.922119</ele>
<time>2011-05-15T13:33:10.000Z</time>
</trkpt>
<trkpt lat="43.2825319" lon="-3.0883477">
<ele>687.960693</ele>
<time>2011-05-15T13:33:16.000Z</time>
</trkpt>
<trkpt lat="43.2826348" lon="-3.0884944">
<ele>686.038025</ele>
<time>2011-05-15T13:33:27.000Z</time>
</trkpt>
<trkpt lat="43.2826804" lon="-3.0885500">
<ele>686.038025</ele>
<time>2011-05-15T13:33:31.000Z</time>
</trkpt>
<trkpt lat="43.2827398" lon="-3.0886282">
<ele>685.076904</ele>
<time>2011-05-15T13:33:36.000Z</time>
</trkpt>
<trkpt lat="43.2827861" lon="-3.0887708">
<ele>682.673340</ele>
<time>2011-05-15T13:33:46.000Z</time>
</trkpt>
<trkpt lat="43.2828060" lon="-3.0888415">
<ele>681.711914</ele>
<time>2011-05-15T13:33:50.000Z</time>
</trkpt>
<trkpt lat="43.2828236" lon="-3.0889317">
<ele>680.750732</ele>
<time>2011-05-15T13:33:55.000Z</time>
</trkpt>
<trkpt lat="43.2828322" lon="-3.0889613">
<ele>681.711914</ele>
<time>2011-05-15T13:33:57.000Z</time>
</trkpt>
<trkpt lat="43.2828850" lon="-3.0891818">
<ele>677.386230</ele>
<time>2011-05-15T13:34:09.000Z</time>
</trkpt>
<trkpt lat="43.2829786" lon="-3.0893808">
<ele>673.541016</ele>
<time>2011-05-15T13:34:23.000Z</time>
</trkpt>
<trkpt lat="43.2829845" lon="-3.0893937">
<ele>674.021545</ele>
<time>2011-05-15T13:34:24.000Z</time>
</trkpt>
<trkpt lat="43.2830193" lon="-3.0894475">
<ele>673.060303</ele>
<time>2011-05-15T13:34:28.000Z</time>
</trkpt>
<trkpt lat="43.2830556" lon="-3.0894973">
<ele>672.098877</ele>
<time>2011-05-15T13:34:32.000Z</time>
</trkpt>
<trkpt lat="43.2830585" lon="-3.0895092">
<ele>672.098877</ele>
<time>2011-05-15T13:34:33.000Z</time>
</trkpt>
<trkpt lat="43.2830691" lon="-3.0895739">
<ele>671.137695</ele>
<time>2011-05-15T13:34:37.000Z</time>
</trkpt>
<trkpt lat="43.2830852" lon="-3.0897152">
<ele>668.253662</ele>
<time>2011-05-15T13:34:46.000Z</time>
</trkpt>
<trkpt lat="43.2830920" lon="-3.0897623">
<ele>668.253662</ele>
<time>2011-05-15T13:34:49.000Z</time>
</trkpt>
<trkpt lat="43.2831160" lon="-3.0898806">
<ele>666.811523</ele>
<time>2011-05-15T13:34:56.000Z</time>
</trkpt>
<trkpt lat="43.2831821" lon="-3.0899908">
<ele>663.927490</ele>
<time>2011-05-15T13:35:03.000Z</time>
</trkpt>
<trkpt lat="43.2832314" lon="-3.0900589">
<ele>662.966370</ele>
<time>2011-05-15T13:35:08.000Z</time>
</trkpt>
<trkpt lat="43.2832772" lon="-3.0901112">
<ele>662.005127</ele>
<time>2011-05-15T13:35:12.000Z</time>
</trkpt>
<trkpt lat="43.2834027" lon="-3.0902568">
<ele>659.601807</ele>
<time>2011-05-15T13:35:24.000Z</time>
</trkpt>
<trkpt lat="43.2835799" lon="-3.0904499">
<ele>657.198486</ele>
<time>2011-05-15T13:35:40.000Z</time>
</trkpt>
<trkpt lat="43.2836332" lon="-3.0905352">
<ele>656.237061</ele>
<time>2011-05-15T13:35:46.000Z</time>
</trkpt>
<trkpt lat="43.2837217" lon="-3.0908248">
<ele>655.275879</ele>
<time>2011-05-15T13:36:04.000Z</time>
</trkpt>
<trkpt lat="43.2837141" lon="-3.0909789">
<ele>652.391907</ele>
<time>2011-05-15T13:36:13.000Z</time>
</trkpt>
<trkpt lat="43.2836840" lon="-3.0910853">
<ele>652.391907</ele>
<time>2011-05-15T13:36:20.000Z</time>
</trkpt>
<trkpt lat="43.2836484" lon="-3.0912409">
<ele>649.988525</ele>
<time>2011-05-15T13:36:29.000Z</time>
</trkpt>
<trkpt lat="43.2836432" lon="-3.0913227">
<ele>649.027100</ele>
<time>2011-05-15T13:36:34.000Z</time>
</trkpt>
<trkpt lat="43.2836343" lon="-3.0913502">
<ele>649.507813</ele>
<time>2011-05-15T13:36:36.000Z</time>
</trkpt>
<trkpt lat="43.2836481" lon="-3.0914828">
<ele>648.065918</ele>
<time>2011-05-15T13:36:44.000Z</time>
</trkpt>
<trkpt lat="43.2836577" lon="-3.0915139">
<ele>647.104492</ele>
<time>2011-05-15T13:36:46.000Z</time>
</trkpt>
<trkpt lat="43.2839388" lon="-3.0915201">
<ele>645.181885</ele>
<time>2011-05-15T13:37:04.000Z</time>
</trkpt>
<trkpt lat="43.2839912" lon="-3.0915179">
<ele>644.220703</ele>
<time>2011-05-15T13:37:08.000Z</time>
</trkpt>
<trkpt lat="43.2840338" lon="-3.0914731">
<ele>642.778748</ele>
<time>2011-05-15T13:37:12.000Z</time>
</trkpt>
<trkpt lat="43.2840963" lon="-3.0913828">
<ele>641.336731</ele>
<time>2011-05-15T13:37:19.000Z</time>
</trkpt>
<trkpt lat="43.2841808" lon="-3.0911845">
<ele>638.933594</ele>
<time>2011-05-15T13:37:31.000Z</time>
</trkpt>
<trkpt lat="43.2841927" lon="-3.0911488">
<ele>639.414063</ele>
<time>2011-05-15T13:37:33.000Z</time>
</trkpt>
<trkpt lat="43.2842160" lon="-3.0908948">
<ele>637.491455</ele>
<time>2011-05-15T13:37:47.000Z</time>
</trkpt>
<trkpt lat="43.2842133" lon="-3.0908549">
<ele>638.452881</ele>
<time>2011-05-15T13:37:49.000Z</time>
</trkpt>
<trkpt lat="43.2842309" lon="-3.0907637">
<ele>637.972168</ele>
<time>2011-05-15T13:37:54.000Z</time>
</trkpt>
<trkpt lat="43.2842321" lon="-3.0907109">
<ele>636.530273</ele>
<time>2011-05-15T13:37:57.000Z</time>
</trkpt>
<trkpt lat="43.2842279" lon="-3.0906912">
<ele>637.491455</ele>
<time>2011-05-15T13:37:58.000Z</time>
</trkpt>
<trkpt lat="43.2842165" lon="-3.0905917">
<ele>637.491455</ele>
<time>2011-05-15T13:38:03.000Z</time>
</trkpt>
<trkpt lat="43.2842072" lon="-3.0904971">
<ele>636.530273</ele>
<time>2011-05-15T13:38:08.000Z</time>
</trkpt>
<trkpt lat="43.2842264" lon="-3.0901185">
<ele>636.049561</ele>
<time>2011-05-15T13:38:28.000Z</time>
</trkpt>
<trkpt lat="43.2842564" lon="-3.0898190">
<ele>634.126709</ele>
<time>2011-05-15T13:38:44.000Z</time>
</trkpt>
<trkpt lat="43.2842586" lon="-3.0897294">
<ele>632.684814</ele>
<time>2011-05-15T13:38:49.000Z</time>
</trkpt>
<trkpt lat="43.2842636" lon="-3.0896585">
<ele>631.723389</ele>
<time>2011-05-15T13:38:53.000Z</time>
</trkpt>
<trkpt lat="43.2842749" lon="-3.0895128">
<ele>632.204102</ele>
<time>2011-05-15T13:39:01.000Z</time>
</trkpt>
<trkpt lat="43.2842738" lon="-3.0893653">
<ele>629.800842</ele>
<time>2011-05-15T13:39:09.000Z</time>
</trkpt>
<trkpt lat="43.2842308" lon="-3.0890578">
<ele>628.358887</ele>
<time>2011-05-15T13:39:24.000Z</time>
</trkpt>
<trkpt lat="43.2842262" lon="-3.0890373">
<ele>629.320068</ele>
<time>2011-05-15T13:39:25.000Z</time>
</trkpt>
<trkpt lat="43.2841988" lon="-3.0888336">
<ele>627.878174</ele>
<time>2011-05-15T13:39:36.000Z</time>
</trkpt>
<trkpt lat="43.2841951" lon="-3.0887967">
<ele>625.955566</ele>
<time>2011-05-15T13:39:38.000Z</time>
</trkpt>
<trkpt lat="43.2841766" lon="-3.0887059">
<ele>626.436279</ele>
<time>2011-05-15T13:39:43.000Z</time>
</trkpt>
<trkpt lat="43.2841559" lon="-3.0886192">
<ele>625.955566</ele>
<time>2011-05-15T13:39:48.000Z</time>
</trkpt>
<trkpt lat="43.2841023" lon="-3.0883122">
<ele>624.994385</ele>
<time>2011-05-15T13:40:04.000Z</time>
</trkpt>
<trkpt lat="43.2840927" lon="-3.0882141">
<ele>624.994385</ele>
<time>2011-05-15T13:40:09.000Z</time>
</trkpt>
<trkpt lat="43.2840444" lon="-3.0879299">
<ele>625.474854</ele>
<time>2011-05-15T13:40:24.000Z</time>
</trkpt>
<trkpt lat="43.2840277" lon="-3.0878027">
<ele>625.955566</ele>
<time>2011-05-15T13:40:31.000Z</time>
</trkpt>
<trkpt lat="43.2839626" lon="-3.0875081">
<ele>624.513672</ele>
<time>2011-05-15T13:40:47.000Z</time>
</trkpt>
<trkpt lat="43.2839378" lon="-3.0873947">
<ele>623.552490</ele>
<time>2011-05-15T13:40:53.000Z</time>
</trkpt>
<trkpt lat="43.2839310" lon="-3.0872971">
<ele>623.071777</ele>
<time>2011-05-15T13:40:58.000Z</time>
</trkpt>
<trkpt lat="43.2838481" lon="-3.0869218">
<ele>623.071777</ele>
<time>2011-05-15T13:41:16.000Z</time>
</trkpt>
<trkpt lat="43.2838358" lon="-3.0868813">
<ele>621.629639</ele>
<time>2011-05-15T13:41:18.000Z</time>
</trkpt>
<trkpt lat="43.2837487" lon="-3.0865833">
<ele>621.629639</ele>
<time>2011-05-15T13:41:34.000Z</time>
</trkpt>
<trkpt lat="43.2837363" lon="-3.0864782">
<ele>620.668457</ele>
<time>2011-05-15T13:41:39.000Z</time>
</trkpt>
<trkpt lat="43.2837021" lon="-3.0863606">
<ele>619.707031</ele>
<time>2011-05-15T13:41:45.000Z</time>
</trkpt>
<trkpt lat="43.2836817" lon="-3.0862415">
<ele>619.226318</ele>
<time>2011-05-15T13:41:51.000Z</time>
</trkpt>
<trkpt lat="43.2836595" lon="-3.0860929">
<ele>616.822998</ele>
<time>2011-05-15T13:41:58.000Z</time>
</trkpt>
<trkpt lat="43.2836420" lon="-3.0859831">
<ele>616.822998</ele>
<time>2011-05-15T13:42:03.000Z</time>
</trkpt>
<trkpt lat="43.2836534" lon="-3.0859202">
<ele>614.419678</ele>
<time>2011-05-15T13:42:06.000Z</time>
</trkpt>
<trkpt lat="43.2836394" lon="-3.0857567">
<ele>613.938965</ele>
<time>2011-05-15T13:42:15.000Z</time>
</trkpt>
<trkpt lat="43.2836162" lon="-3.0856423">
<ele>611.535889</ele>
<time>2011-05-15T13:42:21.000Z</time>
</trkpt>
<trkpt lat="43.2836172" lon="-3.0855542">
<ele>611.055176</ele>
<time>2011-05-15T13:42:25.000Z</time>
</trkpt>
<trkpt lat="43.2836114" lon="-3.0854768">
<ele>610.574463</ele>
<time>2011-05-15T13:42:29.000Z</time>
</trkpt>
<trkpt lat="43.2835991" lon="-3.0852658">
<ele>606.729248</ele>
<time>2011-05-15T13:42:40.000Z</time>
</trkpt>
<trkpt lat="43.2835793" lon="-3.0849809">
<ele>606.248535</ele>
<time>2011-05-15T13:42:53.000Z</time>
</trkpt>
<trkpt lat="43.2835826" lon="-3.0849190">
<ele>604.806641</ele>
<time>2011-05-15T13:42:56.000Z</time>
</trkpt>
<trkpt lat="43.2835534" lon="-3.0847435">
<ele>601.922607</ele>
<time>2011-05-15T13:43:05.000Z</time>
</trkpt>
<trkpt lat="43.2835510" lon="-3.0846078">
<ele>601.922607</ele>
<time>2011-05-15T13:43:12.000Z</time>
</trkpt>
<trkpt lat="43.2835425" lon="-3.0845233">
<ele>601.441895</ele>
<time>2011-05-15T13:43:16.000Z</time>
</trkpt>
<trkpt lat="43.2835140" lon="-3.0842307">
<ele>600.961182</ele>
<time>2011-05-15T13:43:31.000Z</time>
</trkpt>
<trkpt lat="43.2834675" lon="-3.0839966">
<ele>601.922607</ele>
<time>2011-05-15T13:43:42.000Z</time>
</trkpt>
<trkpt lat="43.2834217" lon="-3.0837387">
<ele>600.961182</ele>
<time>2011-05-15T13:43:55.000Z</time>
</trkpt>
<trkpt lat="43.2833787" lon="-3.0836175">
<ele>601.441895</ele>
<time>2011-05-15T13:44:02.000Z</time>
</trkpt>
<trkpt lat="43.2833679" lon="-3.0835826">
<ele>599.519287</ele>
<time>2011-05-15T13:44:04.000Z</time>
</trkpt>
<trkpt lat="43.2833286" lon="-3.0833150">
<ele>599.038574</ele>
<time>2011-05-15T13:44:17.000Z</time>
</trkpt>
<trkpt lat="43.2832846" lon="-3.0831158">
<ele>596.635498</ele>
<time>2011-05-15T13:44:27.000Z</time>
</trkpt>
<trkpt lat="43.2832766" lon="-3.0830848">
<ele>597.596680</ele>
<time>2011-05-15T13:44:29.000Z</time>
</trkpt>
<trkpt lat="43.2832665" lon="-3.0830507">
<ele>596.154785</ele>
<time>2011-05-15T13:44:31.000Z</time>
</trkpt>
<trkpt lat="43.2832629" lon="-3.0829697">
<ele>595.674072</ele>
<time>2011-05-15T13:44:35.000Z</time>
</trkpt>
<trkpt lat="43.2832582" lon="-3.0829518">
<ele>596.635498</ele>
<time>2011-05-15T13:44:36.000Z</time>
</trkpt>
<trkpt lat="43.2832344" lon="-3.0828492">
<ele>595.193359</ele>
<time>2011-05-15T13:44:42.000Z</time>
</trkpt>
<trkpt lat="43.2831966" lon="-3.0826555">
<ele>593.270752</ele>
<time>2011-05-15T13:44:52.000Z</time>
</trkpt>
<trkpt lat="43.2831756" lon="-3.0825231">
<ele>591.828857</ele>
<time>2011-05-15T13:45:01.000Z</time>
</trkpt>
<trkpt lat="43.2831661" lon="-3.0824067">
<ele>591.348145</ele>
<time>2011-05-15T13:45:06.000Z</time>
</trkpt>
<trkpt lat="43.2831105" lon="-3.0823028">
<ele>589.906250</ele>
<time>2011-05-15T13:45:12.000Z</time>
</trkpt>
<trkpt lat="43.2830977" lon="-3.0822400">
<ele>588.945068</ele>
<time>2011-05-15T13:45:16.000Z</time>
</trkpt>
<trkpt lat="43.2830964" lon="-3.0821830">
<ele>587.983398</ele>
<time>2011-05-15T13:45:20.000Z</time>
</trkpt>
<trkpt lat="43.2830639" lon="-3.0820980">
<ele>587.983398</ele>
<time>2011-05-15T13:45:25.000Z</time>
</trkpt>
<trkpt lat="43.2830394" lon="-3.0820131">
<ele>587.021973</ele>
<time>2011-05-15T13:45:29.000Z</time>
</trkpt>
<trkpt lat="43.2830254" lon="-3.0819456">
<ele>585.580078</ele>
<time>2011-05-15T13:45:32.000Z</time>
</trkpt>
<trkpt lat="43.2830110" lon="-3.0819033">
<ele>585.580078</ele>
<time>2011-05-15T13:45:34.000Z</time>
</trkpt>
<trkpt lat="43.2830029" lon="-3.0818277">
<ele>584.138184</ele>
<time>2011-05-15T13:45:38.000Z</time>
</trkpt>
<trkpt lat="43.2829872" lon="-3.0817980">
<ele>585.099609</ele>
<time>2011-05-15T13:45:40.000Z</time>
</trkpt>
<trkpt lat="43.2829691" lon="-3.0816935">
<ele>583.176758</ele>
<time>2011-05-15T13:45:45.000Z</time>
</trkpt>
<trkpt lat="43.2829452" lon="-3.0815861">
<ele>582.696289</ele>
<time>2011-05-15T13:45:50.000Z</time>
</trkpt>
<trkpt lat="43.2828961" lon="-3.0814464">
<ele>581.254395</ele>
<time>2011-05-15T13:45:58.000Z</time>
</trkpt>
<trkpt lat="43.2828513" lon="-3.0812967">
<ele>578.370361</ele>
<time>2011-05-15T13:46:08.000Z</time>
</trkpt>
<trkpt lat="43.2828436" lon="-3.0812827">
<ele>579.331543</ele>
<time>2011-05-15T13:46:09.000Z</time>
</trkpt>
<trkpt lat="43.2827619" lon="-3.0812050">
<ele>578.370361</ele>
<time>2011-05-15T13:46:13.000Z</time>
</trkpt>
<trkpt lat="43.2827153" lon="-3.0811221">
<ele>577.889648</ele>
<time>2011-05-15T13:46:17.000Z</time>
</trkpt>
<trkpt lat="43.2825703" lon="-3.0809118">
<ele>577.409180</ele>
<time>2011-05-15T13:46:28.000Z</time>
</trkpt>
<trkpt lat="43.2825469" lon="-3.0808748">
<ele>577.889648</ele>
<time>2011-05-15T13:46:30.000Z</time>
</trkpt>
<trkpt lat="43.2824952" lon="-3.0807531">
<ele>576.447754</ele>
<time>2011-05-15T13:46:36.000Z</time>
</trkpt>
<trkpt lat="43.2824325" lon="-3.0805391">
<ele>575.486328</ele>
<time>2011-05-15T13:46:47.000Z</time>
</trkpt>
<trkpt lat="43.2823801" lon="-3.0802734">
<ele>573.083252</ele>
<time>2011-05-15T13:47:00.000Z</time>
</trkpt>
<trkpt lat="43.2823776" lon="-3.0802529">
<ele>573.083252</ele>
<time>2011-05-15T13:47:01.000Z</time>
</trkpt>
<trkpt lat="43.2823465" lon="-3.0801092">
<ele>571.640869</ele>
<time>2011-05-15T13:47:08.000Z</time>
</trkpt>
<trkpt lat="43.2823188" lon="-3.0800123">
<ele>571.160400</ele>
<time>2011-05-15T13:47:13.000Z</time>
</trkpt>
<trkpt lat="43.2822734" lon="-3.0798042">
<ele>568.757080</ele>
<time>2011-05-15T13:47:23.000Z</time>
</trkpt>
<trkpt lat="43.2822561" lon="-3.0797261">
<ele>567.795654</ele>
<time>2011-05-15T13:47:27.000Z</time>
</trkpt>
<trkpt lat="43.2822232" lon="-3.0794665">
<ele>565.392578</ele>
<time>2011-05-15T13:47:40.000Z</time>
</trkpt>
<trkpt lat="43.2822214" lon="-3.0794452">
<ele>565.873291</ele>
<time>2011-05-15T13:47:41.000Z</time>
</trkpt>
<trkpt lat="43.2822249" lon="-3.0792780">
<ele>563.950439</ele>
<time>2011-05-15T13:47:49.000Z</time>
</trkpt>
<trkpt lat="43.2822222" lon="-3.0791854">
<ele>562.508545</ele>
<time>2011-05-15T13:47:54.000Z</time>
</trkpt>
<trkpt lat="43.2822223" lon="-3.0791530">
<ele>562.989258</ele>
<time>2011-05-15T13:47:56.000Z</time>
</trkpt>
<trkpt lat="43.2822262" lon="-3.0790792">
<ele>562.028076</ele>
<time>2011-05-15T13:48:00.000Z</time>
</trkpt>
<trkpt lat="43.2822388" lon="-3.0790263">
<ele>560.585938</ele>
<time>2011-05-15T13:48:03.000Z</time>
</trkpt>
<trkpt lat="43.2822631" lon="-3.0789407">
<ele>558.663330</ele>
<time>2011-05-15T13:48:09.000Z</time>
</trkpt>
<trkpt lat="43.2822942" lon="-3.0788217">
<ele>556.260010</ele>
<time>2011-05-15T13:48:16.000Z</time>
</trkpt>
<trkpt lat="43.2823259" lon="-3.0786932">
<ele>554.337402</ele>
<time>2011-05-15T13:48:23.000Z</time>
</trkpt>
<trkpt lat="43.2823543" lon="-3.0786185">
<ele>553.856689</ele>
<time>2011-05-15T13:48:28.000Z</time>
</trkpt>
<trkpt lat="43.2823781" lon="-3.0785476">
<ele>552.414551</ele>
<time>2011-05-15T13:48:32.000Z</time>
</trkpt>
<trkpt lat="43.2824152" lon="-3.0783948">
<ele>549.050049</ele>
<time>2011-05-15T13:48:40.000Z</time>
</trkpt>
<trkpt lat="43.2824354" lon="-3.0783072">
<ele>547.127441</ele>
<time>2011-05-15T13:48:45.000Z</time>
</trkpt>
<trkpt lat="43.2824963" lon="-3.0781125">
<ele>544.724243</ele>
<time>2011-05-15T13:48:56.000Z</time>
</trkpt>
<trkpt lat="43.2825044" lon="-3.0780918">
<ele>544.724243</ele>
<time>2011-05-15T13:48:57.000Z</time>
</trkpt>
<trkpt lat="43.2825385" lon="-3.0779104">
<ele>542.801514</ele>
<time>2011-05-15T13:49:06.000Z</time>
</trkpt>
<trkpt lat="43.2825371" lon="-3.0778670">
<ele>541.359497</ele>
<time>2011-05-15T13:49:08.000Z</time>
</trkpt>
<trkpt lat="43.2825303" lon="-3.0777856">
<ele>540.878906</ele>
<time>2011-05-15T13:49:12.000Z</time>
</trkpt>
<trkpt lat="43.2824644" lon="-3.0775841">
<ele>538.475708</ele>
<time>2011-05-15T13:49:23.000Z</time>
</trkpt>
<trkpt lat="43.2824236" lon="-3.0775274">
<ele>538.956299</ele>
<time>2011-05-15T13:49:27.000Z</time>
</trkpt>
<trkpt lat="43.2823921" lon="-3.0774826">
<ele>538.956299</ele>
<time>2011-05-15T13:49:30.000Z</time>
</trkpt>
<trkpt lat="43.2824500" lon="-3.0774266">
<ele>534.149658</ele>
<time>2011-05-15T13:49:40.000Z</time>
</trkpt>
<trkpt lat="43.2824732" lon="-3.0774376">
<ele>534.630371</ele>
<time>2011-05-15T13:49:42.000Z</time>
</trkpt>
<trkpt lat="43.2825054" lon="-3.0774406">
<ele>532.707764</ele>
<time>2011-05-15T13:49:45.000Z</time>
</trkpt>
<trkpt lat="43.2825157" lon="-3.0774383">
<ele>533.188354</ele>
<time>2011-05-15T13:49:46.000Z</time>
</trkpt>
<trkpt lat="43.2825963" lon="-3.0774935">
<ele>530.785156</ele>
<time>2011-05-15T13:49:54.000Z</time>
</trkpt>
<trkpt lat="43.2826278" lon="-3.0775390">
<ele>529.823730</ele>
<time>2011-05-15T13:49:58.000Z</time>
</trkpt>
<trkpt lat="43.2826597" lon="-3.0775777">
<ele>528.381836</ele>
<time>2011-05-15T13:50:02.000Z</time>
</trkpt>
<trkpt lat="43.2827562" lon="-3.0776502">
<ele>525.497803</ele>
<time>2011-05-15T13:50:14.000Z</time>
</trkpt>
<trkpt lat="43.2827769" lon="-3.0776660">
<ele>524.536499</ele>
<time>2011-05-15T13:50:16.000Z</time>
</trkpt>
<trkpt lat="43.2827867" lon="-3.0776825">
<ele>525.497803</ele>
<time>2011-05-15T13:50:18.000Z</time>
</trkpt>
<trkpt lat="43.2828645" lon="-3.0777426">
<ele>521.652588</ele>
<time>2011-05-15T13:50:27.000Z</time>
</trkpt>
<trkpt lat="43.2829259" lon="-3.0778118">
<ele>520.210571</ele>
<time>2011-05-15T13:50:33.000Z</time>
</trkpt>
<trkpt lat="43.2830238" lon="-3.0777790">
<ele>518.287842</ele>
<time>2011-05-15T13:50:40.000Z</time>
</trkpt>
<trkpt lat="43.2830432" lon="-3.0776819">
<ele>517.326660</ele>
<time>2011-05-15T13:50:45.000Z</time>
</trkpt>
<trkpt lat="43.2830404" lon="-3.0776432">
<ele>516.845947</ele>
<time>2011-05-15T13:50:47.000Z</time>
</trkpt>
<trkpt lat="43.2830176" lon="-3.0775792">
<ele>517.326660</ele>
<time>2011-05-15T13:50:51.000Z</time>
</trkpt>
<trkpt lat="43.2829957" lon="-3.0775390">
<ele>515.884644</ele>
<time>2011-05-15T13:50:54.000Z</time>
</trkpt>
<trkpt lat="43.2829524" lon="-3.0774896">
<ele>514.923340</ele>
<time>2011-05-15T13:50:58.000Z</time>
</trkpt>
<trkpt lat="43.2829407" lon="-3.0774234">
<ele>515.404053</ele>
<time>2011-05-15T13:51:02.000Z</time>
</trkpt>
<trkpt lat="43.2829281" lon="-3.0773695">
<ele>513.962036</ele>
<time>2011-05-15T13:51:06.000Z</time>
</trkpt>
<trkpt lat="43.2829333" lon="-3.0772498">
<ele>511.078003</ele>
<time>2011-05-15T13:51:14.000Z</time>
</trkpt>
<trkpt lat="43.2829153" lon="-3.0771650">
<ele>510.597290</ele>
<time>2011-05-15T13:51:19.000Z</time>
</trkpt>
<trkpt lat="43.2830094" lon="-3.0771223">
<ele>508.194092</ele>
<time>2011-05-15T13:51:30.000Z</time>
</trkpt>
<trkpt lat="43.2830296" lon="-3.0770350">
<ele>505.310181</ele>
<time>2011-05-15T13:51:37.000Z</time>
</trkpt>
<trkpt lat="43.2830314" lon="-3.0770220">
<ele>505.310181</ele>
<time>2011-05-15T13:51:38.000Z</time>
</trkpt>
<trkpt lat="43.2830308" lon="-3.0769624">
<ele>503.387482</ele>
<time>2011-05-15T13:51:42.000Z</time>
</trkpt>
<trkpt lat="43.2830656" lon="-3.0768391">
<ele>500.984131</ele>
<time>2011-05-15T13:51:49.000Z</time>
</trkpt>
<trkpt lat="43.2830720" lon="-3.0768204">
<ele>501.464844</ele>
<time>2011-05-15T13:51:50.000Z</time>
</trkpt>
<trkpt lat="43.2830764" lon="-3.0767382">
<ele>498.580902</ele>
<time>2011-05-15T13:51:56.000Z</time>
</trkpt>
<trkpt lat="43.2830795" lon="-3.0766556">
<ele>497.138916</ele>
<time>2011-05-15T13:52:01.000Z</time>
</trkpt>
<trkpt lat="43.2830723" lon="-3.0766164">
<ele>497.619629</ele>
<time>2011-05-15T13:52:04.000Z</time>
</trkpt>
<trkpt lat="43.2830850" lon="-3.0765760">
<ele>496.177765</ele>
<time>2011-05-15T13:52:06.000Z</time>
</trkpt>
<trkpt lat="43.2830964" lon="-3.0765126">
<ele>494.735596</ele>
<time>2011-05-15T13:52:09.000Z</time>
</trkpt>
<trkpt lat="43.2831255" lon="-3.0762777">
<ele>493.293579</ele>
<time>2011-05-15T13:52:19.000Z</time>
</trkpt>
<trkpt lat="43.2831430" lon="-3.0761622">
<ele>492.332397</ele>
<time>2011-05-15T13:52:25.000Z</time>
</trkpt>
<trkpt lat="43.2831996" lon="-3.0758892">
<ele>491.370972</ele>
<time>2011-05-15T13:52:39.000Z</time>
</trkpt>
<trkpt lat="43.2832011" lon="-3.0758638">
<ele>490.890381</ele>
<time>2011-05-15T13:52:44.000Z</time>
</trkpt>
<trkpt lat="43.2833002" lon="-3.0756012">
<ele>490.409821</ele>
<time>2011-05-15T13:52:59.000Z</time>
</trkpt>
<trkpt lat="43.2833232" lon="-3.0755233">
<ele>489.448364</ele>
<time>2011-05-15T13:53:03.000Z</time>
</trkpt>
<trkpt lat="43.2833472" lon="-3.0753818">
<ele>490.890381</ele>
<time>2011-05-15T13:53:10.000Z</time>
</trkpt>
<trkpt lat="43.2833472" lon="-3.0751161">
<ele>493.293579</ele>
<time>2011-05-15T13:53:26.000Z</time>
</trkpt>
<trkpt lat="43.2833560" lon="-3.0749355">
<ele>496.177765</ele>
<time>2011-05-15T13:53:39.000Z</time>
</trkpt>
<trkpt lat="43.2834011" lon="-3.0747419">
<ele>499.542236</ele>
<time>2011-05-15T13:53:54.000Z</time>
</trkpt>
<trkpt lat="43.2834217" lon="-3.0746973">
<ele>500.503540</ele>
<time>2011-05-15T13:53:58.000Z</time>
</trkpt>
<trkpt lat="43.2835413" lon="-3.0744929">
<ele>501.945557</ele>
<time>2011-05-15T13:54:15.000Z</time>
</trkpt>
<trkpt lat="43.2835757" lon="-3.0744506">
<ele>502.426147</ele>
<time>2011-05-15T13:54:19.000Z</time>
</trkpt>
<trkpt lat="43.2836325" lon="-3.0743700">
<ele>504.348846</ele>
<time>2011-05-15T13:54:28.000Z</time>
</trkpt>
<trkpt lat="43.2835776" lon="-3.0741239">
<ele>503.868134</ele>
<time>2011-05-15T13:54:44.000Z</time>
</trkpt>
<trkpt lat="43.2836067" lon="-3.0739819">
<ele>503.387482</ele>
<time>2011-05-15T13:54:55.000Z</time>
</trkpt>
<trkpt lat="43.2836247" lon="-3.0739316">
<ele>502.906769</ele>
<time>2011-05-15T13:54:58.000Z</time>
</trkpt>
<trkpt lat="43.2836372" lon="-3.0738297">
<ele>502.426147</ele>
<time>2011-05-15T13:55:04.000Z</time>
</trkpt>
<trkpt lat="43.2836185" lon="-3.0736487">
<ele>500.984131</ele>
<time>2011-05-15T13:55:13.000Z</time>
</trkpt>
<trkpt lat="43.2836095" lon="-3.0735302">
<ele>500.022949</ele>
<time>2011-05-15T13:55:18.000Z</time>
</trkpt>
<trkpt lat="43.2836107" lon="-3.0734852">
<ele>500.022949</ele>
<time>2011-05-15T13:55:20.000Z</time>
</trkpt>
<trkpt lat="43.2836089" lon="-3.0733996">
<ele>499.061523</ele>
<time>2011-05-15T13:55:24.000Z</time>
</trkpt>
<trkpt lat="43.2835928" lon="-3.0733135">
<ele>498.580902</ele>
<time>2011-05-15T13:55:29.000Z</time>
</trkpt>
<trkpt lat="43.2835907" lon="-3.0732945">
<ele>498.580902</ele>
<time>2011-05-15T13:55:30.000Z</time>
</trkpt>
<trkpt lat="43.2835703" lon="-3.0732131">
<ele>498.580902</ele>
<time>2011-05-15T13:55:35.000Z</time>
</trkpt>
<trkpt lat="43.2835559" lon="-3.0731083">
<ele>498.100342</ele>
<time>2011-05-15T13:55:41.000Z</time>
</trkpt>
<trkpt lat="43.2835479" lon="-3.0730888">
<ele>498.580902</ele>
<time>2011-05-15T13:55:42.000Z</time>
</trkpt>
<trkpt lat="43.2835085" lon="-3.0728376">
<ele>497.138916</ele>
<time>2011-05-15T13:55:54.000Z</time>
</trkpt>
<trkpt lat="43.2834515" lon="-3.0726626">
<ele>495.696899</ele>
<time>2011-05-15T13:56:05.000Z</time>
</trkpt>
<trkpt lat="43.2834348" lon="-3.0726671">
<ele>497.138916</ele>
<time>2011-05-15T13:56:07.000Z</time>
</trkpt>
<trkpt lat="43.2834218" lon="-3.0725563">
<ele>496.177765</ele>
<time>2011-05-15T13:56:13.000Z</time>
</trkpt>
<trkpt lat="43.2834187" lon="-3.0725190">
<ele>495.216187</ele>
<time>2011-05-15T13:56:15.000Z</time>
</trkpt>
<trkpt lat="43.2833914" lon="-3.0724247">
<ele>495.216187</ele>
<time>2011-05-15T13:56:20.000Z</time>
</trkpt>
<trkpt lat="43.2833725" lon="-3.0723298">
<ele>494.255005</ele>
<time>2011-05-15T13:56:25.000Z</time>
</trkpt>
<trkpt lat="43.2833043" lon="-3.0721368">
<ele>493.774292</ele>
<time>2011-05-15T13:56:36.000Z</time>
</trkpt>
<trkpt lat="43.2831810" lon="-3.0718832">
<ele>492.812958</ele>
<time>2011-05-15T13:56:51.000Z</time>
</trkpt>
<trkpt lat="43.2831661" lon="-3.0718316">
<ele>491.370972</ele>
<time>2011-05-15T13:56:54.000Z</time>
</trkpt>
<trkpt lat="43.2830756" lon="-3.0715273">
<ele>488.967773</ele>
<time>2011-05-15T13:57:11.000Z</time>
</trkpt>
<trkpt lat="43.2830461" lon="-3.0714248">
<ele>488.006470</ele>
<time>2011-05-15T13:57:17.000Z</time>
</trkpt>
<trkpt lat="43.2829836" lon="-3.0712999">
<ele>486.564453</ele>
<time>2011-05-15T13:57:25.000Z</time>
</trkpt>
<trkpt lat="43.2829059" lon="-3.0709832">
<ele>486.564453</ele>
<time>2011-05-15T13:57:43.000Z</time>
</trkpt>
<trkpt lat="43.2828163" lon="-3.0708157">
<ele>485.603027</ele>
<time>2011-05-15T13:57:55.000Z</time>
</trkpt>
<trkpt lat="43.2828045" lon="-3.0707935">
<ele>485.122437</ele>
<time>2011-05-15T13:57:57.000Z</time>
</trkpt>
<trkpt lat="43.2827910" lon="-3.0707767">
<ele>486.083740</ele>
<time>2011-05-15T13:57:59.000Z</time>
</trkpt>
<trkpt lat="43.2827376" lon="-3.0706284">
<ele>484.641846</ele>
<time>2011-05-15T13:58:08.000Z</time>
</trkpt>
<trkpt lat="43.2826853" lon="-3.0704817">
<ele>483.680420</ele>
<time>2011-05-15T13:58:17.000Z</time>
</trkpt>
<trkpt lat="43.2826592" lon="-3.0704200">
<ele>482.719238</ele>
<time>2011-05-15T13:58:21.000Z</time>
</trkpt>
<trkpt lat="43.2826148" lon="-3.0702484">
<ele>484.161133</ele>
<time>2011-05-15T13:58:31.000Z</time>
</trkpt>
<trkpt lat="43.2825866" lon="-3.0701542">
<ele>483.680420</ele>
<time>2011-05-15T13:58:37.000Z</time>
</trkpt>
<trkpt lat="43.2824697" lon="-3.0698883">
<ele>485.603027</ele>
<time>2011-05-15T13:58:54.000Z</time>
</trkpt>
<trkpt lat="43.2823499" lon="-3.0696459">
<ele>485.603027</ele>
<time>2011-05-15T13:59:11.000Z</time>
</trkpt>
<trkpt lat="43.2822981" lon="-3.0693950">
<ele>486.564453</ele>
<time>2011-05-15T13:59:26.000Z</time>
</trkpt>
<trkpt lat="43.2822941" lon="-3.0693679">
<ele>486.564453</ele>
<time>2011-05-15T13:59:28.000Z</time>
</trkpt>
<trkpt lat="43.2822647" lon="-3.0693166">
<ele>487.045074</ele>
<time>2011-05-15T13:59:32.000Z</time>
</trkpt>
<trkpt lat="43.2821968" lon="-3.0690789">
<ele>487.045074</ele>
<time>2011-05-15T13:59:45.000Z</time>
</trkpt>
<trkpt lat="43.2821842" lon="-3.0689656">
<ele>488.006470</ele>
<time>2011-05-15T13:59:51.000Z</time>
</trkpt>
<trkpt lat="43.2821860" lon="-3.0688936">
<ele>488.487183</ele>
<time>2011-05-15T13:59:55.000Z</time>
</trkpt>
<trkpt lat="43.2821731" lon="-3.0688034">
<ele>488.006470</ele>
<time>2011-05-15T13:59:59.000Z</time>
</trkpt>
<trkpt lat="43.2821639" lon="-3.0685304">
<ele>487.045074</ele>
<time>2011-05-15T14:00:12.000Z</time>
</trkpt>
<trkpt lat="43.2822864" lon="-3.0682988">
<ele>486.083740</ele>
<time>2011-05-15T14:00:28.000Z</time>
</trkpt>
<trkpt lat="43.2824268" lon="-3.0681205">
<ele>484.161133</ele>
<time>2011-05-15T14:00:42.000Z</time>
</trkpt>
<trkpt lat="43.2824402" lon="-3.0681138">
<ele>484.161133</ele>
<time>2011-05-15T14:00:43.000Z</time>
</trkpt>
<trkpt lat="43.2824666" lon="-3.0681035">
<ele>485.122437</ele>
<time>2011-05-15T14:00:45.000Z</time>
</trkpt>
<trkpt lat="43.2825241" lon="-3.0681116">
<ele>483.199829</ele>
<time>2011-05-15T14:00:50.000Z</time>
</trkpt>
<trkpt lat="43.2826121" lon="-3.0680900">
<ele>480.315918</ele>
<time>2011-05-15T14:00:57.000Z</time>
</trkpt>
<trkpt lat="43.2826401" lon="-3.0680882">
<ele>480.315918</ele>
<time>2011-05-15T14:00:59.000Z</time>
</trkpt>
<trkpt lat="43.2827045" lon="-3.0679170">
<ele>477.912476</ele>
<time>2011-05-15T14:01:08.000Z</time>
</trkpt>
<trkpt lat="43.2827397" lon="-3.0677611">
<ele>476.470551</ele>
<time>2011-05-15T14:01:16.000Z</time>
</trkpt>
<trkpt lat="43.2827426" lon="-3.0674304">
<ele>475.509277</ele>
<time>2011-05-15T14:01:32.000Z</time>
</trkpt>
<trkpt lat="43.2827203" lon="-3.0671860">
<ele>475.509277</ele>
<time>2011-05-15T14:01:44.000Z</time>
</trkpt>
<trkpt lat="43.2827034" lon="-3.0668758">
<ele>474.067261</ele>
<time>2011-05-15T14:02:00.000Z</time>
</trkpt>
<trkpt lat="43.2826226" lon="-3.0665551">
<ele>474.547974</ele>
<time>2011-05-15T14:02:18.000Z</time>
</trkpt>
<trkpt lat="43.2825124" lon="-3.0661677">
<ele>475.509277</ele>
<time>2011-05-15T14:02:40.000Z</time>
</trkpt>
<trkpt lat="43.2824220" lon="-3.0657910">
<ele>475.028687</ele>
<time>2011-05-15T14:03:01.000Z</time>
</trkpt>
<trkpt lat="43.2823909" lon="-3.0655923">
<ele>476.951263</ele>
<time>2011-05-15T14:03:12.000Z</time>
</trkpt>
<trkpt lat="43.2823623" lon="-3.0653062">
<ele>477.912476</ele>
<time>2011-05-15T14:03:29.000Z</time>
</trkpt>
<trkpt lat="43.2823625" lon="-3.0651385">
<ele>480.315918</ele>
<time>2011-05-15T14:03:40.000Z</time>
</trkpt>
<trkpt lat="43.2824153" lon="-3.0649023">
<ele>483.199829</ele>
<time>2011-05-15T14:03:57.000Z</time>
</trkpt>
<trkpt lat="43.2823991" lon="-3.0646199">
<ele>486.564453</ele>
<time>2011-05-15T14:04:16.000Z</time>
</trkpt>
<trkpt lat="43.2823678" lon="-3.0645199">
<ele>487.045074</ele>
<time>2011-05-15T14:04:23.000Z</time>
</trkpt>
<trkpt lat="43.2822587" lon="-3.0642315">
<ele>487.525635</ele>
<time>2011-05-15T14:04:43.000Z</time>
</trkpt>
<trkpt lat="43.2822341" lon="-3.0640408">
<ele>487.525635</ele>
<time>2011-05-15T14:04:56.000Z</time>
</trkpt>
<trkpt lat="43.2822585" lon="-3.0638144">
<ele>486.564453</ele>
<time>2011-05-15T14:05:13.000Z</time>
</trkpt>
<trkpt lat="43.2822360" lon="-3.0637486">
<ele>485.122437</ele>
<time>2011-05-15T14:05:17.000Z</time>
</trkpt>
<trkpt lat="43.2822257" lon="-3.0636974">
<ele>485.603027</ele>
<time>2011-05-15T14:05:21.000Z</time>
</trkpt>
<trkpt lat="43.2822297" lon="-3.0635722">
<ele>483.199829</ele>
<time>2011-05-15T14:05:28.000Z</time>
</trkpt>
<trkpt lat="43.2822299" lon="-3.0632553">
<ele>482.719238</ele>
<time>2011-05-15T14:05:43.000Z</time>
</trkpt>
<trkpt lat="43.2822376" lon="-3.0632021">
<ele>482.719238</ele>
<time>2011-05-15T14:05:46.000Z</time>
</trkpt>
<trkpt lat="43.2822387" lon="-3.0631250">
<ele>481.757782</ele>
<time>2011-05-15T14:05:50.000Z</time>
</trkpt>
<trkpt lat="43.2822356" lon="-3.0630860">
<ele>482.719238</ele>
<time>2011-05-15T14:05:52.000Z</time>
</trkpt>
<trkpt lat="43.2822214" lon="-3.0629581">
<ele>483.199829</ele>
<time>2011-05-15T14:05:58.000Z</time>
</trkpt>
<trkpt lat="43.2822043" lon="-3.0628549">
<ele>482.719238</ele>
<time>2011-05-15T14:06:04.000Z</time>
</trkpt>
<trkpt lat="43.2821917" lon="-3.0628035">
<ele>481.277222</ele>
<time>2011-05-15T14:06:07.000Z</time>
</trkpt>
<trkpt lat="43.2821512" lon="-3.0627170">
<ele>481.757782</ele>
<time>2011-05-15T14:06:13.000Z</time>
</trkpt>
<trkpt lat="43.2821458" lon="-3.0626023">
<ele>481.757782</ele>
<time>2011-05-15T14:06:19.000Z</time>
</trkpt>
<trkpt lat="43.2821371" lon="-3.0625886">
<ele>482.238495</ele>
<time>2011-05-15T14:06:20.000Z</time>
</trkpt>
<trkpt lat="43.2821174" lon="-3.0624749">
<ele>482.238495</ele>
<time>2011-05-15T14:06:27.000Z</time>
</trkpt>
<trkpt lat="43.2820776" lon="-3.0623795">
<ele>482.719238</ele>
<time>2011-05-15T14:06:33.000Z</time>
</trkpt>
<trkpt lat="43.2820636" lon="-3.0623441">
<ele>482.238495</ele>
<time>2011-05-15T14:06:35.000Z</time>
</trkpt>
<trkpt lat="43.2820206" lon="-3.0622762">
<ele>483.680420</ele>
<time>2011-05-15T14:06:39.000Z</time>
</trkpt>
<trkpt lat="43.2820102" lon="-3.0622426">
<ele>482.719238</ele>
<time>2011-05-15T14:06:41.000Z</time>
</trkpt>
<trkpt lat="43.2819766" lon="-3.0621469">
<ele>482.238495</ele>
<time>2011-05-15T14:06:47.000Z</time>
</trkpt>
<trkpt lat="43.2817891" lon="-3.0619019">
<ele>483.199829</ele>
<time>2011-05-15T14:07:03.000Z</time>
</trkpt>
<trkpt lat="43.2815959" lon="-3.0617061">
<ele>483.680420</ele>
<time>2011-05-15T14:07:20.000Z</time>
</trkpt>
<trkpt lat="43.2814230" lon="-3.0615750">
<ele>485.122437</ele>
<time>2011-05-15T14:07:35.000Z</time>
</trkpt>
<trkpt lat="43.2813901" lon="-3.0615494">
<ele>483.680420</ele>
<time>2011-05-15T14:07:38.000Z</time>
</trkpt>
<trkpt lat="43.2812866" lon="-3.0614777">
<ele>485.603027</ele>
<time>2011-05-15T14:07:49.000Z</time>
</trkpt>
<trkpt lat="43.2812269" lon="-3.0614072">
<ele>485.603027</ele>
<time>2011-05-15T14:07:55.000Z</time>
</trkpt>
<trkpt lat="43.2811151" lon="-3.0612895">
<ele>485.122437</ele>
<time>2011-05-15T14:08:05.000Z</time>
</trkpt>
<trkpt lat="43.2810774" lon="-3.0612630">
<ele>486.564453</ele>
<time>2011-05-15T14:08:08.000Z</time>
</trkpt>
<trkpt lat="43.2810240" lon="-3.0612326">
<ele>485.603027</ele>
<time>2011-05-15T14:08:12.000Z</time>
</trkpt>
<trkpt lat="43.2809918" lon="-3.0612374">
<ele>486.083740</ele>
<time>2011-05-15T14:08:14.000Z</time>
</trkpt>
<trkpt lat="43.2808764" lon="-3.0612591">
<ele>482.238495</ele>
<time>2011-05-15T14:08:24.000Z</time>
</trkpt>
<trkpt lat="43.2808440" lon="-3.0612441">
<ele>483.680420</ele>
<time>2011-05-15T14:08:26.000Z</time>
</trkpt>
<trkpt lat="43.2807974" lon="-3.0611290">
<ele>482.238495</ele>
<time>2011-05-15T14:08:33.000Z</time>
</trkpt>
<trkpt lat="43.2807667" lon="-3.0610357">
<ele>481.277222</ele>
<time>2011-05-15T14:08:38.000Z</time>
</trkpt>
<trkpt lat="43.2806397" lon="-3.0607172">
<ele>481.757782</ele>
<time>2011-05-15T14:08:55.000Z</time>
</trkpt>
<trkpt lat="43.2805055" lon="-3.0604234">
<ele>480.315918</ele>
<time>2011-05-15T14:09:10.000Z</time>
</trkpt>
<trkpt lat="43.2804620" lon="-3.0603521">
<ele>480.315918</ele>
<time>2011-05-15T14:09:14.000Z</time>
</trkpt>
<trkpt lat="43.2804096" lon="-3.0602184">
<ele>480.315918</ele>
<time>2011-05-15T14:09:21.000Z</time>
</trkpt>
<trkpt lat="43.2803760" lon="-3.0600892">
<ele>479.354492</ele>
<time>2011-05-15T14:09:28.000Z</time>
</trkpt>
<trkpt lat="43.2803645" lon="-3.0600111">
<ele>478.873901</ele>
<time>2011-05-15T14:09:32.000Z</time>
</trkpt>
<trkpt lat="43.2803475" lon="-3.0599873">
<ele>477.912476</ele>
<time>2011-05-15T14:09:34.000Z</time>
</trkpt>
<trkpt lat="43.2803434" lon="-3.0599218">
<ele>477.912476</ele>
<time>2011-05-15T14:09:38.000Z</time>
</trkpt>
<trkpt lat="43.2803131" lon="-3.0598309">
<ele>477.431885</ele>
<time>2011-05-15T14:09:43.000Z</time>
</trkpt>
<trkpt lat="43.2802706" lon="-3.0596950">
<ele>476.470551</ele>
<time>2011-05-15T14:09:50.000Z</time>
</trkpt>
<trkpt lat="43.2802310" lon="-3.0593102">
<ele>477.431885</ele>
<time>2011-05-15T14:10:09.000Z</time>
</trkpt>
<trkpt lat="43.2802035" lon="-3.0589557">
<ele>477.912476</ele>
<time>2011-05-15T14:10:27.000Z</time>
</trkpt>
<trkpt lat="43.2802038" lon="-3.0588568">
<ele>476.951263</ele>
<time>2011-05-15T14:10:32.000Z</time>
</trkpt>
<trkpt lat="43.2802196" lon="-3.0587673">
<ele>476.951263</ele>
<time>2011-05-15T14:10:37.000Z</time>
</trkpt>
<trkpt lat="43.2803138" lon="-3.0584382">
<ele>476.470551</ele>
<time>2011-05-15T14:10:55.000Z</time>
</trkpt>
<trkpt lat="43.2803054" lon="-3.0583824">
<ele>476.951263</ele>
<time>2011-05-15T14:10:58.000Z</time>
</trkpt>
<trkpt lat="43.2802999" lon="-3.0582013">
<ele>475.509277</ele>
<time>2011-05-15T14:11:07.000Z</time>
</trkpt>
<trkpt lat="43.2802879" lon="-3.0580458">
<ele>476.470551</ele>
<time>2011-05-15T14:11:15.000Z</time>
</trkpt>
<trkpt lat="43.2802849" lon="-3.0579734">
<ele>475.028687</ele>
<time>2011-05-15T14:11:19.000Z</time>
</trkpt>
<trkpt lat="43.2802765" lon="-3.0578665">
<ele>475.028687</ele>
<time>2011-05-15T14:11:25.000Z</time>
</trkpt>
<trkpt lat="43.2802580" lon="-3.0576810">
<ele>475.989899</ele>
<time>2011-05-15T14:11:35.000Z</time>
</trkpt>
<trkpt lat="43.2802470" lon="-3.0576426">
<ele>474.547974</ele>
<time>2011-05-15T14:11:37.000Z</time>
</trkpt>
<trkpt lat="43.2801875" lon="-3.0573471">
<ele>474.067261</ele>
<time>2011-05-15T14:11:52.000Z</time>
</trkpt>
<trkpt lat="43.2801221" lon="-3.0569869">
<ele>473.586670</ele>
<time>2011-05-15T14:12:11.000Z</time>
</trkpt>
<trkpt lat="43.2801107" lon="-3.0569301">
<ele>472.144653</ele>
<time>2011-05-15T14:12:14.000Z</time>
</trkpt>
<trkpt lat="43.2800709" lon="-3.0567625">
<ele>471.183319</ele>
<time>2011-05-15T14:12:23.000Z</time>
</trkpt>
<trkpt lat="43.2800418" lon="-3.0566715">
<ele>471.663940</ele>
<time>2011-05-15T14:12:28.000Z</time>
</trkpt>
<trkpt lat="43.2800274" lon="-3.0566347">
<ele>472.144653</ele>
<time>2011-05-15T14:12:30.000Z</time>
</trkpt>
<trkpt lat="43.2799555" lon="-3.0563092">
<ele>470.221954</ele>
<time>2011-05-15T14:12:47.000Z</time>
</trkpt>
<trkpt lat="43.2799402" lon="-3.0562150">
<ele>469.741333</ele>
<time>2011-05-15T14:12:52.000Z</time>
</trkpt>
<trkpt lat="43.2798942" lon="-3.0560379">
<ele>468.780029</ele>
<time>2011-05-15T14:13:02.000Z</time>
</trkpt>
<trkpt lat="43.2798376" lon="-3.0558229">
<ele>468.299316</ele>
<time>2011-05-15T14:13:14.000Z</time>
</trkpt>
<trkpt lat="43.2798201" lon="-3.0557480">
<ele>468.780029</ele>
<time>2011-05-15T14:13:18.000Z</time>
</trkpt>
<trkpt lat="43.2797585" lon="-3.0554863">
<ele>467.338135</ele>
<time>2011-05-15T14:13:32.000Z</time>
</trkpt>
<trkpt lat="43.2797165" lon="-3.0553405">
<ele>466.857422</ele>
<time>2011-05-15T14:13:40.000Z</time>
</trkpt>
<trkpt lat="43.2796849" lon="-3.0552340">
<ele>467.338135</ele>
<time>2011-05-15T14:13:46.000Z</time>
</trkpt>
<trkpt lat="43.2796804" lon="-3.0551979">
<ele>465.896088</ele>
<time>2011-05-15T14:13:48.000Z</time>
</trkpt>
<trkpt lat="43.2796089" lon="-3.0549397">
<ele>466.376709</ele>
<time>2011-05-15T14:14:02.000Z</time>
</trkpt>
<trkpt lat="43.2795508" lon="-3.0546306">
<ele>467.338135</ele>
<time>2011-05-15T14:14:19.000Z</time>
</trkpt>
<trkpt lat="43.2796187" lon="-3.0544349">
<ele>467.338135</ele>
<time>2011-05-15T14:14:33.000Z</time>
</trkpt>
<trkpt lat="43.2797308" lon="-3.0543225">
<ele>466.857422</ele>
<time>2011-05-15T14:14:46.000Z</time>
</trkpt>
<trkpt lat="43.2797026" lon="-3.0542617">
<ele>466.857422</ele>
<time>2011-05-15T14:14:50.000Z</time>
</trkpt>
<trkpt lat="43.2794947" lon="-3.0540287">
<ele>468.299316</ele>
<time>2011-05-15T14:15:10.000Z</time>
</trkpt>
<trkpt lat="43.2794836" lon="-3.0540194">
<ele>468.780029</ele>
<time>2011-05-15T14:15:11.000Z</time>
</trkpt>
<trkpt lat="43.2794045" lon="-3.0539243">
<ele>468.299316</ele>
<time>2011-05-15T14:15:19.000Z</time>
</trkpt>
<trkpt lat="43.2792735" lon="-3.0535577">
<ele>470.221954</ele>
<time>2011-05-15T14:15:41.000Z</time>
</trkpt>
<trkpt lat="43.2792564" lon="-3.0534819">
<ele>470.221954</ele>
<time>2011-05-15T14:15:45.000Z</time>
</trkpt>
<trkpt lat="43.2792052" lon="-3.0531864">
<ele>470.702667</ele>
<time>2011-05-15T14:16:00.000Z</time>
</trkpt>
<trkpt lat="43.2791565" lon="-3.0528700">
<ele>470.221954</ele>
<time>2011-05-15T14:16:16.000Z</time>
</trkpt>
<trkpt lat="43.2791410" lon="-3.0528178">
<ele>471.183319</ele>
<time>2011-05-15T14:16:19.000Z</time>
</trkpt>
<trkpt lat="43.2791225" lon="-3.0526501">
<ele>471.183319</ele>
<time>2011-05-15T14:16:28.000Z</time>
</trkpt>
<trkpt lat="43.2791063" lon="-3.0525803">
<ele>471.183319</ele>
<time>2011-05-15T14:16:32.000Z</time>
</trkpt>
<trkpt lat="43.2790493" lon="-3.0522432">
<ele>472.144653</ele>
<time>2011-05-15T14:16:50.000Z</time>
</trkpt>
<trkpt lat="43.2790355" lon="-3.0521234">
<ele>473.106079</ele>
<time>2011-05-15T14:16:56.000Z</time>
</trkpt>
<trkpt lat="43.2790302" lon="-3.0520400">
<ele>472.625366</ele>
<time>2011-05-15T14:17:00.000Z</time>
</trkpt>
<trkpt lat="43.2790223" lon="-3.0517659">
<ele>472.625366</ele>
<time>2011-05-15T14:17:15.000Z</time>
</trkpt>
<trkpt lat="43.2790243" lon="-3.0513495">
<ele>473.586670</ele>
<time>2011-05-15T14:17:36.000Z</time>
</trkpt>
<trkpt lat="43.2790343" lon="-3.0511286">
<ele>474.067261</ele>
<time>2011-05-15T14:17:47.000Z</time>
</trkpt>
<trkpt lat="43.2791321" lon="-3.0507553">
<ele>470.702667</ele>
<time>2011-05-15T14:18:07.000Z</time>
</trkpt>
<trkpt lat="43.2791825" lon="-3.0505915">
<ele>468.780029</ele>
<time>2011-05-15T14:18:16.000Z</time>
</trkpt>
<trkpt lat="43.2791841" lon="-3.0503910">
<ele>466.857422</ele>
<time>2011-05-15T14:18:26.000Z</time>
</trkpt>
<trkpt lat="43.2791778" lon="-3.0503073">
<ele>466.376709</ele>
<time>2011-05-15T14:18:30.000Z</time>
</trkpt>
<trkpt lat="43.2791271" lon="-3.0499936">
<ele>463.492798</ele>
<time>2011-05-15T14:18:46.000Z</time>
</trkpt>
<trkpt lat="43.2791219" lon="-3.0499746">
<ele>463.492798</ele>
<time>2011-05-15T14:18:47.000Z</time>
</trkpt>
<trkpt lat="43.2790838" lon="-3.0498046">
<ele>463.012085</ele>
<time>2011-05-15T14:18:56.000Z</time>
</trkpt>
<trkpt lat="43.2789239" lon="-3.0493251">
<ele>462.050781</ele>
<time>2011-05-15T14:19:22.000Z</time>
</trkpt>
<trkpt lat="43.2787727" lon="-3.0489240">
<ele>461.570190</ele>
<time>2011-05-15T14:19:45.000Z</time>
</trkpt>
<trkpt lat="43.2785561" lon="-3.0485993">
<ele>462.050781</ele>
<time>2011-05-15T14:20:08.000Z</time>
</trkpt>
<trkpt lat="43.2783494" lon="-3.0484104">
<ele>465.415527</ele>
<time>2011-05-15T14:20:29.000Z</time>
</trkpt>
<trkpt lat="43.2781755" lon="-3.0482589">
<ele>468.780029</ele>
<time>2011-05-15T14:20:47.000Z</time>
</trkpt>
<trkpt lat="43.2779491" lon="-3.0480031">
<ele>471.183319</ele>
<time>2011-05-15T14:21:11.000Z</time>
</trkpt>
<trkpt lat="43.2776891" lon="-3.0476976">
<ele>473.586670</ele>
<time>2011-05-15T14:21:38.000Z</time>
</trkpt>
<trkpt lat="43.2775829" lon="-3.0475597">
<ele>473.106079</ele>
<time>2011-05-15T14:21:49.000Z</time>
</trkpt>
<trkpt lat="43.2774222" lon="-3.0473505">
<ele>475.989899</ele>
<time>2011-05-15T14:22:06.000Z</time>
</trkpt>
<trkpt lat="43.2772752" lon="-3.0471492">
<ele>479.354492</ele>
<time>2011-05-15T14:22:23.000Z</time>
</trkpt>
<trkpt lat="43.2771023" lon="-3.0468859">
<ele>482.238495</ele>
<time>2011-05-15T14:22:44.000Z</time>
</trkpt>
<trkpt lat="43.2769997" lon="-3.0466147">
<ele>485.122437</ele>
<time>2011-05-15T14:23:03.000Z</time>
</trkpt>
<trkpt lat="43.2769649" lon="-3.0463362">
<ele>488.487183</ele>
<time>2011-05-15T14:23:21.000Z</time>
</trkpt>
<trkpt lat="43.2768965" lon="-3.0461583">
<ele>491.370972</ele>
<time>2011-05-15T14:23:35.000Z</time>
</trkpt>
<trkpt lat="43.2767763" lon="-3.0458957">
<ele>494.255005</ele>
<time>2011-05-15T14:23:54.000Z</time>
</trkpt>
<trkpt lat="43.2766344" lon="-3.0456595">
<ele>495.696899</ele>
<time>2011-05-15T14:24:14.000Z</time>
</trkpt>
<trkpt lat="43.2765386" lon="-3.0455011">
<ele>495.696899</ele>
<time>2011-05-15T14:24:26.000Z</time>
</trkpt>
<trkpt lat="43.2764112" lon="-3.0453357">
<ele>495.696899</ele>
<time>2011-05-15T14:24:39.000Z</time>
</trkpt>
<trkpt lat="43.2764044" lon="-3.0452531">
<ele>495.216187</ele>
<time>2011-05-15T14:24:43.000Z</time>
</trkpt>
<trkpt lat="43.2763593" lon="-3.0449240">
<ele>497.138916</ele>
<time>2011-05-15T14:25:02.000Z</time>
</trkpt>
<trkpt lat="43.2762648" lon="-3.0446564">
<ele>500.022949</ele>
<time>2011-05-15T14:25:19.000Z</time>
</trkpt>
<trkpt lat="43.2762121" lon="-3.0442758">
<ele>502.906769</ele>
<time>2011-05-15T14:25:42.000Z</time>
</trkpt>
<trkpt lat="43.2763044" lon="-3.0440523">
<ele>506.271484</ele>
<time>2011-05-15T14:25:58.000Z</time>
</trkpt>
<trkpt lat="43.2764327" lon="-3.0437895">
<ele>507.713501</ele>
<time>2011-05-15T14:26:18.000Z</time>
</trkpt>
<trkpt lat="43.2764510" lon="-3.0437394">
<ele>509.155365</ele>
<time>2011-05-15T14:26:22.000Z</time>
</trkpt>
<trkpt lat="43.2765608" lon="-3.0435546">
<ele>512.520020</ele>
<time>2011-05-15T14:26:40.000Z</time>
</trkpt>
<trkpt lat="43.2765881" lon="-3.0435147">
<ele>513.481445</ele>
<time>2011-05-15T14:26:45.000Z</time>
</trkpt>
<trkpt lat="43.2765949" lon="-3.0435076">
<ele>513.962036</ele>
<time>2011-05-15T14:26:46.000Z</time>
</trkpt>
<trkpt lat="43.2766587" lon="-3.0434094">
<ele>517.326660</ele>
<time>2011-05-15T14:26:59.000Z</time>
</trkpt>
<trkpt lat="43.2767039" lon="-3.0433322">
<ele>521.171997</ele>
<time>2011-05-15T14:27:11.000Z</time>
</trkpt>
<trkpt lat="43.2767256" lon="-3.0432412">
<ele>524.536499</ele>
<time>2011-05-15T14:27:23.000Z</time>
</trkpt>
<trkpt lat="43.2767396" lon="-3.0432090">
<ele>525.497803</ele>
<time>2011-05-15T14:27:27.000Z</time>
</trkpt>
<trkpt lat="43.2767607" lon="-3.0431419">
<ele>527.901001</ele>
<time>2011-05-15T14:27:36.000Z</time>
</trkpt>
<trkpt lat="43.2768225" lon="-3.0430360">
<ele>530.785156</ele>
<time>2011-05-15T14:27:52.000Z</time>
</trkpt>
<trkpt lat="43.2768446" lon="-3.0427930">
<ele>526.939819</ele>
<time>2011-05-15T14:28:08.000Z</time>
</trkpt>
<trkpt lat="43.2768608" lon="-3.0427436">
<ele>525.497803</ele>
<time>2011-05-15T14:28:11.000Z</time>
</trkpt>
<trkpt lat="43.2768500" lon="-3.0425141">
<ele>522.133179</ele>
<time>2011-05-15T14:28:24.000Z</time>
</trkpt>
<trkpt lat="43.2768204" lon="-3.0423510">
<ele>520.210571</ele>
<time>2011-05-15T14:28:33.000Z</time>
</trkpt>
<trkpt lat="43.2768212" lon="-3.0422398">
<ele>518.768555</ele>
<time>2011-05-15T14:28:39.000Z</time>
</trkpt>
<trkpt lat="43.2768359" lon="-3.0420720">
<ele>518.287842</ele>
<time>2011-05-15T14:28:48.000Z</time>
</trkpt>
<trkpt lat="43.2768352" lon="-3.0420145">
<ele>515.884644</ele>
<time>2011-05-15T14:28:51.000Z</time>
</trkpt>
<trkpt lat="43.2768261" lon="-3.0419060">
<ele>514.923340</ele>
<time>2011-05-15T14:28:57.000Z</time>
</trkpt>
<trkpt lat="43.2768235" lon="-3.0418363">
<ele>515.884644</ele>
<time>2011-05-15T14:29:01.000Z</time>
</trkpt>
<trkpt lat="43.2768116" lon="-3.0416912">
<ele>512.520020</ele>
<time>2011-05-15T14:29:09.000Z</time>
</trkpt>
<trkpt lat="43.2768075" lon="-3.0416566">
<ele>512.039429</ele>
<time>2011-05-15T14:29:11.000Z</time>
</trkpt>
<trkpt lat="43.2767929" lon="-3.0415244">
<ele>510.597290</ele>
<time>2011-05-15T14:29:19.000Z</time>
</trkpt>
<trkpt lat="43.2767598" lon="-3.0413820">
<ele>508.674713</ele>
<time>2011-05-15T14:29:29.000Z</time>
</trkpt>
<trkpt lat="43.2767399" lon="-3.0413224">
<ele>507.232788</ele>
<time>2011-05-15T14:29:33.000Z</time>
</trkpt>
<trkpt lat="43.2767059" lon="-3.0411155">
<ele>504.348846</ele>
<time>2011-05-15T14:29:46.000Z</time>
</trkpt>
<trkpt lat="43.2767104" lon="-3.0409976">
<ele>501.945557</ele>
<time>2011-05-15T14:29:52.000Z</time>
</trkpt>
<trkpt lat="43.2768752" lon="-3.0408376">
<ele>502.906769</ele>
<time>2011-05-15T14:30:07.000Z</time>
</trkpt>
<trkpt lat="43.2770502" lon="-3.0406728">
<ele>502.426147</ele>
<time>2011-05-15T14:30:22.000Z</time>
</trkpt>
<trkpt lat="43.2772680" lon="-3.0404910">
<ele>503.387482</ele>
<time>2011-05-15T14:30:40.000Z</time>
</trkpt>
<trkpt lat="43.2773416" lon="-3.0404211">
<ele>504.348846</ele>
<time>2011-05-15T14:30:47.000Z</time>
</trkpt>
<trkpt lat="43.2774706" lon="-3.0402633">
<ele>503.387482</ele>
<time>2011-05-15T14:31:00.000Z</time>
</trkpt>
<trkpt lat="43.2774749" lon="-3.0401999">
<ele>504.829468</ele>
<time>2011-05-15T14:31:04.000Z</time>
</trkpt>
<trkpt lat="43.2774751" lon="-3.0401335">
<ele>505.310181</ele>
<time>2011-05-15T14:31:08.000Z</time>
</trkpt>
<trkpt lat="43.2774357" lon="-3.0398215">
<ele>508.194092</ele>
<time>2011-05-15T14:31:26.000Z</time>
</trkpt>
<trkpt lat="43.2774060" lon="-3.0397533">
<ele>510.597290</ele>
<time>2011-05-15T14:31:31.000Z</time>
</trkpt>
<trkpt lat="43.2773631" lon="-3.0395716">
<ele>513.000732</ele>
<time>2011-05-15T14:31:44.000Z</time>
</trkpt>
<trkpt lat="43.2773684" lon="-3.0395138">
<ele>513.962036</ele>
<time>2011-05-15T14:31:48.000Z</time>
</trkpt>
<trkpt lat="43.2773994" lon="-3.0392639">
<ele>517.326660</ele>
<time>2011-05-15T14:32:04.000Z</time>
</trkpt>
<trkpt lat="43.2774881" lon="-3.0390631">
<ele>520.691284</ele>
<time>2011-05-15T14:32:21.000Z</time>
</trkpt>
<trkpt lat="43.2775196" lon="-3.0389815">
<ele>522.613892</ele>
<time>2011-05-15T14:32:28.000Z</time>
</trkpt>
<trkpt lat="43.2775913" lon="-3.0386976">
<ele>524.536499</ele>
<time>2011-05-15T14:32:48.000Z</time>
</trkpt>
<trkpt lat="43.2776021" lon="-3.0386732">
<ele>525.017212</ele>
<time>2011-05-15T14:32:50.000Z</time>
</trkpt>
<trkpt lat="43.2776700" lon="-3.0385920">
<ele>526.939819</ele>
<time>2011-05-15T14:32:59.000Z</time>
</trkpt>
<trkpt lat="43.2777319" lon="-3.0385599">
<ele>528.862549</ele>
<time>2011-05-15T14:33:05.000Z</time>
</trkpt>
<trkpt lat="43.2779652" lon="-3.0383013">
<ele>528.381836</ele>
<time>2011-05-15T14:33:27.000Z</time>
</trkpt>
<trkpt lat="43.2781162" lon="-3.0379316">
<ele>530.785156</ele>
<time>2011-05-15T14:33:50.000Z</time>
</trkpt>
<trkpt lat="43.2781621" lon="-3.0376238">
<ele>531.746338</ele>
<time>2011-05-15T14:34:10.000Z</time>
</trkpt>
<trkpt lat="43.2781649" lon="-3.0375692">
<ele>532.707764</ele>
<time>2011-05-15T14:34:15.000Z</time>
</trkpt>
<trkpt lat="43.2781579" lon="-3.0374412">
<ele>535.110962</ele>
<time>2011-05-15T14:34:25.000Z</time>
</trkpt>
<trkpt lat="43.2781828" lon="-3.0371881">
<ele>537.514282</ele>
<time>2011-05-15T14:34:42.000Z</time>
</trkpt>
<trkpt lat="43.2782242" lon="-3.0369453">
<ele>538.475708</ele>
<time>2011-05-15T14:34:57.000Z</time>
</trkpt>
<trkpt lat="43.2781630" lon="-3.0365490">
<ele>538.475708</ele>
<time>2011-05-15T14:35:20.000Z</time>
</trkpt>
<trkpt lat="43.2780549" lon="-3.0363539">
<ele>541.359497</ele>
<time>2011-05-15T14:35:35.000Z</time>
</trkpt>
<trkpt lat="43.2778872" lon="-3.0363966">
<ele>542.801514</ele>
<time>2011-05-15T14:35:50.000Z</time>
</trkpt>
<trkpt lat="43.2777456" lon="-3.0365648">
<ele>543.762817</ele>
<time>2011-05-15T14:36:05.000Z</time>
</trkpt>
<trkpt lat="43.2777087" lon="-3.0366292">
<ele>545.204834</ele>
<time>2011-05-15T14:36:10.000Z</time>
</trkpt>
<trkpt lat="43.2776574" lon="-3.0367571">
<ele>549.050049</ele>
<time>2011-05-15T14:36:22.000Z</time>
</trkpt>
<trkpt lat="43.2776057" lon="-3.0369182">
<ele>551.934082</ele>
<time>2011-05-15T14:36:35.000Z</time>
</trkpt>
<trkpt lat="43.2775505" lon="-3.0369773">
<ele>554.817871</ele>
<time>2011-05-15T14:36:43.000Z</time>
</trkpt>
<trkpt lat="43.2773029" lon="-3.0369870">
<ele>553.856689</ele>
<time>2011-05-15T14:37:02.000Z</time>
</trkpt>
<trkpt lat="43.2771357" lon="-3.0370346">
<ele>554.337402</ele>
<time>2011-05-15T14:37:16.000Z</time>
</trkpt>
<trkpt lat="43.2771315" lon="-3.0370701">
<ele>556.260010</ele>
<time>2011-05-15T14:37:19.000Z</time>
</trkpt>
<trkpt lat="43.2771291" lon="-3.0371206">
<ele>557.702148</ele>
<time>2011-05-15T14:37:28.000Z</time>
</trkpt>
<trkpt lat="43.2771497" lon="-3.0371197">
<ele>558.182861</ele>
<time>2011-05-15T14:37:55.000Z</time>
</trkpt>
<trkpt lat="43.2771507" lon="-3.0371095">
<ele>557.221436</ele>
<time>2011-05-15T14:38:15.000Z</time>
</trkpt>
<trkpt lat="43.2771317" lon="-3.0371000">
<ele>556.260010</ele>
<time>2011-05-15T14:39:41.000Z</time>
</trkpt>
<trkpt lat="43.2771275" lon="-3.0370942">
<ele>555.298584</ele>
<time>2011-05-15T14:39:44.000Z</time>
</trkpt>
<trkpt lat="43.2771453" lon="-3.0369667">
<ele>552.895264</ele>
<time>2011-05-15T14:39:52.000Z</time>
</trkpt>
<trkpt lat="43.2771238" lon="-3.0367272">
<ele>551.453369</ele>
<time>2011-05-15T14:40:05.000Z</time>
</trkpt>
<trkpt lat="43.2771460" lon="-3.0363899">
<ele>550.972656</ele>
<time>2011-05-15T14:40:26.000Z</time>
</trkpt>
<trkpt lat="43.2771897" lon="-3.0362904">
<ele>551.453369</ele>
<time>2011-05-15T14:40:32.000Z</time>
</trkpt>
<trkpt lat="43.2772959" lon="-3.0360376">
<ele>549.050049</ele>
<time>2011-05-15T14:40:46.000Z</time>
</trkpt>
<trkpt lat="43.2774595" lon="-3.0358045">
<ele>550.011475</ele>
<time>2011-05-15T14:41:03.000Z</time>
</trkpt>
<trkpt lat="43.2775186" lon="-3.0356107">
<ele>547.608154</ele>
<time>2011-05-15T14:41:13.000Z</time>
</trkpt>
<trkpt lat="43.2775824" lon="-3.0351503">
<ele>545.685547</ele>
<time>2011-05-15T14:41:35.000Z</time>
</trkpt>
<trkpt lat="43.2775678" lon="-3.0348191">
<ele>546.166260</ele>
<time>2011-05-15T14:41:51.000Z</time>
</trkpt>
<trkpt lat="43.2774998" lon="-3.0343594">
<ele>545.685547</ele>
<time>2011-05-15T14:42:15.000Z</time>
</trkpt>
<trkpt lat="43.2774632" lon="-3.0342316">
<ele>546.166260</ele>
<time>2011-05-15T14:42:22.000Z</time>
</trkpt>
<trkpt lat="43.2773411" lon="-3.0339641">
<ele>549.050049</ele>
<time>2011-05-15T14:42:39.000Z</time>
</trkpt>
<trkpt lat="43.2771747" lon="-3.0336791">
<ele>550.972656</ele>
<time>2011-05-15T14:43:01.000Z</time>
</trkpt>
<trkpt lat="43.2770716" lon="-3.0334476">
<ele>552.414551</ele>
<time>2011-05-15T14:43:17.000Z</time>
</trkpt>
<trkpt lat="43.2769833" lon="-3.0331310">
<ele>552.414551</ele>
<time>2011-05-15T14:43:37.000Z</time>
</trkpt>
<trkpt lat="43.2769215" lon="-3.0329280">
<ele>550.011475</ele>
<time>2011-05-15T14:43:49.000Z</time>
</trkpt>
<trkpt lat="43.2767345" lon="-3.0326085">
<ele>547.608154</ele>
<time>2011-05-15T14:44:10.000Z</time>
</trkpt>
<trkpt lat="43.2766918" lon="-3.0324888">
<ele>546.166260</ele>
<time>2011-05-15T14:44:17.000Z</time>
</trkpt>
<trkpt lat="43.2766407" lon="-3.0323331">
<ele>544.724243</ele>
<time>2011-05-15T14:44:26.000Z</time>
</trkpt>
<trkpt lat="43.2766100" lon="-3.0322285">
<ele>543.762817</ele>
<time>2011-05-15T14:44:32.000Z</time>
</trkpt>
<trkpt lat="43.2765717" lon="-3.0320442">
<ele>542.320923</ele>
<time>2011-05-15T14:44:42.000Z</time>
</trkpt>
<trkpt lat="43.2765488" lon="-3.0319346">
<ele>541.359497</ele>
<time>2011-05-15T14:44:48.000Z</time>
</trkpt>
<trkpt lat="43.2764628" lon="-3.0316257">
<ele>537.994995</ele>
<time>2011-05-15T14:45:05.000Z</time>
</trkpt>
<trkpt lat="43.2764561" lon="-3.0316091">
<ele>537.994995</ele>
<time>2011-05-15T14:45:06.000Z</time>
</trkpt>
<trkpt lat="43.2764287" lon="-3.0315157">
<ele>536.553101</ele>
<time>2011-05-15T14:45:11.000Z</time>
</trkpt>
<trkpt lat="43.2763998" lon="-3.0314435">
<ele>536.553101</ele>
<time>2011-05-15T14:45:15.000Z</time>
</trkpt>
<trkpt lat="43.2762935" lon="-3.0312122">
<ele>533.188354</ele>
<time>2011-05-15T14:45:29.000Z</time>
</trkpt>
<trkpt lat="43.2762459" lon="-3.0310507">
<ele>533.668945</ele>
<time>2011-05-15T14:45:38.000Z</time>
</trkpt>
<trkpt lat="43.2762048" lon="-3.0309041">
<ele>529.823730</ele>
<time>2011-05-15T14:45:46.000Z</time>
</trkpt>
<trkpt lat="43.2761568" lon="-3.0306983">
<ele>528.862549</ele>
<time>2011-05-15T14:45:57.000Z</time>
</trkpt>
<trkpt lat="43.2761380" lon="-3.0306001">
<ele>528.381836</ele>
<time>2011-05-15T14:46:02.000Z</time>
</trkpt>
<trkpt lat="43.2761002" lon="-3.0304390">
<ele>525.497803</ele>
<time>2011-05-15T14:46:11.000Z</time>
</trkpt>
<trkpt lat="43.2760583" lon="-3.0302240">
<ele>523.094604</ele>
<time>2011-05-15T14:46:23.000Z</time>
</trkpt>
<trkpt lat="43.2760302" lon="-3.0300117">
<ele>520.691284</ele>
<time>2011-05-15T14:46:35.000Z</time>
</trkpt>
<trkpt lat="43.2760040" lon="-3.0299278">
<ele>518.768555</ele>
<time>2011-05-15T14:46:41.000Z</time>
</trkpt>
<trkpt lat="43.2759491" lon="-3.0299815">
<ele>516.845947</ele>
<time>2011-05-15T14:46:48.000Z</time>
</trkpt>
<trkpt lat="43.2759235" lon="-3.0299060">
<ele>515.404053</ele>
<time>2011-05-15T14:46:54.000Z</time>
</trkpt>
<trkpt lat="43.2758878" lon="-3.0298779">
<ele>513.962036</ele>
<time>2011-05-15T14:46:57.000Z</time>
</trkpt>
<trkpt lat="43.2757989" lon="-3.0299474">
<ele>511.558716</ele>
<time>2011-05-15T14:47:06.000Z</time>
</trkpt>
<trkpt lat="43.2757672" lon="-3.0299619">
<ele>509.636078</ele>
<time>2011-05-15T14:47:09.000Z</time>
</trkpt>
<trkpt lat="43.2757419" lon="-3.0299695">
<ele>508.194092</ele>
<time>2011-05-15T14:47:11.000Z</time>
</trkpt>
<trkpt lat="43.2757290" lon="-3.0299791">
<ele>508.194092</ele>
<time>2011-05-15T14:47:12.000Z</time>
</trkpt>
<trkpt lat="43.2756950" lon="-3.0300059">
<ele>506.752075</ele>
<time>2011-05-15T14:47:15.000Z</time>
</trkpt>
<trkpt lat="43.2756129" lon="-3.0300594">
<ele>504.829468</ele>
<time>2011-05-15T14:47:24.000Z</time>
</trkpt>
<trkpt lat="43.2755854" lon="-3.0300613">
<ele>503.868134</ele>
<time>2011-05-15T14:47:27.000Z</time>
</trkpt>
<trkpt lat="43.2755291" lon="-3.0300436">
<ele>501.945557</ele>
<time>2011-05-15T14:47:32.000Z</time>
</trkpt>
<trkpt lat="43.2755170" lon="-3.0300444">
<ele>501.945557</ele>
<time>2011-05-15T14:47:33.000Z</time>
</trkpt>
<trkpt lat="43.2753985" lon="-3.0300375">
<ele>500.022949</ele>
<time>2011-05-15T14:47:42.000Z</time>
</trkpt>
<trkpt lat="43.2753764" lon="-3.0300147">
<ele>498.580902</ele>
<time>2011-05-15T14:47:44.000Z</time>
</trkpt>
<trkpt lat="43.2753374" lon="-3.0299698">
<ele>498.100342</ele>
<time>2011-05-15T14:47:48.000Z</time>
</trkpt>
<trkpt lat="43.2752428" lon="-3.0298804">
<ele>496.658325</ele>
<time>2011-05-15T14:47:57.000Z</time>
</trkpt>
<trkpt lat="43.2751343" lon="-3.0297995">
<ele>496.658325</ele>
<time>2011-05-15T14:48:06.000Z</time>
</trkpt>
<trkpt lat="43.2750678" lon="-3.0297158">
<ele>497.138916</ele>
<time>2011-05-15T14:48:13.000Z</time>
</trkpt>
<trkpt lat="43.2750347" lon="-3.0296662">
<ele>498.100342</ele>
<time>2011-05-15T14:48:17.000Z</time>
</trkpt>
<trkpt lat="43.2749068" lon="-3.0294475">
<ele>499.061523</ele>
<time>2011-05-15T14:48:33.000Z</time>
</trkpt>
<trkpt lat="43.2747897" lon="-3.0291005">
<ele>498.100342</ele>
<time>2011-05-15T14:48:55.000Z</time>
</trkpt>
<trkpt lat="43.2746878" lon="-3.0287664">
<ele>496.658325</ele>
<time>2011-05-15T14:49:15.000Z</time>
</trkpt>
<trkpt lat="43.2746389" lon="-3.0286164">
<ele>494.735596</ele>
<time>2011-05-15T14:49:24.000Z</time>
</trkpt>
<trkpt lat="43.2745326" lon="-3.0282667">
<ele>491.851685</ele>
<time>2011-05-15T14:49:45.000Z</time>
</trkpt>
<trkpt lat="43.2744368" lon="-3.0279441">
<ele>488.967773</ele>
<time>2011-05-15T14:50:05.000Z</time>
</trkpt>
<trkpt lat="43.2744065" lon="-3.0278591">
<ele>486.564453</ele>
<time>2011-05-15T14:50:11.000Z</time>
</trkpt>
<trkpt lat="43.2743847" lon="-3.0277570">
<ele>485.122437</ele>
<time>2011-05-15T14:50:18.000Z</time>
</trkpt>
<trkpt lat="43.2743767" lon="-3.0277058">
<ele>483.680420</ele>
<time>2011-05-15T14:50:22.000Z</time>
</trkpt>
<trkpt lat="43.2743321" lon="-3.0276044">
<ele>480.315918</ele>
<time>2011-05-15T14:50:33.000Z</time>
</trkpt>
<trkpt lat="43.2743226" lon="-3.0276038">
<ele>480.796631</ele>
<time>2011-05-15T14:50:34.000Z</time>
</trkpt>
<trkpt lat="43.2742960" lon="-3.0275811">
<ele>479.835083</ele>
<time>2011-05-15T14:50:37.000Z</time>
</trkpt>
<trkpt lat="43.2742660" lon="-3.0275950">
<ele>479.354492</ele>
<time>2011-05-15T14:50:41.000Z</time>
</trkpt>
<trkpt lat="43.2742479" lon="-3.0275353">
<ele>478.873901</ele>
<time>2011-05-15T14:50:45.000Z</time>
</trkpt>
<trkpt lat="43.2741930" lon="-3.0274338">
<ele>481.277222</ele>
<time>2011-05-15T14:50:57.000Z</time>
</trkpt>
<trkpt lat="43.2741873" lon="-3.0274257">
<ele>481.277222</ele>
<time>2011-05-15T14:50:58.000Z</time>
</trkpt>
<trkpt lat="43.2741750" lon="-3.0274019">
<ele>482.238495</ele>
<time>2011-05-15T14:51:00.000Z</time>
</trkpt>
<trkpt lat="43.2741463" lon="-3.0273734">
<ele>484.161133</ele>
<time>2011-05-15T14:51:03.000Z</time>
</trkpt>
<trkpt lat="43.2741235" lon="-3.0273483">
<ele>484.641846</ele>
<time>2011-05-15T14:51:06.000Z</time>
</trkpt>
<trkpt lat="43.2740007" lon="-3.0271118">
<ele>488.006470</ele>
<time>2011-05-15T14:51:28.000Z</time>
</trkpt>
<trkpt lat="43.2739889" lon="-3.0270610">
<ele>488.967773</ele>
<time>2011-05-15T14:51:32.000Z</time>
</trkpt>
<trkpt lat="43.2739553" lon="-3.0269842">
<ele>489.448364</ele>
<time>2011-05-15T14:51:39.000Z</time>
</trkpt>
<trkpt lat="43.2738919" lon="-3.0268379">
<ele>492.812958</ele>
<time>2011-05-15T14:51:52.000Z</time>
</trkpt>
<trkpt lat="43.2738877" lon="-3.0268241">
<ele>492.812958</ele>
<time>2011-05-15T14:51:53.000Z</time>
</trkpt>
<trkpt lat="43.2738659" lon="-3.0267617">
<ele>493.774292</ele>
<time>2011-05-15T14:51:58.000Z</time>
</trkpt>
<trkpt lat="43.2738164" lon="-3.0266176">
<ele>496.177765</ele>
<time>2011-05-15T14:52:10.000Z</time>
</trkpt>
<trkpt lat="43.2737154" lon="-3.0263208">
<ele>498.580902</ele>
<time>2011-05-15T14:52:31.000Z</time>
</trkpt>
<trkpt lat="43.2736978" lon="-3.0261742">
<ele>501.464844</ele>
<time>2011-05-15T14:52:40.000Z</time>
</trkpt>
<trkpt lat="43.2736702" lon="-3.0259695">
<ele>503.868134</ele>
<time>2011-05-15T14:52:54.000Z</time>
</trkpt>
<trkpt lat="43.2736445" lon="-3.0258100">
<ele>507.232788</ele>
<time>2011-05-15T14:53:05.000Z</time>
</trkpt>
<trkpt lat="43.2736381" lon="-3.0257711">
<ele>508.674713</ele>
<time>2011-05-15T14:53:08.000Z</time>
</trkpt>
<trkpt lat="43.2736106" lon="-3.0255454">
<ele>512.039429</ele>
<time>2011-05-15T14:53:24.000Z</time>
</trkpt>
<trkpt lat="43.2735808" lon="-3.0252673">
<ele>515.404053</ele>
<time>2011-05-15T14:53:41.000Z</time>
</trkpt>
<trkpt lat="43.2735656" lon="-3.0248982">
<ele>516.845947</ele>
<time>2011-05-15T14:54:01.000Z</time>
</trkpt>
<trkpt lat="43.2735646" lon="-3.0244430">
<ele>518.287842</ele>
<time>2011-05-15T14:54:25.000Z</time>
</trkpt>
<trkpt lat="43.2735610" lon="-3.0243393">
<ele>515.884644</ele>
<time>2011-05-15T14:54:40.000Z</time>
</trkpt>
<trkpt lat="43.2735667" lon="-3.0243570">
<ele>519.249268</ele>
<time>2011-05-15T14:55:23.000Z</time>
</trkpt>
<trkpt lat="43.2735857" lon="-3.0243110">
<ele>517.326660</ele>
<time>2011-05-15T14:55:35.000Z</time>
</trkpt>
<trkpt lat="43.2735932" lon="-3.0242498">
<ele>517.807251</ele>
<time>2011-05-15T14:55:50.000Z</time>
</trkpt>
<trkpt lat="43.2736009" lon="-3.0242745">
<ele>517.807251</ele>
<time>2011-05-15T14:56:03.000Z</time>
</trkpt>
<trkpt lat="43.2736334" lon="-3.0242711">
<ele>519.249268</ele>
<time>2011-05-15T14:56:07.000Z</time>
</trkpt>
<trkpt lat="43.2737956" lon="-3.0242115">
<ele>515.404053</ele>
<time>2011-05-15T14:56:22.000Z</time>
</trkpt>
<trkpt lat="43.2738076" lon="-3.0242094">
<ele>515.404053</ele>
<time>2011-05-15T14:56:23.000Z</time>
</trkpt>
<trkpt lat="43.2739379" lon="-3.0242192">
<ele>512.039429</ele>
<time>2011-05-15T14:56:35.000Z</time>
</trkpt>
<trkpt lat="43.2740454" lon="-3.0242405">
<ele>510.116699</ele>
<time>2011-05-15T14:56:44.000Z</time>
</trkpt>
<trkpt lat="43.2741258" lon="-3.0242664">
<ele>507.232788</ele>
<time>2011-05-15T14:56:51.000Z</time>
</trkpt>
<trkpt lat="43.2741361" lon="-3.0242658">
<ele>507.232788</ele>
<time>2011-05-15T14:56:52.000Z</time>
</trkpt>
<trkpt lat="43.2742171" lon="-3.0242643">
<ele>504.348846</ele>
<time>2011-05-15T14:56:59.000Z</time>
</trkpt>
<trkpt lat="43.2742971" lon="-3.0242809">
<ele>501.464844</ele>
<time>2011-05-15T14:57:06.000Z</time>
</trkpt>
<trkpt lat="43.2743210" lon="-3.0242845">
<ele>500.022949</ele>
<time>2011-05-15T14:57:08.000Z</time>
</trkpt>
<trkpt lat="43.2744099" lon="-3.0242955">
<ele>496.658325</ele>
<time>2011-05-15T14:57:15.000Z</time>
</trkpt>
<trkpt lat="43.2745415" lon="-3.0243069">
<ele>493.293579</ele>
<time>2011-05-15T14:57:25.000Z</time>
</trkpt>
<trkpt lat="43.2745554" lon="-3.0243098">
<ele>493.293579</ele>
<time>2011-05-15T14:57:26.000Z</time>
</trkpt>
<trkpt lat="43.2746819" lon="-3.0243487">
<ele>490.409821</ele>
<time>2011-05-15T14:57:35.000Z</time>
</trkpt>
<trkpt lat="43.2747249" lon="-3.0243798">
<ele>489.929077</ele>
<time>2011-05-15T14:57:39.000Z</time>
</trkpt>
<trkpt lat="43.2748415" lon="-3.0245180">
<ele>487.525635</ele>
<time>2011-05-15T14:57:51.000Z</time>
</trkpt>
<trkpt lat="43.2748812" lon="-3.0245956">
<ele>486.564453</ele>
<time>2011-05-15T14:57:56.000Z</time>
</trkpt>
<trkpt lat="43.2750263" lon="-3.0249460">
<ele>487.045074</ele>
<time>2011-05-15T14:58:18.000Z</time>
</trkpt>
<trkpt lat="43.2751528" lon="-3.0252620">
<ele>484.641846</ele>
<time>2011-05-15T14:58:38.000Z</time>
</trkpt>
<trkpt lat="43.2752621" lon="-3.0255665">
<ele>481.757782</ele>
<time>2011-05-15T14:58:57.000Z</time>
</trkpt>
<trkpt lat="43.2753741" lon="-3.0258588">
<ele>484.161133</ele>
<time>2011-05-15T14:59:15.000Z</time>
</trkpt>
<trkpt lat="43.2753890" lon="-3.0258920">
<ele>485.122437</ele>
<time>2011-05-15T14:59:17.000Z</time>
</trkpt>
<trkpt lat="43.2754824" lon="-3.0261653">
<ele>488.006470</ele>
<time>2011-05-15T14:59:33.000Z</time>
</trkpt>
<trkpt lat="43.2755313" lon="-3.0264519">
<ele>491.370972</ele>
<time>2011-05-15T14:59:50.000Z</time>
</trkpt>
<trkpt lat="43.2755677" lon="-3.0267368">
<ele>495.216187</ele>
<time>2011-05-15T15:00:08.000Z</time>
</trkpt>
<trkpt lat="43.2755833" lon="-3.0268357">
<ele>495.696899</ele>
<time>2011-05-15T15:00:14.000Z</time>
</trkpt>
<trkpt lat="43.2756335" lon="-3.0270040">
<ele>496.658325</ele>
<time>2011-05-15T15:00:25.000Z</time>
</trkpt>
<trkpt lat="43.2756969" lon="-3.0272631">
<ele>499.542236</ele>
<time>2011-05-15T15:00:41.000Z</time>
</trkpt>
<trkpt lat="43.2757622" lon="-3.0276531">
<ele>501.945557</ele>
<time>2011-05-15T15:01:05.000Z</time>
</trkpt>
<trkpt lat="43.2757895" lon="-3.0276693">
<ele>503.387482</ele>
<time>2011-05-15T15:01:08.000Z</time>
</trkpt>
<trkpt lat="43.2757968" lon="-3.0276672">
<ele>503.387482</ele>
<time>2011-05-15T15:01:09.000Z</time>
</trkpt>
<trkpt lat="43.2759345" lon="-3.0276630">
<ele>507.713501</ele>
<time>2011-05-15T15:01:23.000Z</time>
</trkpt>
<trkpt lat="43.2759998" lon="-3.0276363">
<ele>509.155365</ele>
<time>2011-05-15T15:01:30.000Z</time>
</trkpt>
<trkpt lat="43.2760970" lon="-3.0276091">
<ele>508.674713</ele>
<time>2011-05-15T15:01:40.000Z</time>
</trkpt>
<trkpt lat="43.2761412" lon="-3.0276162">
<ele>510.116699</ele>
<time>2011-05-15T15:01:44.000Z</time>
</trkpt>
<trkpt lat="43.2763682" lon="-3.0275661">
<ele>508.194092</ele>
<time>2011-05-15T15:02:05.000Z</time>
</trkpt>
<trkpt lat="43.2764401" lon="-3.0275070">
<ele>507.232788</ele>
<time>2011-05-15T15:02:11.000Z</time>
</trkpt>
<trkpt lat="43.2766220" lon="-3.0272849">
<ele>504.829468</ele>
<time>2011-05-15T15:02:28.000Z</time>
</trkpt>
<trkpt lat="43.2767354" lon="-3.0271422">
<ele>503.387482</ele>
<time>2011-05-15T15:02:39.000Z</time>
</trkpt>
<trkpt lat="43.2768613" lon="-3.0270486">
<ele>500.503540</ele>
<time>2011-05-15T15:02:53.000Z</time>
</trkpt>
<trkpt lat="43.2768534" lon="-3.0270108">
<ele>500.503540</ele>
<time>2011-05-15T15:03:07.000Z</time>
</trkpt>
<trkpt lat="43.2768617" lon="-3.0269813">
<ele>500.022949</ele>
<time>2011-05-15T15:05:00.000Z</time>
</trkpt>
<trkpt lat="43.2768887" lon="-3.0269679">
<ele>500.022949</ele>
<time>2011-05-15T15:06:34.000Z</time>
</trkpt>
<trkpt lat="43.2768787" lon="-3.0270128">
<ele>500.984131</ele>
<time>2011-05-15T15:09:19.000Z</time>
</trkpt>
<trkpt lat="43.2768419" lon="-3.0270023">
<ele>500.984131</ele>
<time>2011-05-15T15:09:33.000Z</time>
</trkpt>
<trkpt lat="43.2768717" lon="-3.0270176">
<ele>500.503540</ele>
<time>2011-05-15T15:09:48.000Z</time>
</trkpt>
<trkpt lat="43.2769510" lon="-3.0270211">
<ele>499.061523</ele>
<time>2011-05-15T15:10:00.000Z</time>
</trkpt>
<trkpt lat="43.2769579" lon="-3.0270113">
<ele>498.100342</ele>
<time>2011-05-15T15:10:02.000Z</time>
</trkpt>
<trkpt lat="43.2769653" lon="-3.0269726">
<ele>497.138916</ele>
<time>2011-05-15T15:10:05.000Z</time>
</trkpt>
<trkpt lat="43.2770053" lon="-3.0269847">
<ele>497.619629</ele>
<time>2011-05-15T15:10:09.000Z</time>
</trkpt>
<trkpt lat="43.2770372" lon="-3.0270090">
<ele>496.177765</ele>
<time>2011-05-15T15:10:12.000Z</time>
</trkpt>
<trkpt lat="43.2770867" lon="-3.0270630">
<ele>495.216187</ele>
<time>2011-05-15T15:10:17.000Z</time>
</trkpt>
<trkpt lat="43.2771734" lon="-3.0271725">
<ele>494.255005</ele>
<time>2011-05-15T15:10:27.000Z</time>
</trkpt>
<trkpt lat="43.2772141" lon="-3.0272240">
<ele>493.774292</ele>
<time>2011-05-15T15:10:32.000Z</time>
</trkpt>
<trkpt lat="43.2772600" lon="-3.0272618">
<ele>493.293579</ele>
<time>2011-05-15T15:10:36.000Z</time>
</trkpt>
<trkpt lat="43.2773217" lon="-3.0272982">
<ele>493.293579</ele>
<time>2011-05-15T15:10:41.000Z</time>
</trkpt>
<trkpt lat="43.2774114" lon="-3.0273065">
<ele>492.332397</ele>
<time>2011-05-15T15:10:48.000Z</time>
</trkpt>
<trkpt lat="43.2774718" lon="-3.0273229">
<ele>491.851685</ele>
<time>2011-05-15T15:10:52.000Z</time>
</trkpt>
<trkpt lat="43.2777124" lon="-3.0273152">
<ele>488.487183</ele>
<time>2011-05-15T15:11:08.000Z</time>
</trkpt>
<trkpt lat="43.2778149" lon="-3.0273226">
<ele>487.045074</ele>
<time>2011-05-15T15:11:15.000Z</time>
</trkpt>
<trkpt lat="43.2778740" lon="-3.0273300">
<ele>486.083740</ele>
<time>2011-05-15T15:11:19.000Z</time>
</trkpt>
<trkpt lat="43.2780594" lon="-3.0274215">
<ele>484.161133</ele>
<time>2011-05-15T15:11:33.000Z</time>
</trkpt>
<trkpt lat="43.2782651" lon="-3.0276282">
<ele>481.757782</ele>
<time>2011-05-15T15:11:50.000Z</time>
</trkpt>
<trkpt lat="43.2783369" lon="-3.0277496">
<ele>480.315918</ele>
<time>2011-05-15T15:11:58.000Z</time>
</trkpt>
<trkpt lat="43.2783749" lon="-3.0278256">
<ele>478.873901</ele>
<time>2011-05-15T15:12:03.000Z</time>
</trkpt>
<trkpt lat="43.2784920" lon="-3.0281005">
<ele>475.509277</ele>
<time>2011-05-15T15:12:18.000Z</time>
</trkpt>
<trkpt lat="43.2786068" lon="-3.0283689">
<ele>474.067261</ele>
<time>2011-05-15T15:12:33.000Z</time>
</trkpt>
<trkpt lat="43.2787081" lon="-3.0286825">
<ele>471.183319</ele>
<time>2011-05-15T15:12:51.000Z</time>
</trkpt>
<trkpt lat="43.2787214" lon="-3.0287630">
<ele>470.221954</ele>
<time>2011-05-15T15:12:56.000Z</time>
</trkpt>
<trkpt lat="43.2787319" lon="-3.0289163">
<ele>468.780029</ele>
<time>2011-05-15T15:13:05.000Z</time>
</trkpt>
<trkpt lat="43.2787391" lon="-3.0289925">
<ele>468.299316</ele>
<time>2011-05-15T15:13:09.000Z</time>
</trkpt>
<trkpt lat="43.2787251" lon="-3.0292108">
<ele>466.857422</ele>
<time>2011-05-15T15:13:20.000Z</time>
</trkpt>
<trkpt lat="43.2787902" lon="-3.0294711">
<ele>463.492798</ele>
<time>2011-05-15T15:13:34.000Z</time>
</trkpt>
<trkpt lat="43.2788002" lon="-3.0294847">
<ele>464.454102</ele>
<time>2011-05-15T15:13:35.000Z</time>
</trkpt>
<trkpt lat="43.2788430" lon="-3.0295370">
<ele>464.454102</ele>
<time>2011-05-15T15:13:39.000Z</time>
</trkpt>
<trkpt lat="43.2788699" lon="-3.0295804">
<ele>463.012085</ele>
<time>2011-05-15T15:13:42.000Z</time>
</trkpt>
<trkpt lat="43.2789178" lon="-3.0296315">
<ele>463.012085</ele>
<time>2011-05-15T15:13:46.000Z</time>
</trkpt>
<trkpt lat="43.2790519" lon="-3.0298086">
<ele>459.166870</ele>
<time>2011-05-15T15:13:57.000Z</time>
</trkpt>
<trkpt lat="43.2791820" lon="-3.0299770">
<ele>456.282959</ele>
<time>2011-05-15T15:14:07.000Z</time>
</trkpt>
<trkpt lat="43.2794289" lon="-3.0302585">
<ele>452.437622</ele>
<time>2011-05-15T15:14:24.000Z</time>
</trkpt>
<trkpt lat="43.2794938" lon="-3.0303188">
<ele>451.476318</ele>
<time>2011-05-15T15:14:28.000Z</time>
</trkpt>
<trkpt lat="43.2794606" lon="-3.0301057">
<ele>450.034424</ele>
<time>2011-05-15T15:14:38.000Z</time>
</trkpt>
<trkpt lat="43.2793265" lon="-3.0299018">
<ele>448.592407</ele>
<time>2011-05-15T15:14:49.000Z</time>
</trkpt>
<trkpt lat="43.2792825" lon="-3.0297675">
<ele>447.630981</ele>
<time>2011-05-15T15:14:55.000Z</time>
</trkpt>
<trkpt lat="43.2791643" lon="-3.0294216">
<ele>445.708374</ele>
<time>2011-05-15T15:15:09.000Z</time>
</trkpt>
<trkpt lat="43.2791732" lon="-3.0291284">
<ele>442.824463</ele>
<time>2011-05-15T15:15:20.000Z</time>
</trkpt>
<trkpt lat="43.2791895" lon="-3.0290707">
<ele>440.901855</ele>
<time>2011-05-15T15:15:23.000Z</time>
</trkpt>
<trkpt lat="43.2791927" lon="-3.0290489">
<ele>440.421265</ele>
<time>2011-05-15T15:15:24.000Z</time>
</trkpt>
<trkpt lat="43.2792149" lon="-3.0287270">
<ele>438.979126</ele>
<time>2011-05-15T15:15:34.000Z</time>
</trkpt>
<trkpt lat="43.2791960" lon="-3.0285050">
<ele>437.056519</ele>
<time>2011-05-15T15:15:41.000Z</time>
</trkpt>
<trkpt lat="43.2791908" lon="-3.0283714">
<ele>436.095215</ele>
<time>2011-05-15T15:15:45.000Z</time>
</trkpt>
<trkpt lat="43.2791535" lon="-3.0281416">
<ele>433.691895</ele>
<time>2011-05-15T15:15:53.000Z</time>
</trkpt>
<trkpt lat="43.2791493" lon="-3.0281143">
<ele>433.691895</ele>
<time>2011-05-15T15:15:54.000Z</time>
</trkpt>
<trkpt lat="43.2791032" lon="-3.0278842">
<ele>430.807983</ele>
<time>2011-05-15T15:16:01.000Z</time>
</trkpt>
<trkpt lat="43.2790702" lon="-3.0277330">
<ele>429.846558</ele>
<time>2011-05-15T15:16:06.000Z</time>
</trkpt>
<trkpt lat="43.2790571" lon="-3.0276641">
<ele>429.365967</ele>
<time>2011-05-15T15:16:08.000Z</time>
</trkpt>
<trkpt lat="43.2790457" lon="-3.0275410">
<ele>429.365967</ele>
<time>2011-05-15T15:16:12.000Z</time>
</trkpt>
<trkpt lat="43.2790427" lon="-3.0273659">
<ele>426.001343</ele>
<time>2011-05-15T15:16:18.000Z</time>
</trkpt>
<trkpt lat="43.2790460" lon="-3.0273356">
<ele>426.001343</ele>
<time>2011-05-15T15:16:19.000Z</time>
</trkpt>
<trkpt lat="43.2790866" lon="-3.0270468">
<ele>426.001343</ele>
<time>2011-05-15T15:16:29.000Z</time>
</trkpt>
<trkpt lat="43.2791572" lon="-3.0267056">
<ele>422.636719</ele>
<time>2011-05-15T15:16:41.000Z</time>
</trkpt>
<trkpt lat="43.2792289" lon="-3.0263668">
<ele>422.636719</ele>
<time>2011-05-15T15:16:52.000Z</time>
</trkpt>
<trkpt lat="43.2792291" lon="-3.0262871">
<ele>421.194824</ele>
<time>2011-05-15T15:16:55.000Z</time>
</trkpt>
<trkpt lat="43.2791878" lon="-3.0260492">
<ele>419.272217</ele>
<time>2011-05-15T15:17:03.000Z</time>
</trkpt>
<trkpt lat="43.2791636" lon="-3.0259875">
<ele>418.791504</ele>
<time>2011-05-15T15:17:05.000Z</time>
</trkpt>
<trkpt lat="43.2789701" lon="-3.0258235">
<ele>416.868866</ele>
<time>2011-05-15T15:17:15.000Z</time>
</trkpt>
<trkpt lat="43.2789013" lon="-3.0257998">
<ele>416.868866</ele>
<time>2011-05-15T15:17:19.000Z</time>
</trkpt>
<trkpt lat="43.2789354" lon="-3.0257504">
<ele>416.388153</ele>
<time>2011-05-15T15:17:23.000Z</time>
</trkpt>
<trkpt lat="43.2790331" lon="-3.0257235">
<ele>414.465454</ele>
<time>2011-05-15T15:17:28.000Z</time>
</trkpt>
<trkpt lat="43.2791838" lon="-3.0257494">
<ele>412.542847</ele>
<time>2011-05-15T15:17:37.000Z</time>
</trkpt>
<trkpt lat="43.2791965" lon="-3.0257535">
<ele>413.023560</ele>
<time>2011-05-15T15:17:38.000Z</time>
</trkpt>
<trkpt lat="43.2792410" lon="-3.0257257">
<ele>409.659058</ele>
<time>2011-05-15T15:17:44.000Z</time>
</trkpt>
<trkpt lat="43.2792213" lon="-3.0256074">
<ele>407.255615</ele>
<time>2011-05-15T15:17:50.000Z</time>
</trkpt>
<trkpt lat="43.2792032" lon="-3.0255399">
<ele>405.813690</ele>
<time>2011-05-15T15:17:54.000Z</time>
</trkpt>
<trkpt lat="43.2792224" lon="-3.0254485">
<ele>401.968506</ele>
<time>2011-05-15T15:18:01.000Z</time>
</trkpt>
<trkpt lat="43.2792269" lon="-3.0254153">
<ele>400.526459</ele>
<time>2011-05-15T15:18:03.000Z</time>
</trkpt>
<trkpt lat="43.2792475" lon="-3.0253320">
<ele>399.084381</ele>
<time>2011-05-15T15:18:07.000Z</time>
</trkpt>
<trkpt lat="43.2792714" lon="-3.0252335">
<ele>395.719849</ele>
<time>2011-05-15T15:18:12.000Z</time>
</trkpt>
<trkpt lat="43.2792864" lon="-3.0250906">
<ele>391.874512</ele>
<time>2011-05-15T15:18:19.000Z</time>
</trkpt>
<trkpt lat="43.2792909" lon="-3.0250684">
<ele>391.874512</ele>
<time>2011-05-15T15:18:20.000Z</time>
</trkpt>
<trkpt lat="43.2792944" lon="-3.0250280">
<ele>390.913208</ele>
<time>2011-05-15T15:18:22.000Z</time>
</trkpt>
<trkpt lat="43.2793133" lon="-3.0249383">
<ele>388.029297</ele>
<time>2011-05-15T15:18:27.000Z</time>
</trkpt>
<trkpt lat="43.2793255" lon="-3.0248994">
<ele>388.029297</ele>
<time>2011-05-15T15:18:29.000Z</time>
</trkpt>
<trkpt lat="43.2793659" lon="-3.0247605">
<ele>385.145386</ele>
<time>2011-05-15T15:18:37.000Z</time>
</trkpt>
<trkpt lat="43.2793730" lon="-3.0246920">
<ele>382.742065</ele>
<time>2011-05-15T15:18:41.000Z</time>
</trkpt>
<trkpt lat="43.2793990" lon="-3.0246083">
<ele>379.858032</ele>
<time>2011-05-15T15:18:47.000Z</time>
</trkpt>
<trkpt lat="43.2794591" lon="-3.0245166">
<ele>376.493530</ele>
<time>2011-05-15T15:18:55.000Z</time>
</trkpt>
<trkpt lat="43.2794872" lon="-3.0244910">
<ele>376.012817</ele>
<time>2011-05-15T15:19:00.000Z</time>
</trkpt>
<trkpt lat="43.2795363" lon="-3.0245953">
<ele>373.609497</ele>
<time>2011-05-15T15:19:08.000Z</time>
</trkpt>
<trkpt lat="43.2795782" lon="-3.0248645">
<ele>375.051514</ele>
<time>2011-05-15T15:19:25.000Z</time>
</trkpt>
<trkpt lat="43.2795983" lon="-3.0249537">
<ele>375.051514</ele>
<time>2011-05-15T15:19:30.000Z</time>
</trkpt>
<trkpt lat="43.2796450" lon="-3.0250929">
<ele>375.051514</ele>
<time>2011-05-15T15:19:38.000Z</time>
</trkpt>
<trkpt lat="43.2797735" lon="-3.0252760">
<ele>373.128876</ele>
<time>2011-05-15T15:19:50.000Z</time>
</trkpt>
<trkpt lat="43.2799614" lon="-3.0254038">
<ele>371.686890</ele>
<time>2011-05-15T15:20:02.000Z</time>
</trkpt>
<trkpt lat="43.2799787" lon="-3.0254081">
<ele>370.725586</ele>
<time>2011-05-15T15:20:03.000Z</time>
</trkpt>
<trkpt lat="43.2800102" lon="-3.0254341">
<ele>369.764282</ele>
<time>2011-05-15T15:20:05.000Z</time>
</trkpt>
<trkpt lat="43.2801081" lon="-3.0255351">
<ele>367.841553</ele>
<time>2011-05-15T15:20:11.000Z</time>
</trkpt>
<trkpt lat="43.2801971" lon="-3.0256023">
<ele>365.438354</ele>
<time>2011-05-15T15:20:15.000Z</time>
</trkpt>
<trkpt lat="43.2803620" lon="-3.0259360">
<ele>364.476929</ele>
<time>2011-05-15T15:20:27.000Z</time>
</trkpt>
<trkpt lat="43.2803626" lon="-3.0259634">
<ele>364.476929</ele>
<time>2011-05-15T15:20:28.000Z</time>
</trkpt>
<trkpt lat="43.2803611" lon="-3.0260512">
<ele>362.554321</ele>
<time>2011-05-15T15:20:31.000Z</time>
</trkpt>
<trkpt lat="43.2803466" lon="-3.0261585">
<ele>363.035034</ele>
<time>2011-05-15T15:20:35.000Z</time>
</trkpt>
<trkpt lat="43.2802720" lon="-3.0264131">
<ele>362.073700</ele>
<time>2011-05-15T15:20:47.000Z</time>
</trkpt>
<trkpt lat="43.2801993" lon="-3.0266854">
<ele>360.631714</ele>
<time>2011-05-15T15:21:00.000Z</time>
</trkpt>
<trkpt lat="43.2802340" lon="-3.0268892">
<ele>359.670410</ele>
<time>2011-05-15T15:21:11.000Z</time>
</trkpt>
<trkpt lat="43.2802556" lon="-3.0269329">
<ele>359.189697</ele>
<time>2011-05-15T15:21:14.000Z</time>
</trkpt>
<trkpt lat="43.2802833" lon="-3.0269788">
<ele>359.670410</ele>
<time>2011-05-15T15:21:17.000Z</time>
</trkpt>
<trkpt lat="43.2804459" lon="-3.0271668">
<ele>356.786377</ele>
<time>2011-05-15T15:21:31.000Z</time>
</trkpt>
<trkpt lat="43.2805270" lon="-3.0274631">
<ele>354.383179</ele>
<time>2011-05-15T15:21:46.000Z</time>
</trkpt>
<trkpt lat="43.2805341" lon="-3.0275700">
<ele>354.383179</ele>
<time>2011-05-15T15:21:51.000Z</time>
</trkpt>
<trkpt lat="43.2805736" lon="-3.0278142">
<ele>352.460571</ele>
<time>2011-05-15T15:22:03.000Z</time>
</trkpt>
<trkpt lat="43.2806183" lon="-3.0280841">
<ele>351.499146</ele>
<time>2011-05-15T15:22:15.000Z</time>
</trkpt>
<trkpt lat="43.2807169" lon="-3.0282087">
<ele>350.537872</ele>
<time>2011-05-15T15:22:24.000Z</time>
</trkpt>
<trkpt lat="43.2808116" lon="-3.0281596">
<ele>349.576538</ele>
<time>2011-05-15T15:22:30.000Z</time>
</trkpt>
<trkpt lat="43.2808552" lon="-3.0281090">
<ele>348.615234</ele>
<time>2011-05-15T15:22:33.000Z</time>
</trkpt>
<trkpt lat="43.2810166" lon="-3.0280041">
<ele>344.770020</ele>
<time>2011-05-15T15:22:42.000Z</time>
</trkpt>
<trkpt lat="43.2811484" lon="-3.0280819">
<ele>342.366699</ele>
<time>2011-05-15T15:22:49.000Z</time>
</trkpt>
<trkpt lat="43.2812095" lon="-3.0281417">
<ele>342.366699</ele>
<time>2011-05-15T15:22:53.000Z</time>
</trkpt>
<trkpt lat="43.2812618" lon="-3.0282118">
<ele>340.444061</ele>
<time>2011-05-15T15:22:57.000Z</time>
</trkpt>
<trkpt lat="43.2813473" lon="-3.0282928">
<ele>339.963348</ele>
<time>2011-05-15T15:23:02.000Z</time>
</trkpt>
<trkpt lat="43.2815037" lon="-3.0282087">
<ele>337.079468</ele>
<time>2011-05-15T15:23:12.000Z</time>
</trkpt>
<trkpt lat="43.2815590" lon="-3.0281911">
<ele>337.079468</ele>
<time>2011-05-15T15:23:15.000Z</time>
</trkpt>
<trkpt lat="43.2816611" lon="-3.0281893">
<ele>335.637329</ele>
<time>2011-05-15T15:23:20.000Z</time>
</trkpt>
<trkpt lat="43.2818221" lon="-3.0282999">
<ele>336.118164</ele>
<time>2011-05-15T15:23:27.000Z</time>
</trkpt>
<trkpt lat="43.2819699" lon="-3.0283633">
<ele>334.676117</ele>
<time>2011-05-15T15:23:34.000Z</time>
</trkpt>
<trkpt lat="43.2820554" lon="-3.0284268">
<ele>334.195465</ele>
<time>2011-05-15T15:23:38.000Z</time>
</trkpt>
<trkpt lat="43.2823376" lon="-3.0285855">
<ele>334.195465</ele>
<time>2011-05-15T15:23:50.000Z</time>
</trkpt>
<trkpt lat="43.2825201" lon="-3.0286560">
<ele>332.753540</ele>
<time>2011-05-15T15:23:57.000Z</time>
</trkpt>
<trkpt lat="43.2826020" lon="-3.0287151">
<ele>331.311523</ele>
<time>2011-05-15T15:24:01.000Z</time>
</trkpt>
<trkpt lat="43.2827955" lon="-3.0288922">
<ele>330.350220</ele>
<time>2011-05-15T15:24:12.000Z</time>
</trkpt>
<trkpt lat="43.2829266" lon="-3.0289803">
<ele>328.908325</ele>
<time>2011-05-15T15:24:18.000Z</time>
</trkpt>
<trkpt lat="43.2830546" lon="-3.0289849">
<ele>327.946777</ele>
<time>2011-05-15T15:24:24.000Z</time>
</trkpt>
<trkpt lat="43.2830726" lon="-3.0289703">
<ele>327.946777</ele>
<time>2011-05-15T15:24:25.000Z</time>
</trkpt>
<trkpt lat="43.2831655" lon="-3.0288927">
<ele>328.908325</ele>
<time>2011-05-15T15:24:30.000Z</time>
</trkpt>
<trkpt lat="43.2832064" lon="-3.0288710">
<ele>327.946777</ele>
<time>2011-05-15T15:24:32.000Z</time>
</trkpt>
<trkpt lat="43.2832816" lon="-3.0288845">
<ele>329.388885</ele>
<time>2011-05-15T15:24:35.000Z</time>
</trkpt>
<trkpt lat="43.2834228" lon="-3.0290687">
<ele>328.908325</ele>
<time>2011-05-15T15:24:43.000Z</time>
</trkpt>
<trkpt lat="43.2834654" lon="-3.0292235">
<ele>328.427612</ele>
<time>2011-05-15T15:24:48.000Z</time>
</trkpt>
<trkpt lat="43.2835354" lon="-3.0294178">
<ele>327.466187</ele>
<time>2011-05-15T15:24:54.000Z</time>
</trkpt>
<trkpt lat="43.2835918" lon="-3.0296400">
<ele>326.985596</ele>
<time>2011-05-15T15:25:01.000Z</time>
</trkpt>
<trkpt lat="43.2837015" lon="-3.0297763">
<ele>327.946777</ele>
<time>2011-05-15T15:25:08.000Z</time>
</trkpt>
<trkpt lat="43.2837716" lon="-3.0298415">
<ele>327.466187</ele>
<time>2011-05-15T15:25:12.000Z</time>
</trkpt>
<trkpt lat="43.2838293" lon="-3.0297999">
<ele>326.985596</ele>
<time>2011-05-15T15:25:16.000Z</time>
</trkpt>
<trkpt lat="43.2839149" lon="-3.0296643">
<ele>325.543579</ele>
<time>2011-05-15T15:25:26.000Z</time>
</trkpt>
<trkpt lat="43.2839550" lon="-3.0296445">
<ele>326.985596</ele>
<time>2011-05-15T15:25:29.000Z</time>
</trkpt>
<trkpt lat="43.2839680" lon="-3.0296381">
<ele>325.543579</ele>
<time>2011-05-15T15:25:30.000Z</time>
</trkpt>
<trkpt lat="43.2840101" lon="-3.0295548">
<ele>324.101563</ele>
<time>2011-05-15T15:25:36.000Z</time>
</trkpt>
<trkpt lat="43.2840381" lon="-3.0294718">
<ele>321.217773</ele>
<time>2011-05-15T15:25:41.000Z</time>
</trkpt>
<trkpt lat="43.2840733" lon="-3.0293717">
<ele>317.853058</ele>
<time>2011-05-15T15:25:47.000Z</time>
</trkpt>
<trkpt lat="43.2841046" lon="-3.0293025">
<ele>315.930420</ele>
<time>2011-05-15T15:25:51.000Z</time>
</trkpt>
<trkpt lat="43.2841189" lon="-3.0291910">
<ele>313.046478</ele>
<time>2011-05-15T15:25:55.000Z</time>
</trkpt>
<trkpt lat="43.2841164" lon="-3.0291155">
<ele>314.007813</ele>
<time>2011-05-15T15:26:00.000Z</time>
</trkpt>
<trkpt lat="43.2842880" lon="-3.0288969">
<ele>312.085205</ele>
<time>2011-05-15T15:26:17.000Z</time>
</trkpt>
<trkpt lat="43.2843090" lon="-3.0288602">
<ele>310.643066</ele>
<time>2011-05-15T15:26:20.000Z</time>
</trkpt>
<trkpt lat="43.2843152" lon="-3.0288110">
<ele>307.759277</ele>
<time>2011-05-15T15:26:24.000Z</time>
</trkpt>
<trkpt lat="43.2843077" lon="-3.0287580">
<ele>303.913940</ele>
<time>2011-05-15T15:26:32.000Z</time>
</trkpt>
<trkpt lat="43.2843118" lon="-3.0287440">
<ele>303.913940</ele>
<time>2011-05-15T15:26:33.000Z</time>
</trkpt>
<trkpt lat="43.2843020" lon="-3.0286786">
<ele>301.510620</ele>
<time>2011-05-15T15:26:37.000Z</time>
</trkpt>
<trkpt lat="43.2843060" lon="-3.0286457">
<ele>300.068726</ele>
<time>2011-05-15T15:26:39.000Z</time>
</trkpt>
<trkpt lat="43.2843155" lon="-3.0286081">
<ele>298.626709</ele>
<time>2011-05-15T15:26:41.000Z</time>
</trkpt>
<trkpt lat="43.2843256" lon="-3.0285498">
<ele>296.704102</ele>
<time>2011-05-15T15:26:44.000Z</time>
</trkpt>
<trkpt lat="43.2843544" lon="-3.0284959">
<ele>295.261963</ele>
<time>2011-05-15T15:26:47.000Z</time>
</trkpt>
<trkpt lat="43.2843793" lon="-3.0284453">
<ele>293.339355</ele>
<time>2011-05-15T15:26:50.000Z</time>
</trkpt>
<trkpt lat="43.2844561" lon="-3.0283099">
<ele>289.974854</ele>
<time>2011-05-15T15:26:58.000Z</time>
</trkpt>
<trkpt lat="43.2844645" lon="-3.0282928">
<ele>289.494141</ele>
<time>2011-05-15T15:26:59.000Z</time>
</trkpt>
<trkpt lat="43.2844860" lon="-3.0281802">
<ele>286.129517</ele>
<time>2011-05-15T15:27:05.000Z</time>
</trkpt>
<trkpt lat="43.2844862" lon="-3.0281587">
<ele>285.168213</ele>
<time>2011-05-15T15:27:06.000Z</time>
</trkpt>
<trkpt lat="43.2845196" lon="-3.0280541">
<ele>284.206909</ele>
<time>2011-05-15T15:27:11.000Z</time>
</trkpt>
<trkpt lat="43.2845263" lon="-3.0279297">
<ele>281.322998</ele>
<time>2011-05-15T15:27:17.000Z</time>
</trkpt>
<trkpt lat="43.2845675" lon="-3.0279038">
<ele>279.880859</ele>
<time>2011-05-15T15:27:21.000Z</time>
</trkpt>
<trkpt lat="43.2846120" lon="-3.0279055">
<ele>276.516357</ele>
<time>2011-05-15T15:27:24.000Z</time>
</trkpt>
<trkpt lat="43.2846362" lon="-3.0279090">
<ele>278.438965</ele>
<time>2011-05-15T15:27:25.000Z</time>
</trkpt>
<trkpt lat="43.2846763" lon="-3.0280317">
<ele>278.919678</ele>
<time>2011-05-15T15:27:32.000Z</time>
</trkpt>
<trkpt lat="43.2846737" lon="-3.0281165">
<ele>278.919678</ele>
<time>2011-05-15T15:27:39.000Z</time>
</trkpt>
<trkpt lat="43.2847602" lon="-3.0284959">
<ele>280.361694</ele>
<time>2011-05-15T15:27:59.000Z</time>
</trkpt>
<trkpt lat="43.2847704" lon="-3.0285550">
<ele>282.284302</ele>
<time>2011-05-15T15:28:02.000Z</time>
</trkpt>
<trkpt lat="43.2847610" lon="-3.0288659">
<ele>284.206909</ele>
<time>2011-05-15T15:28:18.000Z</time>
</trkpt>
<trkpt lat="43.2847647" lon="-3.0291047">
<ele>283.245605</ele>
<time>2011-05-15T15:28:30.000Z</time>
</trkpt>
<trkpt lat="43.2847712" lon="-3.0292476">
<ele>282.765015</ele>
<time>2011-05-15T15:28:37.000Z</time>
</trkpt>
<trkpt lat="43.2848222" lon="-3.0293288">
<ele>283.726196</ele>
<time>2011-05-15T15:28:42.000Z</time>
</trkpt>
<trkpt lat="43.2848749" lon="-3.0293763">
<ele>281.803589</ele>
<time>2011-05-15T15:28:46.000Z</time>
</trkpt>
<trkpt lat="43.2849164" lon="-3.0294188">
<ele>281.322998</ele>
<time>2011-05-15T15:28:49.000Z</time>
</trkpt>
<trkpt lat="43.2850330" lon="-3.0295889">
<ele>278.438965</ele>
<time>2011-05-15T15:28:59.000Z</time>
</trkpt>
<trkpt lat="43.2851282" lon="-3.0298587">
<ele>277.477661</ele>
<time>2011-05-15T15:29:13.000Z</time>
</trkpt>
<trkpt lat="43.2851557" lon="-3.0298841">
<ele>277.477661</ele>
<time>2011-05-15T15:29:15.000Z</time>
</trkpt>
<trkpt lat="43.2852148" lon="-3.0299370">
<ele>277.477661</ele>
<time>2011-05-15T15:29:19.000Z</time>
</trkpt>
<trkpt lat="43.2854343" lon="-3.0301162">
<ele>276.516357</ele>
<time>2011-05-15T15:29:34.000Z</time>
</trkpt>
<trkpt lat="43.2856124" lon="-3.0302536">
<ele>273.632446</ele>
<time>2011-05-15T15:29:47.000Z</time>
</trkpt>
<trkpt lat="43.2858532" lon="-3.0304963">
<ele>274.113037</ele>
<time>2011-05-15T15:30:05.000Z</time>
</trkpt>
<trkpt lat="43.2859988" lon="-3.0307296">
<ele>271.709717</ele>
<time>2011-05-15T15:30:18.000Z</time>
</trkpt>
<trkpt lat="43.2860352" lon="-3.0307762">
<ele>271.229126</ele>
<time>2011-05-15T15:30:21.000Z</time>
</trkpt>
<trkpt lat="43.2862668" lon="-3.0308302">
<ele>270.748413</ele>
<time>2011-05-15T15:30:36.000Z</time>
</trkpt>
<trkpt lat="43.2863481" lon="-3.0308285">
<ele>270.267700</ele>
<time>2011-05-15T15:30:41.000Z</time>
</trkpt>
<trkpt lat="43.2866357" lon="-3.0308587">
<ele>269.306519</ele>
<time>2011-05-15T15:30:59.000Z</time>
</trkpt>
<trkpt lat="43.2868889" lon="-3.0309378">
<ele>267.383911</ele>
<time>2011-05-15T15:31:15.000Z</time>
</trkpt>
<trkpt lat="43.2871208" lon="-3.0310269">
<ele>267.383911</ele>
<time>2011-05-15T15:31:30.000Z</time>
</trkpt>
<trkpt lat="43.2871837" lon="-3.0310431">
<ele>266.903198</ele>
<time>2011-05-15T15:31:34.000Z</time>
</trkpt>
<trkpt lat="43.2872664" lon="-3.0310404">
<ele>267.864502</ele>
<time>2011-05-15T15:31:39.000Z</time>
</trkpt>
<trkpt lat="43.2874535" lon="-3.0309205">
<ele>265.941895</ele>
<time>2011-05-15T15:31:53.000Z</time>
</trkpt>
<trkpt lat="43.2874865" lon="-3.0308451">
<ele>265.941895</ele>
<time>2011-05-15T15:31:57.000Z</time>
</trkpt>
<trkpt lat="43.2875797" lon="-3.0305343">
<ele>263.538574</ele>
<time>2011-05-15T15:32:09.000Z</time>
</trkpt>
<trkpt lat="43.2875930" lon="-3.0304701">
<ele>263.057861</ele>
<time>2011-05-15T15:32:11.000Z</time>
</trkpt>
<trkpt lat="43.2876890" lon="-3.0300571">
<ele>263.538574</ele>
<time>2011-05-15T15:32:24.000Z</time>
</trkpt>
<trkpt lat="43.2877109" lon="-3.0299732">
<ele>262.096558</ele>
<time>2011-05-15T15:32:27.000Z</time>
</trkpt>
<trkpt lat="43.2878638" lon="-3.0295287">
<ele>260.654541</ele>
<time>2011-05-15T15:32:42.000Z</time>
</trkpt>
<trkpt lat="43.2879664" lon="-3.0291430">
<ele>258.251343</ele>
<time>2011-05-15T15:32:54.000Z</time>
</trkpt>
<trkpt lat="43.2880871" lon="-3.0288388">
<ele>257.290039</ele>
<time>2011-05-15T15:33:05.000Z</time>
</trkpt>
<trkpt lat="43.2881809" lon="-3.0288236">
<ele>256.809326</ele>
<time>2011-05-15T15:33:09.000Z</time>
</trkpt>
<trkpt lat="43.2884085" lon="-3.0290560">
<ele>256.328735</ele>
<time>2011-05-15T15:33:22.000Z</time>
</trkpt>
<trkpt lat="43.2884310" lon="-3.0291103">
<ele>254.886597</ele>
<time>2011-05-15T15:33:24.000Z</time>
</trkpt>
<trkpt lat="43.2885948" lon="-3.0295224">
<ele>252.963989</ele>
<time>2011-05-15T15:33:38.000Z</time>
</trkpt>
<trkpt lat="43.2886356" lon="-3.0296818">
<ele>252.483398</ele>
<time>2011-05-15T15:33:43.000Z</time>
</trkpt>
<trkpt lat="43.2887116" lon="-3.0302002">
<ele>251.041382</ele>
<time>2011-05-15T15:33:59.000Z</time>
</trkpt>
<trkpt lat="43.2887411" lon="-3.0305777">
<ele>249.118759</ele>
<time>2011-05-15T15:34:11.000Z</time>
</trkpt>
<trkpt lat="43.2888165" lon="-3.0309466">
<ele>248.157593</ele>
<time>2011-05-15T15:34:22.000Z</time>
</trkpt>
<trkpt lat="43.2889957" lon="-3.0310878">
<ele>246.715454</ele>
<time>2011-05-15T15:34:31.000Z</time>
</trkpt>
<trkpt lat="43.2891816" lon="-3.0309109">
<ele>248.157593</ele>
<time>2011-05-15T15:34:41.000Z</time>
</trkpt>
<trkpt lat="43.2892646" lon="-3.0308036">
<ele>246.234863</ele>
<time>2011-05-15T15:34:46.000Z</time>
</trkpt>
<trkpt lat="43.2894014" lon="-3.0306556">
<ele>244.792847</ele>
<time>2011-05-15T15:34:53.000Z</time>
</trkpt>
<trkpt lat="43.2896935" lon="-3.0306731">
<ele>244.792847</ele>
<time>2011-05-15T15:35:04.000Z</time>
</trkpt>
<trkpt lat="43.2898741" lon="-3.0307870">
<ele>242.389648</ele>
<time>2011-05-15T15:35:12.000Z</time>
</trkpt>
<trkpt lat="43.2902154" lon="-3.0310679">
<ele>241.908936</ele>
<time>2011-05-15T15:35:28.000Z</time>
</trkpt>
<trkpt lat="43.2904657" lon="-3.0313366">
<ele>240.467041</ele>
<time>2011-05-15T15:35:41.000Z</time>
</trkpt>
<trkpt lat="43.2904994" lon="-3.0313859">
<ele>239.024902</ele>
<time>2011-05-15T15:35:43.000Z</time>
</trkpt>
<trkpt lat="43.2907382" lon="-3.0317084">
<ele>238.063583</ele>
<time>2011-05-15T15:35:56.000Z</time>
</trkpt>
<trkpt lat="43.2908507" lon="-3.0318555">
<ele>236.140991</ele>
<time>2011-05-15T15:36:02.000Z</time>
</trkpt>
<trkpt lat="43.2910806" lon="-3.0321524">
<ele>236.140991</ele>
<time>2011-05-15T15:36:15.000Z</time>
</trkpt>
<trkpt lat="43.2913288" lon="-3.0324742">
<ele>234.218399</ele>
<time>2011-05-15T15:36:29.000Z</time>
</trkpt>
<trkpt lat="43.2915899" lon="-3.0326741">
<ele>232.295776</ele>
<time>2011-05-15T15:36:41.000Z</time>
</trkpt>
<trkpt lat="43.2917052" lon="-3.0327908">
<ele>231.814941</ele>
<time>2011-05-15T15:36:47.000Z</time>
</trkpt>
<trkpt lat="43.2917255" lon="-3.0328152">
<ele>231.814941</ele>
<time>2011-05-15T15:36:48.000Z</time>
</trkpt>
<trkpt lat="43.2919150" lon="-3.0330695">
<ele>229.411743</ele>
<time>2011-05-15T15:36:59.000Z</time>
</trkpt>
<trkpt lat="43.2921223" lon="-3.0333123">
<ele>228.931168</ele>
<time>2011-05-15T15:37:10.000Z</time>
</trkpt>
<trkpt lat="43.2921703" lon="-3.0333471">
<ele>227.008545</ele>
<time>2011-05-15T15:37:12.000Z</time>
</trkpt>
<trkpt lat="43.2921926" lon="-3.0333666">
<ele>227.008545</ele>
<time>2011-05-15T15:37:13.000Z</time>
</trkpt>
<trkpt lat="43.2923125" lon="-3.0335748">
<ele>226.527832</ele>
<time>2011-05-15T15:37:20.000Z</time>
</trkpt>
<trkpt lat="43.2923872" lon="-3.0337372">
<ele>225.566528</ele>
<time>2011-05-15T15:37:25.000Z</time>
</trkpt>
<trkpt lat="43.2925026" lon="-3.0341268">
<ele>224.605225</ele>
<time>2011-05-15T15:37:37.000Z</time>
</trkpt>
<trkpt lat="43.2924982" lon="-3.0343466">
<ele>223.163208</ele>
<time>2011-05-15T15:37:44.000Z</time>
</trkpt>
<trkpt lat="43.2924684" lon="-3.0346093">
<ele>220.759888</ele>
<time>2011-05-15T15:37:53.000Z</time>
</trkpt>
<trkpt lat="43.2924727" lon="-3.0348144">
<ele>218.837280</ele>
<time>2011-05-15T15:37:59.000Z</time>
</trkpt>
<trkpt lat="43.2924740" lon="-3.0350295">
<ele>218.837280</ele>
<time>2011-05-15T15:38:05.000Z</time>
</trkpt>
<trkpt lat="43.2924481" lon="-3.0353652">
<ele>216.914673</ele>
<time>2011-05-15T15:38:14.000Z</time>
</trkpt>
<trkpt lat="43.2924103" lon="-3.0355720">
<ele>216.433945</ele>
<time>2011-05-15T15:38:20.000Z</time>
</trkpt>
<trkpt lat="43.2923965" lon="-3.0356419">
<ele>217.395386</ele>
<time>2011-05-15T15:38:22.000Z</time>
</trkpt>
<trkpt lat="43.2923705" lon="-3.0358393">
<ele>216.914673</ele>
<time>2011-05-15T15:38:28.000Z</time>
</trkpt>
<trkpt lat="43.2923867" lon="-3.0359345">
<ele>217.395386</ele>
<time>2011-05-15T15:38:31.000Z</time>
</trkpt>
<trkpt lat="43.2924025" lon="-3.0360471">
<ele>214.991943</ele>
<time>2011-05-15T15:38:35.000Z</time>
</trkpt>
<trkpt lat="43.2924268" lon="-3.0362268">
<ele>215.953262</ele>
<time>2011-05-15T15:38:40.000Z</time>
</trkpt>
<trkpt lat="43.2926785" lon="-3.0363613">
<ele>214.991943</ele>
<time>2011-05-15T15:38:51.000Z</time>
</trkpt>
<trkpt lat="43.2927029" lon="-3.0363629">
<ele>214.511215</ele>
<time>2011-05-15T15:38:52.000Z</time>
</trkpt>
<trkpt lat="43.2928551" lon="-3.0363588">
<ele>212.588623</ele>
<time>2011-05-15T15:38:58.000Z</time>
</trkpt>
<trkpt lat="43.2930848" lon="-3.0364324">
<ele>210.666000</ele>
<time>2011-05-15T15:39:08.000Z</time>
</trkpt>
<trkpt lat="43.2931851" lon="-3.0365722">
<ele>209.704834</ele>
<time>2011-05-15T15:39:14.000Z</time>
</trkpt>
<trkpt lat="43.2932563" lon="-3.0370462">
<ele>208.262817</ele>
<time>2011-05-15T15:39:27.000Z</time>
</trkpt>
<trkpt lat="43.2934489" lon="-3.0370926">
<ele>208.262817</ele>
<time>2011-05-15T15:39:35.000Z</time>
</trkpt>
<trkpt lat="43.2935858" lon="-3.0370036">
<ele>209.224121</ele>
<time>2011-05-15T15:39:40.000Z</time>
</trkpt>
<trkpt lat="43.2937851" lon="-3.0368566">
<ele>205.859497</ele>
<time>2011-05-15T15:39:48.000Z</time>
</trkpt>
<trkpt lat="43.2938137" lon="-3.0368440">
<ele>205.378769</ele>
<time>2011-05-15T15:39:49.000Z</time>
</trkpt>
<trkpt lat="43.2939836" lon="-3.0368018">
<ele>203.936890</ele>
<time>2011-05-15T15:39:55.000Z</time>
</trkpt>
<trkpt lat="43.2941310" lon="-3.0367816">
<ele>202.975464</ele>
<time>2011-05-15T15:40:00.000Z</time>
</trkpt>
<trkpt lat="43.2942657" lon="-3.0368477">
<ele>202.014267</ele>
<time>2011-05-15T15:40:05.000Z</time>
</trkpt>
<trkpt lat="43.2943926" lon="-3.0369544">
<ele>200.572266</ele>
<time>2011-05-15T15:40:10.000Z</time>
</trkpt>
<trkpt lat="43.2945079" lon="-3.0372922">
<ele>200.572266</ele>
<time>2011-05-15T15:40:20.000Z</time>
</trkpt>
<trkpt lat="43.2945685" lon="-3.0375788">
<ele>199.610855</ele>
<time>2011-05-15T15:40:29.000Z</time>
</trkpt>
<trkpt lat="43.2946144" lon="-3.0377320">
<ele>198.649536</ele>
<time>2011-05-15T15:40:34.000Z</time>
</trkpt>
<trkpt lat="43.2946449" lon="-3.0380826">
<ele>196.246353</ele>
<time>2011-05-15T15:40:44.000Z</time>
</trkpt>
<trkpt lat="43.2946592" lon="-3.0381807">
<ele>197.207520</ele>
<time>2011-05-15T15:40:47.000Z</time>
</trkpt>
<trkpt lat="43.2947321" lon="-3.0384583">
<ele>196.726929</ele>
<time>2011-05-15T15:40:55.000Z</time>
</trkpt>
<trkpt lat="43.2947588" lon="-3.0385567">
<ele>195.284912</ele>
<time>2011-05-15T15:40:58.000Z</time>
</trkpt>
<trkpt lat="43.2948070" lon="-3.0388085">
<ele>191.920288</ele>
<time>2011-05-15T15:41:04.000Z</time>
</trkpt>
<trkpt lat="43.2948161" lon="-3.0388489">
<ele>192.401123</ele>
<time>2011-05-15T15:41:05.000Z</time>
</trkpt>
<trkpt lat="43.2948279" lon="-3.0388889">
<ele>194.323730</ele>
<time>2011-05-15T15:41:06.000Z</time>
</trkpt>
<trkpt lat="43.2949574" lon="-3.0392591">
<ele>190.478409</ele>
<time>2011-05-15T15:41:15.000Z</time>
</trkpt>
<trkpt lat="43.2950568" lon="-3.0395155">
<ele>190.478409</ele>
<time>2011-05-15T15:41:22.000Z</time>
</trkpt>
<trkpt lat="43.2953401" lon="-3.0395003">
<ele>185.671753</ele>
<time>2011-05-15T15:41:31.000Z</time>
</trkpt>
<trkpt lat="43.2953687" lon="-3.0395010">
<ele>186.152466</ele>
<time>2011-05-15T15:41:32.000Z</time>
</trkpt>
<trkpt lat="43.2956149" lon="-3.0396765">
<ele>183.268448</ele>
<time>2011-05-15T15:41:41.000Z</time>
</trkpt>
<trkpt lat="43.2958741" lon="-3.0397304">
<ele>181.826416</ele>
<time>2011-05-15T15:41:50.000Z</time>
</trkpt>
<trkpt lat="43.2959614" lon="-3.0395947">
<ele>181.345825</ele>
<time>2011-05-15T15:41:54.000Z</time>
</trkpt>
<trkpt lat="43.2962236" lon="-3.0392643">
<ele>177.981186</ele>
<time>2011-05-15T15:42:07.000Z</time>
</trkpt>
<trkpt lat="43.2963390" lon="-3.0391535">
<ele>177.500610</ele>
<time>2011-05-15T15:42:12.000Z</time>
</trkpt>
<trkpt lat="43.2966824" lon="-3.0389312">
<ele>175.097290</ele>
<time>2011-05-15T15:42:25.000Z</time>
</trkpt>
<trkpt lat="43.2967985" lon="-3.0388317">
<ele>172.693954</ele>
<time>2011-05-15T15:42:30.000Z</time>
</trkpt>
<trkpt lat="43.2969259" lon="-3.0388722">
<ele>170.771362</ele>
<time>2011-05-15T15:42:36.000Z</time>
</trkpt>
<trkpt lat="43.2969563" lon="-3.0388854">
<ele>170.771362</ele>
<time>2011-05-15T15:42:39.000Z</time>
</trkpt>
<trkpt lat="43.2969968" lon="-3.0388516">
<ele>167.406723</ele>
<time>2011-05-15T15:42:45.000Z</time>
</trkpt>
<trkpt lat="43.2970060" lon="-3.0388430">
<ele>167.406723</ele>
<time>2011-05-15T15:42:46.000Z</time>
</trkpt>
<trkpt lat="43.2970362" lon="-3.0388145">
<ele>165.484131</ele>
<time>2011-05-15T15:42:49.000Z</time>
</trkpt>
<trkpt lat="43.2970740" lon="-3.0387918">
<ele>164.522705</ele>
<time>2011-05-15T15:42:52.000Z</time>
</trkpt>
<trkpt lat="43.2971060" lon="-3.0387582">
<ele>164.522705</ele>
<time>2011-05-15T15:42:55.000Z</time>
</trkpt>
<trkpt lat="43.2971196" lon="-3.0387013">
<ele>163.080811</ele>
<time>2011-05-15T15:42:58.000Z</time>
</trkpt>
<trkpt lat="43.2971253" lon="-3.0386619">
<ele>161.158203</ele>
<time>2011-05-15T15:43:00.000Z</time>
</trkpt>
<trkpt lat="43.2971346" lon="-3.0385118">
<ele>158.754761</ele>
<time>2011-05-15T15:43:08.000Z</time>
</trkpt>
<trkpt lat="43.2972140" lon="-3.0384871">
<ele>156.351547</ele>
<time>2011-05-15T15:43:14.000Z</time>
</trkpt>
<trkpt lat="43.2972595" lon="-3.0384729">
<ele>153.948364</ele>
<time>2011-05-15T15:43:17.000Z</time>
</trkpt>
<trkpt lat="43.2972888" lon="-3.0384701">
<ele>152.025757</ele>
<time>2011-05-15T15:43:19.000Z</time>
</trkpt>
<trkpt lat="43.2973320" lon="-3.0384599">
<ele>150.583618</ele>
<time>2011-05-15T15:43:22.000Z</time>
</trkpt>
<trkpt lat="43.2974699" lon="-3.0384328">
<ele>147.699707</ele>
<time>2011-05-15T15:43:30.000Z</time>
</trkpt>
<trkpt lat="43.2974874" lon="-3.0384346">
<ele>143.373657</ele>
<time>2011-05-15T15:43:31.000Z</time>
</trkpt>
<trkpt lat="43.2975096" lon="-3.0384410">
<ele>143.373657</ele>
<time>2011-05-15T15:43:32.000Z</time>
</trkpt>
<trkpt lat="43.2976234" lon="-3.0384650">
<ele>139.528442</ele>
<time>2011-05-15T15:43:37.000Z</time>
</trkpt>
<trkpt lat="43.2977366" lon="-3.0385731">
<ele>138.086548</ele>
<time>2011-05-15T15:43:43.000Z</time>
</trkpt>
<trkpt lat="43.2977484" lon="-3.0385925">
<ele>138.567261</ele>
<time>2011-05-15T15:43:44.000Z</time>
</trkpt>
<trkpt lat="43.2977788" lon="-3.0386287">
<ele>136.644653</ele>
<time>2011-05-15T15:43:46.000Z</time>
</trkpt>
<trkpt lat="43.2978655" lon="-3.0387292">
<ele>134.721924</ele>
<time>2011-05-15T15:43:51.000Z</time>
</trkpt>
<trkpt lat="43.2979661" lon="-3.0389463">
<ele>132.318604</ele>
<time>2011-05-15T15:44:00.000Z</time>
</trkpt>
<trkpt lat="43.2979829" lon="-3.0389787">
<ele>132.318604</ele>
<time>2011-05-15T15:44:02.000Z</time>
</trkpt>
<trkpt lat="43.2980178" lon="-3.0390500">
<ele>130.395996</ele>
<time>2011-05-15T15:44:06.000Z</time>
</trkpt>
<trkpt lat="43.2980371" lon="-3.0391576">
<ele>128.954102</ele>
<time>2011-05-15T15:44:12.000Z</time>
</trkpt>
<trkpt lat="43.2980710" lon="-3.0391748">
<ele>127.031372</ele>
<time>2011-05-15T15:44:15.000Z</time>
</trkpt>
<trkpt lat="43.2980791" lon="-3.0391597">
<ele>127.992554</ele>
<time>2011-05-15T15:44:16.000Z</time>
</trkpt>
<trkpt lat="43.2981120" lon="-3.0390483">
<ele>124.147346</ele>
<time>2011-05-15T15:44:22.000Z</time>
</trkpt>
<trkpt lat="43.2981427" lon="-3.0388710">
<ele>124.628052</ele>
<time>2011-05-15T15:44:33.000Z</time>
</trkpt>
<trkpt lat="43.2981364" lon="-3.0388191">
<ele>122.705437</ele>
<time>2011-05-15T15:44:36.000Z</time>
</trkpt>
<trkpt lat="43.2981406" lon="-3.0387878">
<ele>123.666748</ele>
<time>2011-05-15T15:44:38.000Z</time>
</trkpt>
<trkpt lat="43.2981805" lon="-3.0387485">
<ele>122.705437</ele>
<time>2011-05-15T15:44:43.000Z</time>
</trkpt>
<trkpt lat="43.2982281" lon="-3.0387432">
<ele>120.782845</ele>
<time>2011-05-15T15:44:47.000Z</time>
</trkpt>
<trkpt lat="43.2982846" lon="-3.0386549">
<ele>116.937508</ele>
<time>2011-05-15T15:44:55.000Z</time>
</trkpt>
<trkpt lat="43.2983333" lon="-3.0385913">
<ele>114.053589</ele>
<time>2011-05-15T15:45:02.000Z</time>
</trkpt>
<trkpt lat="43.2983771" lon="-3.0385500">
<ele>113.092285</ele>
<time>2011-05-15T15:45:06.000Z</time>
</trkpt>
<trkpt lat="43.2983974" lon="-3.0385200">
<ele>113.092285</ele>
<time>2011-05-15T15:45:08.000Z</time>
</trkpt>
<trkpt lat="43.2984167" lon="-3.0384926">
<ele>112.130981</ele>
<time>2011-05-15T15:45:10.000Z</time>
</trkpt>
<trkpt lat="43.2984474" lon="-3.0384462">
<ele>110.208252</ele>
<time>2011-05-15T15:45:13.000Z</time>
</trkpt>
<trkpt lat="43.2985457" lon="-3.0383569">
<ele>110.208252</ele>
<time>2011-05-15T15:45:22.000Z</time>
</trkpt>
<trkpt lat="43.2986037" lon="-3.0383503">
<ele>107.324341</ele>
<time>2011-05-15T15:45:28.000Z</time>
</trkpt>
<trkpt lat="43.2986167" lon="-3.0383607">
<ele>106.843628</ele>
<time>2011-05-15T15:45:30.000Z</time>
</trkpt>
<trkpt lat="43.2987047" lon="-3.0384437">
<ele>102.998291</ele>
<time>2011-05-15T15:45:43.000Z</time>
</trkpt>
<trkpt lat="43.2987157" lon="-3.0384469">
<ele>102.998291</ele>
<time>2011-05-15T15:45:44.000Z</time>
</trkpt>
<trkpt lat="43.2988188" lon="-3.0385032">
<ele>99.633789</ele>
<time>2011-05-15T15:45:54.000Z</time>
</trkpt>
<trkpt lat="43.2988596" lon="-3.0385262">
<ele>98.191895</ele>
<time>2011-05-15T15:45:58.000Z</time>
</trkpt>
<trkpt lat="43.2989455" lon="-3.0385799">
<ele>94.827148</ele>
<time>2011-05-15T15:46:07.000Z</time>
</trkpt>
<trkpt lat="43.2989768" lon="-3.0386028">
<ele>94.827148</ele>
<time>2011-05-15T15:46:10.000Z</time>
</trkpt>
<trkpt lat="43.2990450" lon="-3.0386555">
<ele>91.462532</ele>
<time>2011-05-15T15:46:16.000Z</time>
</trkpt>
<trkpt lat="43.2990875" lon="-3.0386777">
<ele>90.501343</ele>
<time>2011-05-15T15:46:20.000Z</time>
</trkpt>
<trkpt lat="43.2990935" lon="-3.0386853">
<ele>89.539917</ele>
<time>2011-05-15T15:46:21.000Z</time>
</trkpt>
<trkpt lat="43.2991150" lon="-3.0386862">
<ele>89.059326</ele>
<time>2011-05-15T15:46:23.000Z</time>
</trkpt>
<trkpt lat="43.2991617" lon="-3.0386902">
<ele>87.617195</ele>
<time>2011-05-15T15:46:26.000Z</time>
</trkpt>
<trkpt lat="43.2992208" lon="-3.0386582">
<ele>85.213989</ele>
<time>2011-05-15T15:46:30.000Z</time>
</trkpt>
<trkpt lat="43.2992669" lon="-3.0386390">
<ele>85.694580</ele>
<time>2011-05-15T15:46:33.000Z</time>
</trkpt>
<trkpt lat="43.2993004" lon="-3.0386034">
<ele>84.252693</ele>
<time>2011-05-15T15:46:36.000Z</time>
</trkpt>
<trkpt lat="43.2993595" lon="-3.0385255">
<ele>82.330078</ele>
<time>2011-05-15T15:46:42.000Z</time>
</trkpt>
<trkpt lat="43.2994458" lon="-3.0384203">
<ele>78.965446</ele>
<time>2011-05-15T15:46:50.000Z</time>
</trkpt>
<trkpt lat="43.2994579" lon="-3.0384049">
<ele>79.446045</ele>
<time>2011-05-15T15:46:51.000Z</time>
</trkpt>
<trkpt lat="43.2994968" lon="-3.0383494">
<ele>77.523438</ele>
<time>2011-05-15T15:46:55.000Z</time>
</trkpt>
<trkpt lat="43.2995758" lon="-3.0381738">
<ele>75.600830</ele>
<time>2011-05-15T15:47:03.000Z</time>
</trkpt>
<trkpt lat="43.2996910" lon="-3.0379784">
<ele>72.236206</ele>
<time>2011-05-15T15:47:16.000Z</time>
</trkpt>
<trkpt lat="43.2997639" lon="-3.0378817">
<ele>71.274902</ele>
<time>2011-05-15T15:47:23.000Z</time>
</trkpt>
<trkpt lat="43.2998085" lon="-3.0378085">
<ele>69.832886</ele>
<time>2011-05-15T15:47:28.000Z</time>
</trkpt>
<trkpt lat="43.2998819" lon="-3.0376840">
<ele>66.468262</ele>
<time>2011-05-15T15:47:37.000Z</time>
</trkpt>
<trkpt lat="43.2999187" lon="-3.0376186">
<ele>65.507080</ele>
<time>2011-05-15T15:47:41.000Z</time>
</trkpt>
<trkpt lat="43.2999814" lon="-3.0375472">
<ele>64.065063</ele>
<time>2011-05-15T15:47:48.000Z</time>
</trkpt>
<trkpt lat="43.3000681" lon="-3.0374822">
<ele>61.181030</ele>
<time>2011-05-15T15:47:56.000Z</time>
</trkpt>
<trkpt lat="43.3000790" lon="-3.0374715">
<ele>61.181030</ele>
<time>2011-05-15T15:47:57.000Z</time>
</trkpt>
<trkpt lat="43.3002163" lon="-3.0373682">
<ele>58.297119</ele>
<time>2011-05-15T15:48:07.000Z</time>
</trkpt>
<trkpt lat="43.3003126" lon="-3.0372937">
<ele>54.932373</ele>
<time>2011-05-15T15:48:14.000Z</time>
</trkpt>
<trkpt lat="43.3004666" lon="-3.0371768">
<ele>53.490479</ele>
<time>2011-05-15T15:48:26.000Z</time>
</trkpt>
<trkpt lat="43.3005266" lon="-3.0370814">
<ele>51.087154</ele>
<time>2011-05-15T15:48:32.000Z</time>
</trkpt>
<trkpt lat="43.3005892" lon="-3.0369981">
<ele>50.125977</ele>
<time>2011-05-15T15:48:38.000Z</time>
</trkpt>
<trkpt lat="43.3006939" lon="-3.0369144">
<ele>46.280640</ele>
<time>2011-05-15T15:48:46.000Z</time>
</trkpt>
<trkpt lat="43.3008843" lon="-3.0370506">
<ele>44.838623</ele>
<time>2011-05-15T15:49:01.000Z</time>
</trkpt>
<trkpt lat="43.3009441" lon="-3.0371498">
<ele>41.473999</ele>
<time>2011-05-15T15:49:07.000Z</time>
</trkpt>
<trkpt lat="43.3009814" lon="-3.0372232">
<ele>40.993408</ele>
<time>2011-05-15T15:49:11.000Z</time>
</trkpt>
<trkpt lat="43.3010378" lon="-3.0373213">
<ele>39.070679</ele>
<time>2011-05-15T15:49:17.000Z</time>
</trkpt>
<trkpt lat="43.3011257" lon="-3.0375632">
<ele>35.225464</ele>
<time>2011-05-15T15:49:30.000Z</time>
</trkpt>
<trkpt lat="43.3012015" lon="-3.0377204">
<ele>33.302856</ele>
<time>2011-05-15T15:49:39.000Z</time>
</trkpt>
<trkpt lat="43.3012455" lon="-3.0377631">
<ele>31.380127</ele>
<time>2011-05-15T15:49:42.000Z</time>
</trkpt>
<trkpt lat="43.3014206" lon="-3.0378377">
<ele>31.380127</ele>
<time>2011-05-15T15:49:54.000Z</time>
</trkpt>
<trkpt lat="43.3016081" lon="-3.0378169">
<ele>33.783447</ele>
<time>2011-05-15T15:50:05.000Z</time>
</trkpt>
<trkpt lat="43.3017828" lon="-3.0379870">
<ele>33.302856</ele>
<time>2011-05-15T15:50:20.000Z</time>
</trkpt>
<trkpt lat="43.3018167" lon="-3.0381531">
<ele>31.860718</ele>
<time>2011-05-15T15:50:32.000Z</time>
</trkpt>
<trkpt lat="43.3018921" lon="-3.0383277">
<ele>30.899538</ele>
<time>2011-05-15T15:50:44.000Z</time>
</trkpt>
<trkpt lat="43.3019552" lon="-3.0384724">
<ele>30.899538</ele>
<time>2011-05-15T15:50:53.000Z</time>
</trkpt>
<trkpt lat="43.3020003" lon="-3.0385447">
<ele>28.976929</ele>
<time>2011-05-15T15:50:57.000Z</time>
</trkpt>
<trkpt lat="43.3020995" lon="-3.0386500">
<ele>27.534912</ele>
<time>2011-05-15T15:51:02.000Z</time>
</trkpt>
<trkpt lat="43.3022188" lon="-3.0387157">
<ele>28.976929</ele>
<time>2011-05-15T15:51:09.000Z</time>
</trkpt>
<trkpt lat="43.3023431" lon="-3.0387650">
<ele>30.899538</ele>
<time>2011-05-15T15:51:17.000Z</time>
</trkpt>
<trkpt lat="43.3024058" lon="-3.0388131">
<ele>32.341553</ele>
<time>2011-05-15T15:51:22.000Z</time>
</trkpt>
<trkpt lat="43.3025642" lon="-3.0388165">
<ele>35.225464</ele>
<time>2011-05-15T15:51:34.000Z</time>
</trkpt>
<trkpt lat="43.3026312" lon="-3.0387800">
<ele>36.186768</ele>
<time>2011-05-15T15:51:39.000Z</time>
</trkpt>
<trkpt lat="43.3028157" lon="-3.0386874">
<ele>37.628662</ele>
<time>2011-05-15T15:51:52.000Z</time>
</trkpt>
<trkpt lat="43.3029590" lon="-3.0385873">
<ele>38.109375</ele>
<time>2011-05-15T15:52:03.000Z</time>
</trkpt>
<trkpt lat="43.3030549" lon="-3.0385061">
<ele>39.551270</ele>
<time>2011-05-15T15:52:12.000Z</time>
</trkpt>
<trkpt lat="43.3030891" lon="-3.0384791">
<ele>39.070679</ele>
<time>2011-05-15T15:52:18.000Z</time>
</trkpt>
<trkpt lat="43.3031058" lon="-3.0384719">
<ele>38.590088</ele>
<time>2011-05-15T15:52:20.000Z</time>
</trkpt>
<trkpt lat="43.3032285" lon="-3.0384887">
<ele>40.993408</ele>
<time>2011-05-15T15:52:31.000Z</time>
</trkpt>
<trkpt lat="43.3033167" lon="-3.0386484">
<ele>42.916019</ele>
<time>2011-05-15T15:52:43.000Z</time>
</trkpt>
<trkpt lat="43.3033300" lon="-3.0386882">
<ele>42.916019</ele>
<time>2011-05-15T15:52:45.000Z</time>
</trkpt>
<trkpt lat="43.3033327" lon="-3.0387620">
<ele>43.877316</ele>
<time>2011-05-15T15:52:47.000Z</time>
</trkpt>
<trkpt lat="43.3034081" lon="-3.0388047">
<ele>44.358032</ele>
<time>2011-05-15T15:52:51.000Z</time>
</trkpt>
<trkpt lat="43.3034306" lon="-3.0388110">
<ele>43.877316</ele>
<time>2011-05-15T15:52:52.000Z</time>
</trkpt>
<trkpt lat="43.3035875" lon="-3.0389046">
<ele>45.319214</ele>
<time>2011-05-15T15:53:02.000Z</time>
</trkpt>
<trkpt lat="43.3036938" lon="-3.0391064">
<ele>46.761230</ele>
<time>2011-05-15T15:53:16.000Z</time>
</trkpt>
<trkpt lat="43.3037176" lon="-3.0391937">
<ele>48.203369</ele>
<time>2011-05-15T15:53:21.000Z</time>
</trkpt>
<trkpt lat="43.3037532" lon="-3.0393398">
<ele>48.683960</ele>
<time>2011-05-15T15:53:30.000Z</time>
</trkpt>
<trkpt lat="43.3037730" lon="-3.0393597">
<ele>49.645264</ele>
<time>2011-05-15T15:53:32.000Z</time>
</trkpt>
<trkpt lat="43.3037937" lon="-3.0393881">
<ele>49.164551</ele>
<time>2011-05-15T15:53:34.000Z</time>
</trkpt>
<trkpt lat="43.3039584" lon="-3.0393554">
<ele>49.645264</ele>
<time>2011-05-15T15:53:43.000Z</time>
</trkpt>
<trkpt lat="43.3040888" lon="-3.0393165">
<ele>50.125977</ele>
<time>2011-05-15T15:53:51.000Z</time>
</trkpt>
<trkpt lat="43.3041106" lon="-3.0393053">
<ele>50.606567</ele>
<time>2011-05-15T15:53:52.000Z</time>
</trkpt>
<trkpt lat="43.3044402" lon="-3.0392683">
<ele>50.606567</ele>
<time>2011-05-15T15:54:06.000Z</time>
</trkpt>
<trkpt lat="43.3046269" lon="-3.0391809">
<ele>50.125977</ele>
<time>2011-05-15T15:54:18.000Z</time>
</trkpt>
<trkpt lat="43.3048280" lon="-3.0391089">
<ele>49.164551</ele>
<time>2011-05-15T15:54:31.000Z</time>
</trkpt>
<trkpt lat="43.3050586" lon="-3.0390131">
<ele>47.722534</ele>
<time>2011-05-15T15:54:44.000Z</time>
</trkpt>
<trkpt lat="43.3052012" lon="-3.0389732">
<ele>46.280640</ele>
<time>2011-05-15T15:54:55.000Z</time>
</trkpt>
<trkpt lat="43.3053547" lon="-3.0390142">
<ele>43.396606</ele>
<time>2011-05-15T15:55:09.000Z</time>
</trkpt>
<trkpt lat="43.3053667" lon="-3.0390162">
<ele>43.877316</ele>
<time>2011-05-15T15:55:10.000Z</time>
</trkpt>
<trkpt lat="43.3054616" lon="-3.0392233">
<ele>40.032104</ele>
<time>2011-05-15T15:55:21.000Z</time>
</trkpt>
<trkpt lat="43.3054662" lon="-3.0392430">
<ele>39.551270</ele>
<time>2011-05-15T15:55:22.000Z</time>
</trkpt>
<trkpt lat="43.3054697" lon="-3.0393374">
<ele>39.070679</ele>
<time>2011-05-15T15:55:26.000Z</time>
</trkpt>
<trkpt lat="43.3054904" lon="-3.0394283">
<ele>38.109375</ele>
<time>2011-05-15T15:55:35.000Z</time>
</trkpt>
<trkpt lat="43.3055119" lon="-3.0394777">
<ele>36.667480</ele>
<time>2011-05-15T15:55:39.000Z</time>
</trkpt>
<trkpt lat="43.3055031" lon="-3.0395389">
<ele>35.706055</ele>
<time>2011-05-15T15:55:43.000Z</time>
</trkpt>
<trkpt lat="43.3054870" lon="-3.0396435">
<ele>34.744873</ele>
<time>2011-05-15T15:55:50.000Z</time>
</trkpt>
<trkpt lat="43.3054439" lon="-3.0397854">
<ele>34.264160</ele>
<time>2011-05-15T15:55:59.000Z</time>
</trkpt>
<trkpt lat="43.3054397" lon="-3.0398377">
<ele>33.783447</ele>
<time>2011-05-15T15:56:02.000Z</time>
</trkpt>
<trkpt lat="43.3054363" lon="-3.0399258">
<ele>33.783447</ele>
<time>2011-05-15T15:56:06.000Z</time>
</trkpt>
<trkpt lat="43.3054381" lon="-3.0400465">
<ele>34.744873</ele>
<time>2011-05-15T15:56:11.000Z</time>
</trkpt>
<trkpt lat="43.3055228" lon="-3.0403256">
<ele>33.783447</ele>
<time>2011-05-15T15:56:24.000Z</time>
</trkpt>
<trkpt lat="43.3055308" lon="-3.0403634">
<ele>32.822266</ele>
<time>2011-05-15T15:56:26.000Z</time>
</trkpt>
<trkpt lat="43.3056321" lon="-3.0404840">
<ele>31.860718</ele>
<time>2011-05-15T15:56:37.000Z</time>
</trkpt>
<trkpt lat="43.3056757" lon="-3.0404872">
<ele>30.899538</ele>
<time>2011-05-15T15:56:41.000Z</time>
</trkpt>
<trkpt lat="43.3057415" lon="-3.0405017">
<ele>32.341553</ele>
<time>2011-05-15T15:56:46.000Z</time>
</trkpt>
<trkpt lat="43.3057947" lon="-3.0405552">
<ele>31.380127</ele>
<time>2011-05-15T15:56:50.000Z</time>
</trkpt>
<trkpt lat="43.3059251" lon="-3.0407897">
<ele>32.341553</ele>
<time>2011-05-15T15:56:59.000Z</time>
</trkpt>
<trkpt lat="43.3059480" lon="-3.0407988">
<ele>31.380127</ele>
<time>2011-05-15T15:57:01.000Z</time>
</trkpt>
<trkpt lat="43.3060060" lon="-3.0407178">
<ele>28.496216</ele>
<time>2011-05-15T15:57:12.000Z</time>
</trkpt>
<trkpt lat="43.3061952" lon="-3.0405895">
<ele>29.457521</ele>
<time>2011-05-15T15:57:23.000Z</time>
</trkpt>
<trkpt lat="43.3063916" lon="-3.0403060">
<ele>28.976929</ele>
<time>2011-05-15T15:57:42.000Z</time>
</trkpt>
<trkpt lat="43.3064758" lon="-3.0401251">
<ele>29.457521</ele>
<time>2011-05-15T15:57:52.000Z</time>
</trkpt>
<trkpt lat="43.3066976" lon="-3.0401687">
<ele>29.457521</ele>
<time>2011-05-15T15:58:08.000Z</time>
</trkpt>
<trkpt lat="43.3067256" lon="-3.0401562">
<ele>30.418823</ele>
<time>2011-05-15T15:58:10.000Z</time>
</trkpt>
<trkpt lat="43.3069666" lon="-3.0399786">
<ele>33.302856</ele>
<time>2011-05-15T15:58:29.000Z</time>
</trkpt>
<trkpt lat="43.3070255" lon="-3.0399247">
<ele>33.302856</ele>
<time>2011-05-15T15:58:34.000Z</time>
</trkpt>
<trkpt lat="43.3072902" lon="-3.0397264">
<ele>33.783447</ele>
<time>2011-05-15T15:58:56.000Z</time>
</trkpt>
<trkpt lat="43.3073033" lon="-3.0397257">
<ele>33.783447</ele>
<time>2011-05-15T15:58:57.000Z</time>
</trkpt>
<trkpt lat="43.3073617" lon="-3.0397382">
<ele>34.264160</ele>
<time>2011-05-15T15:59:02.000Z</time>
</trkpt>
<trkpt lat="43.3074166" lon="-3.0397174">
<ele>34.744873</ele>
<time>2011-05-15T15:59:06.000Z</time>
</trkpt>
<trkpt lat="43.3074586" lon="-3.0397119">
<ele>34.264160</ele>
<time>2011-05-15T15:59:09.000Z</time>
</trkpt>
<trkpt lat="43.3076035" lon="-3.0398113">
<ele>36.667480</ele>
<time>2011-05-15T15:59:20.000Z</time>
</trkpt>
<trkpt lat="43.3077367" lon="-3.0398529">
<ele>37.148071</ele>
<time>2011-05-15T15:59:30.000Z</time>
</trkpt>
<trkpt lat="43.3077529" lon="-3.0398731">
<ele>38.590088</ele>
<time>2011-05-15T15:59:32.000Z</time>
</trkpt>
<trkpt lat="43.3079386" lon="-3.0397515">
<ele>40.032104</ele>
<time>2011-05-15T15:59:44.000Z</time>
</trkpt>
<trkpt lat="43.3079553" lon="-3.0397439">
<ele>40.032104</ele>
<time>2011-05-15T15:59:45.000Z</time>
</trkpt>
<trkpt lat="43.3081610" lon="-3.0396186">
<ele>42.435425</ele>
<time>2011-05-15T16:00:00.000Z</time>
</trkpt>
<trkpt lat="43.3082473" lon="-3.0395781">
<ele>42.916019</ele>
<time>2011-05-15T16:00:06.000Z</time>
</trkpt>
<trkpt lat="43.3084607" lon="-3.0394677">
<ele>46.280640</ele>
<time>2011-05-15T16:00:22.000Z</time>
</trkpt>
<trkpt lat="43.3086092" lon="-3.0394379">
<ele>49.645264</ele>
<time>2011-05-15T16:00:33.000Z</time>
</trkpt>
<trkpt lat="43.3086203" lon="-3.0394361">
<ele>49.645264</ele>
<time>2011-05-15T16:00:34.000Z</time>
</trkpt>
<trkpt lat="43.3087119" lon="-3.0394154">
<ele>51.567871</ele>
<time>2011-05-15T16:00:40.000Z</time>
</trkpt>
<trkpt lat="43.3089043" lon="-3.0394301">
<ele>53.490479</ele>
<time>2011-05-15T16:00:54.000Z</time>
</trkpt>
<trkpt lat="43.3089510" lon="-3.0394642">
<ele>54.451782</ele>
<time>2011-05-15T16:00:58.000Z</time>
</trkpt>
<trkpt lat="43.3090043" lon="-3.0395088">
<ele>55.413086</ele>
<time>2011-05-15T16:01:03.000Z</time>
</trkpt>
<trkpt lat="43.3091182" lon="-3.0396051">
<ele>57.816528</ele>
<time>2011-05-15T16:01:13.000Z</time>
</trkpt>
<trkpt lat="43.3091908" lon="-3.0396678">
<ele>59.258427</ele>
<time>2011-05-15T16:01:19.000Z</time>
</trkpt>
<trkpt lat="43.3093250" lon="-3.0397636">
<ele>62.622925</ele>
<time>2011-05-15T16:01:31.000Z</time>
</trkpt>
<trkpt lat="43.3095035" lon="-3.0399355">
<ele>66.468262</ele>
<time>2011-05-15T16:01:46.000Z</time>
</trkpt>
<trkpt lat="43.3097280" lon="-3.0400154">
<ele>68.390869</ele>
<time>2011-05-15T16:02:03.000Z</time>
</trkpt>
<trkpt lat="43.3098588" lon="-3.0398666">
<ele>67.429688</ele>
<time>2011-05-15T16:02:15.000Z</time>
</trkpt>
<trkpt lat="43.3100244" lon="-3.0396332">
<ele>65.987671</ele>
<time>2011-05-15T16:02:30.000Z</time>
</trkpt>
<trkpt lat="43.3101069" lon="-3.0395072">
<ele>66.948975</ele>
<time>2011-05-15T16:02:38.000Z</time>
</trkpt>
<trkpt lat="43.3101584" lon="-3.0393314">
<ele>67.429688</ele>
<time>2011-05-15T16:02:48.000Z</time>
</trkpt>
<trkpt lat="43.3101812" lon="-3.0392177">
<ele>66.948975</ele>
<time>2011-05-15T16:02:54.000Z</time>
</trkpt>
<trkpt lat="43.3101912" lon="-3.0391712">
<ele>66.948975</ele>
<time>2011-05-15T16:02:56.000Z</time>
</trkpt>
<trkpt lat="43.3101640" lon="-3.0390129">
<ele>65.507080</ele>
<time>2011-05-15T16:03:04.000Z</time>
</trkpt>
<trkpt lat="43.3101237" lon="-3.0389084">
<ele>66.948975</ele>
<time>2011-05-15T16:03:10.000Z</time>
</trkpt>
<trkpt lat="43.3101196" lon="-3.0388127">
<ele>65.987671</ele>
<time>2011-05-15T16:03:15.000Z</time>
</trkpt>
<trkpt lat="43.3101262" lon="-3.0387260">
<ele>65.987671</ele>
<time>2011-05-15T16:03:19.000Z</time>
</trkpt>
<trkpt lat="43.3101365" lon="-3.0386007">
<ele>65.987671</ele>
<time>2011-05-15T16:03:25.000Z</time>
</trkpt>
<trkpt lat="43.3101458" lon="-3.0385612">
<ele>65.026367</ele>
<time>2011-05-15T16:03:27.000Z</time>
</trkpt>
<trkpt lat="43.3101490" lon="-3.0385391">
<ele>66.468262</ele>
<time>2011-05-15T16:03:28.000Z</time>
</trkpt>
<trkpt lat="43.3101714" lon="-3.0384320">
<ele>65.026367</ele>
<time>2011-05-15T16:03:33.000Z</time>
</trkpt>
<trkpt lat="43.3103013" lon="-3.0380854">
<ele>65.507080</ele>
<time>2011-05-15T16:03:51.000Z</time>
</trkpt>
<trkpt lat="43.3104237" lon="-3.0377894">
<ele>64.065063</ele>
<time>2011-05-15T16:04:07.000Z</time>
</trkpt>
<trkpt lat="43.3105682" lon="-3.0375895">
<ele>63.584351</ele>
<time>2011-05-15T16:04:19.000Z</time>
</trkpt>
<trkpt lat="43.3107320" lon="-3.0373444">
<ele>63.103638</ele>
<time>2011-05-15T16:04:34.000Z</time>
</trkpt>
<trkpt lat="43.3109469" lon="-3.0370586">
<ele>62.142334</ele>
<time>2011-05-15T16:04:53.000Z</time>
</trkpt>
<trkpt lat="43.3111939" lon="-3.0367819">
<ele>61.181030</ele>
<time>2011-05-15T16:05:12.000Z</time>
</trkpt>
<trkpt lat="43.3112606" lon="-3.0366866">
<ele>57.816528</ele>
<time>2011-05-15T16:05:18.000Z</time>
</trkpt>
<trkpt lat="43.3112709" lon="-3.0366694">
<ele>58.777710</ele>
<time>2011-05-15T16:05:19.000Z</time>
</trkpt>
<trkpt lat="43.3113277" lon="-3.0363966">
<ele>57.816528</ele>
<time>2011-05-15T16:05:32.000Z</time>
</trkpt>
<trkpt lat="43.3112949" lon="-3.0360543">
<ele>56.855103</ele>
<time>2011-05-15T16:05:49.000Z</time>
</trkpt>
<trkpt lat="43.3112526" lon="-3.0356911">
<ele>54.932373</ele>
<time>2011-05-15T16:06:05.000Z</time>
</trkpt>
<trkpt lat="43.3113701" lon="-3.0354039">
<ele>54.932373</ele>
<time>2011-05-15T16:06:22.000Z</time>
</trkpt>
<trkpt lat="43.3114365" lon="-3.0353518">
<ele>55.413086</ele>
<time>2011-05-15T16:06:27.000Z</time>
</trkpt>
<trkpt lat="43.3114955" lon="-3.0350980">
<ele>54.451782</ele>
<time>2011-05-15T16:06:41.000Z</time>
</trkpt>
<trkpt lat="43.3115392" lon="-3.0347305">
<ele>55.413086</ele>
<time>2011-05-15T16:06:58.000Z</time>
</trkpt>
<trkpt lat="43.3115743" lon="-3.0343128">
<ele>56.374512</ele>
<time>2011-05-15T16:07:17.000Z</time>
</trkpt>
<trkpt lat="43.3115249" lon="-3.0339744">
<ele>55.413086</ele>
<time>2011-05-15T16:07:33.000Z</time>
</trkpt>
<trkpt lat="43.3113473" lon="-3.0336646">
<ele>54.932373</ele>
<time>2011-05-15T16:07:50.000Z</time>
</trkpt>
<trkpt lat="43.3110925" lon="-3.0334251">
<ele>53.009766</ele>
<time>2011-05-15T16:08:07.000Z</time>
</trkpt>
<trkpt lat="43.3109163" lon="-3.0332289">
<ele>49.164551</ele>
<time>2011-05-15T16:08:20.000Z</time>
</trkpt>
<trkpt lat="43.3107448" lon="-3.0328772">
<ele>49.164551</ele>
<time>2011-05-15T16:08:39.000Z</time>
</trkpt>
<trkpt lat="43.3108078" lon="-3.0325034">
<ele>48.203369</ele>
<time>2011-05-15T16:08:56.000Z</time>
</trkpt>
<trkpt lat="43.3110438" lon="-3.0322490">
<ele>45.319214</ele>
<time>2011-05-15T16:09:14.000Z</time>
</trkpt>
<trkpt lat="43.3113239" lon="-3.0319900">
<ele>44.358032</ele>
<time>2011-05-15T16:09:33.000Z</time>
</trkpt>
<trkpt lat="43.3115534" lon="-3.0317189">
<ele>42.916019</ele>
<time>2011-05-15T16:09:51.000Z</time>
</trkpt>
<trkpt lat="43.3116758" lon="-3.0315568">
<ele>37.628662</ele>
<time>2011-05-15T16:10:01.000Z</time>
</trkpt>
<trkpt lat="43.3116865" lon="-3.0315395">
<ele>41.954712</ele>
<time>2011-05-15T16:10:02.000Z</time>
</trkpt>
<trkpt lat="43.3118170" lon="-3.0313145">
<ele>41.954712</ele>
<time>2011-05-15T16:10:15.000Z</time>
</trkpt>
<trkpt lat="43.3119808" lon="-3.0309596">
<ele>41.954712</ele>
<time>2011-05-15T16:10:34.000Z</time>
</trkpt>
<trkpt lat="43.3121409" lon="-3.0306025">
<ele>41.954712</ele>
<time>2011-05-15T16:10:53.000Z</time>
</trkpt>
<trkpt lat="43.3122733" lon="-3.0303028">
<ele>41.954712</ele>
<time>2011-05-15T16:11:09.000Z</time>
</trkpt>
<trkpt lat="43.3124048" lon="-3.0300032">
<ele>41.954712</ele>
<time>2011-05-15T16:11:24.000Z</time>
</trkpt>
<trkpt lat="43.3125838" lon="-3.0297099">
<ele>40.993408</ele>
<time>2011-05-15T16:11:41.000Z</time>
</trkpt>
<trkpt lat="43.3127708" lon="-3.0294697">
<ele>41.473999</ele>
<time>2011-05-15T16:11:57.000Z</time>
</trkpt>
<trkpt lat="43.3130203" lon="-3.0291738">
<ele>40.993408</ele>
<time>2011-05-15T16:12:16.000Z</time>
</trkpt>
<trkpt lat="43.3132971" lon="-3.0288469">
<ele>40.032104</ele>
<time>2011-05-15T16:12:37.000Z</time>
</trkpt>
<trkpt lat="43.3135539" lon="-3.0285142">
<ele>40.032104</ele>
<time>2011-05-15T16:12:58.000Z</time>
</trkpt>
<trkpt lat="43.3136814" lon="-3.0281933">
<ele>38.590088</ele>
<time>2011-05-15T16:13:15.000Z</time>
</trkpt>
<trkpt lat="43.3138591" lon="-3.0278728">
<ele>37.148071</ele>
<time>2011-05-15T16:13:32.000Z</time>
</trkpt>
<trkpt lat="43.3139449" lon="-3.0275892">
<ele>37.628662</ele>
<time>2011-05-15T16:13:46.000Z</time>
</trkpt>
<trkpt lat="43.3139575" lon="-3.0275708">
<ele>37.628662</ele>
<time>2011-05-15T16:13:47.000Z</time>
</trkpt>
<trkpt lat="43.3140980" lon="-3.0273667">
<ele>37.628662</ele>
<time>2011-05-15T16:13:59.000Z</time>
</trkpt>
<trkpt lat="43.3142824" lon="-3.0271171">
<ele>40.032104</ele>
<time>2011-05-15T16:14:14.000Z</time>
</trkpt>
<trkpt lat="43.3144479" lon="-3.0269011">
<ele>39.551270</ele>
<time>2011-05-15T16:14:28.000Z</time>
</trkpt>
<trkpt lat="43.3146528" lon="-3.0266264">
<ele>42.435425</ele>
<time>2011-05-15T16:14:47.000Z</time>
</trkpt>
<trkpt lat="43.3148357" lon="-3.0263918">
<ele>44.358032</ele>
<time>2011-05-15T16:15:03.000Z</time>
</trkpt>
<trkpt lat="43.3151712" lon="-3.0259918">
<ele>48.203369</ele>
<time>2011-05-15T16:15:30.000Z</time>
</trkpt>
<trkpt lat="43.3153930" lon="-3.0257152">
<ele>51.087154</ele>
<time>2011-05-15T16:15:49.000Z</time>
</trkpt>
<trkpt lat="43.3154064" lon="-3.0257003">
<ele>50.125977</ele>
<time>2011-05-15T16:15:50.000Z</time>
</trkpt>
<trkpt lat="43.3155728" lon="-3.0254940">
<ele>53.971188</ele>
<time>2011-05-15T16:16:04.000Z</time>
</trkpt>
<trkpt lat="43.3155840" lon="-3.0254790">
<ele>53.971188</ele>
<time>2011-05-15T16:16:05.000Z</time>
</trkpt>
<trkpt lat="43.3157566" lon="-3.0252431">
<ele>54.932373</ele>
<time>2011-05-15T16:16:20.000Z</time>
</trkpt>
<trkpt lat="43.3159577" lon="-3.0249642">
<ele>56.374512</ele>
<time>2011-05-15T16:16:37.000Z</time>
</trkpt>
<trkpt lat="43.3161912" lon="-3.0250020">
<ele>57.335815</ele>
<time>2011-05-15T16:16:52.000Z</time>
</trkpt>
<trkpt lat="43.3162440" lon="-3.0250485">
<ele>58.297119</ele>
<time>2011-05-15T16:16:56.000Z</time>
</trkpt>
<trkpt lat="43.3163445" lon="-3.0251672">
<ele>59.739136</ele>
<time>2011-05-15T16:17:04.000Z</time>
</trkpt>
<trkpt lat="43.3163904" lon="-3.0252314">
<ele>60.219730</ele>
<time>2011-05-15T16:17:08.000Z</time>
</trkpt>
<trkpt lat="43.3165446" lon="-3.0255490">
<ele>63.103638</ele>
<time>2011-05-15T16:17:25.000Z</time>
</trkpt>
<trkpt lat="43.3164932" lon="-3.0257246">
<ele>60.219730</ele>
<time>2011-05-15T16:17:34.000Z</time>
</trkpt>
<trkpt lat="43.3163958" lon="-3.0259447">
<ele>60.700317</ele>
<time>2011-05-15T16:17:46.000Z</time>
</trkpt>
<trkpt lat="43.3162588" lon="-3.0262141">
<ele>61.181030</ele>
<time>2011-05-15T16:18:01.000Z</time>
</trkpt>
<trkpt lat="43.3162659" lon="-3.0263187">
<ele>60.700317</ele>
<time>2011-05-15T16:18:06.000Z</time>
</trkpt>
<trkpt lat="43.3162672" lon="-3.0263768">
<ele>61.181030</ele>
<time>2011-05-15T16:18:08.000Z</time>
</trkpt>
<trkpt lat="43.3162756" lon="-3.0264238">
<ele>60.700317</ele>
<time>2011-05-15T16:18:10.000Z</time>
</trkpt>
<trkpt lat="43.3162119" lon="-3.0266759">
<ele>61.181030</ele>
<time>2011-05-15T16:18:22.000Z</time>
</trkpt>
<trkpt lat="43.3161726" lon="-3.0267751">
<ele>61.181030</ele>
<time>2011-05-15T16:18:28.000Z</time>
</trkpt>
<trkpt lat="43.3161280" lon="-3.0270826">
<ele>62.622925</ele>
<time>2011-05-15T16:18:44.000Z</time>
</trkpt>
<trkpt lat="43.3160788" lon="-3.0271580">
<ele>62.142334</ele>
<time>2011-05-15T16:18:56.000Z</time>
</trkpt>
<trkpt lat="43.3160551" lon="-3.0271833">
<ele>62.142334</ele>
<time>2011-05-15T16:19:12.000Z</time>
</trkpt>
<trkpt lat="43.3160617" lon="-3.0272034">
<ele>62.622925</ele>
<time>2011-05-15T16:19:29.000Z</time>
</trkpt>
<trkpt lat="43.3160594" lon="-3.0272126">
<ele>62.142334</ele>
<time>2011-05-15T16:20:01.000Z</time>
</trkpt>
<trkpt lat="43.3160498" lon="-3.0272009">
<ele>62.142334</ele>
<time>2011-05-15T16:20:39.000Z</time>
</trkpt>
<trkpt lat="43.3160516" lon="-3.0271862">
<ele>62.142334</ele>
<time>2011-05-15T16:21:04.000Z</time>
</trkpt>
<trkpt lat="43.3160808" lon="-3.0271684">
<ele>62.142334</ele>
<time>2011-05-15T16:21:15.000Z</time>
</trkpt>
<trkpt lat="43.3160775" lon="-3.0271743">
<ele>61.661743</ele>
<time>2011-05-15T16:21:40.000Z</time>
</trkpt>
<trkpt lat="43.3160806" lon="-3.0271879">
<ele>58.777710</ele>
<time>2011-05-15T16:22:22.000Z</time>
</trkpt>
<trkpt lat="43.3160803" lon="-3.0271875">
<ele>58.297119</ele>
<time>2011-05-15T16:22:23.000Z</time>
</trkpt>
<trkpt lat="43.3160803" lon="-3.0271879">
<ele>54.451782</ele>
<time>2011-05-15T16:22:34.000Z</time>
</trkpt>
<trkpt lat="43.3160803" lon="-3.0271879">
<ele>55.413086</ele>
<time>2011-05-15T16:22:35.000Z</time>
</trkpt>
<trkpt lat="43.3160803" lon="-3.0271878">
<ele>61.181030</ele>
<time>2011-05-15T16:22:40.000Z</time>
</trkpt>
<trkpt lat="43.3160798" lon="-3.0271881">
<ele>57.335815</ele>
<time>2011-05-15T16:22:45.000Z</time>
</trkpt>
<trkpt lat="43.3160797" lon="-3.0271885">
<ele>59.258427</ele>
<time>2011-05-15T16:22:46.000Z</time>
</trkpt>
<trkpt lat="43.3160788" lon="-3.0271901">
<ele>60.700317</ele>
<time>2011-05-15T16:22:53.000Z</time>
</trkpt>
<trkpt lat="43.3160773" lon="-3.0271922">
<ele>64.065063</ele>
<time>2011-05-15T16:23:06.000Z</time>
</trkpt>
<trkpt lat="43.3160772" lon="-3.0271922">
<ele>63.584351</ele>
<time>2011-05-15T16:23:07.000Z</time>
</trkpt>
<trkpt lat="43.3160835" lon="-3.0271821">
<ele>57.816528</ele>
<time>2011-05-15T16:23:21.000Z</time>
</trkpt>
<trkpt lat="43.3160838" lon="-3.0271808">
<ele>59.739136</ele>
<time>2011-05-15T16:23:22.000Z</time>
</trkpt>
<trkpt lat="43.3160815" lon="-3.0271802">
<ele>61.661743</ele>
<time>2011-05-15T16:23:31.000Z</time>
</trkpt>
<trkpt lat="43.3160777" lon="-3.0271857">
<ele>58.297119</ele>
<time>2011-05-15T16:24:24.000Z</time>
</trkpt>
<trkpt lat="43.3160808" lon="-3.0271886">
<ele>61.181030</ele>
<time>2011-05-15T16:24:32.000Z</time>
</trkpt>
<trkpt lat="43.3160808" lon="-3.0271836">
<ele>57.816528</ele>
<time>2011-05-15T16:25:32.000Z</time>
</trkpt>
<trkpt lat="43.3160860" lon="-3.0271859">
<ele>61.661743</ele>
<time>2011-05-15T16:25:59.000Z</time>
</trkpt>
<trkpt lat="43.3160871" lon="-3.0271859">
<ele>61.661743</ele>
<time>2011-05-15T16:26:00.000Z</time>
</trkpt>
<trkpt lat="43.3160954" lon="-3.0271881">
<ele>55.413086</ele>
<time>2011-05-15T16:26:10.000Z</time>
</trkpt>
</trkseg>
</trk>
</gpx>
